<?xml version="1.0" encoding="UTF-8" standalone="no" ?>
<gpx xmlns="http://www.topografix.com/GPX/1/1" xmlns:xsi="http://www.w3.org/2001/XMLSchema-instance" xsi:schemaLocation="http://www.topografix.com/GPX/1/1 http://www.topografix.com/GPX/1/1/gpx.xsd" version="1.1" creator="VisuGPX - https://www.visugpx.com">
  <metadata>
    <name>SE-NE-La Filée Vertou Loroux Bottereau Thouaré Nantes</name>
    <desc><![CDATA[SE-NE-La Filée Vertou Loroux Bottereau Thouaré Nantes]]></desc>
  </metadata>
  <trk>
    <name><![CDATA[2020-12-16 10:06 +01:00]]></name>
    <trkseg>
      <trkpt lat="47.16787" lon="-1.62644">
        <ele>96</ele>
        <time>2020-12-16T09:06:07.420Z</time>
      </trkpt>
      <trkpt lat="47.16779" lon="-1.62654">
        <ele>62</ele>
        <time>2020-12-16T09:06:46.000Z</time>
      </trkpt>
      <trkpt lat="47.16795" lon="-1.6264">
        <ele>71</ele>
        <time>2020-12-16T09:08:21.000Z</time>
      </trkpt>
      <trkpt lat="47.16802" lon="-1.62629">
        <ele>71</ele>
        <time>2020-12-16T09:08:23.000Z</time>
      </trkpt>
      <trkpt lat="47.1681" lon="-1.62618">
        <ele>70</ele>
        <time>2020-12-16T09:08:25.000Z</time>
      </trkpt>
      <trkpt lat="47.16817" lon="-1.62605">
        <ele>70</ele>
        <time>2020-12-16T09:08:27.000Z</time>
      </trkpt>
      <trkpt lat="47.16833" lon="-1.62579">
        <ele>68</ele>
        <time>2020-12-16T09:08:31.000Z</time>
      </trkpt>
      <trkpt lat="47.16828" lon="-1.62565">
        <ele>68</ele>
        <time>2020-12-16T09:08:33.000Z</time>
      </trkpt>
      <trkpt lat="47.16816" lon="-1.62555">
        <ele>69</ele>
        <time>2020-12-16T09:08:35.000Z</time>
      </trkpt>
      <trkpt lat="47.16805" lon="-1.62545">
        <ele>70</ele>
        <time>2020-12-16T09:08:37.000Z</time>
      </trkpt>
      <trkpt lat="47.16794" lon="-1.62538">
        <ele>70</ele>
        <time>2020-12-16T09:08:39.000Z</time>
      </trkpt>
      <trkpt lat="47.16783" lon="-1.62531">
        <ele>70</ele>
        <time>2020-12-16T09:08:41.000Z</time>
      </trkpt>
      <trkpt lat="47.16771" lon="-1.62523">
        <ele>71</ele>
        <time>2020-12-16T09:08:43.000Z</time>
      </trkpt>
      <trkpt lat="47.1676" lon="-1.62517">
        <ele>71</ele>
        <time>2020-12-16T09:08:45.000Z</time>
      </trkpt>
      <trkpt lat="47.16749" lon="-1.62511">
        <ele>70</ele>
        <time>2020-12-16T09:08:47.000Z</time>
      </trkpt>
      <trkpt lat="47.16737" lon="-1.62507">
        <ele>70</ele>
        <time>2020-12-16T09:08:49.000Z</time>
      </trkpt>
      <trkpt lat="47.16726" lon="-1.62501">
        <ele>71</ele>
        <time>2020-12-16T09:08:51.000Z</time>
      </trkpt>
      <trkpt lat="47.16717" lon="-1.62496">
        <ele>70</ele>
        <time>2020-12-16T09:08:53.000Z</time>
      </trkpt>
      <trkpt lat="47.16715" lon="-1.62479">
        <ele>68</ele>
        <time>2020-12-16T09:08:55.000Z</time>
      </trkpt>
      <trkpt lat="47.16715" lon="-1.62462">
        <ele>67</ele>
        <time>2020-12-16T09:08:57.000Z</time>
      </trkpt>
      <trkpt lat="47.16716" lon="-1.62444">
        <ele>67</ele>
        <time>2020-12-16T09:08:59.000Z</time>
      </trkpt>
      <trkpt lat="47.16719" lon="-1.62424">
        <ele>64</ele>
        <time>2020-12-16T09:09:01.000Z</time>
      </trkpt>
      <trkpt lat="47.16725" lon="-1.62404">
        <ele>60</ele>
        <time>2020-12-16T09:09:03.000Z</time>
      </trkpt>
      <trkpt lat="47.1673" lon="-1.62388">
        <ele>61</ele>
        <time>2020-12-16T09:09:05.000Z</time>
      </trkpt>
      <trkpt lat="47.16737" lon="-1.62371">
        <ele>64</ele>
        <time>2020-12-16T09:09:07.000Z</time>
      </trkpt>
      <trkpt lat="47.16753" lon="-1.62353">
        <ele>67</ele>
        <time>2020-12-16T09:09:10.000Z</time>
      </trkpt>
      <trkpt lat="47.16765" lon="-1.62343">
        <ele>69</ele>
        <time>2020-12-16T09:09:12.000Z</time>
      </trkpt>
      <trkpt lat="47.16777" lon="-1.62335">
        <ele>69</ele>
        <time>2020-12-16T09:09:14.000Z</time>
      </trkpt>
      <trkpt lat="47.1679" lon="-1.62328">
        <ele>70</ele>
        <time>2020-12-16T09:09:16.000Z</time>
      </trkpt>
      <trkpt lat="47.16802" lon="-1.62321">
        <ele>70</ele>
        <time>2020-12-16T09:09:18.000Z</time>
      </trkpt>
      <trkpt lat="47.16814" lon="-1.62313">
        <ele>71</ele>
        <time>2020-12-16T09:09:20.000Z</time>
      </trkpt>
      <trkpt lat="47.16825" lon="-1.62304">
        <ele>71</ele>
        <time>2020-12-16T09:09:22.000Z</time>
      </trkpt>
      <trkpt lat="47.16836" lon="-1.62293">
        <ele>71</ele>
        <time>2020-12-16T09:09:24.000Z</time>
      </trkpt>
      <trkpt lat="47.16847" lon="-1.6228">
        <ele>72</ele>
        <time>2020-12-16T09:09:26.000Z</time>
      </trkpt>
      <trkpt lat="47.16857" lon="-1.62266">
        <ele>72</ele>
        <time>2020-12-16T09:09:28.000Z</time>
      </trkpt>
      <trkpt lat="47.16872" lon="-1.62246">
        <ele>71</ele>
        <time>2020-12-16T09:09:31.000Z</time>
      </trkpt>
      <trkpt lat="47.16883" lon="-1.62234">
        <ele>71</ele>
        <time>2020-12-16T09:09:33.000Z</time>
      </trkpt>
      <trkpt lat="47.16894" lon="-1.62222">
        <ele>72</ele>
        <time>2020-12-16T09:09:35.000Z</time>
      </trkpt>
      <trkpt lat="47.16903" lon="-1.62207">
        <ele>72</ele>
        <time>2020-12-16T09:09:37.000Z</time>
      </trkpt>
      <trkpt lat="47.16917" lon="-1.62183">
        <ele>72</ele>
        <time>2020-12-16T09:09:40.000Z</time>
      </trkpt>
      <trkpt lat="47.16926" lon="-1.62167">
        <ele>72</ele>
        <time>2020-12-16T09:09:42.000Z</time>
      </trkpt>
      <trkpt lat="47.16934" lon="-1.6215">
        <ele>72</ele>
        <time>2020-12-16T09:09:44.000Z</time>
      </trkpt>
      <trkpt lat="47.16947" lon="-1.62126">
        <ele>71</ele>
        <time>2020-12-16T09:09:47.000Z</time>
      </trkpt>
      <trkpt lat="47.16956" lon="-1.6211">
        <ele>71</ele>
        <time>2020-12-16T09:09:49.000Z</time>
      </trkpt>
      <trkpt lat="47.16964" lon="-1.62093">
        <ele>70</ele>
        <time>2020-12-16T09:09:51.000Z</time>
      </trkpt>
      <trkpt lat="47.16976" lon="-1.62069">
        <ele>70</ele>
        <time>2020-12-16T09:09:54.000Z</time>
      </trkpt>
      <trkpt lat="47.16985" lon="-1.62053">
        <ele>70</ele>
        <time>2020-12-16T09:09:56.000Z</time>
      </trkpt>
      <trkpt lat="47.16994" lon="-1.62038">
        <ele>70</ele>
        <time>2020-12-16T09:09:58.000Z</time>
      </trkpt>
      <trkpt lat="47.17003" lon="-1.62023">
        <ele>71</ele>
        <time>2020-12-16T09:10:00.000Z</time>
      </trkpt>
      <trkpt lat="47.17013" lon="-1.62009">
        <ele>71</ele>
        <time>2020-12-16T09:10:02.000Z</time>
      </trkpt>
      <trkpt lat="47.17023" lon="-1.61995">
        <ele>71</ele>
        <time>2020-12-16T09:10:04.000Z</time>
      </trkpt>
      <trkpt lat="47.17033" lon="-1.6198">
        <ele>71</ele>
        <time>2020-12-16T09:10:06.000Z</time>
      </trkpt>
      <trkpt lat="47.17042" lon="-1.61967">
        <ele>71</ele>
        <time>2020-12-16T09:10:08.000Z</time>
      </trkpt>
      <trkpt lat="47.17052" lon="-1.61953">
        <ele>71</ele>
        <time>2020-12-16T09:10:10.000Z</time>
      </trkpt>
      <trkpt lat="47.17063" lon="-1.61941">
        <ele>70</ele>
        <time>2020-12-16T09:10:12.000Z</time>
      </trkpt>
      <trkpt lat="47.17078" lon="-1.61922">
        <ele>70</ele>
        <time>2020-12-16T09:10:15.000Z</time>
      </trkpt>
      <trkpt lat="47.17089" lon="-1.61911">
        <ele>70</ele>
        <time>2020-12-16T09:10:17.000Z</time>
      </trkpt>
      <trkpt lat="47.171" lon="-1.61901">
        <ele>71</ele>
        <time>2020-12-16T09:10:19.000Z</time>
      </trkpt>
      <trkpt lat="47.17111" lon="-1.6189">
        <ele>71</ele>
        <time>2020-12-16T09:10:21.000Z</time>
      </trkpt>
      <trkpt lat="47.17128" lon="-1.61874">
        <ele>70</ele>
        <time>2020-12-16T09:10:24.000Z</time>
      </trkpt>
      <trkpt lat="47.17139" lon="-1.61864">
        <ele>70</ele>
        <time>2020-12-16T09:10:26.000Z</time>
      </trkpt>
      <trkpt lat="47.1715" lon="-1.61853">
        <ele>70</ele>
        <time>2020-12-16T09:10:28.000Z</time>
      </trkpt>
      <trkpt lat="47.17167" lon="-1.61838">
        <ele>70</ele>
        <time>2020-12-16T09:10:31.000Z</time>
      </trkpt>
      <trkpt lat="47.17178" lon="-1.61827">
        <ele>70</ele>
        <time>2020-12-16T09:10:33.000Z</time>
      </trkpt>
      <trkpt lat="47.17189" lon="-1.61816">
        <ele>70</ele>
        <time>2020-12-16T09:10:35.000Z</time>
      </trkpt>
      <trkpt lat="47.17201" lon="-1.61806">
        <ele>70</ele>
        <time>2020-12-16T09:10:37.000Z</time>
      </trkpt>
      <trkpt lat="47.17216" lon="-1.61787">
        <ele>70</ele>
        <time>2020-12-16T09:10:40.000Z</time>
      </trkpt>
      <trkpt lat="47.17224" lon="-1.61761">
        <ele>69</ele>
        <time>2020-12-16T09:10:43.000Z</time>
      </trkpt>
      <trkpt lat="47.17237" lon="-1.61739">
        <ele>70</ele>
        <time>2020-12-16T09:10:46.000Z</time>
      </trkpt>
      <trkpt lat="47.1725" lon="-1.61716">
        <ele>68</ele>
        <time>2020-12-16T09:10:49.000Z</time>
      </trkpt>
      <trkpt lat="47.17258" lon="-1.61699">
        <ele>71</ele>
        <time>2020-12-16T09:10:51.000Z</time>
      </trkpt>
      <trkpt lat="47.17267" lon="-1.61684">
        <ele>71</ele>
        <time>2020-12-16T09:10:53.000Z</time>
      </trkpt>
      <trkpt lat="47.17274" lon="-1.61667">
        <ele>71</ele>
        <time>2020-12-16T09:10:55.000Z</time>
      </trkpt>
      <trkpt lat="47.17282" lon="-1.61651">
        <ele>72</ele>
        <time>2020-12-16T09:10:57.000Z</time>
      </trkpt>
      <trkpt lat="47.1729" lon="-1.61637">
        <ele>72</ele>
        <time>2020-12-16T09:10:59.000Z</time>
      </trkpt>
      <trkpt lat="47.173" lon="-1.61621">
        <ele>72</ele>
        <time>2020-12-16T09:11:01.000Z</time>
      </trkpt>
      <trkpt lat="47.17309" lon="-1.61608">
        <ele>73</ele>
        <time>2020-12-16T09:11:03.000Z</time>
      </trkpt>
      <trkpt lat="47.17317" lon="-1.61596">
        <ele>72</ele>
        <time>2020-12-16T09:11:05.000Z</time>
      </trkpt>
      <trkpt lat="47.17331" lon="-1.61577">
        <ele>72</ele>
        <time>2020-12-16T09:11:08.000Z</time>
      </trkpt>
      <trkpt lat="47.17341" lon="-1.61566">
        <ele>72</ele>
        <time>2020-12-16T09:11:10.000Z</time>
      </trkpt>
      <trkpt lat="47.17351" lon="-1.61555">
        <ele>73</ele>
        <time>2020-12-16T09:11:12.000Z</time>
      </trkpt>
      <trkpt lat="47.17361" lon="-1.61543">
        <ele>73</ele>
        <time>2020-12-16T09:11:14.000Z</time>
      </trkpt>
      <trkpt lat="47.17372" lon="-1.61533">
        <ele>72</ele>
        <time>2020-12-16T09:11:16.000Z</time>
      </trkpt>
      <trkpt lat="47.1739" lon="-1.61517">
        <ele>69</ele>
        <time>2020-12-16T09:11:19.000Z</time>
      </trkpt>
      <trkpt lat="47.17408" lon="-1.61504">
        <ele>69</ele>
        <time>2020-12-16T09:11:22.000Z</time>
      </trkpt>
      <trkpt lat="47.17426" lon="-1.6149">
        <ele>70</ele>
        <time>2020-12-16T09:11:25.000Z</time>
      </trkpt>
      <trkpt lat="47.17446" lon="-1.61477">
        <ele>69</ele>
        <time>2020-12-16T09:11:28.000Z</time>
      </trkpt>
      <trkpt lat="47.17467" lon="-1.61467">
        <ele>68</ele>
        <time>2020-12-16T09:11:31.000Z</time>
      </trkpt>
      <trkpt lat="47.17487" lon="-1.61458">
        <ele>68</ele>
        <time>2020-12-16T09:11:34.000Z</time>
      </trkpt>
      <trkpt lat="47.17499" lon="-1.61454">
        <ele>67</ele>
        <time>2020-12-16T09:11:36.000Z</time>
      </trkpt>
      <trkpt lat="47.17507" lon="-1.61447">
        <ele>66</ele>
        <time>2020-12-16T09:11:38.000Z</time>
      </trkpt>
      <trkpt lat="47.17512" lon="-1.61434">
        <ele>65</ele>
        <time>2020-12-16T09:11:40.000Z</time>
      </trkpt>
      <trkpt lat="47.17516" lon="-1.61414">
        <ele>64</ele>
        <time>2020-12-16T09:11:42.000Z</time>
      </trkpt>
      <trkpt lat="47.1752" lon="-1.61394">
        <ele>63</ele>
        <time>2020-12-16T09:11:44.000Z</time>
      </trkpt>
      <trkpt lat="47.17526" lon="-1.61374">
        <ele>62</ele>
        <time>2020-12-16T09:11:46.000Z</time>
      </trkpt>
      <trkpt lat="47.17528" lon="-1.61355">
        <ele>62</ele>
        <time>2020-12-16T09:11:48.000Z</time>
      </trkpt>
      <trkpt lat="47.17525" lon="-1.61337">
        <ele>62</ele>
        <time>2020-12-16T09:11:50.000Z</time>
      </trkpt>
      <trkpt lat="47.17521" lon="-1.6132">
        <ele>62</ele>
        <time>2020-12-16T09:11:52.000Z</time>
      </trkpt>
      <trkpt lat="47.17518" lon="-1.61291">
        <ele>63</ele>
        <time>2020-12-16T09:11:55.000Z</time>
      </trkpt>
      <trkpt lat="47.17505" lon="-1.61267">
        <ele>62</ele>
        <time>2020-12-16T09:11:58.000Z</time>
      </trkpt>
      <trkpt lat="47.17496" lon="-1.61253">
        <ele>61</ele>
        <time>2020-12-16T09:12:00.000Z</time>
      </trkpt>
      <trkpt lat="47.1749" lon="-1.61237">
        <ele>61</ele>
        <time>2020-12-16T09:12:02.000Z</time>
      </trkpt>
      <trkpt lat="47.17481" lon="-1.61211">
        <ele>60</ele>
        <time>2020-12-16T09:12:05.000Z</time>
      </trkpt>
      <trkpt lat="47.1747" lon="-1.61183">
        <ele>58</ele>
        <time>2020-12-16T09:12:08.000Z</time>
      </trkpt>
      <trkpt lat="47.1746" lon="-1.61157">
        <ele>59</ele>
        <time>2020-12-16T09:12:11.000Z</time>
      </trkpt>
      <trkpt lat="47.17451" lon="-1.61132">
        <ele>59</ele>
        <time>2020-12-16T09:12:14.000Z</time>
      </trkpt>
      <trkpt lat="47.17444" lon="-1.61116">
        <ele>59</ele>
        <time>2020-12-16T09:12:16.000Z</time>
      </trkpt>
      <trkpt lat="47.17437" lon="-1.61097">
        <ele>58</ele>
        <time>2020-12-16T09:12:18.000Z</time>
      </trkpt>
      <trkpt lat="47.17429" lon="-1.61078">
        <ele>58</ele>
        <time>2020-12-16T09:12:20.000Z</time>
      </trkpt>
      <trkpt lat="47.17422" lon="-1.61061">
        <ele>57</ele>
        <time>2020-12-16T09:12:22.000Z</time>
      </trkpt>
      <trkpt lat="47.17416" lon="-1.61046">
        <ele>55</ele>
        <time>2020-12-16T09:12:24.000Z</time>
      </trkpt>
      <trkpt lat="47.1741" lon="-1.61033">
        <ele>54</ele>
        <time>2020-12-16T09:12:27.000Z</time>
      </trkpt>
      <trkpt lat="47.174" lon="-1.61027">
        <ele>55</ele>
        <time>2020-12-16T09:12:31.000Z</time>
      </trkpt>
      <trkpt lat="47.17388" lon="-1.61017">
        <ele>56</ele>
        <time>2020-12-16T09:12:34.000Z</time>
      </trkpt>
      <trkpt lat="47.17385" lon="-1.61001">
        <ele>56</ele>
        <time>2020-12-16T09:12:36.000Z</time>
      </trkpt>
      <trkpt lat="47.17388" lon="-1.60982">
        <ele>55</ele>
        <time>2020-12-16T09:12:38.000Z</time>
      </trkpt>
      <trkpt lat="47.17391" lon="-1.60962">
        <ele>55</ele>
        <time>2020-12-16T09:12:40.000Z</time>
      </trkpt>
      <trkpt lat="47.17391" lon="-1.60941">
        <ele>55</ele>
        <time>2020-12-16T09:12:42.000Z</time>
      </trkpt>
      <trkpt lat="47.17391" lon="-1.60921">
        <ele>54</ele>
        <time>2020-12-16T09:12:44.000Z</time>
      </trkpt>
      <trkpt lat="47.17389" lon="-1.609">
        <ele>55</ele>
        <time>2020-12-16T09:12:46.000Z</time>
      </trkpt>
      <trkpt lat="47.17387" lon="-1.60879">
        <ele>54</ele>
        <time>2020-12-16T09:12:48.000Z</time>
      </trkpt>
      <trkpt lat="47.17389" lon="-1.60862">
        <ele>55</ele>
        <time>2020-12-16T09:12:50.000Z</time>
      </trkpt>
      <trkpt lat="47.17392" lon="-1.60842">
        <ele>57</ele>
        <time>2020-12-16T09:12:52.000Z</time>
      </trkpt>
      <trkpt lat="47.17397" lon="-1.60823">
        <ele>58</ele>
        <time>2020-12-16T09:12:54.000Z</time>
      </trkpt>
      <trkpt lat="47.17401" lon="-1.60805">
        <ele>58</ele>
        <time>2020-12-16T09:12:56.000Z</time>
      </trkpt>
      <trkpt lat="47.17406" lon="-1.60788">
        <ele>59</ele>
        <time>2020-12-16T09:12:58.000Z</time>
      </trkpt>
      <trkpt lat="47.17411" lon="-1.6077">
        <ele>59</ele>
        <time>2020-12-16T09:13:00.000Z</time>
      </trkpt>
      <trkpt lat="47.17419" lon="-1.60753">
        <ele>60</ele>
        <time>2020-12-16T09:13:02.000Z</time>
      </trkpt>
      <trkpt lat="47.17426" lon="-1.60738">
        <ele>60</ele>
        <time>2020-12-16T09:13:04.000Z</time>
      </trkpt>
      <trkpt lat="47.17434" lon="-1.60723">
        <ele>61</ele>
        <time>2020-12-16T09:13:06.000Z</time>
      </trkpt>
      <trkpt lat="47.17447" lon="-1.60701">
        <ele>61</ele>
        <time>2020-12-16T09:13:09.000Z</time>
      </trkpt>
      <trkpt lat="47.17456" lon="-1.60686">
        <ele>62</ele>
        <time>2020-12-16T09:13:11.000Z</time>
      </trkpt>
      <trkpt lat="47.17464" lon="-1.60672">
        <ele>63</ele>
        <time>2020-12-16T09:13:13.000Z</time>
      </trkpt>
      <trkpt lat="47.17477" lon="-1.60649">
        <ele>63</ele>
        <time>2020-12-16T09:13:16.000Z</time>
      </trkpt>
      <trkpt lat="47.17489" lon="-1.60627">
        <ele>63</ele>
        <time>2020-12-16T09:13:19.000Z</time>
      </trkpt>
      <trkpt lat="47.17504" lon="-1.60598">
        <ele>67</ele>
        <time>2020-12-16T09:13:23.000Z</time>
      </trkpt>
      <trkpt lat="47.17512" lon="-1.60586">
        <ele>66</ele>
        <time>2020-12-16T09:13:25.000Z</time>
      </trkpt>
      <trkpt lat="47.17526" lon="-1.60566">
        <ele>66</ele>
        <time>2020-12-16T09:13:28.000Z</time>
      </trkpt>
      <trkpt lat="47.17534" lon="-1.6055">
        <ele>68</ele>
        <time>2020-12-16T09:13:30.000Z</time>
      </trkpt>
      <trkpt lat="47.17546" lon="-1.60536">
        <ele>68</ele>
        <time>2020-12-16T09:13:32.000Z</time>
      </trkpt>
      <trkpt lat="47.17553" lon="-1.60521">
        <ele>68</ele>
        <time>2020-12-16T09:13:34.000Z</time>
      </trkpt>
      <trkpt lat="47.17561" lon="-1.60507">
        <ele>68</ele>
        <time>2020-12-16T09:13:36.000Z</time>
      </trkpt>
      <trkpt lat="47.1757" lon="-1.60493">
        <ele>67</ele>
        <time>2020-12-16T09:13:38.000Z</time>
      </trkpt>
      <trkpt lat="47.17579" lon="-1.60479">
        <ele>67</ele>
        <time>2020-12-16T09:13:40.000Z</time>
      </trkpt>
      <trkpt lat="47.17588" lon="-1.60465">
        <ele>67</ele>
        <time>2020-12-16T09:13:42.000Z</time>
      </trkpt>
      <trkpt lat="47.17596" lon="-1.60451">
        <ele>67</ele>
        <time>2020-12-16T09:13:44.000Z</time>
      </trkpt>
      <trkpt lat="47.17606" lon="-1.60436">
        <ele>66</ele>
        <time>2020-12-16T09:13:46.000Z</time>
      </trkpt>
      <trkpt lat="47.17612" lon="-1.60423">
        <ele>65</ele>
        <time>2020-12-16T09:13:48.000Z</time>
      </trkpt>
      <trkpt lat="47.17609" lon="-1.60409">
        <ele>65</ele>
        <time>2020-12-16T09:13:50.000Z</time>
      </trkpt>
      <trkpt lat="47.17602" lon="-1.60397">
        <ele>63</ele>
        <time>2020-12-16T09:13:52.000Z</time>
      </trkpt>
      <trkpt lat="47.17588" lon="-1.60389">
        <ele>63</ele>
        <time>2020-12-16T09:13:55.000Z</time>
      </trkpt>
      <trkpt lat="47.17578" lon="-1.60385">
        <ele>65</ele>
        <time>2020-12-16T09:13:57.000Z</time>
      </trkpt>
      <trkpt lat="47.17562" lon="-1.60375">
        <ele>64</ele>
        <time>2020-12-16T09:14:00.000Z</time>
      </trkpt>
      <trkpt lat="47.17548" lon="-1.60364">
        <ele>64</ele>
        <time>2020-12-16T09:14:03.000Z</time>
      </trkpt>
      <trkpt lat="47.17539" lon="-1.60357">
        <ele>67</ele>
        <time>2020-12-16T09:14:05.000Z</time>
      </trkpt>
      <trkpt lat="47.17528" lon="-1.60349">
        <ele>67</ele>
        <time>2020-12-16T09:14:07.000Z</time>
      </trkpt>
      <trkpt lat="47.17519" lon="-1.6034">
        <ele>67</ele>
        <time>2020-12-16T09:14:09.000Z</time>
      </trkpt>
      <trkpt lat="47.1751" lon="-1.60334">
        <ele>68</ele>
        <time>2020-12-16T09:14:11.000Z</time>
      </trkpt>
      <trkpt lat="47.175" lon="-1.60328">
        <ele>69</ele>
        <time>2020-12-16T09:14:13.000Z</time>
      </trkpt>
      <trkpt lat="47.1749" lon="-1.60321">
        <ele>70</ele>
        <time>2020-12-16T09:14:15.000Z</time>
      </trkpt>
      <trkpt lat="47.17473" lon="-1.60306">
        <ele>70</ele>
        <time>2020-12-16T09:14:18.000Z</time>
      </trkpt>
      <trkpt lat="47.17464" lon="-1.603">
        <ele>71</ele>
        <time>2020-12-16T09:14:20.000Z</time>
      </trkpt>
      <trkpt lat="47.17454" lon="-1.60294">
        <ele>71</ele>
        <time>2020-12-16T09:14:22.000Z</time>
      </trkpt>
      <trkpt lat="47.17444" lon="-1.60288">
        <ele>72</ele>
        <time>2020-12-16T09:14:24.000Z</time>
      </trkpt>
      <trkpt lat="47.17434" lon="-1.60282">
        <ele>71</ele>
        <time>2020-12-16T09:14:26.000Z</time>
      </trkpt>
      <trkpt lat="47.17424" lon="-1.60279">
        <ele>71</ele>
        <time>2020-12-16T09:14:28.000Z</time>
      </trkpt>
      <trkpt lat="47.17407" lon="-1.60275">
        <ele>72</ele>
        <time>2020-12-16T09:14:31.000Z</time>
      </trkpt>
      <trkpt lat="47.17397" lon="-1.60274">
        <ele>72</ele>
        <time>2020-12-16T09:14:33.000Z</time>
      </trkpt>
      <trkpt lat="47.17384" lon="-1.60269">
        <ele>70</ele>
        <time>2020-12-16T09:14:35.000Z</time>
      </trkpt>
      <trkpt lat="47.1737" lon="-1.60267">
        <ele>71</ele>
        <time>2020-12-16T09:14:38.000Z</time>
      </trkpt>
      <trkpt lat="47.1736" lon="-1.60265">
        <ele>71</ele>
        <time>2020-12-16T09:14:40.000Z</time>
      </trkpt>
      <trkpt lat="47.1735" lon="-1.60263">
        <ele>71</ele>
        <time>2020-12-16T09:14:42.000Z</time>
      </trkpt>
      <trkpt lat="47.17335" lon="-1.6026">
        <ele>73</ele>
        <time>2020-12-16T09:14:45.000Z</time>
      </trkpt>
      <trkpt lat="47.17324" lon="-1.60255">
        <ele>70</ele>
        <time>2020-12-16T09:14:47.000Z</time>
      </trkpt>
      <trkpt lat="47.17311" lon="-1.60256">
        <ele>71</ele>
        <time>2020-12-16T09:14:49.000Z</time>
      </trkpt>
      <trkpt lat="47.173" lon="-1.60255">
        <ele>72</ele>
        <time>2020-12-16T09:14:51.000Z</time>
      </trkpt>
      <trkpt lat="47.17288" lon="-1.60253">
        <ele>73</ele>
        <time>2020-12-16T09:14:53.000Z</time>
      </trkpt>
      <trkpt lat="47.17278" lon="-1.60254">
        <ele>75</ele>
        <time>2020-12-16T09:14:55.000Z</time>
      </trkpt>
      <trkpt lat="47.17268" lon="-1.60252">
        <ele>75</ele>
        <time>2020-12-16T09:14:57.000Z</time>
      </trkpt>
      <trkpt lat="47.17257" lon="-1.60252">
        <ele>74</ele>
        <time>2020-12-16T09:14:59.000Z</time>
      </trkpt>
      <trkpt lat="47.17246" lon="-1.60252">
        <ele>74</ele>
        <time>2020-12-16T09:15:01.000Z</time>
      </trkpt>
      <trkpt lat="47.17235" lon="-1.60253">
        <ele>74</ele>
        <time>2020-12-16T09:15:03.000Z</time>
      </trkpt>
      <trkpt lat="47.17224" lon="-1.60253">
        <ele>74</ele>
        <time>2020-12-16T09:15:05.000Z</time>
      </trkpt>
      <trkpt lat="47.17213" lon="-1.60255">
        <ele>74</ele>
        <time>2020-12-16T09:15:07.000Z</time>
      </trkpt>
      <trkpt lat="47.17197" lon="-1.6026">
        <ele>74</ele>
        <time>2020-12-16T09:15:10.000Z</time>
      </trkpt>
      <trkpt lat="47.17186" lon="-1.60263">
        <ele>75</ele>
        <time>2020-12-16T09:15:12.000Z</time>
      </trkpt>
      <trkpt lat="47.17176" lon="-1.60267">
        <ele>75</ele>
        <time>2020-12-16T09:15:14.000Z</time>
      </trkpt>
      <trkpt lat="47.17165" lon="-1.6027">
        <ele>75</ele>
        <time>2020-12-16T09:15:16.000Z</time>
      </trkpt>
      <trkpt lat="47.17149" lon="-1.60276">
        <ele>76</ele>
        <time>2020-12-16T09:15:19.000Z</time>
      </trkpt>
      <trkpt lat="47.17138" lon="-1.6028">
        <ele>76</ele>
        <time>2020-12-16T09:15:21.000Z</time>
      </trkpt>
      <trkpt lat="47.17127" lon="-1.60283">
        <ele>76</ele>
        <time>2020-12-16T09:15:23.000Z</time>
      </trkpt>
      <trkpt lat="47.17116" lon="-1.60286">
        <ele>76</ele>
        <time>2020-12-16T09:15:25.000Z</time>
      </trkpt>
      <trkpt lat="47.17106" lon="-1.6029">
        <ele>76</ele>
        <time>2020-12-16T09:15:27.000Z</time>
      </trkpt>
      <trkpt lat="47.17095" lon="-1.60294">
        <ele>76</ele>
        <time>2020-12-16T09:15:29.000Z</time>
      </trkpt>
      <trkpt lat="47.17084" lon="-1.60297">
        <ele>74</ele>
        <time>2020-12-16T09:15:31.000Z</time>
      </trkpt>
      <trkpt lat="47.17072" lon="-1.60301">
        <ele>74</ele>
        <time>2020-12-16T09:15:33.000Z</time>
      </trkpt>
      <trkpt lat="47.17061" lon="-1.60304">
        <ele>74</ele>
        <time>2020-12-16T09:15:35.000Z</time>
      </trkpt>
      <trkpt lat="47.1705" lon="-1.60307">
        <ele>74</ele>
        <time>2020-12-16T09:15:37.000Z</time>
      </trkpt>
      <trkpt lat="47.17039" lon="-1.6031">
        <ele>75</ele>
        <time>2020-12-16T09:15:39.000Z</time>
      </trkpt>
      <trkpt lat="47.17027" lon="-1.60315">
        <ele>76</ele>
        <time>2020-12-16T09:15:41.000Z</time>
      </trkpt>
      <trkpt lat="47.17016" lon="-1.60317">
        <ele>77</ele>
        <time>2020-12-16T09:15:43.000Z</time>
      </trkpt>
      <trkpt lat="47.17005" lon="-1.60319">
        <ele>77</ele>
        <time>2020-12-16T09:15:45.000Z</time>
      </trkpt>
      <trkpt lat="47.16992" lon="-1.60322">
        <ele>77</ele>
        <time>2020-12-16T09:15:47.000Z</time>
      </trkpt>
      <trkpt lat="47.16975" lon="-1.60319">
        <ele>77</ele>
        <time>2020-12-16T09:15:50.000Z</time>
      </trkpt>
      <trkpt lat="47.16963" lon="-1.60318">
        <ele>78</ele>
        <time>2020-12-16T09:15:52.000Z</time>
      </trkpt>
      <trkpt lat="47.16947" lon="-1.60315">
        <ele>79</ele>
        <time>2020-12-16T09:15:55.000Z</time>
      </trkpt>
      <trkpt lat="47.16936" lon="-1.6031">
        <ele>78</ele>
        <time>2020-12-16T09:15:57.000Z</time>
      </trkpt>
      <trkpt lat="47.16925" lon="-1.60306">
        <ele>77</ele>
        <time>2020-12-16T09:15:59.000Z</time>
      </trkpt>
      <trkpt lat="47.16914" lon="-1.60303">
        <ele>77</ele>
        <time>2020-12-16T09:16:01.000Z</time>
      </trkpt>
      <trkpt lat="47.16903" lon="-1.60301">
        <ele>78</ele>
        <time>2020-12-16T09:16:03.000Z</time>
      </trkpt>
      <trkpt lat="47.16892" lon="-1.60299">
        <ele>77</ele>
        <time>2020-12-16T09:16:05.000Z</time>
      </trkpt>
      <trkpt lat="47.1688" lon="-1.60297">
        <ele>77</ele>
        <time>2020-12-16T09:16:07.000Z</time>
      </trkpt>
      <trkpt lat="47.16869" lon="-1.60295">
        <ele>74</ele>
        <time>2020-12-16T09:16:09.000Z</time>
      </trkpt>
      <trkpt lat="47.16858" lon="-1.6029">
        <ele>73</ele>
        <time>2020-12-16T09:16:11.000Z</time>
      </trkpt>
      <trkpt lat="47.16846" lon="-1.60288">
        <ele>75</ele>
        <time>2020-12-16T09:16:13.000Z</time>
      </trkpt>
      <trkpt lat="47.16835" lon="-1.60286">
        <ele>75</ele>
        <time>2020-12-16T09:16:15.000Z</time>
      </trkpt>
      <trkpt lat="47.16824" lon="-1.60284">
        <ele>77</ele>
        <time>2020-12-16T09:16:17.000Z</time>
      </trkpt>
      <trkpt lat="47.16814" lon="-1.60277">
        <ele>76</ele>
        <time>2020-12-16T09:16:19.000Z</time>
      </trkpt>
      <trkpt lat="47.16804" lon="-1.60268">
        <ele>76</ele>
        <time>2020-12-16T09:16:21.000Z</time>
      </trkpt>
      <trkpt lat="47.16796" lon="-1.60256">
        <ele>76</ele>
        <time>2020-12-16T09:16:23.000Z</time>
      </trkpt>
      <trkpt lat="47.16787" lon="-1.60243">
        <ele>74</ele>
        <time>2020-12-16T09:16:25.000Z</time>
      </trkpt>
      <trkpt lat="47.1678" lon="-1.60228">
        <ele>74</ele>
        <time>2020-12-16T09:16:27.000Z</time>
      </trkpt>
      <trkpt lat="47.16773" lon="-1.60216">
        <ele>73</ele>
        <time>2020-12-16T09:16:29.000Z</time>
      </trkpt>
      <trkpt lat="47.16764" lon="-1.60202">
        <ele>74</ele>
        <time>2020-12-16T09:16:31.000Z</time>
      </trkpt>
      <trkpt lat="47.16756" lon="-1.60188">
        <ele>74</ele>
        <time>2020-12-16T09:16:33.000Z</time>
      </trkpt>
      <trkpt lat="47.16744" lon="-1.60165">
        <ele>74</ele>
        <time>2020-12-16T09:16:36.000Z</time>
      </trkpt>
      <trkpt lat="47.16735" lon="-1.60153">
        <ele>73</ele>
        <time>2020-12-16T09:16:38.000Z</time>
      </trkpt>
      <trkpt lat="47.16727" lon="-1.6014">
        <ele>74</ele>
        <time>2020-12-16T09:16:40.000Z</time>
      </trkpt>
      <trkpt lat="47.16719" lon="-1.60127">
        <ele>73</ele>
        <time>2020-12-16T09:16:42.000Z</time>
      </trkpt>
      <trkpt lat="47.16712" lon="-1.60116">
        <ele>71</ele>
        <time>2020-12-16T09:16:44.000Z</time>
      </trkpt>
      <trkpt lat="47.16702" lon="-1.60097">
        <ele>72</ele>
        <time>2020-12-16T09:16:47.000Z</time>
      </trkpt>
      <trkpt lat="47.16694" lon="-1.60085">
        <ele>73</ele>
        <time>2020-12-16T09:16:49.000Z</time>
      </trkpt>
      <trkpt lat="47.16687" lon="-1.60072">
        <ele>73</ele>
        <time>2020-12-16T09:16:51.000Z</time>
      </trkpt>
      <trkpt lat="47.16679" lon="-1.6006">
        <ele>74</ele>
        <time>2020-12-16T09:16:53.000Z</time>
      </trkpt>
      <trkpt lat="47.16671" lon="-1.60047">
        <ele>74</ele>
        <time>2020-12-16T09:16:55.000Z</time>
      </trkpt>
      <trkpt lat="47.16664" lon="-1.60035">
        <ele>74</ele>
        <time>2020-12-16T09:16:57.000Z</time>
      </trkpt>
      <trkpt lat="47.16656" lon="-1.60022">
        <ele>75</ele>
        <time>2020-12-16T09:16:59.000Z</time>
      </trkpt>
      <trkpt lat="47.16644" lon="-1.6">
        <ele>73</ele>
        <time>2020-12-16T09:17:02.000Z</time>
      </trkpt>
      <trkpt lat="47.16633" lon="-1.59982">
        <ele>73</ele>
        <time>2020-12-16T09:17:05.000Z</time>
      </trkpt>
      <trkpt lat="47.16625" lon="-1.59973">
        <ele>72</ele>
        <time>2020-12-16T09:17:07.000Z</time>
      </trkpt>
      <trkpt lat="47.16614" lon="-1.59955">
        <ele>71</ele>
        <time>2020-12-16T09:17:10.000Z</time>
      </trkpt>
      <trkpt lat="47.16605" lon="-1.59942">
        <ele>71</ele>
        <time>2020-12-16T09:17:12.000Z</time>
      </trkpt>
      <trkpt lat="47.16597" lon="-1.5993">
        <ele>69</ele>
        <time>2020-12-16T09:17:14.000Z</time>
      </trkpt>
      <trkpt lat="47.1659" lon="-1.59919">
        <ele>69</ele>
        <time>2020-12-16T09:17:16.000Z</time>
      </trkpt>
      <trkpt lat="47.16576" lon="-1.59904">
        <ele>70</ele>
        <time>2020-12-16T09:17:19.000Z</time>
      </trkpt>
      <trkpt lat="47.16567" lon="-1.59894">
        <ele>71</ele>
        <time>2020-12-16T09:17:21.000Z</time>
      </trkpt>
      <trkpt lat="47.16554" lon="-1.59884">
        <ele>68</ele>
        <time>2020-12-16T09:17:23.000Z</time>
      </trkpt>
      <trkpt lat="47.16544" lon="-1.59873">
        <ele>67</ele>
        <time>2020-12-16T09:17:25.000Z</time>
      </trkpt>
      <trkpt lat="47.16535" lon="-1.59866">
        <ele>69</ele>
        <time>2020-12-16T09:17:27.000Z</time>
      </trkpt>
      <trkpt lat="47.16525" lon="-1.59857">
        <ele>69</ele>
        <time>2020-12-16T09:17:29.000Z</time>
      </trkpt>
      <trkpt lat="47.16515" lon="-1.59848">
        <ele>70</ele>
        <time>2020-12-16T09:17:31.000Z</time>
      </trkpt>
      <trkpt lat="47.16505" lon="-1.59839">
        <ele>70</ele>
        <time>2020-12-16T09:17:33.000Z</time>
      </trkpt>
      <trkpt lat="47.16494" lon="-1.5983">
        <ele>70</ele>
        <time>2020-12-16T09:17:35.000Z</time>
      </trkpt>
      <trkpt lat="47.16478" lon="-1.59816">
        <ele>70</ele>
        <time>2020-12-16T09:17:38.000Z</time>
      </trkpt>
      <trkpt lat="47.16468" lon="-1.59807">
        <ele>70</ele>
        <time>2020-12-16T09:17:40.000Z</time>
      </trkpt>
      <trkpt lat="47.16452" lon="-1.59794">
        <ele>70</ele>
        <time>2020-12-16T09:17:43.000Z</time>
      </trkpt>
      <trkpt lat="47.16442" lon="-1.59786">
        <ele>71</ele>
        <time>2020-12-16T09:17:45.000Z</time>
      </trkpt>
      <trkpt lat="47.16432" lon="-1.59778">
        <ele>71</ele>
        <time>2020-12-16T09:17:47.000Z</time>
      </trkpt>
      <trkpt lat="47.16418" lon="-1.59768">
        <ele>70</ele>
        <time>2020-12-16T09:17:52.000Z</time>
      </trkpt>
      <trkpt lat="47.16402" lon="-1.59754">
        <ele>71</ele>
        <time>2020-12-16T09:17:55.000Z</time>
      </trkpt>
      <trkpt lat="47.16378" lon="-1.59728">
        <ele>68</ele>
        <time>2020-12-16T09:17:59.000Z</time>
      </trkpt>
      <trkpt lat="47.16367" lon="-1.59715">
        <ele>69</ele>
        <time>2020-12-16T09:18:01.000Z</time>
      </trkpt>
      <trkpt lat="47.16358" lon="-1.59701">
        <ele>69</ele>
        <time>2020-12-16T09:18:03.000Z</time>
      </trkpt>
      <trkpt lat="47.16349" lon="-1.59689">
        <ele>70</ele>
        <time>2020-12-16T09:18:05.000Z</time>
      </trkpt>
      <trkpt lat="47.1634" lon="-1.59676">
        <ele>71</ele>
        <time>2020-12-16T09:18:07.000Z</time>
      </trkpt>
      <trkpt lat="47.16328" lon="-1.59658">
        <ele>72</ele>
        <time>2020-12-16T09:18:10.000Z</time>
      </trkpt>
      <trkpt lat="47.16321" lon="-1.59646">
        <ele>72</ele>
        <time>2020-12-16T09:18:12.000Z</time>
      </trkpt>
      <trkpt lat="47.16313" lon="-1.59636">
        <ele>72</ele>
        <time>2020-12-16T09:18:14.000Z</time>
      </trkpt>
      <trkpt lat="47.16305" lon="-1.59628">
        <ele>71</ele>
        <time>2020-12-16T09:18:16.000Z</time>
      </trkpt>
      <trkpt lat="47.16292" lon="-1.59623">
        <ele>69</ele>
        <time>2020-12-16T09:18:19.000Z</time>
      </trkpt>
      <trkpt lat="47.16279" lon="-1.59627">
        <ele>73</ele>
        <time>2020-12-16T09:18:22.000Z</time>
      </trkpt>
      <trkpt lat="47.16269" lon="-1.59634">
        <ele>74</ele>
        <time>2020-12-16T09:18:24.000Z</time>
      </trkpt>
      <trkpt lat="47.16259" lon="-1.59641">
        <ele>74</ele>
        <time>2020-12-16T09:18:26.000Z</time>
      </trkpt>
      <trkpt lat="47.16243" lon="-1.59649">
        <ele>73</ele>
        <time>2020-12-16T09:18:29.000Z</time>
      </trkpt>
      <trkpt lat="47.16228" lon="-1.59659">
        <ele>75</ele>
        <time>2020-12-16T09:18:32.000Z</time>
      </trkpt>
      <trkpt lat="47.16219" lon="-1.59665">
        <ele>75</ele>
        <time>2020-12-16T09:18:34.000Z</time>
      </trkpt>
      <trkpt lat="47.16201" lon="-1.59674">
        <ele>75</ele>
        <time>2020-12-16T09:18:37.000Z</time>
      </trkpt>
      <trkpt lat="47.16189" lon="-1.5968">
        <ele>75</ele>
        <time>2020-12-16T09:18:39.000Z</time>
      </trkpt>
      <trkpt lat="47.16178" lon="-1.59686">
        <ele>76</ele>
        <time>2020-12-16T09:18:41.000Z</time>
      </trkpt>
      <trkpt lat="47.16167" lon="-1.59692">
        <ele>76</ele>
        <time>2020-12-16T09:18:43.000Z</time>
      </trkpt>
      <trkpt lat="47.16156" lon="-1.59698">
        <ele>76</ele>
        <time>2020-12-16T09:18:45.000Z</time>
      </trkpt>
      <trkpt lat="47.1614" lon="-1.59708">
        <ele>75</ele>
        <time>2020-12-16T09:18:48.000Z</time>
      </trkpt>
      <trkpt lat="47.16128" lon="-1.59713">
        <ele>76</ele>
        <time>2020-12-16T09:18:50.000Z</time>
      </trkpt>
      <trkpt lat="47.16118" lon="-1.5972">
        <ele>76</ele>
        <time>2020-12-16T09:18:52.000Z</time>
      </trkpt>
      <trkpt lat="47.16106" lon="-1.59726">
        <ele>76</ele>
        <time>2020-12-16T09:18:54.000Z</time>
      </trkpt>
      <trkpt lat="47.16095" lon="-1.59733">
        <ele>75</ele>
        <time>2020-12-16T09:18:56.000Z</time>
      </trkpt>
      <trkpt lat="47.16085" lon="-1.59739">
        <ele>76</ele>
        <time>2020-12-16T09:18:58.000Z</time>
      </trkpt>
      <trkpt lat="47.16075" lon="-1.59747">
        <ele>77</ele>
        <time>2020-12-16T09:19:00.000Z</time>
      </trkpt>
      <trkpt lat="47.16064" lon="-1.59755">
        <ele>76</ele>
        <time>2020-12-16T09:19:02.000Z</time>
      </trkpt>
      <trkpt lat="47.16055" lon="-1.5976">
        <ele>76</ele>
        <time>2020-12-16T09:19:04.000Z</time>
      </trkpt>
      <trkpt lat="47.16045" lon="-1.59765">
        <ele>77</ele>
        <time>2020-12-16T09:19:06.000Z</time>
      </trkpt>
      <trkpt lat="47.16036" lon="-1.59771">
        <ele>76</ele>
        <time>2020-12-16T09:19:08.000Z</time>
      </trkpt>
      <trkpt lat="47.16025" lon="-1.59777">
        <ele>73</ele>
        <time>2020-12-16T09:19:10.000Z</time>
      </trkpt>
      <trkpt lat="47.16016" lon="-1.59782">
        <ele>75</ele>
        <time>2020-12-16T09:19:12.000Z</time>
      </trkpt>
      <trkpt lat="47.16005" lon="-1.59789">
        <ele>76</ele>
        <time>2020-12-16T09:19:14.000Z</time>
      </trkpt>
      <trkpt lat="47.15996" lon="-1.59796">
        <ele>76</ele>
        <time>2020-12-16T09:19:16.000Z</time>
      </trkpt>
      <trkpt lat="47.15986" lon="-1.59801">
        <ele>76</ele>
        <time>2020-12-16T09:19:18.000Z</time>
      </trkpt>
      <trkpt lat="47.15975" lon="-1.59808">
        <ele>77</ele>
        <time>2020-12-16T09:19:20.000Z</time>
      </trkpt>
      <trkpt lat="47.15966" lon="-1.59814">
        <ele>77</ele>
        <time>2020-12-16T09:19:22.000Z</time>
      </trkpt>
      <trkpt lat="47.15956" lon="-1.59819">
        <ele>78</ele>
        <time>2020-12-16T09:19:24.000Z</time>
      </trkpt>
      <trkpt lat="47.15946" lon="-1.59825">
        <ele>78</ele>
        <time>2020-12-16T09:19:26.000Z</time>
      </trkpt>
      <trkpt lat="47.15936" lon="-1.5983">
        <ele>79</ele>
        <time>2020-12-16T09:19:28.000Z</time>
      </trkpt>
      <trkpt lat="47.15927" lon="-1.59835">
        <ele>79</ele>
        <time>2020-12-16T09:19:30.000Z</time>
      </trkpt>
      <trkpt lat="47.15919" lon="-1.59845">
        <ele>79</ele>
        <time>2020-12-16T09:19:32.000Z</time>
      </trkpt>
      <trkpt lat="47.1591" lon="-1.59858">
        <ele>78</ele>
        <time>2020-12-16T09:19:34.000Z</time>
      </trkpt>
      <trkpt lat="47.159" lon="-1.59866">
        <ele>79</ele>
        <time>2020-12-16T09:19:36.000Z</time>
      </trkpt>
      <trkpt lat="47.1589" lon="-1.59861">
        <ele>79</ele>
        <time>2020-12-16T09:19:38.000Z</time>
      </trkpt>
      <trkpt lat="47.15882" lon="-1.59847">
        <ele>78</ele>
        <time>2020-12-16T09:19:40.000Z</time>
      </trkpt>
      <trkpt lat="47.15878" lon="-1.59824">
        <ele>78</ele>
        <time>2020-12-16T09:19:43.000Z</time>
      </trkpt>
      <trkpt lat="47.15872" lon="-1.59809">
        <ele>78</ele>
        <time>2020-12-16T09:19:45.000Z</time>
      </trkpt>
      <trkpt lat="47.15864" lon="-1.59797">
        <ele>77</ele>
        <time>2020-12-16T09:19:47.000Z</time>
      </trkpt>
      <trkpt lat="47.15854" lon="-1.59786">
        <ele>75</ele>
        <time>2020-12-16T09:19:49.000Z</time>
      </trkpt>
      <trkpt lat="47.15841" lon="-1.59771">
        <ele>75</ele>
        <time>2020-12-16T09:19:52.000Z</time>
      </trkpt>
      <trkpt lat="47.15831" lon="-1.59763">
        <ele>75</ele>
        <time>2020-12-16T09:19:54.000Z</time>
      </trkpt>
      <trkpt lat="47.15823" lon="-1.59756">
        <ele>75</ele>
        <time>2020-12-16T09:19:56.000Z</time>
      </trkpt>
      <trkpt lat="47.15814" lon="-1.59749">
        <ele>76</ele>
        <time>2020-12-16T09:19:58.000Z</time>
      </trkpt>
      <trkpt lat="47.15804" lon="-1.59742">
        <ele>77</ele>
        <time>2020-12-16T09:20:00.000Z</time>
      </trkpt>
      <trkpt lat="47.1579" lon="-1.59734">
        <ele>77</ele>
        <time>2020-12-16T09:20:03.000Z</time>
      </trkpt>
      <trkpt lat="47.15779" lon="-1.59732">
        <ele>78</ele>
        <time>2020-12-16T09:20:05.000Z</time>
      </trkpt>
      <trkpt lat="47.15768" lon="-1.59725">
        <ele>78</ele>
        <time>2020-12-16T09:20:07.000Z</time>
      </trkpt>
      <trkpt lat="47.15762" lon="-1.59703">
        <ele>77</ele>
        <time>2020-12-16T09:20:10.000Z</time>
      </trkpt>
      <trkpt lat="47.15762" lon="-1.59686">
        <ele>76</ele>
        <time>2020-12-16T09:20:12.000Z</time>
      </trkpt>
      <trkpt lat="47.15764" lon="-1.59668">
        <ele>76</ele>
        <time>2020-12-16T09:20:14.000Z</time>
      </trkpt>
      <trkpt lat="47.15764" lon="-1.5965">
        <ele>76</ele>
        <time>2020-12-16T09:20:16.000Z</time>
      </trkpt>
      <trkpt lat="47.15763" lon="-1.59633">
        <ele>75</ele>
        <time>2020-12-16T09:20:18.000Z</time>
      </trkpt>
      <trkpt lat="47.15761" lon="-1.59616">
        <ele>74</ele>
        <time>2020-12-16T09:20:20.000Z</time>
      </trkpt>
      <trkpt lat="47.15759" lon="-1.59599">
        <ele>75</ele>
        <time>2020-12-16T09:20:22.000Z</time>
      </trkpt>
      <trkpt lat="47.15759" lon="-1.59581">
        <ele>75</ele>
        <time>2020-12-16T09:20:24.000Z</time>
      </trkpt>
      <trkpt lat="47.15758" lon="-1.59556">
        <ele>75</ele>
        <time>2020-12-16T09:20:27.000Z</time>
      </trkpt>
      <trkpt lat="47.15758" lon="-1.59538">
        <ele>76</ele>
        <time>2020-12-16T09:20:29.000Z</time>
      </trkpt>
      <trkpt lat="47.15758" lon="-1.5952">
        <ele>76</ele>
        <time>2020-12-16T09:20:31.000Z</time>
      </trkpt>
      <trkpt lat="47.15759" lon="-1.59505">
        <ele>76</ele>
        <time>2020-12-16T09:20:33.000Z</time>
      </trkpt>
      <trkpt lat="47.1576" lon="-1.59482">
        <ele>74</ele>
        <time>2020-12-16T09:20:36.000Z</time>
      </trkpt>
      <trkpt lat="47.15762" lon="-1.59464">
        <ele>75</ele>
        <time>2020-12-16T09:20:38.000Z</time>
      </trkpt>
      <trkpt lat="47.15765" lon="-1.59448">
        <ele>75</ele>
        <time>2020-12-16T09:20:40.000Z</time>
      </trkpt>
      <trkpt lat="47.15768" lon="-1.59431">
        <ele>75</ele>
        <time>2020-12-16T09:20:42.000Z</time>
      </trkpt>
      <trkpt lat="47.15771" lon="-1.59414">
        <ele>76</ele>
        <time>2020-12-16T09:20:44.000Z</time>
      </trkpt>
      <trkpt lat="47.15774" lon="-1.59397">
        <ele>76</ele>
        <time>2020-12-16T09:20:46.000Z</time>
      </trkpt>
      <trkpt lat="47.15776" lon="-1.59381">
        <ele>76</ele>
        <time>2020-12-16T09:20:48.000Z</time>
      </trkpt>
      <trkpt lat="47.15779" lon="-1.59364">
        <ele>76</ele>
        <time>2020-12-16T09:20:50.000Z</time>
      </trkpt>
      <trkpt lat="47.15782" lon="-1.59348">
        <ele>77</ele>
        <time>2020-12-16T09:20:52.000Z</time>
      </trkpt>
      <trkpt lat="47.15787" lon="-1.59323">
        <ele>74</ele>
        <time>2020-12-16T09:20:55.000Z</time>
      </trkpt>
      <trkpt lat="47.1579" lon="-1.59306">
        <ele>73</ele>
        <time>2020-12-16T09:20:57.000Z</time>
      </trkpt>
      <trkpt lat="47.1579" lon="-1.59288">
        <ele>72</ele>
        <time>2020-12-16T09:20:59.000Z</time>
      </trkpt>
      <trkpt lat="47.15793" lon="-1.59273">
        <ele>73</ele>
        <time>2020-12-16T09:21:01.000Z</time>
      </trkpt>
      <trkpt lat="47.15798" lon="-1.59247">
        <ele>76</ele>
        <time>2020-12-16T09:21:04.000Z</time>
      </trkpt>
      <trkpt lat="47.15802" lon="-1.59225">
        <ele>76</ele>
        <time>2020-12-16T09:21:07.000Z</time>
      </trkpt>
      <trkpt lat="47.1581" lon="-1.59204">
        <ele>76</ele>
        <time>2020-12-16T09:21:10.000Z</time>
      </trkpt>
      <trkpt lat="47.15813" lon="-1.59182">
        <ele>76</ele>
        <time>2020-12-16T09:21:13.000Z</time>
      </trkpt>
      <trkpt lat="47.15813" lon="-1.59157">
        <ele>74</ele>
        <time>2020-12-16T09:21:16.000Z</time>
      </trkpt>
      <trkpt lat="47.15822" lon="-1.59146">
        <ele>75</ele>
        <time>2020-12-16T09:21:18.000Z</time>
      </trkpt>
      <trkpt lat="47.15835" lon="-1.59141">
        <ele>76</ele>
        <time>2020-12-16T09:21:20.000Z</time>
      </trkpt>
      <trkpt lat="47.15848" lon="-1.59134">
        <ele>76</ele>
        <time>2020-12-16T09:21:22.000Z</time>
      </trkpt>
      <trkpt lat="47.15863" lon="-1.59116">
        <ele>78</ele>
        <time>2020-12-16T09:21:25.000Z</time>
      </trkpt>
      <trkpt lat="47.15871" lon="-1.59101">
        <ele>78</ele>
        <time>2020-12-16T09:21:27.000Z</time>
      </trkpt>
      <trkpt lat="47.1588" lon="-1.59087">
        <ele>79</ele>
        <time>2020-12-16T09:21:29.000Z</time>
      </trkpt>
      <trkpt lat="47.15889" lon="-1.59073">
        <ele>80</ele>
        <time>2020-12-16T09:21:31.000Z</time>
      </trkpt>
      <trkpt lat="47.15898" lon="-1.59058">
        <ele>81</ele>
        <time>2020-12-16T09:21:33.000Z</time>
      </trkpt>
      <trkpt lat="47.15907" lon="-1.59044">
        <ele>82</ele>
        <time>2020-12-16T09:21:35.000Z</time>
      </trkpt>
      <trkpt lat="47.15915" lon="-1.59029">
        <ele>82</ele>
        <time>2020-12-16T09:21:37.000Z</time>
      </trkpt>
      <trkpt lat="47.15928" lon="-1.59007">
        <ele>81</ele>
        <time>2020-12-16T09:21:40.000Z</time>
      </trkpt>
      <trkpt lat="47.15936" lon="-1.58993">
        <ele>80</ele>
        <time>2020-12-16T09:21:42.000Z</time>
      </trkpt>
      <trkpt lat="47.15944" lon="-1.58979">
        <ele>80</ele>
        <time>2020-12-16T09:21:44.000Z</time>
      </trkpt>
      <trkpt lat="47.15952" lon="-1.58965">
        <ele>80</ele>
        <time>2020-12-16T09:21:46.000Z</time>
      </trkpt>
      <trkpt lat="47.1596" lon="-1.5895">
        <ele>81</ele>
        <time>2020-12-16T09:21:48.000Z</time>
      </trkpt>
      <trkpt lat="47.15969" lon="-1.58935">
        <ele>80</ele>
        <time>2020-12-16T09:21:50.000Z</time>
      </trkpt>
      <trkpt lat="47.15977" lon="-1.58921">
        <ele>80</ele>
        <time>2020-12-16T09:21:52.000Z</time>
      </trkpt>
      <trkpt lat="47.15988" lon="-1.58902">
        <ele>80</ele>
        <time>2020-12-16T09:21:55.000Z</time>
      </trkpt>
      <trkpt lat="47.15997" lon="-1.5889">
        <ele>79</ele>
        <time>2020-12-16T09:21:57.000Z</time>
      </trkpt>
      <trkpt lat="47.16006" lon="-1.58876">
        <ele>79</ele>
        <time>2020-12-16T09:21:59.000Z</time>
      </trkpt>
      <trkpt lat="47.16016" lon="-1.58862">
        <ele>79</ele>
        <time>2020-12-16T09:22:01.000Z</time>
      </trkpt>
      <trkpt lat="47.1603" lon="-1.58843">
        <ele>75</ele>
        <time>2020-12-16T09:22:04.000Z</time>
      </trkpt>
      <trkpt lat="47.16039" lon="-1.58831">
        <ele>76</ele>
        <time>2020-12-16T09:22:06.000Z</time>
      </trkpt>
      <trkpt lat="47.16049" lon="-1.58818">
        <ele>76</ele>
        <time>2020-12-16T09:22:08.000Z</time>
      </trkpt>
      <trkpt lat="47.16058" lon="-1.58806">
        <ele>77</ele>
        <time>2020-12-16T09:22:10.000Z</time>
      </trkpt>
      <trkpt lat="47.16077" lon="-1.58781">
        <ele>75</ele>
        <time>2020-12-16T09:22:14.000Z</time>
      </trkpt>
      <trkpt lat="47.16087" lon="-1.5877">
        <ele>78</ele>
        <time>2020-12-16T09:22:16.000Z</time>
      </trkpt>
      <trkpt lat="47.16104" lon="-1.58748">
        <ele>77</ele>
        <time>2020-12-16T09:22:19.000Z</time>
      </trkpt>
      <trkpt lat="47.16121" lon="-1.58726">
        <ele>78</ele>
        <time>2020-12-16T09:22:22.000Z</time>
      </trkpt>
      <trkpt lat="47.16139" lon="-1.58702">
        <ele>78</ele>
        <time>2020-12-16T09:22:25.000Z</time>
      </trkpt>
      <trkpt lat="47.1615" lon="-1.58687">
        <ele>78</ele>
        <time>2020-12-16T09:22:27.000Z</time>
      </trkpt>
      <trkpt lat="47.16168" lon="-1.58664">
        <ele>78</ele>
        <time>2020-12-16T09:22:30.000Z</time>
      </trkpt>
      <trkpt lat="47.16181" lon="-1.58649">
        <ele>79</ele>
        <time>2020-12-16T09:22:32.000Z</time>
      </trkpt>
      <trkpt lat="47.16193" lon="-1.58634">
        <ele>79</ele>
        <time>2020-12-16T09:22:34.000Z</time>
      </trkpt>
      <trkpt lat="47.16204" lon="-1.58619">
        <ele>79</ele>
        <time>2020-12-16T09:22:36.000Z</time>
      </trkpt>
      <trkpt lat="47.16216" lon="-1.58603">
        <ele>80</ele>
        <time>2020-12-16T09:22:38.000Z</time>
      </trkpt>
      <trkpt lat="47.16228" lon="-1.58588">
        <ele>79</ele>
        <time>2020-12-16T09:22:40.000Z</time>
      </trkpt>
      <trkpt lat="47.16239" lon="-1.58573">
        <ele>79</ele>
        <time>2020-12-16T09:22:42.000Z</time>
      </trkpt>
      <trkpt lat="47.16251" lon="-1.58558">
        <ele>79</ele>
        <time>2020-12-16T09:22:44.000Z</time>
      </trkpt>
      <trkpt lat="47.16262" lon="-1.58542">
        <ele>78</ele>
        <time>2020-12-16T09:22:46.000Z</time>
      </trkpt>
      <trkpt lat="47.16273" lon="-1.58527">
        <ele>78</ele>
        <time>2020-12-16T09:22:48.000Z</time>
      </trkpt>
      <trkpt lat="47.16284" lon="-1.58512">
        <ele>78</ele>
        <time>2020-12-16T09:22:50.000Z</time>
      </trkpt>
      <trkpt lat="47.16296" lon="-1.58496">
        <ele>75</ele>
        <time>2020-12-16T09:22:52.000Z</time>
      </trkpt>
      <trkpt lat="47.16307" lon="-1.58482">
        <ele>76</ele>
        <time>2020-12-16T09:22:54.000Z</time>
      </trkpt>
      <trkpt lat="47.16318" lon="-1.58468">
        <ele>76</ele>
        <time>2020-12-16T09:22:56.000Z</time>
      </trkpt>
      <trkpt lat="47.16328" lon="-1.58453">
        <ele>76</ele>
        <time>2020-12-16T09:22:58.000Z</time>
      </trkpt>
      <trkpt lat="47.16339" lon="-1.5844">
        <ele>76</ele>
        <time>2020-12-16T09:23:00.000Z</time>
      </trkpt>
      <trkpt lat="47.1635" lon="-1.58426">
        <ele>76</ele>
        <time>2020-12-16T09:23:02.000Z</time>
      </trkpt>
      <trkpt lat="47.16361" lon="-1.58412">
        <ele>76</ele>
        <time>2020-12-16T09:23:04.000Z</time>
      </trkpt>
      <trkpt lat="47.16376" lon="-1.58392">
        <ele>75</ele>
        <time>2020-12-16T09:23:07.000Z</time>
      </trkpt>
      <trkpt lat="47.16392" lon="-1.58371">
        <ele>78</ele>
        <time>2020-12-16T09:23:10.000Z</time>
      </trkpt>
      <trkpt lat="47.16402" lon="-1.58359">
        <ele>78</ele>
        <time>2020-12-16T09:23:12.000Z</time>
      </trkpt>
      <trkpt lat="47.16411" lon="-1.58346">
        <ele>78</ele>
        <time>2020-12-16T09:23:14.000Z</time>
      </trkpt>
      <trkpt lat="47.16421" lon="-1.58333">
        <ele>79</ele>
        <time>2020-12-16T09:23:16.000Z</time>
      </trkpt>
      <trkpt lat="47.16431" lon="-1.5832">
        <ele>79</ele>
        <time>2020-12-16T09:23:18.000Z</time>
      </trkpt>
      <trkpt lat="47.16441" lon="-1.58307">
        <ele>80</ele>
        <time>2020-12-16T09:23:20.000Z</time>
      </trkpt>
      <trkpt lat="47.1645" lon="-1.58293">
        <ele>80</ele>
        <time>2020-12-16T09:23:22.000Z</time>
      </trkpt>
      <trkpt lat="47.16466" lon="-1.58274">
        <ele>79</ele>
        <time>2020-12-16T09:23:25.000Z</time>
      </trkpt>
      <trkpt lat="47.1648" lon="-1.58254">
        <ele>80</ele>
        <time>2020-12-16T09:23:28.000Z</time>
      </trkpt>
      <trkpt lat="47.1649" lon="-1.58241">
        <ele>81</ele>
        <time>2020-12-16T09:23:30.000Z</time>
      </trkpt>
      <trkpt lat="47.165" lon="-1.58229">
        <ele>81</ele>
        <time>2020-12-16T09:23:32.000Z</time>
      </trkpt>
      <trkpt lat="47.1651" lon="-1.58216">
        <ele>81</ele>
        <time>2020-12-16T09:23:34.000Z</time>
      </trkpt>
      <trkpt lat="47.16532" lon="-1.5819">
        <ele>81</ele>
        <time>2020-12-16T09:23:38.000Z</time>
      </trkpt>
      <trkpt lat="47.1654" lon="-1.58174">
        <ele>82</ele>
        <time>2020-12-16T09:23:40.000Z</time>
      </trkpt>
      <trkpt lat="47.16551" lon="-1.58161">
        <ele>82</ele>
        <time>2020-12-16T09:23:42.000Z</time>
      </trkpt>
      <trkpt lat="47.16563" lon="-1.58148">
        <ele>81</ele>
        <time>2020-12-16T09:23:44.000Z</time>
      </trkpt>
      <trkpt lat="47.16574" lon="-1.58134">
        <ele>80</ele>
        <time>2020-12-16T09:23:46.000Z</time>
      </trkpt>
      <trkpt lat="47.16583" lon="-1.5812">
        <ele>81</ele>
        <time>2020-12-16T09:23:48.000Z</time>
      </trkpt>
      <trkpt lat="47.16594" lon="-1.58106">
        <ele>81</ele>
        <time>2020-12-16T09:23:50.000Z</time>
      </trkpt>
      <trkpt lat="47.16609" lon="-1.58085">
        <ele>81</ele>
        <time>2020-12-16T09:23:53.000Z</time>
      </trkpt>
      <trkpt lat="47.16619" lon="-1.58071">
        <ele>82</ele>
        <time>2020-12-16T09:23:55.000Z</time>
      </trkpt>
      <trkpt lat="47.16621" lon="-1.58056">
        <ele>82</ele>
        <time>2020-12-16T09:23:57.000Z</time>
      </trkpt>
      <trkpt lat="47.16613" lon="-1.58044">
        <ele>81</ele>
        <time>2020-12-16T09:23:59.000Z</time>
      </trkpt>
      <trkpt lat="47.16602" lon="-1.58034">
        <ele>80</ele>
        <time>2020-12-16T09:24:01.000Z</time>
      </trkpt>
      <trkpt lat="47.16592" lon="-1.58023">
        <ele>78</ele>
        <time>2020-12-16T09:24:03.000Z</time>
      </trkpt>
      <trkpt lat="47.1658" lon="-1.58016">
        <ele>76</ele>
        <time>2020-12-16T09:24:05.000Z</time>
      </trkpt>
      <trkpt lat="47.16563" lon="-1.58001">
        <ele>79</ele>
        <time>2020-12-16T09:24:08.000Z</time>
      </trkpt>
      <trkpt lat="47.16553" lon="-1.5799">
        <ele>76</ele>
        <time>2020-12-16T09:24:10.000Z</time>
      </trkpt>
      <trkpt lat="47.16543" lon="-1.5798">
        <ele>76</ele>
        <time>2020-12-16T09:24:12.000Z</time>
      </trkpt>
      <trkpt lat="47.16533" lon="-1.5797">
        <ele>75</ele>
        <time>2020-12-16T09:24:14.000Z</time>
      </trkpt>
      <trkpt lat="47.16518" lon="-1.57951">
        <ele>76</ele>
        <time>2020-12-16T09:24:17.000Z</time>
      </trkpt>
      <trkpt lat="47.16508" lon="-1.57937">
        <ele>74</ele>
        <time>2020-12-16T09:24:19.000Z</time>
      </trkpt>
      <trkpt lat="47.16499" lon="-1.57927">
        <ele>75</ele>
        <time>2020-12-16T09:24:21.000Z</time>
      </trkpt>
      <trkpt lat="47.16488" lon="-1.57916">
        <ele>75</ele>
        <time>2020-12-16T09:24:23.000Z</time>
      </trkpt>
      <trkpt lat="47.16479" lon="-1.5791">
        <ele>76</ele>
        <time>2020-12-16T09:24:25.000Z</time>
      </trkpt>
      <trkpt lat="47.16469" lon="-1.57902">
        <ele>77</ele>
        <time>2020-12-16T09:24:27.000Z</time>
      </trkpt>
      <trkpt lat="47.16453" lon="-1.5789">
        <ele>80</ele>
        <time>2020-12-16T09:24:30.000Z</time>
      </trkpt>
      <trkpt lat="47.16437" lon="-1.57877">
        <ele>80</ele>
        <time>2020-12-16T09:24:33.000Z</time>
      </trkpt>
      <trkpt lat="47.16426" lon="-1.5787">
        <ele>81</ele>
        <time>2020-12-16T09:24:35.000Z</time>
      </trkpt>
      <trkpt lat="47.16416" lon="-1.57862">
        <ele>82</ele>
        <time>2020-12-16T09:24:37.000Z</time>
      </trkpt>
      <trkpt lat="47.16399" lon="-1.5785">
        <ele>83</ele>
        <time>2020-12-16T09:24:40.000Z</time>
      </trkpt>
      <trkpt lat="47.16389" lon="-1.57843">
        <ele>84</ele>
        <time>2020-12-16T09:24:42.000Z</time>
      </trkpt>
      <trkpt lat="47.16377" lon="-1.57835">
        <ele>84</ele>
        <time>2020-12-16T09:24:44.000Z</time>
      </trkpt>
      <trkpt lat="47.16367" lon="-1.57828">
        <ele>85</ele>
        <time>2020-12-16T09:24:46.000Z</time>
      </trkpt>
      <trkpt lat="47.16353" lon="-1.57813">
        <ele>85</ele>
        <time>2020-12-16T09:24:49.000Z</time>
      </trkpt>
      <trkpt lat="47.16344" lon="-1.578">
        <ele>85</ele>
        <time>2020-12-16T09:24:51.000Z</time>
      </trkpt>
      <trkpt lat="47.16336" lon="-1.57785">
        <ele>84</ele>
        <time>2020-12-16T09:24:53.000Z</time>
      </trkpt>
      <trkpt lat="47.16323" lon="-1.57765">
        <ele>84</ele>
        <time>2020-12-16T09:24:56.000Z</time>
      </trkpt>
      <trkpt lat="47.16314" lon="-1.57752">
        <ele>84</ele>
        <time>2020-12-16T09:24:58.000Z</time>
      </trkpt>
      <trkpt lat="47.16305" lon="-1.57739">
        <ele>84</ele>
        <time>2020-12-16T09:25:00.000Z</time>
      </trkpt>
      <trkpt lat="47.16297" lon="-1.57727">
        <ele>84</ele>
        <time>2020-12-16T09:25:02.000Z</time>
      </trkpt>
      <trkpt lat="47.16284" lon="-1.57707">
        <ele>85</ele>
        <time>2020-12-16T09:25:05.000Z</time>
      </trkpt>
      <trkpt lat="47.16274" lon="-1.57694">
        <ele>84</ele>
        <time>2020-12-16T09:25:07.000Z</time>
      </trkpt>
      <trkpt lat="47.16263" lon="-1.57684">
        <ele>83</ele>
        <time>2020-12-16T09:25:09.000Z</time>
      </trkpt>
      <trkpt lat="47.16253" lon="-1.57673">
        <ele>83</ele>
        <time>2020-12-16T09:25:11.000Z</time>
      </trkpt>
      <trkpt lat="47.16244" lon="-1.57663">
        <ele>83</ele>
        <time>2020-12-16T09:25:13.000Z</time>
      </trkpt>
      <trkpt lat="47.16234" lon="-1.57653">
        <ele>83</ele>
        <time>2020-12-16T09:25:15.000Z</time>
      </trkpt>
      <trkpt lat="47.16221" lon="-1.57636">
        <ele>83</ele>
        <time>2020-12-16T09:25:18.000Z</time>
      </trkpt>
      <trkpt lat="47.16212" lon="-1.57624">
        <ele>82</ele>
        <time>2020-12-16T09:25:20.000Z</time>
      </trkpt>
      <trkpt lat="47.16205" lon="-1.57612">
        <ele>83</ele>
        <time>2020-12-16T09:25:22.000Z</time>
      </trkpt>
      <trkpt lat="47.16197" lon="-1.576">
        <ele>84</ele>
        <time>2020-12-16T09:25:24.000Z</time>
      </trkpt>
      <trkpt lat="47.16189" lon="-1.57587">
        <ele>83</ele>
        <time>2020-12-16T09:25:26.000Z</time>
      </trkpt>
      <trkpt lat="47.16182" lon="-1.57572">
        <ele>84</ele>
        <time>2020-12-16T09:25:28.000Z</time>
      </trkpt>
      <trkpt lat="47.16175" lon="-1.57557">
        <ele>84</ele>
        <time>2020-12-16T09:25:30.000Z</time>
      </trkpt>
      <trkpt lat="47.16169" lon="-1.57532">
        <ele>84</ele>
        <time>2020-12-16T09:25:33.000Z</time>
      </trkpt>
      <trkpt lat="47.16167" lon="-1.57515">
        <ele>82</ele>
        <time>2020-12-16T09:25:35.000Z</time>
      </trkpt>
      <trkpt lat="47.16167" lon="-1.57496">
        <ele>81</ele>
        <time>2020-12-16T09:25:37.000Z</time>
      </trkpt>
      <trkpt lat="47.16167" lon="-1.57469">
        <ele>81</ele>
        <time>2020-12-16T09:25:40.000Z</time>
      </trkpt>
      <trkpt lat="47.16168" lon="-1.57441">
        <ele>80</ele>
        <time>2020-12-16T09:25:43.000Z</time>
      </trkpt>
      <trkpt lat="47.16167" lon="-1.57424">
        <ele>80</ele>
        <time>2020-12-16T09:25:45.000Z</time>
      </trkpt>
      <trkpt lat="47.16165" lon="-1.57396">
        <ele>78</ele>
        <time>2020-12-16T09:25:48.000Z</time>
      </trkpt>
      <trkpt lat="47.16165" lon="-1.57382">
        <ele>78</ele>
        <time>2020-12-16T09:25:50.000Z</time>
      </trkpt>
      <trkpt lat="47.16165" lon="-1.57367">
        <ele>78</ele>
        <time>2020-12-16T09:25:52.000Z</time>
      </trkpt>
      <trkpt lat="47.16163" lon="-1.57352">
        <ele>75</ele>
        <time>2020-12-16T09:25:55.000Z</time>
      </trkpt>
      <trkpt lat="47.16162" lon="-1.57334">
        <ele>75</ele>
        <time>2020-12-16T09:25:58.000Z</time>
      </trkpt>
      <trkpt lat="47.1616" lon="-1.57317">
        <ele>75</ele>
        <time>2020-12-16T09:26:00.000Z</time>
      </trkpt>
      <trkpt lat="47.1616" lon="-1.57288">
        <ele>74</ele>
        <time>2020-12-16T09:26:03.000Z</time>
      </trkpt>
      <trkpt lat="47.1616" lon="-1.57269">
        <ele>76</ele>
        <time>2020-12-16T09:26:05.000Z</time>
      </trkpt>
      <trkpt lat="47.16161" lon="-1.57247">
        <ele>76</ele>
        <time>2020-12-16T09:26:07.000Z</time>
      </trkpt>
      <trkpt lat="47.16163" lon="-1.57226">
        <ele>77</ele>
        <time>2020-12-16T09:26:09.000Z</time>
      </trkpt>
      <trkpt lat="47.16164" lon="-1.57206">
        <ele>77</ele>
        <time>2020-12-16T09:26:11.000Z</time>
      </trkpt>
      <trkpt lat="47.16165" lon="-1.57186">
        <ele>76</ele>
        <time>2020-12-16T09:26:13.000Z</time>
      </trkpt>
      <trkpt lat="47.16167" lon="-1.57167">
        <ele>76</ele>
        <time>2020-12-16T09:26:15.000Z</time>
      </trkpt>
      <trkpt lat="47.16169" lon="-1.57147">
        <ele>76</ele>
        <time>2020-12-16T09:26:17.000Z</time>
      </trkpt>
      <trkpt lat="47.16171" lon="-1.57127">
        <ele>76</ele>
        <time>2020-12-16T09:26:19.000Z</time>
      </trkpt>
      <trkpt lat="47.16176" lon="-1.57098">
        <ele>76</ele>
        <time>2020-12-16T09:26:22.000Z</time>
      </trkpt>
      <trkpt lat="47.1618" lon="-1.57069">
        <ele>76</ele>
        <time>2020-12-16T09:26:25.000Z</time>
      </trkpt>
      <trkpt lat="47.16184" lon="-1.57039">
        <ele>72</ele>
        <time>2020-12-16T09:26:28.000Z</time>
      </trkpt>
      <trkpt lat="47.16188" lon="-1.57022">
        <ele>74</ele>
        <time>2020-12-16T09:26:30.000Z</time>
      </trkpt>
      <trkpt lat="47.16191" lon="-1.57003">
        <ele>75</ele>
        <time>2020-12-16T09:26:32.000Z</time>
      </trkpt>
      <trkpt lat="47.16195" lon="-1.56985">
        <ele>75</ele>
        <time>2020-12-16T09:26:34.000Z</time>
      </trkpt>
      <trkpt lat="47.16197" lon="-1.56966">
        <ele>75</ele>
        <time>2020-12-16T09:26:36.000Z</time>
      </trkpt>
      <trkpt lat="47.16201" lon="-1.56948">
        <ele>76</ele>
        <time>2020-12-16T09:26:38.000Z</time>
      </trkpt>
      <trkpt lat="47.16204" lon="-1.56929">
        <ele>76</ele>
        <time>2020-12-16T09:26:40.000Z</time>
      </trkpt>
      <trkpt lat="47.16207" lon="-1.56911">
        <ele>76</ele>
        <time>2020-12-16T09:26:42.000Z</time>
      </trkpt>
      <trkpt lat="47.16211" lon="-1.56893">
        <ele>75</ele>
        <time>2020-12-16T09:26:44.000Z</time>
      </trkpt>
      <trkpt lat="47.16214" lon="-1.56875">
        <ele>76</ele>
        <time>2020-12-16T09:26:46.000Z</time>
      </trkpt>
      <trkpt lat="47.16218" lon="-1.56848">
        <ele>76</ele>
        <time>2020-12-16T09:26:49.000Z</time>
      </trkpt>
      <trkpt lat="47.16222" lon="-1.56821">
        <ele>77</ele>
        <time>2020-12-16T09:26:52.000Z</time>
      </trkpt>
      <trkpt lat="47.16228" lon="-1.56792">
        <ele>78</ele>
        <time>2020-12-16T09:26:55.000Z</time>
      </trkpt>
      <trkpt lat="47.16234" lon="-1.56766">
        <ele>78</ele>
        <time>2020-12-16T09:26:58.000Z</time>
      </trkpt>
      <trkpt lat="47.16241" lon="-1.56741">
        <ele>78</ele>
        <time>2020-12-16T09:27:01.000Z</time>
      </trkpt>
      <trkpt lat="47.16238" lon="-1.56726">
        <ele>79</ele>
        <time>2020-12-16T09:27:03.000Z</time>
      </trkpt>
      <trkpt lat="47.16228" lon="-1.56715">
        <ele>79</ele>
        <time>2020-12-16T09:27:05.000Z</time>
      </trkpt>
      <trkpt lat="47.16215" lon="-1.56711">
        <ele>77</ele>
        <time>2020-12-16T09:27:07.000Z</time>
      </trkpt>
      <trkpt lat="47.16202" lon="-1.56716">
        <ele>76</ele>
        <time>2020-12-16T09:27:09.000Z</time>
      </trkpt>
      <trkpt lat="47.16188" lon="-1.56718">
        <ele>77</ele>
        <time>2020-12-16T09:27:11.000Z</time>
      </trkpt>
      <trkpt lat="47.16176" lon="-1.56717">
        <ele>77</ele>
        <time>2020-12-16T09:27:13.000Z</time>
      </trkpt>
      <trkpt lat="47.16163" lon="-1.56716">
        <ele>77</ele>
        <time>2020-12-16T09:27:15.000Z</time>
      </trkpt>
      <trkpt lat="47.1615" lon="-1.56714">
        <ele>78</ele>
        <time>2020-12-16T09:27:17.000Z</time>
      </trkpt>
      <trkpt lat="47.16137" lon="-1.56713">
        <ele>78</ele>
        <time>2020-12-16T09:27:19.000Z</time>
      </trkpt>
      <trkpt lat="47.16124" lon="-1.56711">
        <ele>78</ele>
        <time>2020-12-16T09:27:21.000Z</time>
      </trkpt>
      <trkpt lat="47.16111" lon="-1.5671">
        <ele>78</ele>
        <time>2020-12-16T09:27:23.000Z</time>
      </trkpt>
      <trkpt lat="47.16098" lon="-1.5671">
        <ele>79</ele>
        <time>2020-12-16T09:27:25.000Z</time>
      </trkpt>
      <trkpt lat="47.16087" lon="-1.5671">
        <ele>76</ele>
        <time>2020-12-16T09:27:27.000Z</time>
      </trkpt>
      <trkpt lat="47.16076" lon="-1.56711">
        <ele>76</ele>
        <time>2020-12-16T09:27:29.000Z</time>
      </trkpt>
      <trkpt lat="47.16057" lon="-1.56712">
        <ele>74</ele>
        <time>2020-12-16T09:27:32.000Z</time>
      </trkpt>
      <trkpt lat="47.16044" lon="-1.56709">
        <ele>75</ele>
        <time>2020-12-16T09:27:34.000Z</time>
      </trkpt>
      <trkpt lat="47.16031" lon="-1.56705">
        <ele>75</ele>
        <time>2020-12-16T09:27:36.000Z</time>
      </trkpt>
      <trkpt lat="47.16017" lon="-1.56701">
        <ele>75</ele>
        <time>2020-12-16T09:27:38.000Z</time>
      </trkpt>
      <trkpt lat="47.16003" lon="-1.56697">
        <ele>75</ele>
        <time>2020-12-16T09:27:40.000Z</time>
      </trkpt>
      <trkpt lat="47.15991" lon="-1.5669">
        <ele>76</ele>
        <time>2020-12-16T09:27:42.000Z</time>
      </trkpt>
      <trkpt lat="47.15978" lon="-1.5667">
        <ele>74</ele>
        <time>2020-12-16T09:27:45.000Z</time>
      </trkpt>
      <trkpt lat="47.15973" lon="-1.56651">
        <ele>72</ele>
        <time>2020-12-16T09:27:47.000Z</time>
      </trkpt>
      <trkpt lat="47.15971" lon="-1.56632">
        <ele>72</ele>
        <time>2020-12-16T09:27:49.000Z</time>
      </trkpt>
      <trkpt lat="47.15968" lon="-1.56614">
        <ele>72</ele>
        <time>2020-12-16T09:27:51.000Z</time>
      </trkpt>
      <trkpt lat="47.15965" lon="-1.56588">
        <ele>73</ele>
        <time>2020-12-16T09:27:54.000Z</time>
      </trkpt>
      <trkpt lat="47.15964" lon="-1.5657">
        <ele>73</ele>
        <time>2020-12-16T09:27:56.000Z</time>
      </trkpt>
      <trkpt lat="47.15964" lon="-1.56549">
        <ele>74</ele>
        <time>2020-12-16T09:27:58.000Z</time>
      </trkpt>
      <trkpt lat="47.15964" lon="-1.5653">
        <ele>73</ele>
        <time>2020-12-16T09:28:00.000Z</time>
      </trkpt>
      <trkpt lat="47.15968" lon="-1.56501">
        <ele>71</ele>
        <time>2020-12-16T09:28:03.000Z</time>
      </trkpt>
      <trkpt lat="47.15969" lon="-1.56481">
        <ele>70</ele>
        <time>2020-12-16T09:28:05.000Z</time>
      </trkpt>
      <trkpt lat="47.15969" lon="-1.56462">
        <ele>71</ele>
        <time>2020-12-16T09:28:07.000Z</time>
      </trkpt>
      <trkpt lat="47.15969" lon="-1.56443">
        <ele>71</ele>
        <time>2020-12-16T09:28:09.000Z</time>
      </trkpt>
      <trkpt lat="47.1597" lon="-1.56416">
        <ele>72</ele>
        <time>2020-12-16T09:28:12.000Z</time>
      </trkpt>
      <trkpt lat="47.15974" lon="-1.56397">
        <ele>72</ele>
        <time>2020-12-16T09:28:14.000Z</time>
      </trkpt>
      <trkpt lat="47.15978" lon="-1.5638">
        <ele>72</ele>
        <time>2020-12-16T09:28:16.000Z</time>
      </trkpt>
      <trkpt lat="47.15983" lon="-1.56363">
        <ele>73</ele>
        <time>2020-12-16T09:28:18.000Z</time>
      </trkpt>
      <trkpt lat="47.15988" lon="-1.56344">
        <ele>73</ele>
        <time>2020-12-16T09:28:20.000Z</time>
      </trkpt>
      <trkpt lat="47.15992" lon="-1.56327">
        <ele>72</ele>
        <time>2020-12-16T09:28:22.000Z</time>
      </trkpt>
      <trkpt lat="47.15998" lon="-1.56311">
        <ele>72</ele>
        <time>2020-12-16T09:28:24.000Z</time>
      </trkpt>
      <trkpt lat="47.16003" lon="-1.56294">
        <ele>73</ele>
        <time>2020-12-16T09:28:26.000Z</time>
      </trkpt>
      <trkpt lat="47.16009" lon="-1.56278">
        <ele>73</ele>
        <time>2020-12-16T09:28:28.000Z</time>
      </trkpt>
      <trkpt lat="47.16014" lon="-1.56262">
        <ele>73</ele>
        <time>2020-12-16T09:28:30.000Z</time>
      </trkpt>
      <trkpt lat="47.16017" lon="-1.5624">
        <ele>73</ele>
        <time>2020-12-16T09:28:33.000Z</time>
      </trkpt>
      <trkpt lat="47.16006" lon="-1.5623">
        <ele>74</ele>
        <time>2020-12-16T09:28:36.000Z</time>
      </trkpt>
      <trkpt lat="47.15994" lon="-1.56227">
        <ele>75</ele>
        <time>2020-12-16T09:28:38.000Z</time>
      </trkpt>
      <trkpt lat="47.15983" lon="-1.56221">
        <ele>76</ele>
        <time>2020-12-16T09:28:40.000Z</time>
      </trkpt>
      <trkpt lat="47.15972" lon="-1.56215">
        <ele>75</ele>
        <time>2020-12-16T09:28:42.000Z</time>
      </trkpt>
      <trkpt lat="47.1596" lon="-1.56212">
        <ele>73</ele>
        <time>2020-12-16T09:28:44.000Z</time>
      </trkpt>
      <trkpt lat="47.15948" lon="-1.56208">
        <ele>75</ele>
        <time>2020-12-16T09:28:46.000Z</time>
      </trkpt>
      <trkpt lat="47.15937" lon="-1.56203">
        <ele>75</ele>
        <time>2020-12-16T09:28:48.000Z</time>
      </trkpt>
      <trkpt lat="47.15925" lon="-1.56199">
        <ele>75</ele>
        <time>2020-12-16T09:28:50.000Z</time>
      </trkpt>
      <trkpt lat="47.15914" lon="-1.56195">
        <ele>76</ele>
        <time>2020-12-16T09:28:52.000Z</time>
      </trkpt>
      <trkpt lat="47.15897" lon="-1.56188">
        <ele>76</ele>
        <time>2020-12-16T09:28:55.000Z</time>
      </trkpt>
      <trkpt lat="47.15885" lon="-1.56182">
        <ele>77</ele>
        <time>2020-12-16T09:28:57.000Z</time>
      </trkpt>
      <trkpt lat="47.15874" lon="-1.56178">
        <ele>77</ele>
        <time>2020-12-16T09:28:59.000Z</time>
      </trkpt>
      <trkpt lat="47.15863" lon="-1.56173">
        <ele>78</ele>
        <time>2020-12-16T09:29:01.000Z</time>
      </trkpt>
      <trkpt lat="47.15851" lon="-1.56167">
        <ele>78</ele>
        <time>2020-12-16T09:29:03.000Z</time>
      </trkpt>
      <trkpt lat="47.15838" lon="-1.56161">
        <ele>78</ele>
        <time>2020-12-16T09:29:05.000Z</time>
      </trkpt>
      <trkpt lat="47.15826" lon="-1.56156">
        <ele>76</ele>
        <time>2020-12-16T09:29:07.000Z</time>
      </trkpt>
      <trkpt lat="47.15815" lon="-1.5615">
        <ele>76</ele>
        <time>2020-12-16T09:29:09.000Z</time>
      </trkpt>
      <trkpt lat="47.15802" lon="-1.56143">
        <ele>77</ele>
        <time>2020-12-16T09:29:11.000Z</time>
      </trkpt>
      <trkpt lat="47.15789" lon="-1.56137">
        <ele>78</ele>
        <time>2020-12-16T09:29:13.000Z</time>
      </trkpt>
      <trkpt lat="47.15777" lon="-1.56132">
        <ele>79</ele>
        <time>2020-12-16T09:29:15.000Z</time>
      </trkpt>
      <trkpt lat="47.15765" lon="-1.56126">
        <ele>80</ele>
        <time>2020-12-16T09:29:17.000Z</time>
      </trkpt>
      <trkpt lat="47.15754" lon="-1.56123">
        <ele>80</ele>
        <time>2020-12-16T09:29:19.000Z</time>
      </trkpt>
      <trkpt lat="47.15745" lon="-1.5612">
        <ele>80</ele>
        <time>2020-12-16T09:29:21.000Z</time>
      </trkpt>
      <trkpt lat="47.15734" lon="-1.56116">
        <ele>79</ele>
        <time>2020-12-16T09:29:23.000Z</time>
      </trkpt>
      <trkpt lat="47.15724" lon="-1.56112">
        <ele>80</ele>
        <time>2020-12-16T09:29:25.000Z</time>
      </trkpt>
      <trkpt lat="47.15709" lon="-1.56105">
        <ele>79</ele>
        <time>2020-12-16T09:29:28.000Z</time>
      </trkpt>
      <trkpt lat="47.15698" lon="-1.561">
        <ele>80</ele>
        <time>2020-12-16T09:29:30.000Z</time>
      </trkpt>
      <trkpt lat="47.15687" lon="-1.56096">
        <ele>80</ele>
        <time>2020-12-16T09:29:32.000Z</time>
      </trkpt>
      <trkpt lat="47.15675" lon="-1.56091">
        <ele>80</ele>
        <time>2020-12-16T09:29:34.000Z</time>
      </trkpt>
      <trkpt lat="47.15658" lon="-1.56083">
        <ele>79</ele>
        <time>2020-12-16T09:29:37.000Z</time>
      </trkpt>
      <trkpt lat="47.15647" lon="-1.56079">
        <ele>78</ele>
        <time>2020-12-16T09:29:39.000Z</time>
      </trkpt>
      <trkpt lat="47.15635" lon="-1.56075">
        <ele>77</ele>
        <time>2020-12-16T09:29:41.000Z</time>
      </trkpt>
      <trkpt lat="47.15623" lon="-1.56068">
        <ele>78</ele>
        <time>2020-12-16T09:29:43.000Z</time>
      </trkpt>
      <trkpt lat="47.15611" lon="-1.56059">
        <ele>79</ele>
        <time>2020-12-16T09:29:45.000Z</time>
      </trkpt>
      <trkpt lat="47.15602" lon="-1.5605">
        <ele>77</ele>
        <time>2020-12-16T09:29:47.000Z</time>
      </trkpt>
      <trkpt lat="47.15589" lon="-1.5604">
        <ele>78</ele>
        <time>2020-12-16T09:29:49.000Z</time>
      </trkpt>
      <trkpt lat="47.15576" lon="-1.5603">
        <ele>78</ele>
        <time>2020-12-16T09:29:51.000Z</time>
      </trkpt>
      <trkpt lat="47.15565" lon="-1.56021">
        <ele>78</ele>
        <time>2020-12-16T09:29:53.000Z</time>
      </trkpt>
      <trkpt lat="47.15553" lon="-1.56013">
        <ele>78</ele>
        <time>2020-12-16T09:29:55.000Z</time>
      </trkpt>
      <trkpt lat="47.15536" lon="-1.55999">
        <ele>79</ele>
        <time>2020-12-16T09:29:58.000Z</time>
      </trkpt>
      <trkpt lat="47.15525" lon="-1.55993">
        <ele>79</ele>
        <time>2020-12-16T09:30:00.000Z</time>
      </trkpt>
      <trkpt lat="47.15515" lon="-1.55985">
        <ele>79</ele>
        <time>2020-12-16T09:30:02.000Z</time>
      </trkpt>
      <trkpt lat="47.15505" lon="-1.55977">
        <ele>78</ele>
        <time>2020-12-16T09:30:04.000Z</time>
      </trkpt>
      <trkpt lat="47.15494" lon="-1.55967">
        <ele>78</ele>
        <time>2020-12-16T09:30:06.000Z</time>
      </trkpt>
      <trkpt lat="47.15483" lon="-1.55957">
        <ele>78</ele>
        <time>2020-12-16T09:30:08.000Z</time>
      </trkpt>
      <trkpt lat="47.15472" lon="-1.55949">
        <ele>78</ele>
        <time>2020-12-16T09:30:10.000Z</time>
      </trkpt>
      <trkpt lat="47.15461" lon="-1.55941">
        <ele>78</ele>
        <time>2020-12-16T09:30:12.000Z</time>
      </trkpt>
      <trkpt lat="47.1545" lon="-1.55932">
        <ele>78</ele>
        <time>2020-12-16T09:30:14.000Z</time>
      </trkpt>
      <trkpt lat="47.15439" lon="-1.55924">
        <ele>78</ele>
        <time>2020-12-16T09:30:16.000Z</time>
      </trkpt>
      <trkpt lat="47.15429" lon="-1.55915">
        <ele>78</ele>
        <time>2020-12-16T09:30:18.000Z</time>
      </trkpt>
      <trkpt lat="47.15418" lon="-1.55907">
        <ele>77</ele>
        <time>2020-12-16T09:30:20.000Z</time>
      </trkpt>
      <trkpt lat="47.15408" lon="-1.55902">
        <ele>76</ele>
        <time>2020-12-16T09:30:22.000Z</time>
      </trkpt>
      <trkpt lat="47.15398" lon="-1.55892">
        <ele>77</ele>
        <time>2020-12-16T09:30:25.000Z</time>
      </trkpt>
      <trkpt lat="47.15388" lon="-1.55887">
        <ele>78</ele>
        <time>2020-12-16T09:30:35.000Z</time>
      </trkpt>
      <trkpt lat="47.15381" lon="-1.55874">
        <ele>77</ele>
        <time>2020-12-16T09:30:38.000Z</time>
      </trkpt>
      <trkpt lat="47.15376" lon="-1.55855">
        <ele>77</ele>
        <time>2020-12-16T09:30:40.000Z</time>
      </trkpt>
      <trkpt lat="47.15373" lon="-1.55839">
        <ele>76</ele>
        <time>2020-12-16T09:30:42.000Z</time>
      </trkpt>
      <trkpt lat="47.15365" lon="-1.55821">
        <ele>74</ele>
        <time>2020-12-16T09:30:44.000Z</time>
      </trkpt>
      <trkpt lat="47.15357" lon="-1.55807">
        <ele>75</ele>
        <time>2020-12-16T09:30:46.000Z</time>
      </trkpt>
      <trkpt lat="47.15348" lon="-1.55793">
        <ele>76</ele>
        <time>2020-12-16T09:30:48.000Z</time>
      </trkpt>
      <trkpt lat="47.15335" lon="-1.55771">
        <ele>75</ele>
        <time>2020-12-16T09:30:51.000Z</time>
      </trkpt>
      <trkpt lat="47.15327" lon="-1.55754">
        <ele>76</ele>
        <time>2020-12-16T09:30:53.000Z</time>
      </trkpt>
      <trkpt lat="47.1532" lon="-1.55739">
        <ele>77</ele>
        <time>2020-12-16T09:30:55.000Z</time>
      </trkpt>
      <trkpt lat="47.15313" lon="-1.55725">
        <ele>76</ele>
        <time>2020-12-16T09:30:57.000Z</time>
      </trkpt>
      <trkpt lat="47.15305" lon="-1.55709">
        <ele>75</ele>
        <time>2020-12-16T09:30:59.000Z</time>
      </trkpt>
      <trkpt lat="47.15295" lon="-1.55694">
        <ele>74</ele>
        <time>2020-12-16T09:31:01.000Z</time>
      </trkpt>
      <trkpt lat="47.1529" lon="-1.55678">
        <ele>74</ele>
        <time>2020-12-16T09:31:03.000Z</time>
      </trkpt>
      <trkpt lat="47.15283" lon="-1.55663">
        <ele>75</ele>
        <time>2020-12-16T09:31:05.000Z</time>
      </trkpt>
      <trkpt lat="47.15274" lon="-1.55646">
        <ele>73</ele>
        <time>2020-12-16T09:31:07.000Z</time>
      </trkpt>
      <trkpt lat="47.15265" lon="-1.55623">
        <ele>74</ele>
        <time>2020-12-16T09:31:10.000Z</time>
      </trkpt>
      <trkpt lat="47.15258" lon="-1.55607">
        <ele>73</ele>
        <time>2020-12-16T09:31:12.000Z</time>
      </trkpt>
      <trkpt lat="47.15251" lon="-1.55592">
        <ele>73</ele>
        <time>2020-12-16T09:31:14.000Z</time>
      </trkpt>
      <trkpt lat="47.15246" lon="-1.55575">
        <ele>73</ele>
        <time>2020-12-16T09:31:16.000Z</time>
      </trkpt>
      <trkpt lat="47.1524" lon="-1.55557">
        <ele>73</ele>
        <time>2020-12-16T09:31:18.000Z</time>
      </trkpt>
      <trkpt lat="47.15234" lon="-1.5554">
        <ele>73</ele>
        <time>2020-12-16T09:31:20.000Z</time>
      </trkpt>
      <trkpt lat="47.15228" lon="-1.55523">
        <ele>72</ele>
        <time>2020-12-16T09:31:22.000Z</time>
      </trkpt>
      <trkpt lat="47.15222" lon="-1.55507">
        <ele>71</ele>
        <time>2020-12-16T09:31:24.000Z</time>
      </trkpt>
      <trkpt lat="47.15215" lon="-1.5549">
        <ele>71</ele>
        <time>2020-12-16T09:31:26.000Z</time>
      </trkpt>
      <trkpt lat="47.15202" lon="-1.55472">
        <ele>71</ele>
        <time>2020-12-16T09:31:29.000Z</time>
      </trkpt>
      <trkpt lat="47.15191" lon="-1.55464">
        <ele>71</ele>
        <time>2020-12-16T09:31:31.000Z</time>
      </trkpt>
      <trkpt lat="47.15179" lon="-1.55461">
        <ele>71</ele>
        <time>2020-12-16T09:31:33.000Z</time>
      </trkpt>
      <trkpt lat="47.15167" lon="-1.55461">
        <ele>72</ele>
        <time>2020-12-16T09:31:35.000Z</time>
      </trkpt>
      <trkpt lat="47.15155" lon="-1.55464">
        <ele>72</ele>
        <time>2020-12-16T09:31:37.000Z</time>
      </trkpt>
      <trkpt lat="47.15137" lon="-1.55469">
        <ele>72</ele>
        <time>2020-12-16T09:31:40.000Z</time>
      </trkpt>
      <trkpt lat="47.15125" lon="-1.55474">
        <ele>73</ele>
        <time>2020-12-16T09:31:42.000Z</time>
      </trkpt>
      <trkpt lat="47.15113" lon="-1.55478">
        <ele>73</ele>
        <time>2020-12-16T09:31:44.000Z</time>
      </trkpt>
      <trkpt lat="47.15102" lon="-1.55482">
        <ele>74</ele>
        <time>2020-12-16T09:31:46.000Z</time>
      </trkpt>
      <trkpt lat="47.15084" lon="-1.55487">
        <ele>72</ele>
        <time>2020-12-16T09:31:49.000Z</time>
      </trkpt>
      <trkpt lat="47.15066" lon="-1.55493">
        <ele>74</ele>
        <time>2020-12-16T09:31:52.000Z</time>
      </trkpt>
      <trkpt lat="47.15053" lon="-1.55497">
        <ele>73</ele>
        <time>2020-12-16T09:31:54.000Z</time>
      </trkpt>
      <trkpt lat="47.1504" lon="-1.555">
        <ele>73</ele>
        <time>2020-12-16T09:31:56.000Z</time>
      </trkpt>
      <trkpt lat="47.15021" lon="-1.55504">
        <ele>75</ele>
        <time>2020-12-16T09:31:59.000Z</time>
      </trkpt>
      <trkpt lat="47.15007" lon="-1.55508">
        <ele>74</ele>
        <time>2020-12-16T09:32:01.000Z</time>
      </trkpt>
      <trkpt lat="47.14995" lon="-1.5551">
        <ele>74</ele>
        <time>2020-12-16T09:32:03.000Z</time>
      </trkpt>
      <trkpt lat="47.14982" lon="-1.55513">
        <ele>74</ele>
        <time>2020-12-16T09:32:05.000Z</time>
      </trkpt>
      <trkpt lat="47.14971" lon="-1.55517">
        <ele>74</ele>
        <time>2020-12-16T09:32:07.000Z</time>
      </trkpt>
      <trkpt lat="47.14959" lon="-1.55521">
        <ele>74</ele>
        <time>2020-12-16T09:32:09.000Z</time>
      </trkpt>
      <trkpt lat="47.14947" lon="-1.55525">
        <ele>74</ele>
        <time>2020-12-16T09:32:11.000Z</time>
      </trkpt>
      <trkpt lat="47.14936" lon="-1.55528">
        <ele>74</ele>
        <time>2020-12-16T09:32:13.000Z</time>
      </trkpt>
      <trkpt lat="47.14924" lon="-1.55532">
        <ele>72</ele>
        <time>2020-12-16T09:32:15.000Z</time>
      </trkpt>
      <trkpt lat="47.14913" lon="-1.55534">
        <ele>72</ele>
        <time>2020-12-16T09:32:17.000Z</time>
      </trkpt>
      <trkpt lat="47.14902" lon="-1.55538">
        <ele>72</ele>
        <time>2020-12-16T09:32:19.000Z</time>
      </trkpt>
      <trkpt lat="47.14883" lon="-1.55538">
        <ele>74</ele>
        <time>2020-12-16T09:32:22.000Z</time>
      </trkpt>
      <trkpt lat="47.14872" lon="-1.55534">
        <ele>74</ele>
        <time>2020-12-16T09:32:24.000Z</time>
      </trkpt>
      <trkpt lat="47.1486" lon="-1.55528">
        <ele>74</ele>
        <time>2020-12-16T09:32:26.000Z</time>
      </trkpt>
      <trkpt lat="47.1485" lon="-1.5552">
        <ele>74</ele>
        <time>2020-12-16T09:32:28.000Z</time>
      </trkpt>
      <trkpt lat="47.14839" lon="-1.55507">
        <ele>75</ele>
        <time>2020-12-16T09:32:30.000Z</time>
      </trkpt>
      <trkpt lat="47.14823" lon="-1.55488">
        <ele>73</ele>
        <time>2020-12-16T09:32:33.000Z</time>
      </trkpt>
      <trkpt lat="47.14813" lon="-1.55478">
        <ele>72</ele>
        <time>2020-12-16T09:32:35.000Z</time>
      </trkpt>
      <trkpt lat="47.148" lon="-1.55464">
        <ele>71</ele>
        <time>2020-12-16T09:32:38.000Z</time>
      </trkpt>
      <trkpt lat="47.14791" lon="-1.55452">
        <ele>72</ele>
        <time>2020-12-16T09:32:40.000Z</time>
      </trkpt>
      <trkpt lat="47.1478" lon="-1.55442">
        <ele>73</ele>
        <time>2020-12-16T09:32:42.000Z</time>
      </trkpt>
      <trkpt lat="47.1477" lon="-1.55432">
        <ele>73</ele>
        <time>2020-12-16T09:32:44.000Z</time>
      </trkpt>
      <trkpt lat="47.14761" lon="-1.55422">
        <ele>73</ele>
        <time>2020-12-16T09:32:46.000Z</time>
      </trkpt>
      <trkpt lat="47.1475" lon="-1.55411">
        <ele>73</ele>
        <time>2020-12-16T09:32:48.000Z</time>
      </trkpt>
      <trkpt lat="47.14739" lon="-1.55402">
        <ele>74</ele>
        <time>2020-12-16T09:32:50.000Z</time>
      </trkpt>
      <trkpt lat="47.14724" lon="-1.55388">
        <ele>74</ele>
        <time>2020-12-16T09:32:53.000Z</time>
      </trkpt>
      <trkpt lat="47.14713" lon="-1.55379">
        <ele>73</ele>
        <time>2020-12-16T09:32:55.000Z</time>
      </trkpt>
      <trkpt lat="47.14703" lon="-1.55368">
        <ele>73</ele>
        <time>2020-12-16T09:32:57.000Z</time>
      </trkpt>
      <trkpt lat="47.14693" lon="-1.55357">
        <ele>73</ele>
        <time>2020-12-16T09:32:59.000Z</time>
      </trkpt>
      <trkpt lat="47.14682" lon="-1.55348">
        <ele>71</ele>
        <time>2020-12-16T09:33:01.000Z</time>
      </trkpt>
      <trkpt lat="47.14673" lon="-1.55337">
        <ele>71</ele>
        <time>2020-12-16T09:33:03.000Z</time>
      </trkpt>
      <trkpt lat="47.14665" lon="-1.55324">
        <ele>71</ele>
        <time>2020-12-16T09:33:05.000Z</time>
      </trkpt>
      <trkpt lat="47.14655" lon="-1.5531">
        <ele>71</ele>
        <time>2020-12-16T09:33:07.000Z</time>
      </trkpt>
      <trkpt lat="47.14646" lon="-1.55297">
        <ele>71</ele>
        <time>2020-12-16T09:33:09.000Z</time>
      </trkpt>
      <trkpt lat="47.14637" lon="-1.55284">
        <ele>71</ele>
        <time>2020-12-16T09:33:11.000Z</time>
      </trkpt>
      <trkpt lat="47.14628" lon="-1.55271">
        <ele>71</ele>
        <time>2020-12-16T09:33:13.000Z</time>
      </trkpt>
      <trkpt lat="47.14619" lon="-1.55258">
        <ele>72</ele>
        <time>2020-12-16T09:33:15.000Z</time>
      </trkpt>
      <trkpt lat="47.1461" lon="-1.55244">
        <ele>72</ele>
        <time>2020-12-16T09:33:17.000Z</time>
      </trkpt>
      <trkpt lat="47.14603" lon="-1.5523">
        <ele>72</ele>
        <time>2020-12-16T09:33:19.000Z</time>
      </trkpt>
      <trkpt lat="47.14595" lon="-1.55215">
        <ele>72</ele>
        <time>2020-12-16T09:33:21.000Z</time>
      </trkpt>
      <trkpt lat="47.14588" lon="-1.55201">
        <ele>72</ele>
        <time>2020-12-16T09:33:23.000Z</time>
      </trkpt>
      <trkpt lat="47.1458" lon="-1.55186">
        <ele>72</ele>
        <time>2020-12-16T09:33:25.000Z</time>
      </trkpt>
      <trkpt lat="47.14572" lon="-1.55172">
        <ele>72</ele>
        <time>2020-12-16T09:33:27.000Z</time>
      </trkpt>
      <trkpt lat="47.14565" lon="-1.55157">
        <ele>72</ele>
        <time>2020-12-16T09:33:29.000Z</time>
      </trkpt>
      <trkpt lat="47.14557" lon="-1.55143">
        <ele>72</ele>
        <time>2020-12-16T09:33:31.000Z</time>
      </trkpt>
      <trkpt lat="47.14549" lon="-1.55128">
        <ele>71</ele>
        <time>2020-12-16T09:33:33.000Z</time>
      </trkpt>
      <trkpt lat="47.1454" lon="-1.55112">
        <ele>70</ele>
        <time>2020-12-16T09:33:35.000Z</time>
      </trkpt>
      <trkpt lat="47.14527" lon="-1.55088">
        <ele>70</ele>
        <time>2020-12-16T09:33:38.000Z</time>
      </trkpt>
      <trkpt lat="47.1452" lon="-1.55072">
        <ele>69</ele>
        <time>2020-12-16T09:33:40.000Z</time>
      </trkpt>
      <trkpt lat="47.14513" lon="-1.55056">
        <ele>69</ele>
        <time>2020-12-16T09:33:42.000Z</time>
      </trkpt>
      <trkpt lat="47.14505" lon="-1.5504">
        <ele>69</ele>
        <time>2020-12-16T09:33:44.000Z</time>
      </trkpt>
      <trkpt lat="47.14496" lon="-1.55025">
        <ele>69</ele>
        <time>2020-12-16T09:33:46.000Z</time>
      </trkpt>
      <trkpt lat="47.14489" lon="-1.5501">
        <ele>69</ele>
        <time>2020-12-16T09:33:48.000Z</time>
      </trkpt>
      <trkpt lat="47.14481" lon="-1.54998">
        <ele>69</ele>
        <time>2020-12-16T09:33:50.000Z</time>
      </trkpt>
      <trkpt lat="47.14469" lon="-1.54981">
        <ele>68</ele>
        <time>2020-12-16T09:33:53.000Z</time>
      </trkpt>
      <trkpt lat="47.14459" lon="-1.54968">
        <ele>67</ele>
        <time>2020-12-16T09:33:56.000Z</time>
      </trkpt>
      <trkpt lat="47.14449" lon="-1.54958">
        <ele>68</ele>
        <time>2020-12-16T09:33:58.000Z</time>
      </trkpt>
      <trkpt lat="47.14431" lon="-1.54938">
        <ele>69</ele>
        <time>2020-12-16T09:34:01.000Z</time>
      </trkpt>
      <trkpt lat="47.1442" lon="-1.54927">
        <ele>69</ele>
        <time>2020-12-16T09:34:03.000Z</time>
      </trkpt>
      <trkpt lat="47.14404" lon="-1.54912">
        <ele>68</ele>
        <time>2020-12-16T09:34:06.000Z</time>
      </trkpt>
      <trkpt lat="47.14394" lon="-1.54901">
        <ele>68</ele>
        <time>2020-12-16T09:34:08.000Z</time>
      </trkpt>
      <trkpt lat="47.14383" lon="-1.5489">
        <ele>68</ele>
        <time>2020-12-16T09:34:10.000Z</time>
      </trkpt>
      <trkpt lat="47.14373" lon="-1.5488">
        <ele>68</ele>
        <time>2020-12-16T09:34:12.000Z</time>
      </trkpt>
      <trkpt lat="47.14363" lon="-1.5487">
        <ele>68</ele>
        <time>2020-12-16T09:34:14.000Z</time>
      </trkpt>
      <trkpt lat="47.14353" lon="-1.54861">
        <ele>68</ele>
        <time>2020-12-16T09:34:16.000Z</time>
      </trkpt>
      <trkpt lat="47.14342" lon="-1.5485">
        <ele>67</ele>
        <time>2020-12-16T09:34:18.000Z</time>
      </trkpt>
      <trkpt lat="47.14331" lon="-1.5484">
        <ele>67</ele>
        <time>2020-12-16T09:34:20.000Z</time>
      </trkpt>
      <trkpt lat="47.14314" lon="-1.54826">
        <ele>67</ele>
        <time>2020-12-16T09:34:23.000Z</time>
      </trkpt>
      <trkpt lat="47.14306" lon="-1.54814">
        <ele>66</ele>
        <time>2020-12-16T09:34:25.000Z</time>
      </trkpt>
      <trkpt lat="47.14296" lon="-1.54807">
        <ele>66</ele>
        <time>2020-12-16T09:34:27.000Z</time>
      </trkpt>
      <trkpt lat="47.14285" lon="-1.548">
        <ele>67</ele>
        <time>2020-12-16T09:34:29.000Z</time>
      </trkpt>
      <trkpt lat="47.14273" lon="-1.54793">
        <ele>68</ele>
        <time>2020-12-16T09:34:31.000Z</time>
      </trkpt>
      <trkpt lat="47.14255" lon="-1.5478">
        <ele>69</ele>
        <time>2020-12-16T09:34:34.000Z</time>
      </trkpt>
      <trkpt lat="47.14244" lon="-1.54771">
        <ele>68</ele>
        <time>2020-12-16T09:34:36.000Z</time>
      </trkpt>
      <trkpt lat="47.14227" lon="-1.54759">
        <ele>68</ele>
        <time>2020-12-16T09:34:39.000Z</time>
      </trkpt>
      <trkpt lat="47.14217" lon="-1.54752">
        <ele>69</ele>
        <time>2020-12-16T09:34:41.000Z</time>
      </trkpt>
      <trkpt lat="47.14208" lon="-1.54745">
        <ele>69</ele>
        <time>2020-12-16T09:34:43.000Z</time>
      </trkpt>
      <trkpt lat="47.142" lon="-1.54739">
        <ele>69</ele>
        <time>2020-12-16T09:34:45.000Z</time>
      </trkpt>
      <trkpt lat="47.1419" lon="-1.54731">
        <ele>69</ele>
        <time>2020-12-16T09:34:48.000Z</time>
      </trkpt>
      <trkpt lat="47.14186" lon="-1.54714">
        <ele>69</ele>
        <time>2020-12-16T09:34:51.000Z</time>
      </trkpt>
      <trkpt lat="47.14187" lon="-1.54701">
        <ele>68</ele>
        <time>2020-12-16T09:34:53.000Z</time>
      </trkpt>
      <trkpt lat="47.14192" lon="-1.54685">
        <ele>68</ele>
        <time>2020-12-16T09:34:55.000Z</time>
      </trkpt>
      <trkpt lat="47.14193" lon="-1.54668">
        <ele>69</ele>
        <time>2020-12-16T09:34:57.000Z</time>
      </trkpt>
      <trkpt lat="47.14187" lon="-1.54654">
        <ele>69</ele>
        <time>2020-12-16T09:34:59.000Z</time>
      </trkpt>
      <trkpt lat="47.14173" lon="-1.54637">
        <ele>69</ele>
        <time>2020-12-16T09:35:02.000Z</time>
      </trkpt>
      <trkpt lat="47.14163" lon="-1.54625">
        <ele>70</ele>
        <time>2020-12-16T09:35:04.000Z</time>
      </trkpt>
      <trkpt lat="47.14154" lon="-1.54613">
        <ele>70</ele>
        <time>2020-12-16T09:35:06.000Z</time>
      </trkpt>
      <trkpt lat="47.14145" lon="-1.54602">
        <ele>69</ele>
        <time>2020-12-16T09:35:08.000Z</time>
      </trkpt>
      <trkpt lat="47.14136" lon="-1.54591">
        <ele>70</ele>
        <time>2020-12-16T09:35:10.000Z</time>
      </trkpt>
      <trkpt lat="47.14121" lon="-1.54573">
        <ele>70</ele>
        <time>2020-12-16T09:35:13.000Z</time>
      </trkpt>
      <trkpt lat="47.14113" lon="-1.54561">
        <ele>69</ele>
        <time>2020-12-16T09:35:15.000Z</time>
      </trkpt>
      <trkpt lat="47.14103" lon="-1.54552">
        <ele>68</ele>
        <time>2020-12-16T09:35:17.000Z</time>
      </trkpt>
      <trkpt lat="47.14095" lon="-1.54542">
        <ele>68</ele>
        <time>2020-12-16T09:35:19.000Z</time>
      </trkpt>
      <trkpt lat="47.14088" lon="-1.54533">
        <ele>67</ele>
        <time>2020-12-16T09:35:21.000Z</time>
      </trkpt>
      <trkpt lat="47.14081" lon="-1.54522">
        <ele>66</ele>
        <time>2020-12-16T09:35:23.000Z</time>
      </trkpt>
      <trkpt lat="47.14069" lon="-1.54513">
        <ele>67</ele>
        <time>2020-12-16T09:35:25.000Z</time>
      </trkpt>
      <trkpt lat="47.14052" lon="-1.54498">
        <ele>69</ele>
        <time>2020-12-16T09:35:28.000Z</time>
      </trkpt>
      <trkpt lat="47.14038" lon="-1.54484">
        <ele>69</ele>
        <time>2020-12-16T09:35:31.000Z</time>
      </trkpt>
      <trkpt lat="47.14028" lon="-1.54475">
        <ele>70</ele>
        <time>2020-12-16T09:35:33.000Z</time>
      </trkpt>
      <trkpt lat="47.14018" lon="-1.54466">
        <ele>71</ele>
        <time>2020-12-16T09:35:35.000Z</time>
      </trkpt>
      <trkpt lat="47.14007" lon="-1.54458">
        <ele>72</ele>
        <time>2020-12-16T09:35:37.000Z</time>
      </trkpt>
      <trkpt lat="47.13998" lon="-1.54449">
        <ele>69</ele>
        <time>2020-12-16T09:35:39.000Z</time>
      </trkpt>
      <trkpt lat="47.13989" lon="-1.54444">
        <ele>70</ele>
        <time>2020-12-16T09:35:41.000Z</time>
      </trkpt>
      <trkpt lat="47.1398" lon="-1.54436">
        <ele>70</ele>
        <time>2020-12-16T09:35:43.000Z</time>
      </trkpt>
      <trkpt lat="47.1397" lon="-1.54428">
        <ele>70</ele>
        <time>2020-12-16T09:35:45.000Z</time>
      </trkpt>
      <trkpt lat="47.1396" lon="-1.54418">
        <ele>70</ele>
        <time>2020-12-16T09:35:47.000Z</time>
      </trkpt>
      <trkpt lat="47.1395" lon="-1.54409">
        <ele>70</ele>
        <time>2020-12-16T09:35:49.000Z</time>
      </trkpt>
      <trkpt lat="47.13939" lon="-1.54402">
        <ele>71</ele>
        <time>2020-12-16T09:35:51.000Z</time>
      </trkpt>
      <trkpt lat="47.1393" lon="-1.54394">
        <ele>72</ele>
        <time>2020-12-16T09:35:53.000Z</time>
      </trkpt>
      <trkpt lat="47.13921" lon="-1.54386">
        <ele>73</ele>
        <time>2020-12-16T09:35:55.000Z</time>
      </trkpt>
      <trkpt lat="47.13907" lon="-1.54375">
        <ele>74</ele>
        <time>2020-12-16T09:35:58.000Z</time>
      </trkpt>
      <trkpt lat="47.13897" lon="-1.54367">
        <ele>74</ele>
        <time>2020-12-16T09:36:00.000Z</time>
      </trkpt>
      <trkpt lat="47.13887" lon="-1.54359">
        <ele>75</ele>
        <time>2020-12-16T09:36:02.000Z</time>
      </trkpt>
      <trkpt lat="47.13877" lon="-1.54349">
        <ele>73</ele>
        <time>2020-12-16T09:36:04.000Z</time>
      </trkpt>
      <trkpt lat="47.13864" lon="-1.54338">
        <ele>73</ele>
        <time>2020-12-16T09:36:07.000Z</time>
      </trkpt>
      <trkpt lat="47.13854" lon="-1.54331">
        <ele>74</ele>
        <time>2020-12-16T09:36:09.000Z</time>
      </trkpt>
      <trkpt lat="47.13843" lon="-1.54323">
        <ele>72</ele>
        <time>2020-12-16T09:36:11.000Z</time>
      </trkpt>
      <trkpt lat="47.13832" lon="-1.54316">
        <ele>72</ele>
        <time>2020-12-16T09:36:13.000Z</time>
      </trkpt>
      <trkpt lat="47.13817" lon="-1.54306">
        <ele>72</ele>
        <time>2020-12-16T09:36:16.000Z</time>
      </trkpt>
      <trkpt lat="47.13808" lon="-1.54302">
        <ele>73</ele>
        <time>2020-12-16T09:36:18.000Z</time>
      </trkpt>
      <trkpt lat="47.13797" lon="-1.54297">
        <ele>73</ele>
        <time>2020-12-16T09:36:20.000Z</time>
      </trkpt>
      <trkpt lat="47.13787" lon="-1.54293">
        <ele>73</ele>
        <time>2020-12-16T09:36:22.000Z</time>
      </trkpt>
      <trkpt lat="47.13772" lon="-1.54286">
        <ele>73</ele>
        <time>2020-12-16T09:36:25.000Z</time>
      </trkpt>
      <trkpt lat="47.13762" lon="-1.54281">
        <ele>72</ele>
        <time>2020-12-16T09:36:27.000Z</time>
      </trkpt>
      <trkpt lat="47.13753" lon="-1.54278">
        <ele>73</ele>
        <time>2020-12-16T09:36:29.000Z</time>
      </trkpt>
      <trkpt lat="47.13743" lon="-1.54274">
        <ele>73</ele>
        <time>2020-12-16T09:36:31.000Z</time>
      </trkpt>
      <trkpt lat="47.13732" lon="-1.54269">
        <ele>73</ele>
        <time>2020-12-16T09:36:33.000Z</time>
      </trkpt>
      <trkpt lat="47.13722" lon="-1.54265">
        <ele>73</ele>
        <time>2020-12-16T09:36:35.000Z</time>
      </trkpt>
      <trkpt lat="47.1371" lon="-1.5426">
        <ele>73</ele>
        <time>2020-12-16T09:36:37.000Z</time>
      </trkpt>
      <trkpt lat="47.13697" lon="-1.54253">
        <ele>73</ele>
        <time>2020-12-16T09:36:39.000Z</time>
      </trkpt>
      <trkpt lat="47.13679" lon="-1.54244">
        <ele>75</ele>
        <time>2020-12-16T09:36:42.000Z</time>
      </trkpt>
      <trkpt lat="47.13662" lon="-1.54235">
        <ele>75</ele>
        <time>2020-12-16T09:36:45.000Z</time>
      </trkpt>
      <trkpt lat="47.13652" lon="-1.54232">
        <ele>74</ele>
        <time>2020-12-16T09:36:47.000Z</time>
      </trkpt>
      <trkpt lat="47.13643" lon="-1.54228">
        <ele>74</ele>
        <time>2020-12-16T09:36:49.000Z</time>
      </trkpt>
      <trkpt lat="47.13632" lon="-1.54222">
        <ele>75</ele>
        <time>2020-12-16T09:36:51.000Z</time>
      </trkpt>
      <trkpt lat="47.13621" lon="-1.54216">
        <ele>75</ele>
        <time>2020-12-16T09:36:53.000Z</time>
      </trkpt>
      <trkpt lat="47.13611" lon="-1.54207">
        <ele>73</ele>
        <time>2020-12-16T09:36:55.000Z</time>
      </trkpt>
      <trkpt lat="47.13601" lon="-1.54197">
        <ele>74</ele>
        <time>2020-12-16T09:36:57.000Z</time>
      </trkpt>
      <trkpt lat="47.1359" lon="-1.54189">
        <ele>74</ele>
        <time>2020-12-16T09:36:59.000Z</time>
      </trkpt>
      <trkpt lat="47.13579" lon="-1.54178">
        <ele>74</ele>
        <time>2020-12-16T09:37:01.000Z</time>
      </trkpt>
      <trkpt lat="47.13569" lon="-1.54167">
        <ele>74</ele>
        <time>2020-12-16T09:37:03.000Z</time>
      </trkpt>
      <trkpt lat="47.1356" lon="-1.54155">
        <ele>74</ele>
        <time>2020-12-16T09:37:05.000Z</time>
      </trkpt>
      <trkpt lat="47.13551" lon="-1.54142">
        <ele>74</ele>
        <time>2020-12-16T09:37:07.000Z</time>
      </trkpt>
      <trkpt lat="47.13543" lon="-1.54129">
        <ele>74</ele>
        <time>2020-12-16T09:37:09.000Z</time>
      </trkpt>
      <trkpt lat="47.13534" lon="-1.54117">
        <ele>72</ele>
        <time>2020-12-16T09:37:11.000Z</time>
      </trkpt>
      <trkpt lat="47.13526" lon="-1.54105">
        <ele>72</ele>
        <time>2020-12-16T09:37:13.000Z</time>
      </trkpt>
      <trkpt lat="47.13517" lon="-1.54093">
        <ele>73</ele>
        <time>2020-12-16T09:37:15.000Z</time>
      </trkpt>
      <trkpt lat="47.13505" lon="-1.54073">
        <ele>74</ele>
        <time>2020-12-16T09:37:18.000Z</time>
      </trkpt>
      <trkpt lat="47.13492" lon="-1.54054">
        <ele>73</ele>
        <time>2020-12-16T09:37:21.000Z</time>
      </trkpt>
      <trkpt lat="47.13484" lon="-1.54041">
        <ele>74</ele>
        <time>2020-12-16T09:37:23.000Z</time>
      </trkpt>
      <trkpt lat="47.13475" lon="-1.54027">
        <ele>74</ele>
        <time>2020-12-16T09:37:25.000Z</time>
      </trkpt>
      <trkpt lat="47.13467" lon="-1.54012">
        <ele>75</ele>
        <time>2020-12-16T09:37:27.000Z</time>
      </trkpt>
      <trkpt lat="47.13459" lon="-1.53997">
        <ele>75</ele>
        <time>2020-12-16T09:37:29.000Z</time>
      </trkpt>
      <trkpt lat="47.13449" lon="-1.53982">
        <ele>73</ele>
        <time>2020-12-16T09:37:31.000Z</time>
      </trkpt>
      <trkpt lat="47.13443" lon="-1.53967">
        <ele>73</ele>
        <time>2020-12-16T09:37:33.000Z</time>
      </trkpt>
      <trkpt lat="47.13435" lon="-1.53953">
        <ele>72</ele>
        <time>2020-12-16T09:37:35.000Z</time>
      </trkpt>
      <trkpt lat="47.13427" lon="-1.53938">
        <ele>72</ele>
        <time>2020-12-16T09:37:37.000Z</time>
      </trkpt>
      <trkpt lat="47.13419" lon="-1.53922">
        <ele>70</ele>
        <time>2020-12-16T09:37:39.000Z</time>
      </trkpt>
      <trkpt lat="47.13411" lon="-1.53907">
        <ele>69</ele>
        <time>2020-12-16T09:37:41.000Z</time>
      </trkpt>
      <trkpt lat="47.13403" lon="-1.53892">
        <ele>69</ele>
        <time>2020-12-16T09:37:43.000Z</time>
      </trkpt>
      <trkpt lat="47.13395" lon="-1.53878">
        <ele>70</ele>
        <time>2020-12-16T09:37:45.000Z</time>
      </trkpt>
      <trkpt lat="47.13389" lon="-1.53866">
        <ele>68</ele>
        <time>2020-12-16T09:37:47.000Z</time>
      </trkpt>
      <trkpt lat="47.13381" lon="-1.53855">
        <ele>68</ele>
        <time>2020-12-16T09:37:49.000Z</time>
      </trkpt>
      <trkpt lat="47.13374" lon="-1.53841">
        <ele>68</ele>
        <time>2020-12-16T09:37:51.000Z</time>
      </trkpt>
      <trkpt lat="47.13368" lon="-1.53828">
        <ele>68</ele>
        <time>2020-12-16T09:37:53.000Z</time>
      </trkpt>
      <trkpt lat="47.13361" lon="-1.53814">
        <ele>69</ele>
        <time>2020-12-16T09:37:55.000Z</time>
      </trkpt>
      <trkpt lat="47.13351" lon="-1.53792">
        <ele>69</ele>
        <time>2020-12-16T09:37:58.000Z</time>
      </trkpt>
      <trkpt lat="47.13344" lon="-1.53778">
        <ele>69</ele>
        <time>2020-12-16T09:38:00.000Z</time>
      </trkpt>
      <trkpt lat="47.13336" lon="-1.53765">
        <ele>70</ele>
        <time>2020-12-16T09:38:02.000Z</time>
      </trkpt>
      <trkpt lat="47.13329" lon="-1.53751">
        <ele>71</ele>
        <time>2020-12-16T09:38:04.000Z</time>
      </trkpt>
      <trkpt lat="47.13319" lon="-1.5373">
        <ele>71</ele>
        <time>2020-12-16T09:38:07.000Z</time>
      </trkpt>
      <trkpt lat="47.13313" lon="-1.53715">
        <ele>71</ele>
        <time>2020-12-16T09:38:09.000Z</time>
      </trkpt>
      <trkpt lat="47.13308" lon="-1.537">
        <ele>70</ele>
        <time>2020-12-16T09:38:11.000Z</time>
      </trkpt>
      <trkpt lat="47.133" lon="-1.53677">
        <ele>70</ele>
        <time>2020-12-16T09:38:14.000Z</time>
      </trkpt>
      <trkpt lat="47.13295" lon="-1.53663">
        <ele>70</ele>
        <time>2020-12-16T09:38:16.000Z</time>
      </trkpt>
      <trkpt lat="47.13286" lon="-1.53641">
        <ele>69</ele>
        <time>2020-12-16T09:38:19.000Z</time>
      </trkpt>
      <trkpt lat="47.1328" lon="-1.53627">
        <ele>70</ele>
        <time>2020-12-16T09:38:21.000Z</time>
      </trkpt>
      <trkpt lat="47.13275" lon="-1.53614">
        <ele>69</ele>
        <time>2020-12-16T09:38:23.000Z</time>
      </trkpt>
      <trkpt lat="47.13271" lon="-1.53599">
        <ele>71</ele>
        <time>2020-12-16T09:38:25.000Z</time>
      </trkpt>
      <trkpt lat="47.13266" lon="-1.53584">
        <ele>71</ele>
        <time>2020-12-16T09:38:27.000Z</time>
      </trkpt>
      <trkpt lat="47.13261" lon="-1.5357">
        <ele>71</ele>
        <time>2020-12-16T09:38:29.000Z</time>
      </trkpt>
      <trkpt lat="47.13255" lon="-1.53555">
        <ele>72</ele>
        <time>2020-12-16T09:38:31.000Z</time>
      </trkpt>
      <trkpt lat="47.13251" lon="-1.5354">
        <ele>72</ele>
        <time>2020-12-16T09:38:33.000Z</time>
      </trkpt>
      <trkpt lat="47.13246" lon="-1.53525">
        <ele>70</ele>
        <time>2020-12-16T09:38:35.000Z</time>
      </trkpt>
      <trkpt lat="47.13242" lon="-1.5351">
        <ele>71</ele>
        <time>2020-12-16T09:38:37.000Z</time>
      </trkpt>
      <trkpt lat="47.13238" lon="-1.53495">
        <ele>71</ele>
        <time>2020-12-16T09:38:39.000Z</time>
      </trkpt>
      <trkpt lat="47.13234" lon="-1.5348">
        <ele>71</ele>
        <time>2020-12-16T09:38:41.000Z</time>
      </trkpt>
      <trkpt lat="47.13224" lon="-1.5345">
        <ele>72</ele>
        <time>2020-12-16T09:38:45.000Z</time>
      </trkpt>
      <trkpt lat="47.13219" lon="-1.53433">
        <ele>71</ele>
        <time>2020-12-16T09:38:47.000Z</time>
      </trkpt>
      <trkpt lat="47.13215" lon="-1.53419">
        <ele>72</ele>
        <time>2020-12-16T09:38:49.000Z</time>
      </trkpt>
      <trkpt lat="47.13211" lon="-1.53403">
        <ele>71</ele>
        <time>2020-12-16T09:38:51.000Z</time>
      </trkpt>
      <trkpt lat="47.13205" lon="-1.53381">
        <ele>70</ele>
        <time>2020-12-16T09:38:54.000Z</time>
      </trkpt>
      <trkpt lat="47.132" lon="-1.53366">
        <ele>70</ele>
        <time>2020-12-16T09:38:56.000Z</time>
      </trkpt>
      <trkpt lat="47.13195" lon="-1.53352">
        <ele>71</ele>
        <time>2020-12-16T09:38:58.000Z</time>
      </trkpt>
      <trkpt lat="47.13191" lon="-1.53337">
        <ele>69</ele>
        <time>2020-12-16T09:39:00.000Z</time>
      </trkpt>
      <trkpt lat="47.13186" lon="-1.53321">
        <ele>69</ele>
        <time>2020-12-16T09:39:02.000Z</time>
      </trkpt>
      <trkpt lat="47.13178" lon="-1.533">
        <ele>70</ele>
        <time>2020-12-16T09:39:05.000Z</time>
      </trkpt>
      <trkpt lat="47.13172" lon="-1.53287">
        <ele>69</ele>
        <time>2020-12-16T09:39:07.000Z</time>
      </trkpt>
      <trkpt lat="47.13168" lon="-1.53273">
        <ele>69</ele>
        <time>2020-12-16T09:39:09.000Z</time>
      </trkpt>
      <trkpt lat="47.13164" lon="-1.53258">
        <ele>70</ele>
        <time>2020-12-16T09:39:11.000Z</time>
      </trkpt>
      <trkpt lat="47.1316" lon="-1.53243">
        <ele>69</ele>
        <time>2020-12-16T09:39:13.000Z</time>
      </trkpt>
      <trkpt lat="47.13158" lon="-1.5323">
        <ele>68</ele>
        <time>2020-12-16T09:39:15.000Z</time>
      </trkpt>
      <trkpt lat="47.1316" lon="-1.53215">
        <ele>70</ele>
        <time>2020-12-16T09:39:42.000Z</time>
      </trkpt>
      <trkpt lat="47.1317" lon="-1.53209">
        <ele>72</ele>
        <time>2020-12-16T09:39:44.000Z</time>
      </trkpt>
      <trkpt lat="47.13182" lon="-1.53206">
        <ele>73</ele>
        <time>2020-12-16T09:39:46.000Z</time>
      </trkpt>
      <trkpt lat="47.13208" lon="-1.53196">
        <ele>74</ele>
        <time>2020-12-16T09:39:50.000Z</time>
      </trkpt>
      <trkpt lat="47.13218" lon="-1.53189">
        <ele>72</ele>
        <time>2020-12-16T09:39:52.000Z</time>
      </trkpt>
      <trkpt lat="47.13235" lon="-1.53181">
        <ele>70</ele>
        <time>2020-12-16T09:39:55.000Z</time>
      </trkpt>
      <trkpt lat="47.13254" lon="-1.53175">
        <ele>72</ele>
        <time>2020-12-16T09:39:58.000Z</time>
      </trkpt>
      <trkpt lat="47.13265" lon="-1.53171">
        <ele>73</ele>
        <time>2020-12-16T09:40:00.000Z</time>
      </trkpt>
      <trkpt lat="47.13277" lon="-1.53166">
        <ele>75</ele>
        <time>2020-12-16T09:40:02.000Z</time>
      </trkpt>
      <trkpt lat="47.13294" lon="-1.53157">
        <ele>74</ele>
        <time>2020-12-16T09:40:05.000Z</time>
      </trkpt>
      <trkpt lat="47.13305" lon="-1.53148">
        <ele>73</ele>
        <time>2020-12-16T09:40:07.000Z</time>
      </trkpt>
      <trkpt lat="47.13319" lon="-1.53147">
        <ele>75</ele>
        <time>2020-12-16T09:40:09.000Z</time>
      </trkpt>
      <trkpt lat="47.13332" lon="-1.53143">
        <ele>76</ele>
        <time>2020-12-16T09:40:11.000Z</time>
      </trkpt>
      <trkpt lat="47.13346" lon="-1.53141">
        <ele>77</ele>
        <time>2020-12-16T09:40:13.000Z</time>
      </trkpt>
      <trkpt lat="47.1336" lon="-1.53139">
        <ele>77</ele>
        <time>2020-12-16T09:40:15.000Z</time>
      </trkpt>
      <trkpt lat="47.13375" lon="-1.53136">
        <ele>75</ele>
        <time>2020-12-16T09:40:17.000Z</time>
      </trkpt>
      <trkpt lat="47.13389" lon="-1.53134">
        <ele>75</ele>
        <time>2020-12-16T09:40:19.000Z</time>
      </trkpt>
      <trkpt lat="47.13408" lon="-1.53132">
        <ele>76</ele>
        <time>2020-12-16T09:40:22.000Z</time>
      </trkpt>
      <trkpt lat="47.13425" lon="-1.5313">
        <ele>75</ele>
        <time>2020-12-16T09:40:25.000Z</time>
      </trkpt>
      <trkpt lat="47.13436" lon="-1.53117">
        <ele>75</ele>
        <time>2020-12-16T09:40:28.000Z</time>
      </trkpt>
      <trkpt lat="47.13442" lon="-1.53102">
        <ele>75</ele>
        <time>2020-12-16T09:40:30.000Z</time>
      </trkpt>
      <trkpt lat="47.13451" lon="-1.53076">
        <ele>75</ele>
        <time>2020-12-16T09:40:33.000Z</time>
      </trkpt>
      <trkpt lat="47.1346" lon="-1.5306">
        <ele>76</ele>
        <time>2020-12-16T09:40:35.000Z</time>
      </trkpt>
      <trkpt lat="47.13468" lon="-1.53044">
        <ele>76</ele>
        <time>2020-12-16T09:40:37.000Z</time>
      </trkpt>
      <trkpt lat="47.13475" lon="-1.53028">
        <ele>77</ele>
        <time>2020-12-16T09:40:39.000Z</time>
      </trkpt>
      <trkpt lat="47.13482" lon="-1.53012">
        <ele>77</ele>
        <time>2020-12-16T09:40:41.000Z</time>
      </trkpt>
      <trkpt lat="47.13489" lon="-1.52996">
        <ele>78</ele>
        <time>2020-12-16T09:40:43.000Z</time>
      </trkpt>
      <trkpt lat="47.13496" lon="-1.52981">
        <ele>78</ele>
        <time>2020-12-16T09:40:45.000Z</time>
      </trkpt>
      <trkpt lat="47.13504" lon="-1.52965">
        <ele>78</ele>
        <time>2020-12-16T09:40:47.000Z</time>
      </trkpt>
      <trkpt lat="47.13511" lon="-1.5295">
        <ele>78</ele>
        <time>2020-12-16T09:40:49.000Z</time>
      </trkpt>
      <trkpt lat="47.13521" lon="-1.52926">
        <ele>78</ele>
        <time>2020-12-16T09:40:52.000Z</time>
      </trkpt>
      <trkpt lat="47.13528" lon="-1.52911">
        <ele>79</ele>
        <time>2020-12-16T09:40:54.000Z</time>
      </trkpt>
      <trkpt lat="47.13535" lon="-1.52895">
        <ele>80</ele>
        <time>2020-12-16T09:40:56.000Z</time>
      </trkpt>
      <trkpt lat="47.13542" lon="-1.52879">
        <ele>79</ele>
        <time>2020-12-16T09:40:58.000Z</time>
      </trkpt>
      <trkpt lat="47.13553" lon="-1.52856">
        <ele>79</ele>
        <time>2020-12-16T09:41:01.000Z</time>
      </trkpt>
      <trkpt lat="47.13564" lon="-1.52831">
        <ele>79</ele>
        <time>2020-12-16T09:41:04.000Z</time>
      </trkpt>
      <trkpt lat="47.13575" lon="-1.52807">
        <ele>76</ele>
        <time>2020-12-16T09:41:07.000Z</time>
      </trkpt>
      <trkpt lat="47.13585" lon="-1.52784">
        <ele>77</ele>
        <time>2020-12-16T09:41:10.000Z</time>
      </trkpt>
      <trkpt lat="47.13596" lon="-1.52758">
        <ele>74</ele>
        <time>2020-12-16T09:41:13.000Z</time>
      </trkpt>
      <trkpt lat="47.13604" lon="-1.52745">
        <ele>76</ele>
        <time>2020-12-16T09:41:15.000Z</time>
      </trkpt>
      <trkpt lat="47.13613" lon="-1.52732">
        <ele>76</ele>
        <time>2020-12-16T09:41:17.000Z</time>
      </trkpt>
      <trkpt lat="47.13621" lon="-1.52719">
        <ele>77</ele>
        <time>2020-12-16T09:41:19.000Z</time>
      </trkpt>
      <trkpt lat="47.1363" lon="-1.52705">
        <ele>77</ele>
        <time>2020-12-16T09:41:21.000Z</time>
      </trkpt>
      <trkpt lat="47.13639" lon="-1.52691">
        <ele>80</ele>
        <time>2020-12-16T09:41:23.000Z</time>
      </trkpt>
      <trkpt lat="47.13647" lon="-1.52677">
        <ele>80</ele>
        <time>2020-12-16T09:41:25.000Z</time>
      </trkpt>
      <trkpt lat="47.13654" lon="-1.52664">
        <ele>81</ele>
        <time>2020-12-16T09:41:27.000Z</time>
      </trkpt>
      <trkpt lat="47.13667" lon="-1.52644">
        <ele>81</ele>
        <time>2020-12-16T09:41:30.000Z</time>
      </trkpt>
      <trkpt lat="47.13676" lon="-1.5263">
        <ele>81</ele>
        <time>2020-12-16T09:41:32.000Z</time>
      </trkpt>
      <trkpt lat="47.13685" lon="-1.52616">
        <ele>81</ele>
        <time>2020-12-16T09:41:34.000Z</time>
      </trkpt>
      <trkpt lat="47.13694" lon="-1.52602">
        <ele>81</ele>
        <time>2020-12-16T09:41:36.000Z</time>
      </trkpt>
      <trkpt lat="47.13702" lon="-1.52587">
        <ele>81</ele>
        <time>2020-12-16T09:41:38.000Z</time>
      </trkpt>
      <trkpt lat="47.13715" lon="-1.52567">
        <ele>81</ele>
        <time>2020-12-16T09:41:41.000Z</time>
      </trkpt>
      <trkpt lat="47.13724" lon="-1.52553">
        <ele>81</ele>
        <time>2020-12-16T09:41:43.000Z</time>
      </trkpt>
      <trkpt lat="47.13733" lon="-1.52539">
        <ele>82</ele>
        <time>2020-12-16T09:41:45.000Z</time>
      </trkpt>
      <trkpt lat="47.13741" lon="-1.52525">
        <ele>82</ele>
        <time>2020-12-16T09:41:47.000Z</time>
      </trkpt>
      <trkpt lat="47.13755" lon="-1.52504">
        <ele>83</ele>
        <time>2020-12-16T09:41:50.000Z</time>
      </trkpt>
      <trkpt lat="47.13764" lon="-1.5249">
        <ele>83</ele>
        <time>2020-12-16T09:41:52.000Z</time>
      </trkpt>
      <trkpt lat="47.13777" lon="-1.52468">
        <ele>80</ele>
        <time>2020-12-16T09:41:55.000Z</time>
      </trkpt>
      <trkpt lat="47.13789" lon="-1.52446">
        <ele>77</ele>
        <time>2020-12-16T09:41:58.000Z</time>
      </trkpt>
      <trkpt lat="47.13798" lon="-1.52433">
        <ele>79</ele>
        <time>2020-12-16T09:42:00.000Z</time>
      </trkpt>
      <trkpt lat="47.13808" lon="-1.5242">
        <ele>80</ele>
        <time>2020-12-16T09:42:02.000Z</time>
      </trkpt>
      <trkpt lat="47.13817" lon="-1.52406">
        <ele>80</ele>
        <time>2020-12-16T09:42:04.000Z</time>
      </trkpt>
      <trkpt lat="47.13827" lon="-1.52393">
        <ele>78</ele>
        <time>2020-12-16T09:42:06.000Z</time>
      </trkpt>
      <trkpt lat="47.13835" lon="-1.52379">
        <ele>77</ele>
        <time>2020-12-16T09:42:08.000Z</time>
      </trkpt>
      <trkpt lat="47.13844" lon="-1.52366">
        <ele>78</ele>
        <time>2020-12-16T09:42:10.000Z</time>
      </trkpt>
      <trkpt lat="47.13854" lon="-1.52352">
        <ele>79</ele>
        <time>2020-12-16T09:42:12.000Z</time>
      </trkpt>
      <trkpt lat="47.1386" lon="-1.52336">
        <ele>80</ele>
        <time>2020-12-16T09:42:14.000Z</time>
      </trkpt>
      <trkpt lat="47.13864" lon="-1.5232">
        <ele>79</ele>
        <time>2020-12-16T09:42:16.000Z</time>
      </trkpt>
      <trkpt lat="47.13879" lon="-1.52301">
        <ele>80</ele>
        <time>2020-12-16T09:42:19.000Z</time>
      </trkpt>
      <trkpt lat="47.13897" lon="-1.52287">
        <ele>82</ele>
        <time>2020-12-16T09:42:22.000Z</time>
      </trkpt>
      <trkpt lat="47.13912" lon="-1.52266">
        <ele>83</ele>
        <time>2020-12-16T09:42:25.000Z</time>
      </trkpt>
      <trkpt lat="47.1392" lon="-1.5225">
        <ele>81</ele>
        <time>2020-12-16T09:42:27.000Z</time>
      </trkpt>
      <trkpt lat="47.1393" lon="-1.52236">
        <ele>80</ele>
        <time>2020-12-16T09:42:29.000Z</time>
      </trkpt>
      <trkpt lat="47.13941" lon="-1.52226">
        <ele>81</ele>
        <time>2020-12-16T09:42:31.000Z</time>
      </trkpt>
      <trkpt lat="47.1395" lon="-1.52213">
        <ele>81</ele>
        <time>2020-12-16T09:42:33.000Z</time>
      </trkpt>
      <trkpt lat="47.13959" lon="-1.522">
        <ele>81</ele>
        <time>2020-12-16T09:42:35.000Z</time>
      </trkpt>
      <trkpt lat="47.13967" lon="-1.52185">
        <ele>78</ele>
        <time>2020-12-16T09:42:37.000Z</time>
      </trkpt>
      <trkpt lat="47.13977" lon="-1.52173">
        <ele>79</ele>
        <time>2020-12-16T09:42:39.000Z</time>
      </trkpt>
      <trkpt lat="47.13986" lon="-1.52162">
        <ele>80</ele>
        <time>2020-12-16T09:42:41.000Z</time>
      </trkpt>
      <trkpt lat="47.13997" lon="-1.52151">
        <ele>79</ele>
        <time>2020-12-16T09:42:43.000Z</time>
      </trkpt>
      <trkpt lat="47.14017" lon="-1.52133">
        <ele>81</ele>
        <time>2020-12-16T09:42:47.000Z</time>
      </trkpt>
      <trkpt lat="47.14022" lon="-1.52117">
        <ele>82</ele>
        <time>2020-12-16T09:42:50.000Z</time>
      </trkpt>
      <trkpt lat="47.14033" lon="-1.52104">
        <ele>76</ele>
        <time>2020-12-16T09:42:55.000Z</time>
      </trkpt>
      <trkpt lat="47.14043" lon="-1.52095">
        <ele>78</ele>
        <time>2020-12-16T09:42:57.000Z</time>
      </trkpt>
      <trkpt lat="47.14054" lon="-1.52086">
        <ele>78</ele>
        <time>2020-12-16T09:42:59.000Z</time>
      </trkpt>
      <trkpt lat="47.14071" lon="-1.52069">
        <ele>82</ele>
        <time>2020-12-16T09:43:02.000Z</time>
      </trkpt>
      <trkpt lat="47.14082" lon="-1.52056">
        <ele>83</ele>
        <time>2020-12-16T09:43:04.000Z</time>
      </trkpt>
      <trkpt lat="47.14099" lon="-1.52039">
        <ele>83</ele>
        <time>2020-12-16T09:43:07.000Z</time>
      </trkpt>
      <trkpt lat="47.14119" lon="-1.52022">
        <ele>82</ele>
        <time>2020-12-16T09:43:10.000Z</time>
      </trkpt>
      <trkpt lat="47.14129" lon="-1.52011">
        <ele>83</ele>
        <time>2020-12-16T09:43:12.000Z</time>
      </trkpt>
      <trkpt lat="47.14141" lon="-1.52001">
        <ele>83</ele>
        <time>2020-12-16T09:43:14.000Z</time>
      </trkpt>
      <trkpt lat="47.14152" lon="-1.51991">
        <ele>85</ele>
        <time>2020-12-16T09:43:16.000Z</time>
      </trkpt>
      <trkpt lat="47.14163" lon="-1.5198">
        <ele>86</ele>
        <time>2020-12-16T09:43:18.000Z</time>
      </trkpt>
      <trkpt lat="47.14174" lon="-1.5197">
        <ele>85</ele>
        <time>2020-12-16T09:43:20.000Z</time>
      </trkpt>
      <trkpt lat="47.14185" lon="-1.51957">
        <ele>85</ele>
        <time>2020-12-16T09:43:22.000Z</time>
      </trkpt>
      <trkpt lat="47.14197" lon="-1.51945">
        <ele>86</ele>
        <time>2020-12-16T09:43:24.000Z</time>
      </trkpt>
      <trkpt lat="47.14208" lon="-1.51937">
        <ele>87</ele>
        <time>2020-12-16T09:43:26.000Z</time>
      </trkpt>
      <trkpt lat="47.14219" lon="-1.51925">
        <ele>86</ele>
        <time>2020-12-16T09:43:28.000Z</time>
      </trkpt>
      <trkpt lat="47.1423" lon="-1.51914">
        <ele>86</ele>
        <time>2020-12-16T09:43:30.000Z</time>
      </trkpt>
      <trkpt lat="47.14241" lon="-1.51903">
        <ele>87</ele>
        <time>2020-12-16T09:43:32.000Z</time>
      </trkpt>
      <trkpt lat="47.14252" lon="-1.51891">
        <ele>85</ele>
        <time>2020-12-16T09:43:34.000Z</time>
      </trkpt>
      <trkpt lat="47.14264" lon="-1.5188">
        <ele>84</ele>
        <time>2020-12-16T09:43:36.000Z</time>
      </trkpt>
      <trkpt lat="47.14282" lon="-1.51864">
        <ele>83</ele>
        <time>2020-12-16T09:43:39.000Z</time>
      </trkpt>
      <trkpt lat="47.14293" lon="-1.51853">
        <ele>83</ele>
        <time>2020-12-16T09:43:41.000Z</time>
      </trkpt>
      <trkpt lat="47.14304" lon="-1.51842">
        <ele>83</ele>
        <time>2020-12-16T09:43:43.000Z</time>
      </trkpt>
      <trkpt lat="47.14315" lon="-1.51832">
        <ele>81</ele>
        <time>2020-12-16T09:43:45.000Z</time>
      </trkpt>
      <trkpt lat="47.14325" lon="-1.5182">
        <ele>81</ele>
        <time>2020-12-16T09:43:47.000Z</time>
      </trkpt>
      <trkpt lat="47.14335" lon="-1.51806">
        <ele>81</ele>
        <time>2020-12-16T09:43:49.000Z</time>
      </trkpt>
      <trkpt lat="47.14346" lon="-1.51797">
        <ele>83</ele>
        <time>2020-12-16T09:43:51.000Z</time>
      </trkpt>
      <trkpt lat="47.14358" lon="-1.51785">
        <ele>84</ele>
        <time>2020-12-16T09:43:53.000Z</time>
      </trkpt>
      <trkpt lat="47.14369" lon="-1.51772">
        <ele>84</ele>
        <time>2020-12-16T09:43:55.000Z</time>
      </trkpt>
      <trkpt lat="47.1438" lon="-1.51761">
        <ele>83</ele>
        <time>2020-12-16T09:43:57.000Z</time>
      </trkpt>
      <trkpt lat="47.14392" lon="-1.51749">
        <ele>82</ele>
        <time>2020-12-16T09:43:59.000Z</time>
      </trkpt>
      <trkpt lat="47.14407" lon="-1.51732">
        <ele>81</ele>
        <time>2020-12-16T09:44:02.000Z</time>
      </trkpt>
      <trkpt lat="47.1442" lon="-1.51722">
        <ele>82</ele>
        <time>2020-12-16T09:44:04.000Z</time>
      </trkpt>
      <trkpt lat="47.14433" lon="-1.51708">
        <ele>81</ele>
        <time>2020-12-16T09:44:06.000Z</time>
      </trkpt>
      <trkpt lat="47.14445" lon="-1.51697">
        <ele>81</ele>
        <time>2020-12-16T09:44:08.000Z</time>
      </trkpt>
      <trkpt lat="47.14461" lon="-1.51678">
        <ele>83</ele>
        <time>2020-12-16T09:44:11.000Z</time>
      </trkpt>
      <trkpt lat="47.14471" lon="-1.51667">
        <ele>82</ele>
        <time>2020-12-16T09:44:13.000Z</time>
      </trkpt>
      <trkpt lat="47.14482" lon="-1.51655">
        <ele>81</ele>
        <time>2020-12-16T09:44:15.000Z</time>
      </trkpt>
      <trkpt lat="47.14495" lon="-1.51645">
        <ele>82</ele>
        <time>2020-12-16T09:44:17.000Z</time>
      </trkpt>
      <trkpt lat="47.14507" lon="-1.51632">
        <ele>82</ele>
        <time>2020-12-16T09:44:19.000Z</time>
      </trkpt>
      <trkpt lat="47.14518" lon="-1.51619">
        <ele>80</ele>
        <time>2020-12-16T09:44:21.000Z</time>
      </trkpt>
      <trkpt lat="47.14529" lon="-1.51606">
        <ele>80</ele>
        <time>2020-12-16T09:44:23.000Z</time>
      </trkpt>
      <trkpt lat="47.14543" lon="-1.51586">
        <ele>80</ele>
        <time>2020-12-16T09:44:26.000Z</time>
      </trkpt>
      <trkpt lat="47.14561" lon="-1.51564">
        <ele>78</ele>
        <time>2020-12-16T09:44:29.000Z</time>
      </trkpt>
      <trkpt lat="47.14571" lon="-1.51549">
        <ele>77</ele>
        <time>2020-12-16T09:44:31.000Z</time>
      </trkpt>
      <trkpt lat="47.14579" lon="-1.51532">
        <ele>79</ele>
        <time>2020-12-16T09:44:33.000Z</time>
      </trkpt>
      <trkpt lat="47.14587" lon="-1.51516">
        <ele>80</ele>
        <time>2020-12-16T09:44:35.000Z</time>
      </trkpt>
      <trkpt lat="47.14595" lon="-1.51501">
        <ele>82</ele>
        <time>2020-12-16T09:44:37.000Z</time>
      </trkpt>
      <trkpt lat="47.14603" lon="-1.51485">
        <ele>82</ele>
        <time>2020-12-16T09:44:39.000Z</time>
      </trkpt>
      <trkpt lat="47.14611" lon="-1.5147">
        <ele>82</ele>
        <time>2020-12-16T09:44:41.000Z</time>
      </trkpt>
      <trkpt lat="47.14618" lon="-1.51455">
        <ele>82</ele>
        <time>2020-12-16T09:44:43.000Z</time>
      </trkpt>
      <trkpt lat="47.14626" lon="-1.5144">
        <ele>82</ele>
        <time>2020-12-16T09:44:45.000Z</time>
      </trkpt>
      <trkpt lat="47.14633" lon="-1.51424">
        <ele>80</ele>
        <time>2020-12-16T09:44:47.000Z</time>
      </trkpt>
      <trkpt lat="47.1464" lon="-1.51408">
        <ele>80</ele>
        <time>2020-12-16T09:44:49.000Z</time>
      </trkpt>
      <trkpt lat="47.14649" lon="-1.51391">
        <ele>80</ele>
        <time>2020-12-16T09:44:51.000Z</time>
      </trkpt>
      <trkpt lat="47.14659" lon="-1.51372">
        <ele>79</ele>
        <time>2020-12-16T09:44:53.000Z</time>
      </trkpt>
      <trkpt lat="47.14669" lon="-1.51351">
        <ele>76</ele>
        <time>2020-12-16T09:44:55.000Z</time>
      </trkpt>
      <trkpt lat="47.14679" lon="-1.51332">
        <ele>78</ele>
        <time>2020-12-16T09:44:57.000Z</time>
      </trkpt>
      <trkpt lat="47.14689" lon="-1.51313">
        <ele>79</ele>
        <time>2020-12-16T09:44:59.000Z</time>
      </trkpt>
      <trkpt lat="47.14699" lon="-1.51294">
        <ele>79</ele>
        <time>2020-12-16T09:45:01.000Z</time>
      </trkpt>
      <trkpt lat="47.14714" lon="-1.51263">
        <ele>79</ele>
        <time>2020-12-16T09:45:04.000Z</time>
      </trkpt>
      <trkpt lat="47.14729" lon="-1.51235">
        <ele>78</ele>
        <time>2020-12-16T09:45:07.000Z</time>
      </trkpt>
      <trkpt lat="47.14742" lon="-1.51207">
        <ele>78</ele>
        <time>2020-12-16T09:45:10.000Z</time>
      </trkpt>
      <trkpt lat="47.14757" lon="-1.51177">
        <ele>79</ele>
        <time>2020-12-16T09:45:13.000Z</time>
      </trkpt>
      <trkpt lat="47.14772" lon="-1.51152">
        <ele>78</ele>
        <time>2020-12-16T09:45:16.000Z</time>
      </trkpt>
      <trkpt lat="47.14781" lon="-1.51136">
        <ele>78</ele>
        <time>2020-12-16T09:45:18.000Z</time>
      </trkpt>
      <trkpt lat="47.14791" lon="-1.51118">
        <ele>78</ele>
        <time>2020-12-16T09:45:20.000Z</time>
      </trkpt>
      <trkpt lat="47.14805" lon="-1.51091">
        <ele>78</ele>
        <time>2020-12-16T09:45:23.000Z</time>
      </trkpt>
      <trkpt lat="47.14816" lon="-1.51072">
        <ele>76</ele>
        <time>2020-12-16T09:45:25.000Z</time>
      </trkpt>
      <trkpt lat="47.14826" lon="-1.51055">
        <ele>76</ele>
        <time>2020-12-16T09:45:27.000Z</time>
      </trkpt>
      <trkpt lat="47.14842" lon="-1.51031">
        <ele>75</ele>
        <time>2020-12-16T09:45:30.000Z</time>
      </trkpt>
      <trkpt lat="47.14851" lon="-1.51014">
        <ele>75</ele>
        <time>2020-12-16T09:45:32.000Z</time>
      </trkpt>
      <trkpt lat="47.14862" lon="-1.50996">
        <ele>74</ele>
        <time>2020-12-16T09:45:34.000Z</time>
      </trkpt>
      <trkpt lat="47.14878" lon="-1.50972">
        <ele>74</ele>
        <time>2020-12-16T09:45:37.000Z</time>
      </trkpt>
      <trkpt lat="47.14893" lon="-1.50948">
        <ele>74</ele>
        <time>2020-12-16T09:45:40.000Z</time>
      </trkpt>
      <trkpt lat="47.14909" lon="-1.50922">
        <ele>72</ele>
        <time>2020-12-16T09:45:43.000Z</time>
      </trkpt>
      <trkpt lat="47.14925" lon="-1.50899">
        <ele>72</ele>
        <time>2020-12-16T09:45:46.000Z</time>
      </trkpt>
      <trkpt lat="47.14942" lon="-1.50877">
        <ele>73</ele>
        <time>2020-12-16T09:45:49.000Z</time>
      </trkpt>
      <trkpt lat="47.14953" lon="-1.50862">
        <ele>74</ele>
        <time>2020-12-16T09:45:51.000Z</time>
      </trkpt>
      <trkpt lat="47.14964" lon="-1.50845">
        <ele>74</ele>
        <time>2020-12-16T09:45:53.000Z</time>
      </trkpt>
      <trkpt lat="47.14975" lon="-1.50829">
        <ele>74</ele>
        <time>2020-12-16T09:45:55.000Z</time>
      </trkpt>
      <trkpt lat="47.14986" lon="-1.50814">
        <ele>74</ele>
        <time>2020-12-16T09:45:57.000Z</time>
      </trkpt>
      <trkpt lat="47.14997" lon="-1.50798">
        <ele>73</ele>
        <time>2020-12-16T09:45:59.000Z</time>
      </trkpt>
      <trkpt lat="47.15009" lon="-1.50783">
        <ele>73</ele>
        <time>2020-12-16T09:46:01.000Z</time>
      </trkpt>
      <trkpt lat="47.1502" lon="-1.50769">
        <ele>72</ele>
        <time>2020-12-16T09:46:03.000Z</time>
      </trkpt>
      <trkpt lat="47.15032" lon="-1.50755">
        <ele>73</ele>
        <time>2020-12-16T09:46:05.000Z</time>
      </trkpt>
      <trkpt lat="47.1505" lon="-1.50733">
        <ele>73</ele>
        <time>2020-12-16T09:46:08.000Z</time>
      </trkpt>
      <trkpt lat="47.15061" lon="-1.50716">
        <ele>73</ele>
        <time>2020-12-16T09:46:10.000Z</time>
      </trkpt>
      <trkpt lat="47.15079" lon="-1.50694">
        <ele>72</ele>
        <time>2020-12-16T09:46:13.000Z</time>
      </trkpt>
      <trkpt lat="47.15091" lon="-1.50682">
        <ele>71</ele>
        <time>2020-12-16T09:46:15.000Z</time>
      </trkpt>
      <trkpt lat="47.15104" lon="-1.50668">
        <ele>71</ele>
        <time>2020-12-16T09:46:17.000Z</time>
      </trkpt>
      <trkpt lat="47.15115" lon="-1.50654">
        <ele>71</ele>
        <time>2020-12-16T09:46:19.000Z</time>
      </trkpt>
      <trkpt lat="47.15133" lon="-1.5063">
        <ele>68</ele>
        <time>2020-12-16T09:46:22.000Z</time>
      </trkpt>
      <trkpt lat="47.1515" lon="-1.50613">
        <ele>70</ele>
        <time>2020-12-16T09:46:25.000Z</time>
      </trkpt>
      <trkpt lat="47.15162" lon="-1.506">
        <ele>71</ele>
        <time>2020-12-16T09:46:27.000Z</time>
      </trkpt>
      <trkpt lat="47.15174" lon="-1.50588">
        <ele>68</ele>
        <time>2020-12-16T09:46:29.000Z</time>
      </trkpt>
      <trkpt lat="47.15185" lon="-1.50574">
        <ele>68</ele>
        <time>2020-12-16T09:46:31.000Z</time>
      </trkpt>
      <trkpt lat="47.15195" lon="-1.50561">
        <ele>70</ele>
        <time>2020-12-16T09:46:33.000Z</time>
      </trkpt>
      <trkpt lat="47.15206" lon="-1.50549">
        <ele>72</ele>
        <time>2020-12-16T09:46:35.000Z</time>
      </trkpt>
      <trkpt lat="47.15217" lon="-1.50535">
        <ele>73</ele>
        <time>2020-12-16T09:46:37.000Z</time>
      </trkpt>
      <trkpt lat="47.15229" lon="-1.50522">
        <ele>71</ele>
        <time>2020-12-16T09:46:39.000Z</time>
      </trkpt>
      <trkpt lat="47.15241" lon="-1.50508">
        <ele>70</ele>
        <time>2020-12-16T09:46:41.000Z</time>
      </trkpt>
      <trkpt lat="47.15253" lon="-1.50495">
        <ele>72</ele>
        <time>2020-12-16T09:46:43.000Z</time>
      </trkpt>
      <trkpt lat="47.15277" lon="-1.5047">
        <ele>75</ele>
        <time>2020-12-16T09:46:47.000Z</time>
      </trkpt>
      <trkpt lat="47.15288" lon="-1.50455">
        <ele>72</ele>
        <time>2020-12-16T09:46:49.000Z</time>
      </trkpt>
      <trkpt lat="47.153" lon="-1.50442">
        <ele>73</ele>
        <time>2020-12-16T09:46:51.000Z</time>
      </trkpt>
      <trkpt lat="47.1531" lon="-1.50431">
        <ele>74</ele>
        <time>2020-12-16T09:46:53.000Z</time>
      </trkpt>
      <trkpt lat="47.15327" lon="-1.50413">
        <ele>76</ele>
        <time>2020-12-16T09:46:56.000Z</time>
      </trkpt>
      <trkpt lat="47.15337" lon="-1.50401">
        <ele>75</ele>
        <time>2020-12-16T09:46:58.000Z</time>
      </trkpt>
      <trkpt lat="47.15354" lon="-1.5038">
        <ele>77</ele>
        <time>2020-12-16T09:47:01.000Z</time>
      </trkpt>
      <trkpt lat="47.15371" lon="-1.50359">
        <ele>76</ele>
        <time>2020-12-16T09:47:04.000Z</time>
      </trkpt>
      <trkpt lat="47.15382" lon="-1.50345">
        <ele>75</ele>
        <time>2020-12-16T09:47:06.000Z</time>
      </trkpt>
      <trkpt lat="47.15392" lon="-1.5033">
        <ele>75</ele>
        <time>2020-12-16T09:47:08.000Z</time>
      </trkpt>
      <trkpt lat="47.15409" lon="-1.50316">
        <ele>75</ele>
        <time>2020-12-16T09:47:11.000Z</time>
      </trkpt>
      <trkpt lat="47.15422" lon="-1.50307">
        <ele>75</ele>
        <time>2020-12-16T09:47:13.000Z</time>
      </trkpt>
      <trkpt lat="47.15441" lon="-1.50296">
        <ele>76</ele>
        <time>2020-12-16T09:47:16.000Z</time>
      </trkpt>
      <trkpt lat="47.15455" lon="-1.50289">
        <ele>76</ele>
        <time>2020-12-16T09:47:18.000Z</time>
      </trkpt>
      <trkpt lat="47.15469" lon="-1.50283">
        <ele>76</ele>
        <time>2020-12-16T09:47:20.000Z</time>
      </trkpt>
      <trkpt lat="47.15482" lon="-1.50278">
        <ele>76</ele>
        <time>2020-12-16T09:47:22.000Z</time>
      </trkpt>
      <trkpt lat="47.15496" lon="-1.50272">
        <ele>76</ele>
        <time>2020-12-16T09:47:24.000Z</time>
      </trkpt>
      <trkpt lat="47.15509" lon="-1.50266">
        <ele>76</ele>
        <time>2020-12-16T09:47:26.000Z</time>
      </trkpt>
      <trkpt lat="47.15523" lon="-1.5026">
        <ele>76</ele>
        <time>2020-12-16T09:47:28.000Z</time>
      </trkpt>
      <trkpt lat="47.15536" lon="-1.50252">
        <ele>75</ele>
        <time>2020-12-16T09:47:30.000Z</time>
      </trkpt>
      <trkpt lat="47.15549" lon="-1.50244">
        <ele>75</ele>
        <time>2020-12-16T09:47:32.000Z</time>
      </trkpt>
      <trkpt lat="47.1556" lon="-1.50232">
        <ele>76</ele>
        <time>2020-12-16T09:47:34.000Z</time>
      </trkpt>
      <trkpt lat="47.15579" lon="-1.50214">
        <ele>76</ele>
        <time>2020-12-16T09:47:37.000Z</time>
      </trkpt>
      <trkpt lat="47.15597" lon="-1.50198">
        <ele>76</ele>
        <time>2020-12-16T09:47:40.000Z</time>
      </trkpt>
      <trkpt lat="47.15614" lon="-1.5018">
        <ele>76</ele>
        <time>2020-12-16T09:47:43.000Z</time>
      </trkpt>
      <trkpt lat="47.15626" lon="-1.50169">
        <ele>75</ele>
        <time>2020-12-16T09:47:45.000Z</time>
      </trkpt>
      <trkpt lat="47.15638" lon="-1.50157">
        <ele>75</ele>
        <time>2020-12-16T09:47:47.000Z</time>
      </trkpt>
      <trkpt lat="47.1565" lon="-1.50146">
        <ele>75</ele>
        <time>2020-12-16T09:47:49.000Z</time>
      </trkpt>
      <trkpt lat="47.15661" lon="-1.50133">
        <ele>77</ele>
        <time>2020-12-16T09:47:51.000Z</time>
      </trkpt>
      <trkpt lat="47.15673" lon="-1.50121">
        <ele>76</ele>
        <time>2020-12-16T09:47:53.000Z</time>
      </trkpt>
      <trkpt lat="47.15685" lon="-1.50107">
        <ele>77</ele>
        <time>2020-12-16T09:47:55.000Z</time>
      </trkpt>
      <trkpt lat="47.15695" lon="-1.50092">
        <ele>77</ele>
        <time>2020-12-16T09:47:57.000Z</time>
      </trkpt>
      <trkpt lat="47.15703" lon="-1.50076">
        <ele>76</ele>
        <time>2020-12-16T09:47:59.000Z</time>
      </trkpt>
      <trkpt lat="47.15712" lon="-1.5006">
        <ele>76</ele>
        <time>2020-12-16T09:48:01.000Z</time>
      </trkpt>
      <trkpt lat="47.1572" lon="-1.50045">
        <ele>76</ele>
        <time>2020-12-16T09:48:03.000Z</time>
      </trkpt>
      <trkpt lat="47.15728" lon="-1.50029">
        <ele>75</ele>
        <time>2020-12-16T09:48:05.000Z</time>
      </trkpt>
      <trkpt lat="47.15739" lon="-1.50002">
        <ele>73</ele>
        <time>2020-12-16T09:48:08.000Z</time>
      </trkpt>
      <trkpt lat="47.15746" lon="-1.49982">
        <ele>70</ele>
        <time>2020-12-16T09:48:10.000Z</time>
      </trkpt>
      <trkpt lat="47.15756" lon="-1.49968">
        <ele>72</ele>
        <time>2020-12-16T09:48:12.000Z</time>
      </trkpt>
      <trkpt lat="47.15765" lon="-1.49952">
        <ele>70</ele>
        <time>2020-12-16T09:48:14.000Z</time>
      </trkpt>
      <trkpt lat="47.15773" lon="-1.49937">
        <ele>70</ele>
        <time>2020-12-16T09:48:16.000Z</time>
      </trkpt>
      <trkpt lat="47.15786" lon="-1.49911">
        <ele>70</ele>
        <time>2020-12-16T09:48:19.000Z</time>
      </trkpt>
      <trkpt lat="47.15798" lon="-1.49889">
        <ele>67</ele>
        <time>2020-12-16T09:48:22.000Z</time>
      </trkpt>
      <trkpt lat="47.15811" lon="-1.49862">
        <ele>70</ele>
        <time>2020-12-16T09:48:25.000Z</time>
      </trkpt>
      <trkpt lat="47.15825" lon="-1.49836">
        <ele>71</ele>
        <time>2020-12-16T09:48:28.000Z</time>
      </trkpt>
      <trkpt lat="47.15839" lon="-1.4981">
        <ele>68</ele>
        <time>2020-12-16T09:48:31.000Z</time>
      </trkpt>
      <trkpt lat="47.15847" lon="-1.49792">
        <ele>69</ele>
        <time>2020-12-16T09:48:33.000Z</time>
      </trkpt>
      <trkpt lat="47.15857" lon="-1.49774">
        <ele>70</ele>
        <time>2020-12-16T09:48:35.000Z</time>
      </trkpt>
      <trkpt lat="47.15866" lon="-1.49756">
        <ele>70</ele>
        <time>2020-12-16T09:48:37.000Z</time>
      </trkpt>
      <trkpt lat="47.1588" lon="-1.4973">
        <ele>72</ele>
        <time>2020-12-16T09:48:40.000Z</time>
      </trkpt>
      <trkpt lat="47.1589" lon="-1.49712">
        <ele>72</ele>
        <time>2020-12-16T09:48:42.000Z</time>
      </trkpt>
      <trkpt lat="47.15899" lon="-1.49694">
        <ele>71</ele>
        <time>2020-12-16T09:48:44.000Z</time>
      </trkpt>
      <trkpt lat="47.15909" lon="-1.49675">
        <ele>70</ele>
        <time>2020-12-16T09:48:46.000Z</time>
      </trkpt>
      <trkpt lat="47.15918" lon="-1.49655">
        <ele>70</ele>
        <time>2020-12-16T09:48:48.000Z</time>
      </trkpt>
      <trkpt lat="47.15929" lon="-1.49637">
        <ele>71</ele>
        <time>2020-12-16T09:48:50.000Z</time>
      </trkpt>
      <trkpt lat="47.15939" lon="-1.49612">
        <ele>68</ele>
        <time>2020-12-16T09:48:53.000Z</time>
      </trkpt>
      <trkpt lat="47.15947" lon="-1.49597">
        <ele>68</ele>
        <time>2020-12-16T09:48:55.000Z</time>
      </trkpt>
      <trkpt lat="47.15958" lon="-1.49577">
        <ele>69</ele>
        <time>2020-12-16T09:48:57.000Z</time>
      </trkpt>
      <trkpt lat="47.15967" lon="-1.49559">
        <ele>69</ele>
        <time>2020-12-16T09:48:59.000Z</time>
      </trkpt>
      <trkpt lat="47.15977" lon="-1.49541">
        <ele>70</ele>
        <time>2020-12-16T09:49:01.000Z</time>
      </trkpt>
      <trkpt lat="47.15992" lon="-1.49513">
        <ele>69</ele>
        <time>2020-12-16T09:49:04.000Z</time>
      </trkpt>
      <trkpt lat="47.16005" lon="-1.49486">
        <ele>67</ele>
        <time>2020-12-16T09:49:07.000Z</time>
      </trkpt>
      <trkpt lat="47.16014" lon="-1.4947">
        <ele>65</ele>
        <time>2020-12-16T09:49:09.000Z</time>
      </trkpt>
      <trkpt lat="47.16022" lon="-1.49454">
        <ele>67</ele>
        <time>2020-12-16T09:49:11.000Z</time>
      </trkpt>
      <trkpt lat="47.1603" lon="-1.49439">
        <ele>67</ele>
        <time>2020-12-16T09:49:13.000Z</time>
      </trkpt>
      <trkpt lat="47.16039" lon="-1.49422">
        <ele>68</ele>
        <time>2020-12-16T09:49:15.000Z</time>
      </trkpt>
      <trkpt lat="47.16048" lon="-1.49404">
        <ele>65</ele>
        <time>2020-12-16T09:49:17.000Z</time>
      </trkpt>
      <trkpt lat="47.16054" lon="-1.49388">
        <ele>64</ele>
        <time>2020-12-16T09:49:19.000Z</time>
      </trkpt>
      <trkpt lat="47.16066" lon="-1.49377">
        <ele>66</ele>
        <time>2020-12-16T09:49:21.000Z</time>
      </trkpt>
      <trkpt lat="47.16084" lon="-1.49356">
        <ele>66</ele>
        <time>2020-12-16T09:49:24.000Z</time>
      </trkpt>
      <trkpt lat="47.16095" lon="-1.49342">
        <ele>64</ele>
        <time>2020-12-16T09:49:26.000Z</time>
      </trkpt>
      <trkpt lat="47.16106" lon="-1.49331">
        <ele>67</ele>
        <time>2020-12-16T09:49:28.000Z</time>
      </trkpt>
      <trkpt lat="47.16116" lon="-1.49319">
        <ele>67</ele>
        <time>2020-12-16T09:49:30.000Z</time>
      </trkpt>
      <trkpt lat="47.16131" lon="-1.49299">
        <ele>66</ele>
        <time>2020-12-16T09:49:33.000Z</time>
      </trkpt>
      <trkpt lat="47.16141" lon="-1.49284">
        <ele>65</ele>
        <time>2020-12-16T09:49:35.000Z</time>
      </trkpt>
      <trkpt lat="47.1615" lon="-1.49269">
        <ele>67</ele>
        <time>2020-12-16T09:49:37.000Z</time>
      </trkpt>
      <trkpt lat="47.1616" lon="-1.49245">
        <ele>67</ele>
        <time>2020-12-16T09:49:40.000Z</time>
      </trkpt>
      <trkpt lat="47.16168" lon="-1.49228">
        <ele>68</ele>
        <time>2020-12-16T09:49:42.000Z</time>
      </trkpt>
      <trkpt lat="47.16177" lon="-1.49211">
        <ele>68</ele>
        <time>2020-12-16T09:49:44.000Z</time>
      </trkpt>
      <trkpt lat="47.16187" lon="-1.49197">
        <ele>68</ele>
        <time>2020-12-16T09:49:46.000Z</time>
      </trkpt>
      <trkpt lat="47.16199" lon="-1.49187">
        <ele>69</ele>
        <time>2020-12-16T09:49:48.000Z</time>
      </trkpt>
      <trkpt lat="47.1621" lon="-1.49176">
        <ele>70</ele>
        <time>2020-12-16T09:49:50.000Z</time>
      </trkpt>
      <trkpt lat="47.16222" lon="-1.49164">
        <ele>69</ele>
        <time>2020-12-16T09:49:52.000Z</time>
      </trkpt>
      <trkpt lat="47.16233" lon="-1.49153">
        <ele>69</ele>
        <time>2020-12-16T09:49:54.000Z</time>
      </trkpt>
      <trkpt lat="47.16245" lon="-1.49142">
        <ele>70</ele>
        <time>2020-12-16T09:49:56.000Z</time>
      </trkpt>
      <trkpt lat="47.16257" lon="-1.4913">
        <ele>69</ele>
        <time>2020-12-16T09:49:58.000Z</time>
      </trkpt>
      <trkpt lat="47.16269" lon="-1.49119">
        <ele>69</ele>
        <time>2020-12-16T09:50:00.000Z</time>
      </trkpt>
      <trkpt lat="47.16281" lon="-1.49107">
        <ele>69</ele>
        <time>2020-12-16T09:50:02.000Z</time>
      </trkpt>
      <trkpt lat="47.16301" lon="-1.49088">
        <ele>70</ele>
        <time>2020-12-16T09:50:05.000Z</time>
      </trkpt>
      <trkpt lat="47.16314" lon="-1.49075">
        <ele>68</ele>
        <time>2020-12-16T09:50:07.000Z</time>
      </trkpt>
      <trkpt lat="47.16334" lon="-1.49053">
        <ele>67</ele>
        <time>2020-12-16T09:50:10.000Z</time>
      </trkpt>
      <trkpt lat="47.16353" lon="-1.49031">
        <ele>66</ele>
        <time>2020-12-16T09:50:13.000Z</time>
      </trkpt>
      <trkpt lat="47.16364" lon="-1.49017">
        <ele>66</ele>
        <time>2020-12-16T09:50:15.000Z</time>
      </trkpt>
      <trkpt lat="47.16374" lon="-1.48999">
        <ele>66</ele>
        <time>2020-12-16T09:50:17.000Z</time>
      </trkpt>
      <trkpt lat="47.16389" lon="-1.48976">
        <ele>65</ele>
        <time>2020-12-16T09:50:20.000Z</time>
      </trkpt>
      <trkpt lat="47.16398" lon="-1.48962">
        <ele>65</ele>
        <time>2020-12-16T09:50:22.000Z</time>
      </trkpt>
      <trkpt lat="47.16408" lon="-1.48948">
        <ele>65</ele>
        <time>2020-12-16T09:50:24.000Z</time>
      </trkpt>
      <trkpt lat="47.16419" lon="-1.48936">
        <ele>65</ele>
        <time>2020-12-16T09:50:26.000Z</time>
      </trkpt>
      <trkpt lat="47.1643" lon="-1.48924">
        <ele>65</ele>
        <time>2020-12-16T09:50:28.000Z</time>
      </trkpt>
      <trkpt lat="47.16446" lon="-1.48903">
        <ele>65</ele>
        <time>2020-12-16T09:50:31.000Z</time>
      </trkpt>
      <trkpt lat="47.16457" lon="-1.48889">
        <ele>65</ele>
        <time>2020-12-16T09:50:33.000Z</time>
      </trkpt>
      <trkpt lat="47.16467" lon="-1.48873">
        <ele>65</ele>
        <time>2020-12-16T09:50:35.000Z</time>
      </trkpt>
      <trkpt lat="47.16475" lon="-1.48854">
        <ele>65</ele>
        <time>2020-12-16T09:50:37.000Z</time>
      </trkpt>
      <trkpt lat="47.1648" lon="-1.48837">
        <ele>64</ele>
        <time>2020-12-16T09:50:39.000Z</time>
      </trkpt>
      <trkpt lat="47.1649" lon="-1.48819">
        <ele>61</ele>
        <time>2020-12-16T09:50:41.000Z</time>
      </trkpt>
      <trkpt lat="47.16498" lon="-1.48799">
        <ele>60</ele>
        <time>2020-12-16T09:50:43.000Z</time>
      </trkpt>
      <trkpt lat="47.16503" lon="-1.48779">
        <ele>60</ele>
        <time>2020-12-16T09:50:45.000Z</time>
      </trkpt>
      <trkpt lat="47.1651" lon="-1.48759">
        <ele>61</ele>
        <time>2020-12-16T09:50:47.000Z</time>
      </trkpt>
      <trkpt lat="47.16516" lon="-1.48739">
        <ele>62</ele>
        <time>2020-12-16T09:50:49.000Z</time>
      </trkpt>
      <trkpt lat="47.16521" lon="-1.48717">
        <ele>61</ele>
        <time>2020-12-16T09:50:51.000Z</time>
      </trkpt>
      <trkpt lat="47.16523" lon="-1.48697">
        <ele>62</ele>
        <time>2020-12-16T09:50:53.000Z</time>
      </trkpt>
      <trkpt lat="47.16525" lon="-1.48681">
        <ele>60</ele>
        <time>2020-12-16T09:50:55.000Z</time>
      </trkpt>
      <trkpt lat="47.1653" lon="-1.48653">
        <ele>58</ele>
        <time>2020-12-16T09:50:58.000Z</time>
      </trkpt>
      <trkpt lat="47.16531" lon="-1.48634">
        <ele>56</ele>
        <time>2020-12-16T09:51:00.000Z</time>
      </trkpt>
      <trkpt lat="47.16533" lon="-1.48615">
        <ele>57</ele>
        <time>2020-12-16T09:51:02.000Z</time>
      </trkpt>
      <trkpt lat="47.16535" lon="-1.48596">
        <ele>60</ele>
        <time>2020-12-16T09:51:04.000Z</time>
      </trkpt>
      <trkpt lat="47.16536" lon="-1.48576">
        <ele>60</ele>
        <time>2020-12-16T09:51:06.000Z</time>
      </trkpt>
      <trkpt lat="47.16535" lon="-1.48556">
        <ele>61</ele>
        <time>2020-12-16T09:51:08.000Z</time>
      </trkpt>
      <trkpt lat="47.16535" lon="-1.48534">
        <ele>61</ele>
        <time>2020-12-16T09:51:10.000Z</time>
      </trkpt>
      <trkpt lat="47.16532" lon="-1.48515">
        <ele>61</ele>
        <time>2020-12-16T09:51:12.000Z</time>
      </trkpt>
      <trkpt lat="47.16529" lon="-1.48495">
        <ele>61</ele>
        <time>2020-12-16T09:51:14.000Z</time>
      </trkpt>
      <trkpt lat="47.16525" lon="-1.48479">
        <ele>59</ele>
        <time>2020-12-16T09:51:16.000Z</time>
      </trkpt>
      <trkpt lat="47.1652" lon="-1.48464">
        <ele>58</ele>
        <time>2020-12-16T09:51:18.000Z</time>
      </trkpt>
      <trkpt lat="47.16519" lon="-1.4844">
        <ele>59</ele>
        <time>2020-12-16T09:51:20.000Z</time>
      </trkpt>
      <trkpt lat="47.16518" lon="-1.48422">
        <ele>57</ele>
        <time>2020-12-16T09:51:22.000Z</time>
      </trkpt>
      <trkpt lat="47.16513" lon="-1.48407">
        <ele>55</ele>
        <time>2020-12-16T09:51:24.000Z</time>
      </trkpt>
      <trkpt lat="47.16509" lon="-1.48393">
        <ele>56</ele>
        <time>2020-12-16T09:51:26.000Z</time>
      </trkpt>
      <trkpt lat="47.16507" lon="-1.48376">
        <ele>56</ele>
        <time>2020-12-16T09:51:28.000Z</time>
      </trkpt>
      <trkpt lat="47.16504" lon="-1.48358">
        <ele>54</ele>
        <time>2020-12-16T09:51:30.000Z</time>
      </trkpt>
      <trkpt lat="47.16506" lon="-1.48338">
        <ele>53</ele>
        <time>2020-12-16T09:51:32.000Z</time>
      </trkpt>
      <trkpt lat="47.1651" lon="-1.48304">
        <ele>52</ele>
        <time>2020-12-16T09:51:35.000Z</time>
      </trkpt>
      <trkpt lat="47.16513" lon="-1.48284">
        <ele>53</ele>
        <time>2020-12-16T09:51:37.000Z</time>
      </trkpt>
      <trkpt lat="47.16514" lon="-1.48266">
        <ele>50</ele>
        <time>2020-12-16T09:51:39.000Z</time>
      </trkpt>
      <trkpt lat="47.16515" lon="-1.48247">
        <ele>50</ele>
        <time>2020-12-16T09:51:41.000Z</time>
      </trkpt>
      <trkpt lat="47.16513" lon="-1.48227">
        <ele>54</ele>
        <time>2020-12-16T09:51:43.000Z</time>
      </trkpt>
      <trkpt lat="47.1651" lon="-1.48209">
        <ele>53</ele>
        <time>2020-12-16T09:51:45.000Z</time>
      </trkpt>
      <trkpt lat="47.16505" lon="-1.48191">
        <ele>52</ele>
        <time>2020-12-16T09:51:47.000Z</time>
      </trkpt>
      <trkpt lat="47.16501" lon="-1.48172">
        <ele>54</ele>
        <time>2020-12-16T09:51:49.000Z</time>
      </trkpt>
      <trkpt lat="47.16496" lon="-1.48153">
        <ele>54</ele>
        <time>2020-12-16T09:51:51.000Z</time>
      </trkpt>
      <trkpt lat="47.1649" lon="-1.48137">
        <ele>52</ele>
        <time>2020-12-16T09:51:53.000Z</time>
      </trkpt>
      <trkpt lat="47.16481" lon="-1.48124">
        <ele>49</ele>
        <time>2020-12-16T09:51:55.000Z</time>
      </trkpt>
      <trkpt lat="47.16478" lon="-1.48103">
        <ele>50</ele>
        <time>2020-12-16T09:51:57.000Z</time>
      </trkpt>
      <trkpt lat="47.16473" lon="-1.48081">
        <ele>51</ele>
        <time>2020-12-16T09:51:59.000Z</time>
      </trkpt>
      <trkpt lat="47.16469" lon="-1.48061">
        <ele>51</ele>
        <time>2020-12-16T09:52:01.000Z</time>
      </trkpt>
      <trkpt lat="47.16464" lon="-1.48041">
        <ele>52</ele>
        <time>2020-12-16T09:52:03.000Z</time>
      </trkpt>
      <trkpt lat="47.1646" lon="-1.48021">
        <ele>53</ele>
        <time>2020-12-16T09:52:05.000Z</time>
      </trkpt>
      <trkpt lat="47.16457" lon="-1.48">
        <ele>53</ele>
        <time>2020-12-16T09:52:07.000Z</time>
      </trkpt>
      <trkpt lat="47.16453" lon="-1.4798">
        <ele>53</ele>
        <time>2020-12-16T09:52:09.000Z</time>
      </trkpt>
      <trkpt lat="47.16445" lon="-1.47953">
        <ele>51</ele>
        <time>2020-12-16T09:52:12.000Z</time>
      </trkpt>
      <trkpt lat="47.16441" lon="-1.47935">
        <ele>52</ele>
        <time>2020-12-16T09:52:14.000Z</time>
      </trkpt>
      <trkpt lat="47.16436" lon="-1.47917">
        <ele>53</ele>
        <time>2020-12-16T09:52:16.000Z</time>
      </trkpt>
      <trkpt lat="47.1643" lon="-1.47898">
        <ele>49</ele>
        <time>2020-12-16T09:52:18.000Z</time>
      </trkpt>
      <trkpt lat="47.16425" lon="-1.47872">
        <ele>52</ele>
        <time>2020-12-16T09:52:21.000Z</time>
      </trkpt>
      <trkpt lat="47.16422" lon="-1.47843">
        <ele>53</ele>
        <time>2020-12-16T09:52:24.000Z</time>
      </trkpt>
      <trkpt lat="47.16419" lon="-1.47827">
        <ele>53</ele>
        <time>2020-12-16T09:52:26.000Z</time>
      </trkpt>
      <trkpt lat="47.16416" lon="-1.4781">
        <ele>54</ele>
        <time>2020-12-16T09:52:28.000Z</time>
      </trkpt>
      <trkpt lat="47.16411" lon="-1.47795">
        <ele>52</ele>
        <time>2020-12-16T09:52:30.000Z</time>
      </trkpt>
      <trkpt lat="47.16406" lon="-1.4778">
        <ele>52</ele>
        <time>2020-12-16T09:52:32.000Z</time>
      </trkpt>
      <trkpt lat="47.16405" lon="-1.47761">
        <ele>52</ele>
        <time>2020-12-16T09:52:34.000Z</time>
      </trkpt>
      <trkpt lat="47.16401" lon="-1.47743">
        <ele>53</ele>
        <time>2020-12-16T09:52:36.000Z</time>
      </trkpt>
      <trkpt lat="47.16398" lon="-1.47726">
        <ele>54</ele>
        <time>2020-12-16T09:52:38.000Z</time>
      </trkpt>
      <trkpt lat="47.16395" lon="-1.47713">
        <ele>52</ele>
        <time>2020-12-16T09:52:40.000Z</time>
      </trkpt>
      <trkpt lat="47.16392" lon="-1.47695">
        <ele>54</ele>
        <time>2020-12-16T09:52:42.000Z</time>
      </trkpt>
      <trkpt lat="47.16387" lon="-1.47678">
        <ele>54</ele>
        <time>2020-12-16T09:52:44.000Z</time>
      </trkpt>
      <trkpt lat="47.16383" lon="-1.47661">
        <ele>55</ele>
        <time>2020-12-16T09:52:46.000Z</time>
      </trkpt>
      <trkpt lat="47.16379" lon="-1.47646">
        <ele>54</ele>
        <time>2020-12-16T09:52:48.000Z</time>
      </trkpt>
      <trkpt lat="47.16376" lon="-1.47629">
        <ele>54</ele>
        <time>2020-12-16T09:52:50.000Z</time>
      </trkpt>
      <trkpt lat="47.16371" lon="-1.47616">
        <ele>51</ele>
        <time>2020-12-16T09:52:52.000Z</time>
      </trkpt>
      <trkpt lat="47.16367" lon="-1.47591">
        <ele>53</ele>
        <time>2020-12-16T09:52:55.000Z</time>
      </trkpt>
      <trkpt lat="47.16364" lon="-1.47574">
        <ele>54</ele>
        <time>2020-12-16T09:52:57.000Z</time>
      </trkpt>
      <trkpt lat="47.16362" lon="-1.47554">
        <ele>52</ele>
        <time>2020-12-16T09:52:59.000Z</time>
      </trkpt>
      <trkpt lat="47.16359" lon="-1.47537">
        <ele>52</ele>
        <time>2020-12-16T09:53:01.000Z</time>
      </trkpt>
      <trkpt lat="47.16355" lon="-1.4752">
        <ele>52</ele>
        <time>2020-12-16T09:53:03.000Z</time>
      </trkpt>
      <trkpt lat="47.16351" lon="-1.47504">
        <ele>51</ele>
        <time>2020-12-16T09:53:05.000Z</time>
      </trkpt>
      <trkpt lat="47.16346" lon="-1.47488">
        <ele>51</ele>
        <time>2020-12-16T09:53:07.000Z</time>
      </trkpt>
      <trkpt lat="47.16342" lon="-1.47472">
        <ele>52</ele>
        <time>2020-12-16T09:53:09.000Z</time>
      </trkpt>
      <trkpt lat="47.16338" lon="-1.47456">
        <ele>53</ele>
        <time>2020-12-16T09:53:11.000Z</time>
      </trkpt>
      <trkpt lat="47.16334" lon="-1.4744">
        <ele>53</ele>
        <time>2020-12-16T09:53:13.000Z</time>
      </trkpt>
      <trkpt lat="47.1633" lon="-1.47424">
        <ele>54</ele>
        <time>2020-12-16T09:53:15.000Z</time>
      </trkpt>
      <trkpt lat="47.16327" lon="-1.47408">
        <ele>54</ele>
        <time>2020-12-16T09:53:17.000Z</time>
      </trkpt>
      <trkpt lat="47.16324" lon="-1.47391">
        <ele>55</ele>
        <time>2020-12-16T09:53:19.000Z</time>
      </trkpt>
      <trkpt lat="47.16322" lon="-1.47375">
        <ele>56</ele>
        <time>2020-12-16T09:53:21.000Z</time>
      </trkpt>
      <trkpt lat="47.1632" lon="-1.47359">
        <ele>57</ele>
        <time>2020-12-16T09:53:23.000Z</time>
      </trkpt>
      <trkpt lat="47.16318" lon="-1.47343">
        <ele>57</ele>
        <time>2020-12-16T09:53:25.000Z</time>
      </trkpt>
      <trkpt lat="47.16319" lon="-1.47326">
        <ele>58</ele>
        <time>2020-12-16T09:53:27.000Z</time>
      </trkpt>
      <trkpt lat="47.16319" lon="-1.47308">
        <ele>58</ele>
        <time>2020-12-16T09:53:29.000Z</time>
      </trkpt>
      <trkpt lat="47.16315" lon="-1.47293">
        <ele>58</ele>
        <time>2020-12-16T09:53:31.000Z</time>
      </trkpt>
      <trkpt lat="47.16308" lon="-1.47272">
        <ele>58</ele>
        <time>2020-12-16T09:53:34.000Z</time>
      </trkpt>
      <trkpt lat="47.16304" lon="-1.47259">
        <ele>58</ele>
        <time>2020-12-16T09:53:36.000Z</time>
      </trkpt>
      <trkpt lat="47.16298" lon="-1.47245">
        <ele>57</ele>
        <time>2020-12-16T09:53:38.000Z</time>
      </trkpt>
      <trkpt lat="47.1629" lon="-1.47218">
        <ele>57</ele>
        <time>2020-12-16T09:53:42.000Z</time>
      </trkpt>
      <trkpt lat="47.16286" lon="-1.47205">
        <ele>58</ele>
        <time>2020-12-16T09:53:44.000Z</time>
      </trkpt>
      <trkpt lat="47.16282" lon="-1.47191">
        <ele>58</ele>
        <time>2020-12-16T09:53:46.000Z</time>
      </trkpt>
      <trkpt lat="47.16277" lon="-1.47179">
        <ele>58</ele>
        <time>2020-12-16T09:53:48.000Z</time>
      </trkpt>
      <trkpt lat="47.16274" lon="-1.47165">
        <ele>58</ele>
        <time>2020-12-16T09:53:50.000Z</time>
      </trkpt>
      <trkpt lat="47.16271" lon="-1.4715">
        <ele>58</ele>
        <time>2020-12-16T09:53:52.000Z</time>
      </trkpt>
      <trkpt lat="47.16267" lon="-1.47136">
        <ele>59</ele>
        <time>2020-12-16T09:53:54.000Z</time>
      </trkpt>
      <trkpt lat="47.16264" lon="-1.47123">
        <ele>60</ele>
        <time>2020-12-16T09:53:56.000Z</time>
      </trkpt>
      <trkpt lat="47.16261" lon="-1.47109">
        <ele>60</ele>
        <time>2020-12-16T09:53:58.000Z</time>
      </trkpt>
      <trkpt lat="47.1626" lon="-1.47095">
        <ele>61</ele>
        <time>2020-12-16T09:54:00.000Z</time>
      </trkpt>
      <trkpt lat="47.16258" lon="-1.4708">
        <ele>62</ele>
        <time>2020-12-16T09:54:02.000Z</time>
      </trkpt>
      <trkpt lat="47.16256" lon="-1.47065">
        <ele>63</ele>
        <time>2020-12-16T09:54:04.000Z</time>
      </trkpt>
      <trkpt lat="47.16255" lon="-1.4705">
        <ele>63</ele>
        <time>2020-12-16T09:54:06.000Z</time>
      </trkpt>
      <trkpt lat="47.16253" lon="-1.47036">
        <ele>64</ele>
        <time>2020-12-16T09:54:08.000Z</time>
      </trkpt>
      <trkpt lat="47.16252" lon="-1.47021">
        <ele>65</ele>
        <time>2020-12-16T09:54:10.000Z</time>
      </trkpt>
      <trkpt lat="47.16252" lon="-1.46988">
        <ele>66</ele>
        <time>2020-12-16T09:54:14.000Z</time>
      </trkpt>
      <trkpt lat="47.16251" lon="-1.46974">
        <ele>66</ele>
        <time>2020-12-16T09:54:16.000Z</time>
      </trkpt>
      <trkpt lat="47.16252" lon="-1.46959">
        <ele>66</ele>
        <time>2020-12-16T09:54:18.000Z</time>
      </trkpt>
      <trkpt lat="47.16251" lon="-1.46944">
        <ele>66</ele>
        <time>2020-12-16T09:54:20.000Z</time>
      </trkpt>
      <trkpt lat="47.16253" lon="-1.46929">
        <ele>67</ele>
        <time>2020-12-16T09:54:22.000Z</time>
      </trkpt>
      <trkpt lat="47.16253" lon="-1.46914">
        <ele>67</ele>
        <time>2020-12-16T09:54:24.000Z</time>
      </trkpt>
      <trkpt lat="47.16254" lon="-1.46899">
        <ele>66</ele>
        <time>2020-12-16T09:54:26.000Z</time>
      </trkpt>
      <trkpt lat="47.16252" lon="-1.46885">
        <ele>64</ele>
        <time>2020-12-16T09:54:28.000Z</time>
      </trkpt>
      <trkpt lat="47.16255" lon="-1.46868">
        <ele>67</ele>
        <time>2020-12-16T09:54:30.000Z</time>
      </trkpt>
      <trkpt lat="47.16256" lon="-1.46848">
        <ele>69</ele>
        <time>2020-12-16T09:54:33.000Z</time>
      </trkpt>
      <trkpt lat="47.16253" lon="-1.4683">
        <ele>70</ele>
        <time>2020-12-16T09:54:36.000Z</time>
      </trkpt>
      <trkpt lat="47.16251" lon="-1.46816">
        <ele>70</ele>
        <time>2020-12-16T09:54:38.000Z</time>
      </trkpt>
      <trkpt lat="47.16254" lon="-1.46802">
        <ele>70</ele>
        <time>2020-12-16T09:54:40.000Z</time>
      </trkpt>
      <trkpt lat="47.16256" lon="-1.46786">
        <ele>69</ele>
        <time>2020-12-16T09:54:42.000Z</time>
      </trkpt>
      <trkpt lat="47.16261" lon="-1.46772">
        <ele>69</ele>
        <time>2020-12-16T09:54:44.000Z</time>
      </trkpt>
      <trkpt lat="47.16264" lon="-1.46757">
        <ele>69</ele>
        <time>2020-12-16T09:54:46.000Z</time>
      </trkpt>
      <trkpt lat="47.16265" lon="-1.46742">
        <ele>71</ele>
        <time>2020-12-16T09:54:48.000Z</time>
      </trkpt>
      <trkpt lat="47.16267" lon="-1.46726">
        <ele>71</ele>
        <time>2020-12-16T09:54:50.000Z</time>
      </trkpt>
      <trkpt lat="47.16271" lon="-1.46711">
        <ele>71</ele>
        <time>2020-12-16T09:54:52.000Z</time>
      </trkpt>
      <trkpt lat="47.16274" lon="-1.46696">
        <ele>73</ele>
        <time>2020-12-16T09:54:54.000Z</time>
      </trkpt>
      <trkpt lat="47.16275" lon="-1.46683">
        <ele>74</ele>
        <time>2020-12-16T09:54:56.000Z</time>
      </trkpt>
      <trkpt lat="47.16276" lon="-1.46665">
        <ele>73</ele>
        <time>2020-12-16T09:54:59.000Z</time>
      </trkpt>
      <trkpt lat="47.16276" lon="-1.46651">
        <ele>73</ele>
        <time>2020-12-16T09:55:01.000Z</time>
      </trkpt>
      <trkpt lat="47.16278" lon="-1.46636">
        <ele>74</ele>
        <time>2020-12-16T09:55:03.000Z</time>
      </trkpt>
      <trkpt lat="47.1628" lon="-1.46621">
        <ele>74</ele>
        <time>2020-12-16T09:55:05.000Z</time>
      </trkpt>
      <trkpt lat="47.1628" lon="-1.46606">
        <ele>72</ele>
        <time>2020-12-16T09:55:07.000Z</time>
      </trkpt>
      <trkpt lat="47.16283" lon="-1.46593">
        <ele>73</ele>
        <time>2020-12-16T09:55:09.000Z</time>
      </trkpt>
      <trkpt lat="47.16284" lon="-1.46578">
        <ele>74</ele>
        <time>2020-12-16T09:55:11.000Z</time>
      </trkpt>
      <trkpt lat="47.16285" lon="-1.46563">
        <ele>75</ele>
        <time>2020-12-16T09:55:13.000Z</time>
      </trkpt>
      <trkpt lat="47.16287" lon="-1.46548">
        <ele>76</ele>
        <time>2020-12-16T09:55:15.000Z</time>
      </trkpt>
      <trkpt lat="47.16288" lon="-1.46527">
        <ele>77</ele>
        <time>2020-12-16T09:55:18.000Z</time>
      </trkpt>
      <trkpt lat="47.16289" lon="-1.46514">
        <ele>77</ele>
        <time>2020-12-16T09:55:20.000Z</time>
      </trkpt>
      <trkpt lat="47.1629" lon="-1.46499">
        <ele>78</ele>
        <time>2020-12-16T09:55:22.000Z</time>
      </trkpt>
      <trkpt lat="47.16292" lon="-1.46483">
        <ele>78</ele>
        <time>2020-12-16T09:55:24.000Z</time>
      </trkpt>
      <trkpt lat="47.16293" lon="-1.4647">
        <ele>78</ele>
        <time>2020-12-16T09:55:26.000Z</time>
      </trkpt>
      <trkpt lat="47.16295" lon="-1.46455">
        <ele>81</ele>
        <time>2020-12-16T09:55:28.000Z</time>
      </trkpt>
      <trkpt lat="47.16298" lon="-1.46437">
        <ele>81</ele>
        <time>2020-12-16T09:55:31.000Z</time>
      </trkpt>
      <trkpt lat="47.16302" lon="-1.46419">
        <ele>81</ele>
        <time>2020-12-16T09:55:33.000Z</time>
      </trkpt>
      <trkpt lat="47.16306" lon="-1.46404">
        <ele>81</ele>
        <time>2020-12-16T09:55:35.000Z</time>
      </trkpt>
      <trkpt lat="47.16311" lon="-1.46389">
        <ele>82</ele>
        <time>2020-12-16T09:55:37.000Z</time>
      </trkpt>
      <trkpt lat="47.16315" lon="-1.46367">
        <ele>81</ele>
        <time>2020-12-16T09:55:40.000Z</time>
      </trkpt>
      <trkpt lat="47.16324" lon="-1.4634">
        <ele>82</ele>
        <time>2020-12-16T09:55:44.000Z</time>
      </trkpt>
      <trkpt lat="47.1633" lon="-1.46324">
        <ele>83</ele>
        <time>2020-12-16T09:55:46.000Z</time>
      </trkpt>
      <trkpt lat="47.16336" lon="-1.46311">
        <ele>83</ele>
        <time>2020-12-16T09:55:48.000Z</time>
      </trkpt>
      <trkpt lat="47.16343" lon="-1.46297">
        <ele>83</ele>
        <time>2020-12-16T09:55:50.000Z</time>
      </trkpt>
      <trkpt lat="47.1635" lon="-1.46284">
        <ele>84</ele>
        <time>2020-12-16T09:55:52.000Z</time>
      </trkpt>
      <trkpt lat="47.16357" lon="-1.46268">
        <ele>83</ele>
        <time>2020-12-16T09:55:54.000Z</time>
      </trkpt>
      <trkpt lat="47.16364" lon="-1.46254">
        <ele>82</ele>
        <time>2020-12-16T09:55:56.000Z</time>
      </trkpt>
      <trkpt lat="47.16372" lon="-1.46242">
        <ele>83</ele>
        <time>2020-12-16T09:55:58.000Z</time>
      </trkpt>
      <trkpt lat="47.16381" lon="-1.46229">
        <ele>83</ele>
        <time>2020-12-16T09:56:00.000Z</time>
      </trkpt>
      <trkpt lat="47.16395" lon="-1.46209">
        <ele>81</ele>
        <time>2020-12-16T09:56:03.000Z</time>
      </trkpt>
      <trkpt lat="47.1641" lon="-1.46191">
        <ele>81</ele>
        <time>2020-12-16T09:56:06.000Z</time>
      </trkpt>
      <trkpt lat="47.1642" lon="-1.4618">
        <ele>81</ele>
        <time>2020-12-16T09:56:08.000Z</time>
      </trkpt>
      <trkpt lat="47.1643" lon="-1.46168">
        <ele>82</ele>
        <time>2020-12-16T09:56:10.000Z</time>
      </trkpt>
      <trkpt lat="47.16443" lon="-1.46151">
        <ele>80</ele>
        <time>2020-12-16T09:56:13.000Z</time>
      </trkpt>
      <trkpt lat="47.16459" lon="-1.46134">
        <ele>80</ele>
        <time>2020-12-16T09:56:16.000Z</time>
      </trkpt>
      <trkpt lat="47.16473" lon="-1.46119">
        <ele>78</ele>
        <time>2020-12-16T09:56:19.000Z</time>
      </trkpt>
      <trkpt lat="47.16484" lon="-1.46106">
        <ele>84</ele>
        <time>2020-12-16T09:56:21.000Z</time>
      </trkpt>
      <trkpt lat="47.16494" lon="-1.46093">
        <ele>87</ele>
        <time>2020-12-16T09:56:23.000Z</time>
      </trkpt>
      <trkpt lat="47.16502" lon="-1.46078">
        <ele>88</ele>
        <time>2020-12-16T09:56:25.000Z</time>
      </trkpt>
      <trkpt lat="47.16507" lon="-1.46059">
        <ele>88</ele>
        <time>2020-12-16T09:56:27.000Z</time>
      </trkpt>
      <trkpt lat="47.16514" lon="-1.46043">
        <ele>87</ele>
        <time>2020-12-16T09:56:29.000Z</time>
      </trkpt>
      <trkpt lat="47.16526" lon="-1.46031">
        <ele>85</ele>
        <time>2020-12-16T09:56:31.000Z</time>
      </trkpt>
      <trkpt lat="47.16541" lon="-1.4603">
        <ele>84</ele>
        <time>2020-12-16T09:56:33.000Z</time>
      </trkpt>
      <trkpt lat="47.16555" lon="-1.46029">
        <ele>84</ele>
        <time>2020-12-16T09:56:35.000Z</time>
      </trkpt>
      <trkpt lat="47.16566" lon="-1.46018">
        <ele>84</ele>
        <time>2020-12-16T09:56:37.000Z</time>
      </trkpt>
      <trkpt lat="47.16578" lon="-1.46007">
        <ele>84</ele>
        <time>2020-12-16T09:56:39.000Z</time>
      </trkpt>
      <trkpt lat="47.1659" lon="-1.45996">
        <ele>85</ele>
        <time>2020-12-16T09:56:41.000Z</time>
      </trkpt>
      <trkpt lat="47.16602" lon="-1.45983">
        <ele>85</ele>
        <time>2020-12-16T09:56:43.000Z</time>
      </trkpt>
      <trkpt lat="47.16613" lon="-1.45972">
        <ele>85</ele>
        <time>2020-12-16T09:56:45.000Z</time>
      </trkpt>
      <trkpt lat="47.16625" lon="-1.45961">
        <ele>85</ele>
        <time>2020-12-16T09:56:47.000Z</time>
      </trkpt>
      <trkpt lat="47.16637" lon="-1.45951">
        <ele>85</ele>
        <time>2020-12-16T09:56:49.000Z</time>
      </trkpt>
      <trkpt lat="47.16656" lon="-1.45937">
        <ele>86</ele>
        <time>2020-12-16T09:56:52.000Z</time>
      </trkpt>
      <trkpt lat="47.16674" lon="-1.45925">
        <ele>86</ele>
        <time>2020-12-16T09:56:55.000Z</time>
      </trkpt>
      <trkpt lat="47.16693" lon="-1.45913">
        <ele>86</ele>
        <time>2020-12-16T09:56:58.000Z</time>
      </trkpt>
      <trkpt lat="47.16711" lon="-1.459">
        <ele>85</ele>
        <time>2020-12-16T09:57:01.000Z</time>
      </trkpt>
      <trkpt lat="47.16729" lon="-1.45888">
        <ele>86</ele>
        <time>2020-12-16T09:57:04.000Z</time>
      </trkpt>
      <trkpt lat="47.16745" lon="-1.45874">
        <ele>83</ele>
        <time>2020-12-16T09:57:07.000Z</time>
      </trkpt>
      <trkpt lat="47.16764" lon="-1.45863">
        <ele>85</ele>
        <time>2020-12-16T09:57:10.000Z</time>
      </trkpt>
      <trkpt lat="47.16775" lon="-1.45856">
        <ele>84</ele>
        <time>2020-12-16T09:57:12.000Z</time>
      </trkpt>
      <trkpt lat="47.16785" lon="-1.45851">
        <ele>84</ele>
        <time>2020-12-16T09:57:14.000Z</time>
      </trkpt>
      <trkpt lat="47.16797" lon="-1.45842">
        <ele>85</ele>
        <time>2020-12-16T09:57:16.000Z</time>
      </trkpt>
      <trkpt lat="47.16813" lon="-1.45831">
        <ele>85</ele>
        <time>2020-12-16T09:57:19.000Z</time>
      </trkpt>
      <trkpt lat="47.16825" lon="-1.45823">
        <ele>87</ele>
        <time>2020-12-16T09:57:21.000Z</time>
      </trkpt>
      <trkpt lat="47.16837" lon="-1.45815">
        <ele>88</ele>
        <time>2020-12-16T09:57:23.000Z</time>
      </trkpt>
      <trkpt lat="47.16848" lon="-1.45808">
        <ele>88</ele>
        <time>2020-12-16T09:57:25.000Z</time>
      </trkpt>
      <trkpt lat="47.16859" lon="-1.458">
        <ele>89</ele>
        <time>2020-12-16T09:57:27.000Z</time>
      </trkpt>
      <trkpt lat="47.16868" lon="-1.4579">
        <ele>89</ele>
        <time>2020-12-16T09:57:29.000Z</time>
      </trkpt>
      <trkpt lat="47.16874" lon="-1.45776">
        <ele>89</ele>
        <time>2020-12-16T09:57:31.000Z</time>
      </trkpt>
      <trkpt lat="47.16886" lon="-1.45768">
        <ele>88</ele>
        <time>2020-12-16T09:57:33.000Z</time>
      </trkpt>
      <trkpt lat="47.16899" lon="-1.45764">
        <ele>88</ele>
        <time>2020-12-16T09:57:35.000Z</time>
      </trkpt>
      <trkpt lat="47.1691" lon="-1.45759">
        <ele>87</ele>
        <time>2020-12-16T09:57:37.000Z</time>
      </trkpt>
      <trkpt lat="47.16928" lon="-1.45747">
        <ele>86</ele>
        <time>2020-12-16T09:57:40.000Z</time>
      </trkpt>
      <trkpt lat="47.16947" lon="-1.45737">
        <ele>88</ele>
        <time>2020-12-16T09:57:43.000Z</time>
      </trkpt>
      <trkpt lat="47.16965" lon="-1.45726">
        <ele>88</ele>
        <time>2020-12-16T09:57:46.000Z</time>
      </trkpt>
      <trkpt lat="47.16983" lon="-1.45714">
        <ele>87</ele>
        <time>2020-12-16T09:57:49.000Z</time>
      </trkpt>
      <trkpt lat="47.16996" lon="-1.45706">
        <ele>87</ele>
        <time>2020-12-16T09:57:51.000Z</time>
      </trkpt>
      <trkpt lat="47.17008" lon="-1.45698">
        <ele>87</ele>
        <time>2020-12-16T09:57:53.000Z</time>
      </trkpt>
      <trkpt lat="47.17021" lon="-1.45689">
        <ele>87</ele>
        <time>2020-12-16T09:57:55.000Z</time>
      </trkpt>
      <trkpt lat="47.17033" lon="-1.4568">
        <ele>86</ele>
        <time>2020-12-16T09:57:57.000Z</time>
      </trkpt>
      <trkpt lat="47.17047" lon="-1.45671">
        <ele>86</ele>
        <time>2020-12-16T09:57:59.000Z</time>
      </trkpt>
      <trkpt lat="47.17061" lon="-1.45662">
        <ele>86</ele>
        <time>2020-12-16T09:58:01.000Z</time>
      </trkpt>
      <trkpt lat="47.17075" lon="-1.45653">
        <ele>85</ele>
        <time>2020-12-16T09:58:03.000Z</time>
      </trkpt>
      <trkpt lat="47.17088" lon="-1.45644">
        <ele>86</ele>
        <time>2020-12-16T09:58:05.000Z</time>
      </trkpt>
      <trkpt lat="47.17103" lon="-1.45636">
        <ele>85</ele>
        <time>2020-12-16T09:58:07.000Z</time>
      </trkpt>
      <trkpt lat="47.17119" lon="-1.45628">
        <ele>84</ele>
        <time>2020-12-16T09:58:09.000Z</time>
      </trkpt>
      <trkpt lat="47.17133" lon="-1.45621">
        <ele>84</ele>
        <time>2020-12-16T09:58:11.000Z</time>
      </trkpt>
      <trkpt lat="47.17149" lon="-1.45618">
        <ele>83</ele>
        <time>2020-12-16T09:58:13.000Z</time>
      </trkpt>
      <trkpt lat="47.17164" lon="-1.45615">
        <ele>83</ele>
        <time>2020-12-16T09:58:15.000Z</time>
      </trkpt>
      <trkpt lat="47.17186" lon="-1.4561">
        <ele>80</ele>
        <time>2020-12-16T09:58:18.000Z</time>
      </trkpt>
      <trkpt lat="47.17201" lon="-1.45608">
        <ele>78</ele>
        <time>2020-12-16T09:58:20.000Z</time>
      </trkpt>
      <trkpt lat="47.17224" lon="-1.45609">
        <ele>79</ele>
        <time>2020-12-16T09:58:23.000Z</time>
      </trkpt>
      <trkpt lat="47.17236" lon="-1.4561">
        <ele>79</ele>
        <time>2020-12-16T09:58:25.000Z</time>
      </trkpt>
      <trkpt lat="47.17246" lon="-1.45609">
        <ele>78</ele>
        <time>2020-12-16T09:58:27.000Z</time>
      </trkpt>
      <trkpt lat="47.17257" lon="-1.45603">
        <ele>78</ele>
        <time>2020-12-16T09:58:29.000Z</time>
      </trkpt>
      <trkpt lat="47.17271" lon="-1.45605">
        <ele>79</ele>
        <time>2020-12-16T09:58:31.000Z</time>
      </trkpt>
      <trkpt lat="47.1729" lon="-1.45615">
        <ele>78</ele>
        <time>2020-12-16T09:58:34.000Z</time>
      </trkpt>
      <trkpt lat="47.17303" lon="-1.45622">
        <ele>78</ele>
        <time>2020-12-16T09:58:36.000Z</time>
      </trkpt>
      <trkpt lat="47.17317" lon="-1.45627">
        <ele>78</ele>
        <time>2020-12-16T09:58:38.000Z</time>
      </trkpt>
      <trkpt lat="47.17339" lon="-1.45638">
        <ele>77</ele>
        <time>2020-12-16T09:58:41.000Z</time>
      </trkpt>
      <trkpt lat="47.17352" lon="-1.45644">
        <ele>75</ele>
        <time>2020-12-16T09:58:43.000Z</time>
      </trkpt>
      <trkpt lat="47.17375" lon="-1.45654">
        <ele>74</ele>
        <time>2020-12-16T09:58:46.000Z</time>
      </trkpt>
      <trkpt lat="47.17392" lon="-1.45663">
        <ele>74</ele>
        <time>2020-12-16T09:58:48.000Z</time>
      </trkpt>
      <trkpt lat="47.17401" lon="-1.45667">
        <ele>73</ele>
        <time>2020-12-16T09:58:49.000Z</time>
      </trkpt>
      <trkpt lat="47.1741" lon="-1.45672">
        <ele>73</ele>
        <time>2020-12-16T09:58:50.000Z</time>
      </trkpt>
      <trkpt lat="47.17418" lon="-1.45679">
        <ele>73</ele>
        <time>2020-12-16T09:58:51.000Z</time>
      </trkpt>
      <trkpt lat="47.17433" lon="-1.45688">
        <ele>73</ele>
        <time>2020-12-16T09:58:53.000Z</time>
      </trkpt>
      <trkpt lat="47.17449" lon="-1.45701">
        <ele>73</ele>
        <time>2020-12-16T09:58:55.000Z</time>
      </trkpt>
      <trkpt lat="47.17463" lon="-1.45714">
        <ele>73</ele>
        <time>2020-12-16T09:58:57.000Z</time>
      </trkpt>
      <trkpt lat="47.17478" lon="-1.45728">
        <ele>73</ele>
        <time>2020-12-16T09:58:59.000Z</time>
      </trkpt>
      <trkpt lat="47.17492" lon="-1.45743">
        <ele>73</ele>
        <time>2020-12-16T09:59:01.000Z</time>
      </trkpt>
      <trkpt lat="47.175" lon="-1.45751">
        <ele>72</ele>
        <time>2020-12-16T09:59:02.000Z</time>
      </trkpt>
      <trkpt lat="47.17507" lon="-1.45759">
        <ele>72</ele>
        <time>2020-12-16T09:59:03.000Z</time>
      </trkpt>
      <trkpt lat="47.17515" lon="-1.45768">
        <ele>72</ele>
        <time>2020-12-16T09:59:04.000Z</time>
      </trkpt>
      <trkpt lat="47.17522" lon="-1.45777">
        <ele>72</ele>
        <time>2020-12-16T09:59:05.000Z</time>
      </trkpt>
      <trkpt lat="47.17529" lon="-1.45787">
        <ele>72</ele>
        <time>2020-12-16T09:59:06.000Z</time>
      </trkpt>
      <trkpt lat="47.17536" lon="-1.45796">
        <ele>72</ele>
        <time>2020-12-16T09:59:07.000Z</time>
      </trkpt>
      <trkpt lat="47.17543" lon="-1.45805">
        <ele>72</ele>
        <time>2020-12-16T09:59:08.000Z</time>
      </trkpt>
      <trkpt lat="47.1755" lon="-1.45815">
        <ele>71</ele>
        <time>2020-12-16T09:59:09.000Z</time>
      </trkpt>
      <trkpt lat="47.17557" lon="-1.45824">
        <ele>71</ele>
        <time>2020-12-16T09:59:10.000Z</time>
      </trkpt>
      <trkpt lat="47.17563" lon="-1.45833">
        <ele>70</ele>
        <time>2020-12-16T09:59:11.000Z</time>
      </trkpt>
      <trkpt lat="47.1757" lon="-1.45843">
        <ele>70</ele>
        <time>2020-12-16T09:59:12.000Z</time>
      </trkpt>
      <trkpt lat="47.17576" lon="-1.45854">
        <ele>69</ele>
        <time>2020-12-16T09:59:13.000Z</time>
      </trkpt>
      <trkpt lat="47.17582" lon="-1.45865">
        <ele>69</ele>
        <time>2020-12-16T09:59:14.000Z</time>
      </trkpt>
      <trkpt lat="47.17588" lon="-1.45875">
        <ele>68</ele>
        <time>2020-12-16T09:59:15.000Z</time>
      </trkpt>
      <trkpt lat="47.17594" lon="-1.45887">
        <ele>68</ele>
        <time>2020-12-16T09:59:16.000Z</time>
      </trkpt>
      <trkpt lat="47.176" lon="-1.45898">
        <ele>67</ele>
        <time>2020-12-16T09:59:17.000Z</time>
      </trkpt>
      <trkpt lat="47.17606" lon="-1.4591">
        <ele>67</ele>
        <time>2020-12-16T09:59:18.000Z</time>
      </trkpt>
      <trkpt lat="47.17616" lon="-1.45933">
        <ele>66</ele>
        <time>2020-12-16T09:59:20.000Z</time>
      </trkpt>
      <trkpt lat="47.17621" lon="-1.45945">
        <ele>66</ele>
        <time>2020-12-16T09:59:21.000Z</time>
      </trkpt>
      <trkpt lat="47.1763" lon="-1.45968">
        <ele>64</ele>
        <time>2020-12-16T09:59:23.000Z</time>
      </trkpt>
      <trkpt lat="47.17636" lon="-1.45981">
        <ele>65</ele>
        <time>2020-12-16T09:59:24.000Z</time>
      </trkpt>
      <trkpt lat="47.17641" lon="-1.45992">
        <ele>65</ele>
        <time>2020-12-16T09:59:25.000Z</time>
      </trkpt>
      <trkpt lat="47.17646" lon="-1.46005">
        <ele>65</ele>
        <time>2020-12-16T09:59:26.000Z</time>
      </trkpt>
      <trkpt lat="47.17651" lon="-1.46017">
        <ele>64</ele>
        <time>2020-12-16T09:59:27.000Z</time>
      </trkpt>
      <trkpt lat="47.1766" lon="-1.46039">
        <ele>63</ele>
        <time>2020-12-16T09:59:29.000Z</time>
      </trkpt>
      <trkpt lat="47.17664" lon="-1.46052">
        <ele>62</ele>
        <time>2020-12-16T09:59:30.000Z</time>
      </trkpt>
      <trkpt lat="47.17668" lon="-1.46065">
        <ele>61</ele>
        <time>2020-12-16T09:59:31.000Z</time>
      </trkpt>
      <trkpt lat="47.17681" lon="-1.46107">
        <ele>58</ele>
        <time>2020-12-16T09:59:35.000Z</time>
      </trkpt>
      <trkpt lat="47.17687" lon="-1.4613">
        <ele>58</ele>
        <time>2020-12-16T09:59:37.000Z</time>
      </trkpt>
      <trkpt lat="47.17696" lon="-1.46151">
        <ele>57</ele>
        <time>2020-12-16T09:59:39.000Z</time>
      </trkpt>
      <trkpt lat="47.17705" lon="-1.46168">
        <ele>56</ele>
        <time>2020-12-16T09:59:41.000Z</time>
      </trkpt>
      <trkpt lat="47.17713" lon="-1.4619">
        <ele>56</ele>
        <time>2020-12-16T09:59:43.000Z</time>
      </trkpt>
      <trkpt lat="47.17719" lon="-1.4621">
        <ele>56</ele>
        <time>2020-12-16T09:59:45.000Z</time>
      </trkpt>
      <trkpt lat="47.17722" lon="-1.46234">
        <ele>55</ele>
        <time>2020-12-16T09:59:47.000Z</time>
      </trkpt>
      <trkpt lat="47.17727" lon="-1.46255">
        <ele>54</ele>
        <time>2020-12-16T09:59:49.000Z</time>
      </trkpt>
      <trkpt lat="47.17734" lon="-1.46275">
        <ele>55</ele>
        <time>2020-12-16T09:59:51.000Z</time>
      </trkpt>
      <trkpt lat="47.17741" lon="-1.46293">
        <ele>55</ele>
        <time>2020-12-16T09:59:53.000Z</time>
      </trkpt>
      <trkpt lat="47.17747" lon="-1.46309">
        <ele>55</ele>
        <time>2020-12-16T09:59:55.000Z</time>
      </trkpt>
      <trkpt lat="47.17759" lon="-1.4633">
        <ele>53</ele>
        <time>2020-12-16T09:59:58.000Z</time>
      </trkpt>
      <trkpt lat="47.17764" lon="-1.46348">
        <ele>54</ele>
        <time>2020-12-16T10:00:00.000Z</time>
      </trkpt>
      <trkpt lat="47.17765" lon="-1.46366">
        <ele>56</ele>
        <time>2020-12-16T10:00:02.000Z</time>
      </trkpt>
      <trkpt lat="47.17767" lon="-1.46385">
        <ele>56</ele>
        <time>2020-12-16T10:00:04.000Z</time>
      </trkpt>
      <trkpt lat="47.1777" lon="-1.46405">
        <ele>55</ele>
        <time>2020-12-16T10:00:06.000Z</time>
      </trkpt>
      <trkpt lat="47.17774" lon="-1.46427">
        <ele>53</ele>
        <time>2020-12-16T10:00:08.000Z</time>
      </trkpt>
      <trkpt lat="47.17779" lon="-1.46447">
        <ele>55</ele>
        <time>2020-12-16T10:00:10.000Z</time>
      </trkpt>
      <trkpt lat="47.17784" lon="-1.46465">
        <ele>54</ele>
        <time>2020-12-16T10:00:12.000Z</time>
      </trkpt>
      <trkpt lat="47.17789" lon="-1.46485">
        <ele>55</ele>
        <time>2020-12-16T10:00:14.000Z</time>
      </trkpt>
      <trkpt lat="47.17793" lon="-1.46505">
        <ele>56</ele>
        <time>2020-12-16T10:00:16.000Z</time>
      </trkpt>
      <trkpt lat="47.17802" lon="-1.46543">
        <ele>57</ele>
        <time>2020-12-16T10:00:20.000Z</time>
      </trkpt>
      <trkpt lat="47.17809" lon="-1.4656">
        <ele>55</ele>
        <time>2020-12-16T10:00:22.000Z</time>
      </trkpt>
      <trkpt lat="47.17815" lon="-1.46588">
        <ele>55</ele>
        <time>2020-12-16T10:00:25.000Z</time>
      </trkpt>
      <trkpt lat="47.17819" lon="-1.46616">
        <ele>55</ele>
        <time>2020-12-16T10:00:28.000Z</time>
      </trkpt>
      <trkpt lat="47.17824" lon="-1.46641">
        <ele>55</ele>
        <time>2020-12-16T10:00:31.000Z</time>
      </trkpt>
      <trkpt lat="47.17828" lon="-1.46663">
        <ele>55</ele>
        <time>2020-12-16T10:00:34.000Z</time>
      </trkpt>
      <trkpt lat="47.1783" lon="-1.46687">
        <ele>54</ele>
        <time>2020-12-16T10:00:37.000Z</time>
      </trkpt>
      <trkpt lat="47.17833" lon="-1.46706">
        <ele>54</ele>
        <time>2020-12-16T10:00:39.000Z</time>
      </trkpt>
      <trkpt lat="47.17836" lon="-1.46726">
        <ele>55</ele>
        <time>2020-12-16T10:00:41.000Z</time>
      </trkpt>
      <trkpt lat="47.17838" lon="-1.46745">
        <ele>57</ele>
        <time>2020-12-16T10:00:43.000Z</time>
      </trkpt>
      <trkpt lat="47.1784" lon="-1.46763">
        <ele>59</ele>
        <time>2020-12-16T10:00:45.000Z</time>
      </trkpt>
      <trkpt lat="47.17841" lon="-1.46781">
        <ele>61</ele>
        <time>2020-12-16T10:00:47.000Z</time>
      </trkpt>
      <trkpt lat="47.17843" lon="-1.468">
        <ele>61</ele>
        <time>2020-12-16T10:00:49.000Z</time>
      </trkpt>
      <trkpt lat="47.17845" lon="-1.46818">
        <ele>62</ele>
        <time>2020-12-16T10:00:51.000Z</time>
      </trkpt>
      <trkpt lat="47.17845" lon="-1.46836">
        <ele>64</ele>
        <time>2020-12-16T10:00:53.000Z</time>
      </trkpt>
      <trkpt lat="47.17845" lon="-1.46853">
        <ele>64</ele>
        <time>2020-12-16T10:00:55.000Z</time>
      </trkpt>
      <trkpt lat="47.17845" lon="-1.46871">
        <ele>64</ele>
        <time>2020-12-16T10:00:57.000Z</time>
      </trkpt>
      <trkpt lat="47.17846" lon="-1.46889">
        <ele>65</ele>
        <time>2020-12-16T10:00:59.000Z</time>
      </trkpt>
      <trkpt lat="47.17845" lon="-1.46915">
        <ele>64</ele>
        <time>2020-12-16T10:01:02.000Z</time>
      </trkpt>
      <trkpt lat="47.17844" lon="-1.46932">
        <ele>63</ele>
        <time>2020-12-16T10:01:04.000Z</time>
      </trkpt>
      <trkpt lat="47.17846" lon="-1.4695">
        <ele>60</ele>
        <time>2020-12-16T10:01:06.000Z</time>
      </trkpt>
      <trkpt lat="47.17847" lon="-1.46965">
        <ele>61</ele>
        <time>2020-12-16T10:01:08.000Z</time>
      </trkpt>
      <trkpt lat="47.17847" lon="-1.46983">
        <ele>61</ele>
        <time>2020-12-16T10:01:11.000Z</time>
      </trkpt>
      <trkpt lat="47.1785" lon="-1.47001">
        <ele>65</ele>
        <time>2020-12-16T10:01:14.000Z</time>
      </trkpt>
      <trkpt lat="47.17855" lon="-1.47013">
        <ele>66</ele>
        <time>2020-12-16T10:01:16.000Z</time>
      </trkpt>
      <trkpt lat="47.17852" lon="-1.47031">
        <ele>69</ele>
        <time>2020-12-16T10:01:18.000Z</time>
      </trkpt>
      <trkpt lat="47.17846" lon="-1.47049">
        <ele>68</ele>
        <time>2020-12-16T10:01:20.000Z</time>
      </trkpt>
      <trkpt lat="47.17844" lon="-1.47066">
        <ele>67</ele>
        <time>2020-12-16T10:01:22.000Z</time>
      </trkpt>
      <trkpt lat="47.17846" lon="-1.47084">
        <ele>70</ele>
        <time>2020-12-16T10:01:24.000Z</time>
      </trkpt>
      <trkpt lat="47.17848" lon="-1.47105">
        <ele>69</ele>
        <time>2020-12-16T10:01:26.000Z</time>
      </trkpt>
      <trkpt lat="47.17851" lon="-1.47125">
        <ele>69</ele>
        <time>2020-12-16T10:01:28.000Z</time>
      </trkpt>
      <trkpt lat="47.17853" lon="-1.47148">
        <ele>68</ele>
        <time>2020-12-16T10:01:30.000Z</time>
      </trkpt>
      <trkpt lat="47.17857" lon="-1.47173">
        <ele>67</ele>
        <time>2020-12-16T10:01:32.000Z</time>
      </trkpt>
      <trkpt lat="47.17859" lon="-1.47186">
        <ele>67</ele>
        <time>2020-12-16T10:01:33.000Z</time>
      </trkpt>
      <trkpt lat="47.17862" lon="-1.472">
        <ele>66</ele>
        <time>2020-12-16T10:01:34.000Z</time>
      </trkpt>
      <trkpt lat="47.17868" lon="-1.47229">
        <ele>64</ele>
        <time>2020-12-16T10:01:36.000Z</time>
      </trkpt>
      <trkpt lat="47.17872" lon="-1.47243">
        <ele>63</ele>
        <time>2020-12-16T10:01:37.000Z</time>
      </trkpt>
      <trkpt lat="47.17875" lon="-1.47258">
        <ele>62</ele>
        <time>2020-12-16T10:01:38.000Z</time>
      </trkpt>
      <trkpt lat="47.17879" lon="-1.47272">
        <ele>61</ele>
        <time>2020-12-16T10:01:39.000Z</time>
      </trkpt>
      <trkpt lat="47.17882" lon="-1.47288">
        <ele>60</ele>
        <time>2020-12-16T10:01:40.000Z</time>
      </trkpt>
      <trkpt lat="47.17889" lon="-1.47317">
        <ele>59</ele>
        <time>2020-12-16T10:01:42.000Z</time>
      </trkpt>
      <trkpt lat="47.17893" lon="-1.47333">
        <ele>59</ele>
        <time>2020-12-16T10:01:43.000Z</time>
      </trkpt>
      <trkpt lat="47.17896" lon="-1.47347">
        <ele>58</ele>
        <time>2020-12-16T10:01:44.000Z</time>
      </trkpt>
      <trkpt lat="47.17902" lon="-1.47376">
        <ele>58</ele>
        <time>2020-12-16T10:01:46.000Z</time>
      </trkpt>
      <trkpt lat="47.17904" lon="-1.47391">
        <ele>58</ele>
        <time>2020-12-16T10:01:47.000Z</time>
      </trkpt>
      <trkpt lat="47.17907" lon="-1.4742">
        <ele>57</ele>
        <time>2020-12-16T10:01:49.000Z</time>
      </trkpt>
      <trkpt lat="47.17909" lon="-1.47433">
        <ele>57</ele>
        <time>2020-12-16T10:01:50.000Z</time>
      </trkpt>
      <trkpt lat="47.17911" lon="-1.47456">
        <ele>56</ele>
        <time>2020-12-16T10:01:52.000Z</time>
      </trkpt>
      <trkpt lat="47.17918" lon="-1.4747">
        <ele>55</ele>
        <time>2020-12-16T10:01:56.000Z</time>
      </trkpt>
      <trkpt lat="47.17925" lon="-1.47479">
        <ele>55</ele>
        <time>2020-12-16T10:01:58.000Z</time>
      </trkpt>
      <trkpt lat="47.17933" lon="-1.47488">
        <ele>55</ele>
        <time>2020-12-16T10:02:00.000Z</time>
      </trkpt>
      <trkpt lat="47.17944" lon="-1.4749">
        <ele>55</ele>
        <time>2020-12-16T10:02:02.000Z</time>
      </trkpt>
      <trkpt lat="47.17958" lon="-1.47494">
        <ele>55</ele>
        <time>2020-12-16T10:02:04.000Z</time>
      </trkpt>
      <trkpt lat="47.17972" lon="-1.47497">
        <ele>56</ele>
        <time>2020-12-16T10:02:06.000Z</time>
      </trkpt>
      <trkpt lat="47.17986" lon="-1.47501">
        <ele>57</ele>
        <time>2020-12-16T10:02:08.000Z</time>
      </trkpt>
      <trkpt lat="47.17999" lon="-1.47504">
        <ele>57</ele>
        <time>2020-12-16T10:02:10.000Z</time>
      </trkpt>
      <trkpt lat="47.18013" lon="-1.47508">
        <ele>57</ele>
        <time>2020-12-16T10:02:12.000Z</time>
      </trkpt>
      <trkpt lat="47.18027" lon="-1.4751">
        <ele>57</ele>
        <time>2020-12-16T10:02:14.000Z</time>
      </trkpt>
      <trkpt lat="47.1804" lon="-1.47514">
        <ele>56</ele>
        <time>2020-12-16T10:02:16.000Z</time>
      </trkpt>
      <trkpt lat="47.18054" lon="-1.47519">
        <ele>56</ele>
        <time>2020-12-16T10:02:18.000Z</time>
      </trkpt>
      <trkpt lat="47.18067" lon="-1.47522">
        <ele>57</ele>
        <time>2020-12-16T10:02:20.000Z</time>
      </trkpt>
      <trkpt lat="47.18081" lon="-1.47526">
        <ele>57</ele>
        <time>2020-12-16T10:02:22.000Z</time>
      </trkpt>
      <trkpt lat="47.18094" lon="-1.4753">
        <ele>56</ele>
        <time>2020-12-16T10:02:24.000Z</time>
      </trkpt>
      <trkpt lat="47.18117" lon="-1.47536">
        <ele>55</ele>
        <time>2020-12-16T10:02:27.000Z</time>
      </trkpt>
      <trkpt lat="47.18128" lon="-1.47539">
        <ele>56</ele>
        <time>2020-12-16T10:02:29.000Z</time>
      </trkpt>
      <trkpt lat="47.18146" lon="-1.47542">
        <ele>58</ele>
        <time>2020-12-16T10:02:32.000Z</time>
      </trkpt>
      <trkpt lat="47.18158" lon="-1.47547">
        <ele>56</ele>
        <time>2020-12-16T10:02:34.000Z</time>
      </trkpt>
      <trkpt lat="47.18178" lon="-1.47556">
        <ele>58</ele>
        <time>2020-12-16T10:02:37.000Z</time>
      </trkpt>
      <trkpt lat="47.1819" lon="-1.47557">
        <ele>59</ele>
        <time>2020-12-16T10:02:39.000Z</time>
      </trkpt>
      <trkpt lat="47.18205" lon="-1.47558">
        <ele>58</ele>
        <time>2020-12-16T10:02:42.000Z</time>
      </trkpt>
      <trkpt lat="47.18219" lon="-1.4756">
        <ele>58</ele>
        <time>2020-12-16T10:02:44.000Z</time>
      </trkpt>
      <trkpt lat="47.18235" lon="-1.47563">
        <ele>58</ele>
        <time>2020-12-16T10:02:46.000Z</time>
      </trkpt>
      <trkpt lat="47.18247" lon="-1.47567">
        <ele>59</ele>
        <time>2020-12-16T10:02:48.000Z</time>
      </trkpt>
      <trkpt lat="47.18259" lon="-1.4757">
        <ele>61</ele>
        <time>2020-12-16T10:02:50.000Z</time>
      </trkpt>
      <trkpt lat="47.18271" lon="-1.47574">
        <ele>62</ele>
        <time>2020-12-16T10:02:52.000Z</time>
      </trkpt>
      <trkpt lat="47.18283" lon="-1.47577">
        <ele>62</ele>
        <time>2020-12-16T10:02:54.000Z</time>
      </trkpt>
      <trkpt lat="47.18295" lon="-1.47582">
        <ele>64</ele>
        <time>2020-12-16T10:02:56.000Z</time>
      </trkpt>
      <trkpt lat="47.18306" lon="-1.47586">
        <ele>64</ele>
        <time>2020-12-16T10:02:58.000Z</time>
      </trkpt>
      <trkpt lat="47.18318" lon="-1.47589">
        <ele>64</ele>
        <time>2020-12-16T10:03:00.000Z</time>
      </trkpt>
      <trkpt lat="47.1833" lon="-1.47592">
        <ele>65</ele>
        <time>2020-12-16T10:03:02.000Z</time>
      </trkpt>
      <trkpt lat="47.1834" lon="-1.47595">
        <ele>65</ele>
        <time>2020-12-16T10:03:04.000Z</time>
      </trkpt>
      <trkpt lat="47.18357" lon="-1.47599">
        <ele>65</ele>
        <time>2020-12-16T10:03:08.000Z</time>
      </trkpt>
      <trkpt lat="47.18368" lon="-1.47599">
        <ele>63</ele>
        <time>2020-12-16T10:03:12.000Z</time>
      </trkpt>
      <trkpt lat="47.18378" lon="-1.47604">
        <ele>63</ele>
        <time>2020-12-16T10:03:17.000Z</time>
      </trkpt>
      <trkpt lat="47.18389" lon="-1.47604">
        <ele>64</ele>
        <time>2020-12-16T10:03:24.000Z</time>
      </trkpt>
      <trkpt lat="47.18399" lon="-1.47605">
        <ele>65</ele>
        <time>2020-12-16T10:03:26.000Z</time>
      </trkpt>
      <trkpt lat="47.18412" lon="-1.47609">
        <ele>66</ele>
        <time>2020-12-16T10:03:28.000Z</time>
      </trkpt>
      <trkpt lat="47.18425" lon="-1.47613">
        <ele>66</ele>
        <time>2020-12-16T10:03:30.000Z</time>
      </trkpt>
      <trkpt lat="47.18438" lon="-1.47617">
        <ele>66</ele>
        <time>2020-12-16T10:03:32.000Z</time>
      </trkpt>
      <trkpt lat="47.1845" lon="-1.47621">
        <ele>67</ele>
        <time>2020-12-16T10:03:34.000Z</time>
      </trkpt>
      <trkpt lat="47.18463" lon="-1.47624">
        <ele>68</ele>
        <time>2020-12-16T10:03:36.000Z</time>
      </trkpt>
      <trkpt lat="47.18475" lon="-1.47628">
        <ele>69</ele>
        <time>2020-12-16T10:03:38.000Z</time>
      </trkpt>
      <trkpt lat="47.18487" lon="-1.47632">
        <ele>70</ele>
        <time>2020-12-16T10:03:40.000Z</time>
      </trkpt>
      <trkpt lat="47.18498" lon="-1.47636">
        <ele>72</ele>
        <time>2020-12-16T10:03:42.000Z</time>
      </trkpt>
      <trkpt lat="47.18509" lon="-1.47639">
        <ele>73</ele>
        <time>2020-12-16T10:03:44.000Z</time>
      </trkpt>
      <trkpt lat="47.18522" lon="-1.47641">
        <ele>73</ele>
        <time>2020-12-16T10:03:46.000Z</time>
      </trkpt>
      <trkpt lat="47.18532" lon="-1.47644">
        <ele>73</ele>
        <time>2020-12-16T10:03:48.000Z</time>
      </trkpt>
      <trkpt lat="47.18543" lon="-1.47647">
        <ele>74</ele>
        <time>2020-12-16T10:03:50.000Z</time>
      </trkpt>
      <trkpt lat="47.18554" lon="-1.47651">
        <ele>75</ele>
        <time>2020-12-16T10:03:52.000Z</time>
      </trkpt>
      <trkpt lat="47.18569" lon="-1.47656">
        <ele>76</ele>
        <time>2020-12-16T10:03:55.000Z</time>
      </trkpt>
      <trkpt lat="47.18579" lon="-1.47658">
        <ele>76</ele>
        <time>2020-12-16T10:03:57.000Z</time>
      </trkpt>
      <trkpt lat="47.18591" lon="-1.47662">
        <ele>76</ele>
        <time>2020-12-16T10:04:00.000Z</time>
      </trkpt>
      <trkpt lat="47.18602" lon="-1.47665">
        <ele>77</ele>
        <time>2020-12-16T10:04:03.000Z</time>
      </trkpt>
      <trkpt lat="47.18614" lon="-1.47667">
        <ele>77</ele>
        <time>2020-12-16T10:04:06.000Z</time>
      </trkpt>
      <trkpt lat="47.18623" lon="-1.47669">
        <ele>77</ele>
        <time>2020-12-16T10:04:08.000Z</time>
      </trkpt>
      <trkpt lat="47.18632" lon="-1.47674">
        <ele>78</ele>
        <time>2020-12-16T10:04:11.000Z</time>
      </trkpt>
      <trkpt lat="47.18643" lon="-1.47678">
        <ele>78</ele>
        <time>2020-12-16T10:04:14.000Z</time>
      </trkpt>
      <trkpt lat="47.18655" lon="-1.47679">
        <ele>79</ele>
        <time>2020-12-16T10:04:16.000Z</time>
      </trkpt>
      <trkpt lat="47.18664" lon="-1.4768">
        <ele>78</ele>
        <time>2020-12-16T10:04:18.000Z</time>
      </trkpt>
      <trkpt lat="47.18674" lon="-1.47682">
        <ele>79</ele>
        <time>2020-12-16T10:04:22.000Z</time>
      </trkpt>
      <trkpt lat="47.18688" lon="-1.47684">
        <ele>79</ele>
        <time>2020-12-16T10:04:29.000Z</time>
      </trkpt>
      <trkpt lat="47.18701" lon="-1.47679">
        <ele>80</ele>
        <time>2020-12-16T10:04:31.000Z</time>
      </trkpt>
      <trkpt lat="47.18716" lon="-1.47661">
        <ele>79</ele>
        <time>2020-12-16T10:04:34.000Z</time>
      </trkpt>
      <trkpt lat="47.18722" lon="-1.47644">
        <ele>79</ele>
        <time>2020-12-16T10:04:36.000Z</time>
      </trkpt>
      <trkpt lat="47.1873" lon="-1.47628">
        <ele>79</ele>
        <time>2020-12-16T10:04:38.000Z</time>
      </trkpt>
      <trkpt lat="47.18737" lon="-1.47612">
        <ele>80</ele>
        <time>2020-12-16T10:04:40.000Z</time>
      </trkpt>
      <trkpt lat="47.18749" lon="-1.47587">
        <ele>80</ele>
        <time>2020-12-16T10:04:43.000Z</time>
      </trkpt>
      <trkpt lat="47.18761" lon="-1.47564">
        <ele>79</ele>
        <time>2020-12-16T10:04:46.000Z</time>
      </trkpt>
      <trkpt lat="47.18768" lon="-1.47549">
        <ele>80</ele>
        <time>2020-12-16T10:04:48.000Z</time>
      </trkpt>
      <trkpt lat="47.18775" lon="-1.47533">
        <ele>79</ele>
        <time>2020-12-16T10:04:50.000Z</time>
      </trkpt>
      <trkpt lat="47.18783" lon="-1.47519">
        <ele>76</ele>
        <time>2020-12-16T10:04:52.000Z</time>
      </trkpt>
      <trkpt lat="47.18789" lon="-1.47503">
        <ele>77</ele>
        <time>2020-12-16T10:04:54.000Z</time>
      </trkpt>
      <trkpt lat="47.18797" lon="-1.47488">
        <ele>77</ele>
        <time>2020-12-16T10:04:56.000Z</time>
      </trkpt>
      <trkpt lat="47.18805" lon="-1.47473">
        <ele>76</ele>
        <time>2020-12-16T10:04:58.000Z</time>
      </trkpt>
      <trkpt lat="47.18819" lon="-1.47446">
        <ele>75</ele>
        <time>2020-12-16T10:05:02.000Z</time>
      </trkpt>
      <trkpt lat="47.18824" lon="-1.4743">
        <ele>76</ele>
        <time>2020-12-16T10:05:04.000Z</time>
      </trkpt>
      <trkpt lat="47.1883" lon="-1.47415">
        <ele>76</ele>
        <time>2020-12-16T10:05:06.000Z</time>
      </trkpt>
      <trkpt lat="47.1884" lon="-1.47392">
        <ele>77</ele>
        <time>2020-12-16T10:05:09.000Z</time>
      </trkpt>
      <trkpt lat="47.18848" lon="-1.4738">
        <ele>78</ele>
        <time>2020-12-16T10:05:11.000Z</time>
      </trkpt>
      <trkpt lat="47.18857" lon="-1.47362">
        <ele>77</ele>
        <time>2020-12-16T10:05:13.000Z</time>
      </trkpt>
      <trkpt lat="47.18866" lon="-1.47343">
        <ele>78</ele>
        <time>2020-12-16T10:05:15.000Z</time>
      </trkpt>
      <trkpt lat="47.18874" lon="-1.47326">
        <ele>79</ele>
        <time>2020-12-16T10:05:17.000Z</time>
      </trkpt>
      <trkpt lat="47.18881" lon="-1.47308">
        <ele>80</ele>
        <time>2020-12-16T10:05:19.000Z</time>
      </trkpt>
      <trkpt lat="47.18889" lon="-1.47292">
        <ele>82</ele>
        <time>2020-12-16T10:05:21.000Z</time>
      </trkpt>
      <trkpt lat="47.18897" lon="-1.47276">
        <ele>81</ele>
        <time>2020-12-16T10:05:23.000Z</time>
      </trkpt>
      <trkpt lat="47.18905" lon="-1.47262">
        <ele>81</ele>
        <time>2020-12-16T10:05:25.000Z</time>
      </trkpt>
      <trkpt lat="47.18911" lon="-1.47248">
        <ele>81</ele>
        <time>2020-12-16T10:05:27.000Z</time>
      </trkpt>
      <trkpt lat="47.18917" lon="-1.47235">
        <ele>82</ele>
        <time>2020-12-16T10:05:29.000Z</time>
      </trkpt>
      <trkpt lat="47.18923" lon="-1.47223">
        <ele>82</ele>
        <time>2020-12-16T10:05:31.000Z</time>
      </trkpt>
      <trkpt lat="47.18926" lon="-1.4721">
        <ele>82</ele>
        <time>2020-12-16T10:05:34.000Z</time>
      </trkpt>
      <trkpt lat="47.1893" lon="-1.47188">
        <ele>81</ele>
        <time>2020-12-16T10:05:37.000Z</time>
      </trkpt>
      <trkpt lat="47.18945" lon="-1.47169">
        <ele>81</ele>
        <time>2020-12-16T10:05:40.000Z</time>
      </trkpt>
      <trkpt lat="47.18957" lon="-1.47149">
        <ele>80</ele>
        <time>2020-12-16T10:05:43.000Z</time>
      </trkpt>
      <trkpt lat="47.18965" lon="-1.47133">
        <ele>81</ele>
        <time>2020-12-16T10:05:45.000Z</time>
      </trkpt>
      <trkpt lat="47.18972" lon="-1.47117">
        <ele>80</ele>
        <time>2020-12-16T10:05:47.000Z</time>
      </trkpt>
      <trkpt lat="47.18979" lon="-1.47101">
        <ele>80</ele>
        <time>2020-12-16T10:05:49.000Z</time>
      </trkpt>
      <trkpt lat="47.18988" lon="-1.47084">
        <ele>80</ele>
        <time>2020-12-16T10:05:51.000Z</time>
      </trkpt>
      <trkpt lat="47.18996" lon="-1.47066">
        <ele>80</ele>
        <time>2020-12-16T10:05:53.000Z</time>
      </trkpt>
      <trkpt lat="47.19005" lon="-1.47049">
        <ele>80</ele>
        <time>2020-12-16T10:05:55.000Z</time>
      </trkpt>
      <trkpt lat="47.19014" lon="-1.47032">
        <ele>80</ele>
        <time>2020-12-16T10:05:57.000Z</time>
      </trkpt>
      <trkpt lat="47.19026" lon="-1.47006">
        <ele>79</ele>
        <time>2020-12-16T10:06:00.000Z</time>
      </trkpt>
      <trkpt lat="47.19035" lon="-1.46989">
        <ele>79</ele>
        <time>2020-12-16T10:06:02.000Z</time>
      </trkpt>
      <trkpt lat="47.19043" lon="-1.46972">
        <ele>79</ele>
        <time>2020-12-16T10:06:04.000Z</time>
      </trkpt>
      <trkpt lat="47.19054" lon="-1.46947">
        <ele>78</ele>
        <time>2020-12-16T10:06:07.000Z</time>
      </trkpt>
      <trkpt lat="47.19064" lon="-1.46929">
        <ele>73</ele>
        <time>2020-12-16T10:06:09.000Z</time>
      </trkpt>
      <trkpt lat="47.19071" lon="-1.46911">
        <ele>71</ele>
        <time>2020-12-16T10:06:11.000Z</time>
      </trkpt>
      <trkpt lat="47.19081" lon="-1.46886">
        <ele>72</ele>
        <time>2020-12-16T10:06:14.000Z</time>
      </trkpt>
      <trkpt lat="47.19089" lon="-1.46872">
        <ele>71</ele>
        <time>2020-12-16T10:06:16.000Z</time>
      </trkpt>
      <trkpt lat="47.19099" lon="-1.46847">
        <ele>71</ele>
        <time>2020-12-16T10:06:19.000Z</time>
      </trkpt>
      <trkpt lat="47.19112" lon="-1.46822">
        <ele>74</ele>
        <time>2020-12-16T10:06:22.000Z</time>
      </trkpt>
      <trkpt lat="47.19126" lon="-1.46796">
        <ele>74</ele>
        <time>2020-12-16T10:06:25.000Z</time>
      </trkpt>
      <trkpt lat="47.19137" lon="-1.46771">
        <ele>74</ele>
        <time>2020-12-16T10:06:28.000Z</time>
      </trkpt>
      <trkpt lat="47.19143" lon="-1.46755">
        <ele>75</ele>
        <time>2020-12-16T10:06:30.000Z</time>
      </trkpt>
      <trkpt lat="47.19152" lon="-1.46737">
        <ele>76</ele>
        <time>2020-12-16T10:06:32.000Z</time>
      </trkpt>
      <trkpt lat="47.19161" lon="-1.4672">
        <ele>77</ele>
        <time>2020-12-16T10:06:34.000Z</time>
      </trkpt>
      <trkpt lat="47.1917" lon="-1.46701">
        <ele>77</ele>
        <time>2020-12-16T10:06:36.000Z</time>
      </trkpt>
      <trkpt lat="47.19177" lon="-1.46685">
        <ele>75</ele>
        <time>2020-12-16T10:06:38.000Z</time>
      </trkpt>
      <trkpt lat="47.19186" lon="-1.46666">
        <ele>75</ele>
        <time>2020-12-16T10:06:40.000Z</time>
      </trkpt>
      <trkpt lat="47.19195" lon="-1.46647">
        <ele>75</ele>
        <time>2020-12-16T10:06:42.000Z</time>
      </trkpt>
      <trkpt lat="47.19204" lon="-1.46629">
        <ele>76</ele>
        <time>2020-12-16T10:06:44.000Z</time>
      </trkpt>
      <trkpt lat="47.19214" lon="-1.4661">
        <ele>76</ele>
        <time>2020-12-16T10:06:46.000Z</time>
      </trkpt>
      <trkpt lat="47.19222" lon="-1.46591">
        <ele>76</ele>
        <time>2020-12-16T10:06:48.000Z</time>
      </trkpt>
      <trkpt lat="47.19234" lon="-1.46563">
        <ele>75</ele>
        <time>2020-12-16T10:06:51.000Z</time>
      </trkpt>
      <trkpt lat="47.19243" lon="-1.46546">
        <ele>76</ele>
        <time>2020-12-16T10:06:53.000Z</time>
      </trkpt>
      <trkpt lat="47.19252" lon="-1.46527">
        <ele>77</ele>
        <time>2020-12-16T10:06:55.000Z</time>
      </trkpt>
      <trkpt lat="47.19261" lon="-1.46509">
        <ele>77</ele>
        <time>2020-12-16T10:06:57.000Z</time>
      </trkpt>
      <trkpt lat="47.19274" lon="-1.46482">
        <ele>76</ele>
        <time>2020-12-16T10:07:00.000Z</time>
      </trkpt>
      <trkpt lat="47.19284" lon="-1.46464">
        <ele>76</ele>
        <time>2020-12-16T10:07:02.000Z</time>
      </trkpt>
      <trkpt lat="47.19292" lon="-1.46446">
        <ele>77</ele>
        <time>2020-12-16T10:07:04.000Z</time>
      </trkpt>
      <trkpt lat="47.19301" lon="-1.46428">
        <ele>74</ele>
        <time>2020-12-16T10:07:06.000Z</time>
      </trkpt>
      <trkpt lat="47.19309" lon="-1.46412">
        <ele>76</ele>
        <time>2020-12-16T10:07:08.000Z</time>
      </trkpt>
      <trkpt lat="47.19316" lon="-1.46395">
        <ele>77</ele>
        <time>2020-12-16T10:07:10.000Z</time>
      </trkpt>
      <trkpt lat="47.19324" lon="-1.46378">
        <ele>77</ele>
        <time>2020-12-16T10:07:12.000Z</time>
      </trkpt>
      <trkpt lat="47.19333" lon="-1.46361">
        <ele>77</ele>
        <time>2020-12-16T10:07:14.000Z</time>
      </trkpt>
      <trkpt lat="47.1934" lon="-1.46345">
        <ele>76</ele>
        <time>2020-12-16T10:07:16.000Z</time>
      </trkpt>
      <trkpt lat="47.19346" lon="-1.46331">
        <ele>77</ele>
        <time>2020-12-16T10:07:18.000Z</time>
      </trkpt>
      <trkpt lat="47.19352" lon="-1.46321">
        <ele>75</ele>
        <time>2020-12-16T10:07:23.000Z</time>
      </trkpt>
      <trkpt lat="47.19354" lon="-1.46299">
        <ele>76</ele>
        <time>2020-12-16T10:07:26.000Z</time>
      </trkpt>
      <trkpt lat="47.19364" lon="-1.46285">
        <ele>77</ele>
        <time>2020-12-16T10:07:28.000Z</time>
      </trkpt>
      <trkpt lat="47.19381" lon="-1.46268">
        <ele>78</ele>
        <time>2020-12-16T10:07:31.000Z</time>
      </trkpt>
      <trkpt lat="47.19388" lon="-1.46251">
        <ele>78</ele>
        <time>2020-12-16T10:07:33.000Z</time>
      </trkpt>
      <trkpt lat="47.19394" lon="-1.46233">
        <ele>80</ele>
        <time>2020-12-16T10:07:35.000Z</time>
      </trkpt>
      <trkpt lat="47.19403" lon="-1.46215">
        <ele>80</ele>
        <time>2020-12-16T10:07:37.000Z</time>
      </trkpt>
      <trkpt lat="47.19418" lon="-1.46188">
        <ele>78</ele>
        <time>2020-12-16T10:07:40.000Z</time>
      </trkpt>
      <trkpt lat="47.19425" lon="-1.46169">
        <ele>77</ele>
        <time>2020-12-16T10:07:42.000Z</time>
      </trkpt>
      <trkpt lat="47.19435" lon="-1.4615">
        <ele>77</ele>
        <time>2020-12-16T10:07:44.000Z</time>
      </trkpt>
      <trkpt lat="47.19444" lon="-1.46131">
        <ele>78</ele>
        <time>2020-12-16T10:07:46.000Z</time>
      </trkpt>
      <trkpt lat="47.19453" lon="-1.46113">
        <ele>76</ele>
        <time>2020-12-16T10:07:48.000Z</time>
      </trkpt>
      <trkpt lat="47.19462" lon="-1.46094">
        <ele>76</ele>
        <time>2020-12-16T10:07:50.000Z</time>
      </trkpt>
      <trkpt lat="47.19471" lon="-1.46075">
        <ele>76</ele>
        <time>2020-12-16T10:07:52.000Z</time>
      </trkpt>
      <trkpt lat="47.1948" lon="-1.46057">
        <ele>75</ele>
        <time>2020-12-16T10:07:54.000Z</time>
      </trkpt>
      <trkpt lat="47.19488" lon="-1.46038">
        <ele>75</ele>
        <time>2020-12-16T10:07:56.000Z</time>
      </trkpt>
      <trkpt lat="47.19497" lon="-1.46018">
        <ele>74</ele>
        <time>2020-12-16T10:07:58.000Z</time>
      </trkpt>
      <trkpt lat="47.19507" lon="-1.46">
        <ele>75</ele>
        <time>2020-12-16T10:08:00.000Z</time>
      </trkpt>
      <trkpt lat="47.19516" lon="-1.45981">
        <ele>75</ele>
        <time>2020-12-16T10:08:02.000Z</time>
      </trkpt>
      <trkpt lat="47.19524" lon="-1.45962">
        <ele>74</ele>
        <time>2020-12-16T10:08:04.000Z</time>
      </trkpt>
      <trkpt lat="47.19541" lon="-1.45925">
        <ele>73</ele>
        <time>2020-12-16T10:08:08.000Z</time>
      </trkpt>
      <trkpt lat="47.19548" lon="-1.45907">
        <ele>71</ele>
        <time>2020-12-16T10:08:10.000Z</time>
      </trkpt>
      <trkpt lat="47.19554" lon="-1.45889">
        <ele>70</ele>
        <time>2020-12-16T10:08:12.000Z</time>
      </trkpt>
      <trkpt lat="47.19566" lon="-1.45862">
        <ele>66</ele>
        <time>2020-12-16T10:08:15.000Z</time>
      </trkpt>
      <trkpt lat="47.19577" lon="-1.45844">
        <ele>69</ele>
        <time>2020-12-16T10:08:17.000Z</time>
      </trkpt>
      <trkpt lat="47.19585" lon="-1.45827">
        <ele>67</ele>
        <time>2020-12-16T10:08:19.000Z</time>
      </trkpt>
      <trkpt lat="47.19594" lon="-1.45809">
        <ele>68</ele>
        <time>2020-12-16T10:08:21.000Z</time>
      </trkpt>
      <trkpt lat="47.19602" lon="-1.45791">
        <ele>70</ele>
        <time>2020-12-16T10:08:23.000Z</time>
      </trkpt>
      <trkpt lat="47.19608" lon="-1.45772">
        <ele>69</ele>
        <time>2020-12-16T10:08:25.000Z</time>
      </trkpt>
      <trkpt lat="47.19626" lon="-1.45737">
        <ele>69</ele>
        <time>2020-12-16T10:08:30.000Z</time>
      </trkpt>
      <trkpt lat="47.19636" lon="-1.4572">
        <ele>69</ele>
        <time>2020-12-16T10:08:32.000Z</time>
      </trkpt>
      <trkpt lat="47.19645" lon="-1.45704">
        <ele>67</ele>
        <time>2020-12-16T10:08:34.000Z</time>
      </trkpt>
      <trkpt lat="47.19655" lon="-1.45686">
        <ele>67</ele>
        <time>2020-12-16T10:08:36.000Z</time>
      </trkpt>
      <trkpt lat="47.19668" lon="-1.4566">
        <ele>68</ele>
        <time>2020-12-16T10:08:39.000Z</time>
      </trkpt>
      <trkpt lat="47.19677" lon="-1.45642">
        <ele>69</ele>
        <time>2020-12-16T10:08:41.000Z</time>
      </trkpt>
      <trkpt lat="47.19683" lon="-1.45624">
        <ele>71</ele>
        <time>2020-12-16T10:08:43.000Z</time>
      </trkpt>
      <trkpt lat="47.19696" lon="-1.45599">
        <ele>71</ele>
        <time>2020-12-16T10:08:46.000Z</time>
      </trkpt>
      <trkpt lat="47.19708" lon="-1.45573">
        <ele>72</ele>
        <time>2020-12-16T10:08:49.000Z</time>
      </trkpt>
      <trkpt lat="47.19716" lon="-1.45556">
        <ele>73</ele>
        <time>2020-12-16T10:08:51.000Z</time>
      </trkpt>
      <trkpt lat="47.19723" lon="-1.4554">
        <ele>73</ele>
        <time>2020-12-16T10:08:53.000Z</time>
      </trkpt>
      <trkpt lat="47.19731" lon="-1.45524">
        <ele>73</ele>
        <time>2020-12-16T10:08:55.000Z</time>
      </trkpt>
      <trkpt lat="47.19742" lon="-1.455">
        <ele>74</ele>
        <time>2020-12-16T10:08:58.000Z</time>
      </trkpt>
      <trkpt lat="47.19752" lon="-1.45476">
        <ele>75</ele>
        <time>2020-12-16T10:09:01.000Z</time>
      </trkpt>
      <trkpt lat="47.19761" lon="-1.45452">
        <ele>75</ele>
        <time>2020-12-16T10:09:04.000Z</time>
      </trkpt>
      <trkpt lat="47.1977" lon="-1.45431">
        <ele>75</ele>
        <time>2020-12-16T10:09:07.000Z</time>
      </trkpt>
      <trkpt lat="47.19777" lon="-1.45413">
        <ele>75</ele>
        <time>2020-12-16T10:09:10.000Z</time>
      </trkpt>
      <trkpt lat="47.19781" lon="-1.45398">
        <ele>75</ele>
        <time>2020-12-16T10:09:12.000Z</time>
      </trkpt>
      <trkpt lat="47.19788" lon="-1.45368">
        <ele>75</ele>
        <time>2020-12-16T10:09:15.000Z</time>
      </trkpt>
      <trkpt lat="47.19801" lon="-1.45354">
        <ele>75</ele>
        <time>2020-12-16T10:09:17.000Z</time>
      </trkpt>
      <trkpt lat="47.19814" lon="-1.45345">
        <ele>75</ele>
        <time>2020-12-16T10:09:19.000Z</time>
      </trkpt>
      <trkpt lat="47.19825" lon="-1.45329">
        <ele>75</ele>
        <time>2020-12-16T10:09:21.000Z</time>
      </trkpt>
      <trkpt lat="47.19833" lon="-1.4531">
        <ele>75</ele>
        <time>2020-12-16T10:09:23.000Z</time>
      </trkpt>
      <trkpt lat="47.19842" lon="-1.45293">
        <ele>74</ele>
        <time>2020-12-16T10:09:25.000Z</time>
      </trkpt>
      <trkpt lat="47.1985" lon="-1.45275">
        <ele>74</ele>
        <time>2020-12-16T10:09:27.000Z</time>
      </trkpt>
      <trkpt lat="47.1986" lon="-1.45258">
        <ele>74</ele>
        <time>2020-12-16T10:09:29.000Z</time>
      </trkpt>
      <trkpt lat="47.19867" lon="-1.4524">
        <ele>75</ele>
        <time>2020-12-16T10:09:31.000Z</time>
      </trkpt>
      <trkpt lat="47.19876" lon="-1.45223">
        <ele>75</ele>
        <time>2020-12-16T10:09:33.000Z</time>
      </trkpt>
      <trkpt lat="47.19882" lon="-1.45205">
        <ele>71</ele>
        <time>2020-12-16T10:09:35.000Z</time>
      </trkpt>
      <trkpt lat="47.19895" lon="-1.45179">
        <ele>72</ele>
        <time>2020-12-16T10:09:38.000Z</time>
      </trkpt>
      <trkpt lat="47.19903" lon="-1.45161">
        <ele>73</ele>
        <time>2020-12-16T10:09:40.000Z</time>
      </trkpt>
      <trkpt lat="47.19909" lon="-1.45143">
        <ele>71</ele>
        <time>2020-12-16T10:09:42.000Z</time>
      </trkpt>
      <trkpt lat="47.19916" lon="-1.45126">
        <ele>72</ele>
        <time>2020-12-16T10:09:44.000Z</time>
      </trkpt>
      <trkpt lat="47.19924" lon="-1.45108">
        <ele>73</ele>
        <time>2020-12-16T10:09:46.000Z</time>
      </trkpt>
      <trkpt lat="47.19932" lon="-1.45091">
        <ele>73</ele>
        <time>2020-12-16T10:09:48.000Z</time>
      </trkpt>
      <trkpt lat="47.1994" lon="-1.45073">
        <ele>72</ele>
        <time>2020-12-16T10:09:50.000Z</time>
      </trkpt>
      <trkpt lat="47.19948" lon="-1.45055">
        <ele>71</ele>
        <time>2020-12-16T10:09:52.000Z</time>
      </trkpt>
      <trkpt lat="47.19957" lon="-1.45037">
        <ele>70</ele>
        <time>2020-12-16T10:09:54.000Z</time>
      </trkpt>
      <trkpt lat="47.19965" lon="-1.45019">
        <ele>69</ele>
        <time>2020-12-16T10:09:56.000Z</time>
      </trkpt>
      <trkpt lat="47.19969" lon="-1.44998">
        <ele>69</ele>
        <time>2020-12-16T10:09:58.000Z</time>
      </trkpt>
      <trkpt lat="47.19987" lon="-1.44975">
        <ele>70</ele>
        <time>2020-12-16T10:10:01.000Z</time>
      </trkpt>
      <trkpt lat="47.20001" lon="-1.44964">
        <ele>70</ele>
        <time>2020-12-16T10:10:03.000Z</time>
      </trkpt>
      <trkpt lat="47.20014" lon="-1.44949">
        <ele>70</ele>
        <time>2020-12-16T10:10:05.000Z</time>
      </trkpt>
      <trkpt lat="47.20025" lon="-1.44933">
        <ele>70</ele>
        <time>2020-12-16T10:10:07.000Z</time>
      </trkpt>
      <trkpt lat="47.20042" lon="-1.44906">
        <ele>68</ele>
        <time>2020-12-16T10:10:10.000Z</time>
      </trkpt>
      <trkpt lat="47.20053" lon="-1.4489">
        <ele>68</ele>
        <time>2020-12-16T10:10:12.000Z</time>
      </trkpt>
      <trkpt lat="47.20063" lon="-1.44873">
        <ele>67</ele>
        <time>2020-12-16T10:10:14.000Z</time>
      </trkpt>
      <trkpt lat="47.20073" lon="-1.44857">
        <ele>66</ele>
        <time>2020-12-16T10:10:16.000Z</time>
      </trkpt>
      <trkpt lat="47.20086" lon="-1.44832">
        <ele>63</ele>
        <time>2020-12-16T10:10:19.000Z</time>
      </trkpt>
      <trkpt lat="47.20103" lon="-1.44806">
        <ele>62</ele>
        <time>2020-12-16T10:10:22.000Z</time>
      </trkpt>
      <trkpt lat="47.20119" lon="-1.4478">
        <ele>61</ele>
        <time>2020-12-16T10:10:25.000Z</time>
      </trkpt>
      <trkpt lat="47.20135" lon="-1.44752">
        <ele>61</ele>
        <time>2020-12-16T10:10:28.000Z</time>
      </trkpt>
      <trkpt lat="47.20139" lon="-1.4472">
        <ele>62</ele>
        <time>2020-12-16T10:10:31.000Z</time>
      </trkpt>
      <trkpt lat="47.20153" lon="-1.44693">
        <ele>61</ele>
        <time>2020-12-16T10:10:34.000Z</time>
      </trkpt>
      <trkpt lat="47.20178" lon="-1.44686">
        <ele>57</ele>
        <time>2020-12-16T10:10:37.000Z</time>
      </trkpt>
      <trkpt lat="47.20194" lon="-1.44686">
        <ele>57</ele>
        <time>2020-12-16T10:10:39.000Z</time>
      </trkpt>
      <trkpt lat="47.2021" lon="-1.44677">
        <ele>57</ele>
        <time>2020-12-16T10:10:41.000Z</time>
      </trkpt>
      <trkpt lat="47.20224" lon="-1.44668">
        <ele>58</ele>
        <time>2020-12-16T10:10:43.000Z</time>
      </trkpt>
      <trkpt lat="47.20238" lon="-1.44658">
        <ele>59</ele>
        <time>2020-12-16T10:10:45.000Z</time>
      </trkpt>
      <trkpt lat="47.20252" lon="-1.44648">
        <ele>59</ele>
        <time>2020-12-16T10:10:47.000Z</time>
      </trkpt>
      <trkpt lat="47.20267" lon="-1.44638">
        <ele>59</ele>
        <time>2020-12-16T10:10:49.000Z</time>
      </trkpt>
      <trkpt lat="47.20282" lon="-1.44628">
        <ele>58</ele>
        <time>2020-12-16T10:10:51.000Z</time>
      </trkpt>
      <trkpt lat="47.20296" lon="-1.44619">
        <ele>58</ele>
        <time>2020-12-16T10:10:53.000Z</time>
      </trkpt>
      <trkpt lat="47.2031" lon="-1.44608">
        <ele>55</ele>
        <time>2020-12-16T10:10:55.000Z</time>
      </trkpt>
      <trkpt lat="47.20323" lon="-1.44598">
        <ele>56</ele>
        <time>2020-12-16T10:10:57.000Z</time>
      </trkpt>
      <trkpt lat="47.20344" lon="-1.4458">
        <ele>54</ele>
        <time>2020-12-16T10:11:00.000Z</time>
      </trkpt>
      <trkpt lat="47.20356" lon="-1.4457">
        <ele>52</ele>
        <time>2020-12-16T10:11:02.000Z</time>
      </trkpt>
      <trkpt lat="47.2037" lon="-1.44566">
        <ele>54</ele>
        <time>2020-12-16T10:11:04.000Z</time>
      </trkpt>
      <trkpt lat="47.20383" lon="-1.44558">
        <ele>53</ele>
        <time>2020-12-16T10:11:06.000Z</time>
      </trkpt>
      <trkpt lat="47.20398" lon="-1.4455">
        <ele>52</ele>
        <time>2020-12-16T10:11:08.000Z</time>
      </trkpt>
      <trkpt lat="47.20412" lon="-1.44542">
        <ele>52</ele>
        <time>2020-12-16T10:11:10.000Z</time>
      </trkpt>
      <trkpt lat="47.20425" lon="-1.44532">
        <ele>53</ele>
        <time>2020-12-16T10:11:12.000Z</time>
      </trkpt>
      <trkpt lat="47.20439" lon="-1.44522">
        <ele>52</ele>
        <time>2020-12-16T10:11:14.000Z</time>
      </trkpt>
      <trkpt lat="47.20452" lon="-1.44511">
        <ele>51</ele>
        <time>2020-12-16T10:11:16.000Z</time>
      </trkpt>
      <trkpt lat="47.20466" lon="-1.44502">
        <ele>53</ele>
        <time>2020-12-16T10:11:18.000Z</time>
      </trkpt>
      <trkpt lat="47.20479" lon="-1.44494">
        <ele>53</ele>
        <time>2020-12-16T10:11:20.000Z</time>
      </trkpt>
      <trkpt lat="47.20493" lon="-1.44485">
        <ele>55</ele>
        <time>2020-12-16T10:11:22.000Z</time>
      </trkpt>
      <trkpt lat="47.20507" lon="-1.44475">
        <ele>56</ele>
        <time>2020-12-16T10:11:24.000Z</time>
      </trkpt>
      <trkpt lat="47.20519" lon="-1.44465">
        <ele>56</ele>
        <time>2020-12-16T10:11:26.000Z</time>
      </trkpt>
      <trkpt lat="47.20533" lon="-1.44456">
        <ele>56</ele>
        <time>2020-12-16T10:11:28.000Z</time>
      </trkpt>
      <trkpt lat="47.20546" lon="-1.44448">
        <ele>57</ele>
        <time>2020-12-16T10:11:30.000Z</time>
      </trkpt>
      <trkpt lat="47.20559" lon="-1.44438">
        <ele>57</ele>
        <time>2020-12-16T10:11:32.000Z</time>
      </trkpt>
      <trkpt lat="47.20573" lon="-1.44428">
        <ele>58</ele>
        <time>2020-12-16T10:11:34.000Z</time>
      </trkpt>
      <trkpt lat="47.20586" lon="-1.44419">
        <ele>58</ele>
        <time>2020-12-16T10:11:36.000Z</time>
      </trkpt>
      <trkpt lat="47.206" lon="-1.44409">
        <ele>58</ele>
        <time>2020-12-16T10:11:38.000Z</time>
      </trkpt>
      <trkpt lat="47.20614" lon="-1.44399">
        <ele>58</ele>
        <time>2020-12-16T10:11:40.000Z</time>
      </trkpt>
      <trkpt lat="47.20626" lon="-1.44391">
        <ele>59</ele>
        <time>2020-12-16T10:11:42.000Z</time>
      </trkpt>
      <trkpt lat="47.20646" lon="-1.44379">
        <ele>59</ele>
        <time>2020-12-16T10:11:45.000Z</time>
      </trkpt>
      <trkpt lat="47.20656" lon="-1.44373">
        <ele>59</ele>
        <time>2020-12-16T10:11:47.000Z</time>
      </trkpt>
      <trkpt lat="47.20672" lon="-1.44356">
        <ele>59</ele>
        <time>2020-12-16T10:11:51.000Z</time>
      </trkpt>
      <trkpt lat="47.20684" lon="-1.4435">
        <ele>60</ele>
        <time>2020-12-16T10:11:53.000Z</time>
      </trkpt>
      <trkpt lat="47.20696" lon="-1.44341">
        <ele>60</ele>
        <time>2020-12-16T10:11:55.000Z</time>
      </trkpt>
      <trkpt lat="47.20709" lon="-1.44331">
        <ele>60</ele>
        <time>2020-12-16T10:11:57.000Z</time>
      </trkpt>
      <trkpt lat="47.20722" lon="-1.44321">
        <ele>60</ele>
        <time>2020-12-16T10:11:59.000Z</time>
      </trkpt>
      <trkpt lat="47.20735" lon="-1.4431">
        <ele>60</ele>
        <time>2020-12-16T10:12:01.000Z</time>
      </trkpt>
      <trkpt lat="47.20748" lon="-1.443">
        <ele>59</ele>
        <time>2020-12-16T10:12:03.000Z</time>
      </trkpt>
      <trkpt lat="47.20761" lon="-1.44291">
        <ele>59</ele>
        <time>2020-12-16T10:12:05.000Z</time>
      </trkpt>
      <trkpt lat="47.20774" lon="-1.44281">
        <ele>59</ele>
        <time>2020-12-16T10:12:07.000Z</time>
      </trkpt>
      <trkpt lat="47.20788" lon="-1.4427">
        <ele>59</ele>
        <time>2020-12-16T10:12:09.000Z</time>
      </trkpt>
      <trkpt lat="47.20801" lon="-1.44261">
        <ele>59</ele>
        <time>2020-12-16T10:12:11.000Z</time>
      </trkpt>
      <trkpt lat="47.20815" lon="-1.44251">
        <ele>58</ele>
        <time>2020-12-16T10:12:13.000Z</time>
      </trkpt>
      <trkpt lat="47.20828" lon="-1.44241">
        <ele>58</ele>
        <time>2020-12-16T10:12:15.000Z</time>
      </trkpt>
      <trkpt lat="47.20841" lon="-1.44231">
        <ele>58</ele>
        <time>2020-12-16T10:12:17.000Z</time>
      </trkpt>
      <trkpt lat="47.20855" lon="-1.44223">
        <ele>56</ele>
        <time>2020-12-16T10:12:19.000Z</time>
      </trkpt>
      <trkpt lat="47.20876" lon="-1.44207">
        <ele>57</ele>
        <time>2020-12-16T10:12:22.000Z</time>
      </trkpt>
      <trkpt lat="47.2089" lon="-1.44195">
        <ele>54</ele>
        <time>2020-12-16T10:12:24.000Z</time>
      </trkpt>
      <trkpt lat="47.209" lon="-1.44185">
        <ele>53</ele>
        <time>2020-12-16T10:12:26.000Z</time>
      </trkpt>
      <trkpt lat="47.20912" lon="-1.44178">
        <ele>52</ele>
        <time>2020-12-16T10:12:28.000Z</time>
      </trkpt>
      <trkpt lat="47.20935" lon="-1.44162">
        <ele>53</ele>
        <time>2020-12-16T10:12:31.000Z</time>
      </trkpt>
      <trkpt lat="47.2095" lon="-1.44151">
        <ele>54</ele>
        <time>2020-12-16T10:12:33.000Z</time>
      </trkpt>
      <trkpt lat="47.20964" lon="-1.4414">
        <ele>54</ele>
        <time>2020-12-16T10:12:35.000Z</time>
      </trkpt>
      <trkpt lat="47.20977" lon="-1.4413">
        <ele>54</ele>
        <time>2020-12-16T10:12:37.000Z</time>
      </trkpt>
      <trkpt lat="47.2099" lon="-1.4412">
        <ele>54</ele>
        <time>2020-12-16T10:12:39.000Z</time>
      </trkpt>
      <trkpt lat="47.21003" lon="-1.44111">
        <ele>54</ele>
        <time>2020-12-16T10:12:41.000Z</time>
      </trkpt>
      <trkpt lat="47.21016" lon="-1.44101">
        <ele>54</ele>
        <time>2020-12-16T10:12:43.000Z</time>
      </trkpt>
      <trkpt lat="47.21029" lon="-1.44091">
        <ele>54</ele>
        <time>2020-12-16T10:12:45.000Z</time>
      </trkpt>
      <trkpt lat="47.21043" lon="-1.44081">
        <ele>54</ele>
        <time>2020-12-16T10:12:47.000Z</time>
      </trkpt>
      <trkpt lat="47.21056" lon="-1.44072">
        <ele>54</ele>
        <time>2020-12-16T10:12:49.000Z</time>
      </trkpt>
      <trkpt lat="47.21068" lon="-1.44062">
        <ele>53</ele>
        <time>2020-12-16T10:12:51.000Z</time>
      </trkpt>
      <trkpt lat="47.21081" lon="-1.44052">
        <ele>54</ele>
        <time>2020-12-16T10:12:53.000Z</time>
      </trkpt>
      <trkpt lat="47.21094" lon="-1.44043">
        <ele>54</ele>
        <time>2020-12-16T10:12:55.000Z</time>
      </trkpt>
      <trkpt lat="47.21106" lon="-1.44033">
        <ele>54</ele>
        <time>2020-12-16T10:12:57.000Z</time>
      </trkpt>
      <trkpt lat="47.21119" lon="-1.44024">
        <ele>53</ele>
        <time>2020-12-16T10:12:59.000Z</time>
      </trkpt>
      <trkpt lat="47.21132" lon="-1.44014">
        <ele>53</ele>
        <time>2020-12-16T10:13:01.000Z</time>
      </trkpt>
      <trkpt lat="47.21146" lon="-1.44004">
        <ele>53</ele>
        <time>2020-12-16T10:13:03.000Z</time>
      </trkpt>
      <trkpt lat="47.21159" lon="-1.43995">
        <ele>53</ele>
        <time>2020-12-16T10:13:05.000Z</time>
      </trkpt>
      <trkpt lat="47.21172" lon="-1.43984">
        <ele>53</ele>
        <time>2020-12-16T10:13:07.000Z</time>
      </trkpt>
      <trkpt lat="47.21186" lon="-1.43974">
        <ele>52</ele>
        <time>2020-12-16T10:13:09.000Z</time>
      </trkpt>
      <trkpt lat="47.21197" lon="-1.43963">
        <ele>51</ele>
        <time>2020-12-16T10:13:11.000Z</time>
      </trkpt>
      <trkpt lat="47.2121" lon="-1.43955">
        <ele>52</ele>
        <time>2020-12-16T10:13:13.000Z</time>
      </trkpt>
      <trkpt lat="47.21223" lon="-1.43944">
        <ele>52</ele>
        <time>2020-12-16T10:13:15.000Z</time>
      </trkpt>
      <trkpt lat="47.21236" lon="-1.43934">
        <ele>51</ele>
        <time>2020-12-16T10:13:17.000Z</time>
      </trkpt>
      <trkpt lat="47.2125" lon="-1.43924">
        <ele>52</ele>
        <time>2020-12-16T10:13:19.000Z</time>
      </trkpt>
      <trkpt lat="47.21264" lon="-1.43914">
        <ele>52</ele>
        <time>2020-12-16T10:13:21.000Z</time>
      </trkpt>
      <trkpt lat="47.2129" lon="-1.43894">
        <ele>52</ele>
        <time>2020-12-16T10:13:25.000Z</time>
      </trkpt>
      <trkpt lat="47.21309" lon="-1.43879">
        <ele>52</ele>
        <time>2020-12-16T10:13:28.000Z</time>
      </trkpt>
      <trkpt lat="47.21332" lon="-1.43866">
        <ele>52</ele>
        <time>2020-12-16T10:13:31.000Z</time>
      </trkpt>
      <trkpt lat="47.21352" lon="-1.43852">
        <ele>52</ele>
        <time>2020-12-16T10:13:34.000Z</time>
      </trkpt>
      <trkpt lat="47.21372" lon="-1.43833">
        <ele>52</ele>
        <time>2020-12-16T10:13:37.000Z</time>
      </trkpt>
      <trkpt lat="47.21387" lon="-1.43819">
        <ele>49</ele>
        <time>2020-12-16T10:13:40.000Z</time>
      </trkpt>
      <trkpt lat="47.214" lon="-1.4381">
        <ele>50</ele>
        <time>2020-12-16T10:13:42.000Z</time>
      </trkpt>
      <trkpt lat="47.21413" lon="-1.438">
        <ele>50</ele>
        <time>2020-12-16T10:13:44.000Z</time>
      </trkpt>
      <trkpt lat="47.21432" lon="-1.43787">
        <ele>50</ele>
        <time>2020-12-16T10:13:47.000Z</time>
      </trkpt>
      <trkpt lat="47.21443" lon="-1.43778">
        <ele>51</ele>
        <time>2020-12-16T10:13:49.000Z</time>
      </trkpt>
      <trkpt lat="47.21456" lon="-1.43769">
        <ele>51</ele>
        <time>2020-12-16T10:13:51.000Z</time>
      </trkpt>
      <trkpt lat="47.21476" lon="-1.43754">
        <ele>51</ele>
        <time>2020-12-16T10:13:54.000Z</time>
      </trkpt>
      <trkpt lat="47.21489" lon="-1.43744">
        <ele>52</ele>
        <time>2020-12-16T10:13:56.000Z</time>
      </trkpt>
      <trkpt lat="47.21503" lon="-1.43735">
        <ele>52</ele>
        <time>2020-12-16T10:13:58.000Z</time>
      </trkpt>
      <trkpt lat="47.21516" lon="-1.43726">
        <ele>53</ele>
        <time>2020-12-16T10:14:00.000Z</time>
      </trkpt>
      <trkpt lat="47.21534" lon="-1.43712">
        <ele>54</ele>
        <time>2020-12-16T10:14:03.000Z</time>
      </trkpt>
      <trkpt lat="47.21552" lon="-1.43698">
        <ele>54</ele>
        <time>2020-12-16T10:14:06.000Z</time>
      </trkpt>
      <trkpt lat="47.21564" lon="-1.43689">
        <ele>54</ele>
        <time>2020-12-16T10:14:08.000Z</time>
      </trkpt>
      <trkpt lat="47.21576" lon="-1.43681">
        <ele>54</ele>
        <time>2020-12-16T10:14:10.000Z</time>
      </trkpt>
      <trkpt lat="47.21588" lon="-1.4367">
        <ele>54</ele>
        <time>2020-12-16T10:14:12.000Z</time>
      </trkpt>
      <trkpt lat="47.21598" lon="-1.43658">
        <ele>54</ele>
        <time>2020-12-16T10:14:14.000Z</time>
      </trkpt>
      <trkpt lat="47.21608" lon="-1.43646">
        <ele>54</ele>
        <time>2020-12-16T10:14:16.000Z</time>
      </trkpt>
      <trkpt lat="47.21628" lon="-1.43639">
        <ele>54</ele>
        <time>2020-12-16T10:14:19.000Z</time>
      </trkpt>
      <trkpt lat="47.21642" lon="-1.43634">
        <ele>52</ele>
        <time>2020-12-16T10:14:21.000Z</time>
      </trkpt>
      <trkpt lat="47.21652" lon="-1.43627">
        <ele>52</ele>
        <time>2020-12-16T10:14:23.000Z</time>
      </trkpt>
      <trkpt lat="47.21665" lon="-1.43616">
        <ele>52</ele>
        <time>2020-12-16T10:14:25.000Z</time>
      </trkpt>
      <trkpt lat="47.21678" lon="-1.43605">
        <ele>53</ele>
        <time>2020-12-16T10:14:27.000Z</time>
      </trkpt>
      <trkpt lat="47.21691" lon="-1.43595">
        <ele>54</ele>
        <time>2020-12-16T10:14:29.000Z</time>
      </trkpt>
      <trkpt lat="47.21704" lon="-1.43586">
        <ele>53</ele>
        <time>2020-12-16T10:14:31.000Z</time>
      </trkpt>
      <trkpt lat="47.21717" lon="-1.43575">
        <ele>53</ele>
        <time>2020-12-16T10:14:33.000Z</time>
      </trkpt>
      <trkpt lat="47.2173" lon="-1.43565">
        <ele>53</ele>
        <time>2020-12-16T10:14:35.000Z</time>
      </trkpt>
      <trkpt lat="47.21743" lon="-1.43554">
        <ele>53</ele>
        <time>2020-12-16T10:14:37.000Z</time>
      </trkpt>
      <trkpt lat="47.21756" lon="-1.43544">
        <ele>51</ele>
        <time>2020-12-16T10:14:39.000Z</time>
      </trkpt>
      <trkpt lat="47.21767" lon="-1.43533">
        <ele>52</ele>
        <time>2020-12-16T10:14:41.000Z</time>
      </trkpt>
      <trkpt lat="47.21784" lon="-1.43522">
        <ele>51</ele>
        <time>2020-12-16T10:14:44.000Z</time>
      </trkpt>
      <trkpt lat="47.21795" lon="-1.43515">
        <ele>51</ele>
        <time>2020-12-16T10:14:46.000Z</time>
      </trkpt>
      <trkpt lat="47.21809" lon="-1.43504">
        <ele>51</ele>
        <time>2020-12-16T10:14:48.000Z</time>
      </trkpt>
      <trkpt lat="47.21822" lon="-1.43494">
        <ele>51</ele>
        <time>2020-12-16T10:14:50.000Z</time>
      </trkpt>
      <trkpt lat="47.21837" lon="-1.43484">
        <ele>51</ele>
        <time>2020-12-16T10:14:52.000Z</time>
      </trkpt>
      <trkpt lat="47.21855" lon="-1.43468">
        <ele>48</ele>
        <time>2020-12-16T10:14:55.000Z</time>
      </trkpt>
      <trkpt lat="47.21868" lon="-1.43458">
        <ele>48</ele>
        <time>2020-12-16T10:14:57.000Z</time>
      </trkpt>
      <trkpt lat="47.21881" lon="-1.43448">
        <ele>48</ele>
        <time>2020-12-16T10:14:59.000Z</time>
      </trkpt>
      <trkpt lat="47.21893" lon="-1.43439">
        <ele>48</ele>
        <time>2020-12-16T10:15:01.000Z</time>
      </trkpt>
      <trkpt lat="47.21903" lon="-1.43428">
        <ele>49</ele>
        <time>2020-12-16T10:15:03.000Z</time>
      </trkpt>
      <trkpt lat="47.21918" lon="-1.43419">
        <ele>50</ele>
        <time>2020-12-16T10:15:05.000Z</time>
      </trkpt>
      <trkpt lat="47.21929" lon="-1.43407">
        <ele>49</ele>
        <time>2020-12-16T10:15:07.000Z</time>
      </trkpt>
      <trkpt lat="47.21946" lon="-1.43386">
        <ele>49</ele>
        <time>2020-12-16T10:15:10.000Z</time>
      </trkpt>
      <trkpt lat="47.21958" lon="-1.43371">
        <ele>50</ele>
        <time>2020-12-16T10:15:12.000Z</time>
      </trkpt>
      <trkpt lat="47.21968" lon="-1.43358">
        <ele>51</ele>
        <time>2020-12-16T10:15:14.000Z</time>
      </trkpt>
      <trkpt lat="47.21984" lon="-1.43335">
        <ele>51</ele>
        <time>2020-12-16T10:15:17.000Z</time>
      </trkpt>
      <trkpt lat="47.21993" lon="-1.43322">
        <ele>53</ele>
        <time>2020-12-16T10:15:19.000Z</time>
      </trkpt>
      <trkpt lat="47.22" lon="-1.43309">
        <ele>54</ele>
        <time>2020-12-16T10:15:21.000Z</time>
      </trkpt>
      <trkpt lat="47.22009" lon="-1.43295">
        <ele>54</ele>
        <time>2020-12-16T10:15:23.000Z</time>
      </trkpt>
      <trkpt lat="47.22018" lon="-1.4328">
        <ele>52</ele>
        <time>2020-12-16T10:15:25.000Z</time>
      </trkpt>
      <trkpt lat="47.22033" lon="-1.4326">
        <ele>53</ele>
        <time>2020-12-16T10:15:28.000Z</time>
      </trkpt>
      <trkpt lat="47.22046" lon="-1.43238">
        <ele>50</ele>
        <time>2020-12-16T10:15:31.000Z</time>
      </trkpt>
      <trkpt lat="47.2206" lon="-1.43217">
        <ele>53</ele>
        <time>2020-12-16T10:15:34.000Z</time>
      </trkpt>
      <trkpt lat="47.22074" lon="-1.43195">
        <ele>53</ele>
        <time>2020-12-16T10:15:37.000Z</time>
      </trkpt>
      <trkpt lat="47.22086" lon="-1.43172">
        <ele>50</ele>
        <time>2020-12-16T10:15:40.000Z</time>
      </trkpt>
      <trkpt lat="47.22095" lon="-1.43156">
        <ele>51</ele>
        <time>2020-12-16T10:15:42.000Z</time>
      </trkpt>
      <trkpt lat="47.22104" lon="-1.43142">
        <ele>52</ele>
        <time>2020-12-16T10:15:44.000Z</time>
      </trkpt>
      <trkpt lat="47.22112" lon="-1.43128">
        <ele>53</ele>
        <time>2020-12-16T10:15:46.000Z</time>
      </trkpt>
      <trkpt lat="47.22121" lon="-1.43112">
        <ele>54</ele>
        <time>2020-12-16T10:15:48.000Z</time>
      </trkpt>
      <trkpt lat="47.22129" lon="-1.43096">
        <ele>55</ele>
        <time>2020-12-16T10:15:50.000Z</time>
      </trkpt>
      <trkpt lat="47.22137" lon="-1.4308">
        <ele>56</ele>
        <time>2020-12-16T10:15:52.000Z</time>
      </trkpt>
      <trkpt lat="47.22144" lon="-1.43063">
        <ele>55</ele>
        <time>2020-12-16T10:15:54.000Z</time>
      </trkpt>
      <trkpt lat="47.22151" lon="-1.43045">
        <ele>55</ele>
        <time>2020-12-16T10:15:56.000Z</time>
      </trkpt>
      <trkpt lat="47.22157" lon="-1.43028">
        <ele>56</ele>
        <time>2020-12-16T10:15:58.000Z</time>
      </trkpt>
      <trkpt lat="47.22164" lon="-1.43009">
        <ele>56</ele>
        <time>2020-12-16T10:16:00.000Z</time>
      </trkpt>
      <trkpt lat="47.2217" lon="-1.42991">
        <ele>56</ele>
        <time>2020-12-16T10:16:02.000Z</time>
      </trkpt>
      <trkpt lat="47.22177" lon="-1.42973">
        <ele>56</ele>
        <time>2020-12-16T10:16:04.000Z</time>
      </trkpt>
      <trkpt lat="47.22187" lon="-1.42946">
        <ele>57</ele>
        <time>2020-12-16T10:16:07.000Z</time>
      </trkpt>
      <trkpt lat="47.22194" lon="-1.42928">
        <ele>57</ele>
        <time>2020-12-16T10:16:09.000Z</time>
      </trkpt>
      <trkpt lat="47.222" lon="-1.42911">
        <ele>55</ele>
        <time>2020-12-16T10:16:11.000Z</time>
      </trkpt>
      <trkpt lat="47.22205" lon="-1.42893">
        <ele>54</ele>
        <time>2020-12-16T10:16:13.000Z</time>
      </trkpt>
      <trkpt lat="47.22215" lon="-1.42867">
        <ele>55</ele>
        <time>2020-12-16T10:16:16.000Z</time>
      </trkpt>
      <trkpt lat="47.22225" lon="-1.42841">
        <ele>56</ele>
        <time>2020-12-16T10:16:19.000Z</time>
      </trkpt>
      <trkpt lat="47.22233" lon="-1.42817">
        <ele>56</ele>
        <time>2020-12-16T10:16:22.000Z</time>
      </trkpt>
      <trkpt lat="47.22242" lon="-1.42791">
        <ele>57</ele>
        <time>2020-12-16T10:16:25.000Z</time>
      </trkpt>
      <trkpt lat="47.22248" lon="-1.42773">
        <ele>58</ele>
        <time>2020-12-16T10:16:27.000Z</time>
      </trkpt>
      <trkpt lat="47.22254" lon="-1.42756">
        <ele>59</ele>
        <time>2020-12-16T10:16:29.000Z</time>
      </trkpt>
      <trkpt lat="47.2226" lon="-1.42739">
        <ele>59</ele>
        <time>2020-12-16T10:16:31.000Z</time>
      </trkpt>
      <trkpt lat="47.22268" lon="-1.42721">
        <ele>59</ele>
        <time>2020-12-16T10:16:33.000Z</time>
      </trkpt>
      <trkpt lat="47.22274" lon="-1.42703">
        <ele>59</ele>
        <time>2020-12-16T10:16:35.000Z</time>
      </trkpt>
      <trkpt lat="47.22281" lon="-1.42685">
        <ele>59</ele>
        <time>2020-12-16T10:16:37.000Z</time>
      </trkpt>
      <trkpt lat="47.22287" lon="-1.42667">
        <ele>59</ele>
        <time>2020-12-16T10:16:39.000Z</time>
      </trkpt>
      <trkpt lat="47.22293" lon="-1.42649">
        <ele>58</ele>
        <time>2020-12-16T10:16:41.000Z</time>
      </trkpt>
      <trkpt lat="47.22301" lon="-1.42629">
        <ele>55</ele>
        <time>2020-12-16T10:16:43.000Z</time>
      </trkpt>
      <trkpt lat="47.22316" lon="-1.42597">
        <ele>55</ele>
        <time>2020-12-16T10:16:47.000Z</time>
      </trkpt>
      <trkpt lat="47.22322" lon="-1.42575">
        <ele>54</ele>
        <time>2020-12-16T10:16:49.000Z</time>
      </trkpt>
      <trkpt lat="47.22329" lon="-1.42545">
        <ele>54</ele>
        <time>2020-12-16T10:16:52.000Z</time>
      </trkpt>
      <trkpt lat="47.22336" lon="-1.42527">
        <ele>56</ele>
        <time>2020-12-16T10:16:54.000Z</time>
      </trkpt>
      <trkpt lat="47.22343" lon="-1.4251">
        <ele>55</ele>
        <time>2020-12-16T10:16:56.000Z</time>
      </trkpt>
      <trkpt lat="47.22349" lon="-1.42489">
        <ele>53</ele>
        <time>2020-12-16T10:16:58.000Z</time>
      </trkpt>
      <trkpt lat="47.2236" lon="-1.4246">
        <ele>52</ele>
        <time>2020-12-16T10:17:01.000Z</time>
      </trkpt>
      <trkpt lat="47.22367" lon="-1.42441">
        <ele>52</ele>
        <time>2020-12-16T10:17:03.000Z</time>
      </trkpt>
      <trkpt lat="47.22375" lon="-1.42421">
        <ele>52</ele>
        <time>2020-12-16T10:17:05.000Z</time>
      </trkpt>
      <trkpt lat="47.22382" lon="-1.42403">
        <ele>52</ele>
        <time>2020-12-16T10:17:07.000Z</time>
      </trkpt>
      <trkpt lat="47.22389" lon="-1.42384">
        <ele>53</ele>
        <time>2020-12-16T10:17:09.000Z</time>
      </trkpt>
      <trkpt lat="47.22399" lon="-1.42357">
        <ele>53</ele>
        <time>2020-12-16T10:17:12.000Z</time>
      </trkpt>
      <trkpt lat="47.22406" lon="-1.42339">
        <ele>53</ele>
        <time>2020-12-16T10:17:14.000Z</time>
      </trkpt>
      <trkpt lat="47.22412" lon="-1.42322">
        <ele>53</ele>
        <time>2020-12-16T10:17:16.000Z</time>
      </trkpt>
      <trkpt lat="47.22418" lon="-1.42305">
        <ele>54</ele>
        <time>2020-12-16T10:17:18.000Z</time>
      </trkpt>
      <trkpt lat="47.22423" lon="-1.42289">
        <ele>55</ele>
        <time>2020-12-16T10:17:20.000Z</time>
      </trkpt>
      <trkpt lat="47.22429" lon="-1.42272">
        <ele>56</ele>
        <time>2020-12-16T10:17:22.000Z</time>
      </trkpt>
      <trkpt lat="47.22437" lon="-1.42247">
        <ele>54</ele>
        <time>2020-12-16T10:17:25.000Z</time>
      </trkpt>
      <trkpt lat="47.22449" lon="-1.42221">
        <ele>55</ele>
        <time>2020-12-16T10:17:28.000Z</time>
      </trkpt>
      <trkpt lat="47.22456" lon="-1.42204">
        <ele>56</ele>
        <time>2020-12-16T10:17:30.000Z</time>
      </trkpt>
      <trkpt lat="47.22462" lon="-1.42189">
        <ele>54</ele>
        <time>2020-12-16T10:17:32.000Z</time>
      </trkpt>
      <trkpt lat="47.22467" lon="-1.4217">
        <ele>55</ele>
        <time>2020-12-16T10:17:34.000Z</time>
      </trkpt>
      <trkpt lat="47.22477" lon="-1.42146">
        <ele>57</ele>
        <time>2020-12-16T10:17:37.000Z</time>
      </trkpt>
      <trkpt lat="47.22484" lon="-1.42124">
        <ele>57</ele>
        <time>2020-12-16T10:17:40.000Z</time>
      </trkpt>
      <trkpt lat="47.22491" lon="-1.42106">
        <ele>57</ele>
        <time>2020-12-16T10:17:42.000Z</time>
      </trkpt>
      <trkpt lat="47.22497" lon="-1.42089">
        <ele>58</ele>
        <time>2020-12-16T10:17:44.000Z</time>
      </trkpt>
      <trkpt lat="47.22504" lon="-1.42074">
        <ele>58</ele>
        <time>2020-12-16T10:17:46.000Z</time>
      </trkpt>
      <trkpt lat="47.22511" lon="-1.42057">
        <ele>56</ele>
        <time>2020-12-16T10:17:48.000Z</time>
      </trkpt>
      <trkpt lat="47.22517" lon="-1.42039">
        <ele>55</ele>
        <time>2020-12-16T10:17:50.000Z</time>
      </trkpt>
      <trkpt lat="47.22523" lon="-1.42024">
        <ele>56</ele>
        <time>2020-12-16T10:17:52.000Z</time>
      </trkpt>
      <trkpt lat="47.2253" lon="-1.42008">
        <ele>56</ele>
        <time>2020-12-16T10:17:54.000Z</time>
      </trkpt>
      <trkpt lat="47.22539" lon="-1.41982">
        <ele>56</ele>
        <time>2020-12-16T10:17:57.000Z</time>
      </trkpt>
      <trkpt lat="47.22545" lon="-1.41962">
        <ele>55</ele>
        <time>2020-12-16T10:17:59.000Z</time>
      </trkpt>
      <trkpt lat="47.22553" lon="-1.41948">
        <ele>55</ele>
        <time>2020-12-16T10:18:01.000Z</time>
      </trkpt>
      <trkpt lat="47.22562" lon="-1.41925">
        <ele>56</ele>
        <time>2020-12-16T10:18:04.000Z</time>
      </trkpt>
      <trkpt lat="47.2257" lon="-1.41898">
        <ele>58</ele>
        <time>2020-12-16T10:18:07.000Z</time>
      </trkpt>
      <trkpt lat="47.2258" lon="-1.41875">
        <ele>58</ele>
        <time>2020-12-16T10:18:10.000Z</time>
      </trkpt>
      <trkpt lat="47.2259" lon="-1.41853">
        <ele>59</ele>
        <time>2020-12-16T10:18:13.000Z</time>
      </trkpt>
      <trkpt lat="47.22599" lon="-1.41823">
        <ele>57</ele>
        <time>2020-12-16T10:18:16.000Z</time>
      </trkpt>
      <trkpt lat="47.22609" lon="-1.41802">
        <ele>56</ele>
        <time>2020-12-16T10:18:19.000Z</time>
      </trkpt>
      <trkpt lat="47.22616" lon="-1.41787">
        <ele>54</ele>
        <time>2020-12-16T10:18:21.000Z</time>
      </trkpt>
      <trkpt lat="47.22624" lon="-1.41771">
        <ele>55</ele>
        <time>2020-12-16T10:18:23.000Z</time>
      </trkpt>
      <trkpt lat="47.22631" lon="-1.41755">
        <ele>55</ele>
        <time>2020-12-16T10:18:25.000Z</time>
      </trkpt>
      <trkpt lat="47.22636" lon="-1.4174">
        <ele>54</ele>
        <time>2020-12-16T10:18:27.000Z</time>
      </trkpt>
      <trkpt lat="47.22642" lon="-1.41723">
        <ele>58</ele>
        <time>2020-12-16T10:18:29.000Z</time>
      </trkpt>
      <trkpt lat="47.22649" lon="-1.41706">
        <ele>60</ele>
        <time>2020-12-16T10:18:31.000Z</time>
      </trkpt>
      <trkpt lat="47.22655" lon="-1.4169">
        <ele>60</ele>
        <time>2020-12-16T10:18:33.000Z</time>
      </trkpt>
      <trkpt lat="47.22661" lon="-1.41674">
        <ele>60</ele>
        <time>2020-12-16T10:18:35.000Z</time>
      </trkpt>
      <trkpt lat="47.22674" lon="-1.41644">
        <ele>58</ele>
        <time>2020-12-16T10:18:39.000Z</time>
      </trkpt>
      <trkpt lat="47.2268" lon="-1.41627">
        <ele>59</ele>
        <time>2020-12-16T10:18:41.000Z</time>
      </trkpt>
      <trkpt lat="47.22687" lon="-1.41612">
        <ele>58</ele>
        <time>2020-12-16T10:18:43.000Z</time>
      </trkpt>
      <trkpt lat="47.22692" lon="-1.41596">
        <ele>57</ele>
        <time>2020-12-16T10:18:45.000Z</time>
      </trkpt>
      <trkpt lat="47.22697" lon="-1.41578">
        <ele>57</ele>
        <time>2020-12-16T10:18:47.000Z</time>
      </trkpt>
      <trkpt lat="47.22702" lon="-1.41563">
        <ele>58</ele>
        <time>2020-12-16T10:18:49.000Z</time>
      </trkpt>
      <trkpt lat="47.22711" lon="-1.41539">
        <ele>56</ele>
        <time>2020-12-16T10:18:52.000Z</time>
      </trkpt>
      <trkpt lat="47.22719" lon="-1.41519">
        <ele>59</ele>
        <time>2020-12-16T10:18:55.000Z</time>
      </trkpt>
      <trkpt lat="47.22728" lon="-1.41496">
        <ele>60</ele>
        <time>2020-12-16T10:18:58.000Z</time>
      </trkpt>
      <trkpt lat="47.22735" lon="-1.41479">
        <ele>62</ele>
        <time>2020-12-16T10:19:00.000Z</time>
      </trkpt>
      <trkpt lat="47.22742" lon="-1.41462">
        <ele>62</ele>
        <time>2020-12-16T10:19:02.000Z</time>
      </trkpt>
      <trkpt lat="47.22749" lon="-1.41445">
        <ele>61</ele>
        <time>2020-12-16T10:19:04.000Z</time>
      </trkpt>
      <trkpt lat="47.22756" lon="-1.41427">
        <ele>62</ele>
        <time>2020-12-16T10:19:06.000Z</time>
      </trkpt>
      <trkpt lat="47.22763" lon="-1.41409">
        <ele>62</ele>
        <time>2020-12-16T10:19:08.000Z</time>
      </trkpt>
      <trkpt lat="47.2277" lon="-1.41392">
        <ele>62</ele>
        <time>2020-12-16T10:19:10.000Z</time>
      </trkpt>
      <trkpt lat="47.22777" lon="-1.41374">
        <ele>62</ele>
        <time>2020-12-16T10:19:12.000Z</time>
      </trkpt>
      <trkpt lat="47.22784" lon="-1.41356">
        <ele>62</ele>
        <time>2020-12-16T10:19:14.000Z</time>
      </trkpt>
      <trkpt lat="47.2279" lon="-1.41337">
        <ele>63</ele>
        <time>2020-12-16T10:19:16.000Z</time>
      </trkpt>
      <trkpt lat="47.22797" lon="-1.41319">
        <ele>63</ele>
        <time>2020-12-16T10:19:18.000Z</time>
      </trkpt>
      <trkpt lat="47.22804" lon="-1.413">
        <ele>62</ele>
        <time>2020-12-16T10:19:20.000Z</time>
      </trkpt>
      <trkpt lat="47.22812" lon="-1.41281">
        <ele>62</ele>
        <time>2020-12-16T10:19:22.000Z</time>
      </trkpt>
      <trkpt lat="47.22824" lon="-1.41253">
        <ele>61</ele>
        <time>2020-12-16T10:19:25.000Z</time>
      </trkpt>
      <trkpt lat="47.22831" lon="-1.41234">
        <ele>60</ele>
        <time>2020-12-16T10:19:27.000Z</time>
      </trkpt>
      <trkpt lat="47.22838" lon="-1.41215">
        <ele>60</ele>
        <time>2020-12-16T10:19:29.000Z</time>
      </trkpt>
      <trkpt lat="47.22845" lon="-1.41198">
        <ele>58</ele>
        <time>2020-12-16T10:19:31.000Z</time>
      </trkpt>
      <trkpt lat="47.2286" lon="-1.41162">
        <ele>59</ele>
        <time>2020-12-16T10:19:35.000Z</time>
      </trkpt>
      <trkpt lat="47.22866" lon="-1.41144">
        <ele>57</ele>
        <time>2020-12-16T10:19:37.000Z</time>
      </trkpt>
      <trkpt lat="47.22871" lon="-1.41126">
        <ele>57</ele>
        <time>2020-12-16T10:19:39.000Z</time>
      </trkpt>
      <trkpt lat="47.22878" lon="-1.41109">
        <ele>58</ele>
        <time>2020-12-16T10:19:41.000Z</time>
      </trkpt>
      <trkpt lat="47.22886" lon="-1.41092">
        <ele>58</ele>
        <time>2020-12-16T10:19:43.000Z</time>
      </trkpt>
      <trkpt lat="47.2289" lon="-1.41075">
        <ele>56</ele>
        <time>2020-12-16T10:19:45.000Z</time>
      </trkpt>
      <trkpt lat="47.22897" lon="-1.41057">
        <ele>57</ele>
        <time>2020-12-16T10:19:47.000Z</time>
      </trkpt>
      <trkpt lat="47.22905" lon="-1.41039">
        <ele>58</ele>
        <time>2020-12-16T10:19:49.000Z</time>
      </trkpt>
      <trkpt lat="47.2292" lon="-1.41006">
        <ele>56</ele>
        <time>2020-12-16T10:19:53.000Z</time>
      </trkpt>
      <trkpt lat="47.22927" lon="-1.40988">
        <ele>55</ele>
        <time>2020-12-16T10:19:55.000Z</time>
      </trkpt>
      <trkpt lat="47.22934" lon="-1.40971">
        <ele>55</ele>
        <time>2020-12-16T10:19:57.000Z</time>
      </trkpt>
      <trkpt lat="47.22941" lon="-1.40954">
        <ele>55</ele>
        <time>2020-12-16T10:19:59.000Z</time>
      </trkpt>
      <trkpt lat="47.22947" lon="-1.40937">
        <ele>57</ele>
        <time>2020-12-16T10:20:01.000Z</time>
      </trkpt>
      <trkpt lat="47.22953" lon="-1.4092">
        <ele>57</ele>
        <time>2020-12-16T10:20:03.000Z</time>
      </trkpt>
      <trkpt lat="47.2296" lon="-1.40904">
        <ele>58</ele>
        <time>2020-12-16T10:20:05.000Z</time>
      </trkpt>
      <trkpt lat="47.22967" lon="-1.40887">
        <ele>58</ele>
        <time>2020-12-16T10:20:07.000Z</time>
      </trkpt>
      <trkpt lat="47.22973" lon="-1.40869">
        <ele>57</ele>
        <time>2020-12-16T10:20:09.000Z</time>
      </trkpt>
      <trkpt lat="47.22979" lon="-1.40852">
        <ele>56</ele>
        <time>2020-12-16T10:20:11.000Z</time>
      </trkpt>
      <trkpt lat="47.22986" lon="-1.40834">
        <ele>56</ele>
        <time>2020-12-16T10:20:13.000Z</time>
      </trkpt>
      <trkpt lat="47.22999" lon="-1.40798">
        <ele>59</ele>
        <time>2020-12-16T10:20:17.000Z</time>
      </trkpt>
      <trkpt lat="47.23006" lon="-1.4078">
        <ele>57</ele>
        <time>2020-12-16T10:20:19.000Z</time>
      </trkpt>
      <trkpt lat="47.23018" lon="-1.40758">
        <ele>57</ele>
        <time>2020-12-16T10:20:22.000Z</time>
      </trkpt>
      <trkpt lat="47.23027" lon="-1.40733">
        <ele>56</ele>
        <time>2020-12-16T10:20:25.000Z</time>
      </trkpt>
      <trkpt lat="47.23035" lon="-1.40707">
        <ele>57</ele>
        <time>2020-12-16T10:20:28.000Z</time>
      </trkpt>
      <trkpt lat="47.23046" lon="-1.40683">
        <ele>59</ele>
        <time>2020-12-16T10:20:31.000Z</time>
      </trkpt>
      <trkpt lat="47.23053" lon="-1.40666">
        <ele>60</ele>
        <time>2020-12-16T10:20:33.000Z</time>
      </trkpt>
      <trkpt lat="47.2306" lon="-1.4065">
        <ele>61</ele>
        <time>2020-12-16T10:20:35.000Z</time>
      </trkpt>
      <trkpt lat="47.23067" lon="-1.40633">
        <ele>61</ele>
        <time>2020-12-16T10:20:37.000Z</time>
      </trkpt>
      <trkpt lat="47.23076" lon="-1.40608">
        <ele>62</ele>
        <time>2020-12-16T10:20:40.000Z</time>
      </trkpt>
      <trkpt lat="47.23083" lon="-1.40592">
        <ele>62</ele>
        <time>2020-12-16T10:20:42.000Z</time>
      </trkpt>
      <trkpt lat="47.23089" lon="-1.40576">
        <ele>62</ele>
        <time>2020-12-16T10:20:44.000Z</time>
      </trkpt>
      <trkpt lat="47.23096" lon="-1.40559">
        <ele>62</ele>
        <time>2020-12-16T10:20:46.000Z</time>
      </trkpt>
      <trkpt lat="47.23103" lon="-1.40542">
        <ele>62</ele>
        <time>2020-12-16T10:20:48.000Z</time>
      </trkpt>
      <trkpt lat="47.23109" lon="-1.40525">
        <ele>62</ele>
        <time>2020-12-16T10:20:50.000Z</time>
      </trkpt>
      <trkpt lat="47.23115" lon="-1.40509">
        <ele>62</ele>
        <time>2020-12-16T10:20:52.000Z</time>
      </trkpt>
      <trkpt lat="47.23125" lon="-1.40484">
        <ele>62</ele>
        <time>2020-12-16T10:20:55.000Z</time>
      </trkpt>
      <trkpt lat="47.23135" lon="-1.40459">
        <ele>62</ele>
        <time>2020-12-16T10:20:58.000Z</time>
      </trkpt>
      <trkpt lat="47.23145" lon="-1.40433">
        <ele>61</ele>
        <time>2020-12-16T10:21:01.000Z</time>
      </trkpt>
      <trkpt lat="47.23155" lon="-1.40407">
        <ele>60</ele>
        <time>2020-12-16T10:21:04.000Z</time>
      </trkpt>
      <trkpt lat="47.23162" lon="-1.40389">
        <ele>60</ele>
        <time>2020-12-16T10:21:06.000Z</time>
      </trkpt>
      <trkpt lat="47.23169" lon="-1.40371">
        <ele>60</ele>
        <time>2020-12-16T10:21:08.000Z</time>
      </trkpt>
      <trkpt lat="47.23176" lon="-1.40353">
        <ele>60</ele>
        <time>2020-12-16T10:21:10.000Z</time>
      </trkpt>
      <trkpt lat="47.23183" lon="-1.40335">
        <ele>59</ele>
        <time>2020-12-16T10:21:12.000Z</time>
      </trkpt>
      <trkpt lat="47.23195" lon="-1.40306">
        <ele>59</ele>
        <time>2020-12-16T10:21:15.000Z</time>
      </trkpt>
      <trkpt lat="47.23202" lon="-1.40287">
        <ele>58</ele>
        <time>2020-12-16T10:21:17.000Z</time>
      </trkpt>
      <trkpt lat="47.23209" lon="-1.40268">
        <ele>58</ele>
        <time>2020-12-16T10:21:19.000Z</time>
      </trkpt>
      <trkpt lat="47.23216" lon="-1.40249">
        <ele>57</ele>
        <time>2020-12-16T10:21:21.000Z</time>
      </trkpt>
      <trkpt lat="47.23223" lon="-1.4023">
        <ele>57</ele>
        <time>2020-12-16T10:21:23.000Z</time>
      </trkpt>
      <trkpt lat="47.23228" lon="-1.40209">
        <ele>54</ele>
        <time>2020-12-16T10:21:25.000Z</time>
      </trkpt>
      <trkpt lat="47.23236" lon="-1.40189">
        <ele>54</ele>
        <time>2020-12-16T10:21:27.000Z</time>
      </trkpt>
      <trkpt lat="47.23245" lon="-1.40171">
        <ele>54</ele>
        <time>2020-12-16T10:21:29.000Z</time>
      </trkpt>
      <trkpt lat="47.23253" lon="-1.40151">
        <ele>53</ele>
        <time>2020-12-16T10:21:31.000Z</time>
      </trkpt>
      <trkpt lat="47.23262" lon="-1.40132">
        <ele>52</ele>
        <time>2020-12-16T10:21:33.000Z</time>
      </trkpt>
      <trkpt lat="47.2327" lon="-1.40114">
        <ele>52</ele>
        <time>2020-12-16T10:21:35.000Z</time>
      </trkpt>
      <trkpt lat="47.23277" lon="-1.40096">
        <ele>52</ele>
        <time>2020-12-16T10:21:37.000Z</time>
      </trkpt>
      <trkpt lat="47.23284" lon="-1.40078">
        <ele>52</ele>
        <time>2020-12-16T10:21:39.000Z</time>
      </trkpt>
      <trkpt lat="47.2329" lon="-1.40061">
        <ele>52</ele>
        <time>2020-12-16T10:21:41.000Z</time>
      </trkpt>
      <trkpt lat="47.23298" lon="-1.40043">
        <ele>53</ele>
        <time>2020-12-16T10:21:43.000Z</time>
      </trkpt>
      <trkpt lat="47.23304" lon="-1.40026">
        <ele>53</ele>
        <time>2020-12-16T10:21:45.000Z</time>
      </trkpt>
      <trkpt lat="47.23311" lon="-1.40007">
        <ele>52</ele>
        <time>2020-12-16T10:21:47.000Z</time>
      </trkpt>
      <trkpt lat="47.23318" lon="-1.39989">
        <ele>49</ele>
        <time>2020-12-16T10:21:49.000Z</time>
      </trkpt>
      <trkpt lat="47.23326" lon="-1.39964">
        <ele>49</ele>
        <time>2020-12-16T10:21:52.000Z</time>
      </trkpt>
      <trkpt lat="47.23335" lon="-1.39939">
        <ele>51</ele>
        <time>2020-12-16T10:21:55.000Z</time>
      </trkpt>
      <trkpt lat="47.23341" lon="-1.39921">
        <ele>52</ele>
        <time>2020-12-16T10:21:57.000Z</time>
      </trkpt>
      <trkpt lat="47.23346" lon="-1.39903">
        <ele>53</ele>
        <time>2020-12-16T10:21:59.000Z</time>
      </trkpt>
      <trkpt lat="47.23353" lon="-1.39876">
        <ele>53</ele>
        <time>2020-12-16T10:22:02.000Z</time>
      </trkpt>
      <trkpt lat="47.23357" lon="-1.39857">
        <ele>54</ele>
        <time>2020-12-16T10:22:04.000Z</time>
      </trkpt>
      <trkpt lat="47.23361" lon="-1.39839">
        <ele>54</ele>
        <time>2020-12-16T10:22:06.000Z</time>
      </trkpt>
      <trkpt lat="47.23364" lon="-1.39821">
        <ele>54</ele>
        <time>2020-12-16T10:22:08.000Z</time>
      </trkpt>
      <trkpt lat="47.23367" lon="-1.39801">
        <ele>51</ele>
        <time>2020-12-16T10:22:10.000Z</time>
      </trkpt>
      <trkpt lat="47.23371" lon="-1.39771">
        <ele>50</ele>
        <time>2020-12-16T10:22:13.000Z</time>
      </trkpt>
      <trkpt lat="47.23375" lon="-1.39744">
        <ele>48</ele>
        <time>2020-12-16T10:22:16.000Z</time>
      </trkpt>
      <trkpt lat="47.23379" lon="-1.39716">
        <ele>46</ele>
        <time>2020-12-16T10:22:19.000Z</time>
      </trkpt>
      <trkpt lat="47.23381" lon="-1.3969">
        <ele>47</ele>
        <time>2020-12-16T10:22:22.000Z</time>
      </trkpt>
      <trkpt lat="47.23383" lon="-1.39663">
        <ele>45</ele>
        <time>2020-12-16T10:22:25.000Z</time>
      </trkpt>
      <trkpt lat="47.23385" lon="-1.39636">
        <ele>48</ele>
        <time>2020-12-16T10:22:28.000Z</time>
      </trkpt>
      <trkpt lat="47.23387" lon="-1.39607">
        <ele>50</ele>
        <time>2020-12-16T10:22:31.000Z</time>
      </trkpt>
      <trkpt lat="47.23389" lon="-1.3959">
        <ele>51</ele>
        <time>2020-12-16T10:22:33.000Z</time>
      </trkpt>
      <trkpt lat="47.23391" lon="-1.39571">
        <ele>52</ele>
        <time>2020-12-16T10:22:35.000Z</time>
      </trkpt>
      <trkpt lat="47.23394" lon="-1.39545">
        <ele>52</ele>
        <time>2020-12-16T10:22:38.000Z</time>
      </trkpt>
      <trkpt lat="47.23397" lon="-1.39518">
        <ele>53</ele>
        <time>2020-12-16T10:22:41.000Z</time>
      </trkpt>
      <trkpt lat="47.23398" lon="-1.395">
        <ele>53</ele>
        <time>2020-12-16T10:22:43.000Z</time>
      </trkpt>
      <trkpt lat="47.23401" lon="-1.39473">
        <ele>54</ele>
        <time>2020-12-16T10:22:46.000Z</time>
      </trkpt>
      <trkpt lat="47.23403" lon="-1.39446">
        <ele>55</ele>
        <time>2020-12-16T10:22:49.000Z</time>
      </trkpt>
      <trkpt lat="47.23404" lon="-1.39429">
        <ele>53</ele>
        <time>2020-12-16T10:22:51.000Z</time>
      </trkpt>
      <trkpt lat="47.23405" lon="-1.39413">
        <ele>52</ele>
        <time>2020-12-16T10:22:53.000Z</time>
      </trkpt>
      <trkpt lat="47.23407" lon="-1.39395">
        <ele>52</ele>
        <time>2020-12-16T10:22:55.000Z</time>
      </trkpt>
      <trkpt lat="47.23411" lon="-1.39369">
        <ele>53</ele>
        <time>2020-12-16T10:22:58.000Z</time>
      </trkpt>
      <trkpt lat="47.23414" lon="-1.3935">
        <ele>57</ele>
        <time>2020-12-16T10:23:00.000Z</time>
      </trkpt>
      <trkpt lat="47.23414" lon="-1.39331">
        <ele>56</ele>
        <time>2020-12-16T10:23:02.000Z</time>
      </trkpt>
      <trkpt lat="47.23416" lon="-1.39311">
        <ele>56</ele>
        <time>2020-12-16T10:23:04.000Z</time>
      </trkpt>
      <trkpt lat="47.23418" lon="-1.39294">
        <ele>55</ele>
        <time>2020-12-16T10:23:06.000Z</time>
      </trkpt>
      <trkpt lat="47.23422" lon="-1.39275">
        <ele>54</ele>
        <time>2020-12-16T10:23:08.000Z</time>
      </trkpt>
      <trkpt lat="47.23423" lon="-1.39256">
        <ele>53</ele>
        <time>2020-12-16T10:23:10.000Z</time>
      </trkpt>
      <trkpt lat="47.23424" lon="-1.39237">
        <ele>53</ele>
        <time>2020-12-16T10:23:12.000Z</time>
      </trkpt>
      <trkpt lat="47.23425" lon="-1.39218">
        <ele>53</ele>
        <time>2020-12-16T10:23:14.000Z</time>
      </trkpt>
      <trkpt lat="47.23427" lon="-1.39199">
        <ele>52</ele>
        <time>2020-12-16T10:23:16.000Z</time>
      </trkpt>
      <trkpt lat="47.23431" lon="-1.39173">
        <ele>51</ele>
        <time>2020-12-16T10:23:19.000Z</time>
      </trkpt>
      <trkpt lat="47.23433" lon="-1.39155">
        <ele>50</ele>
        <time>2020-12-16T10:23:21.000Z</time>
      </trkpt>
      <trkpt lat="47.23435" lon="-1.39137">
        <ele>52</ele>
        <time>2020-12-16T10:23:23.000Z</time>
      </trkpt>
      <trkpt lat="47.23436" lon="-1.39121">
        <ele>53</ele>
        <time>2020-12-16T10:23:25.000Z</time>
      </trkpt>
      <trkpt lat="47.23436" lon="-1.39095">
        <ele>52</ele>
        <time>2020-12-16T10:23:28.000Z</time>
      </trkpt>
      <trkpt lat="47.23437" lon="-1.39069">
        <ele>51</ele>
        <time>2020-12-16T10:23:31.000Z</time>
      </trkpt>
      <trkpt lat="47.2344" lon="-1.39044">
        <ele>51</ele>
        <time>2020-12-16T10:23:34.000Z</time>
      </trkpt>
      <trkpt lat="47.23443" lon="-1.39019">
        <ele>52</ele>
        <time>2020-12-16T10:23:37.000Z</time>
      </trkpt>
      <trkpt lat="47.23445" lon="-1.38991">
        <ele>57</ele>
        <time>2020-12-16T10:23:40.000Z</time>
      </trkpt>
      <trkpt lat="47.23447" lon="-1.38964">
        <ele>57</ele>
        <time>2020-12-16T10:23:43.000Z</time>
      </trkpt>
      <trkpt lat="47.23449" lon="-1.38939">
        <ele>58</ele>
        <time>2020-12-16T10:23:46.000Z</time>
      </trkpt>
      <trkpt lat="47.23452" lon="-1.38914">
        <ele>60</ele>
        <time>2020-12-16T10:23:49.000Z</time>
      </trkpt>
      <trkpt lat="47.23454" lon="-1.38896">
        <ele>61</ele>
        <time>2020-12-16T10:23:51.000Z</time>
      </trkpt>
      <trkpt lat="47.23455" lon="-1.3888">
        <ele>62</ele>
        <time>2020-12-16T10:23:53.000Z</time>
      </trkpt>
      <trkpt lat="47.23455" lon="-1.38865">
        <ele>62</ele>
        <time>2020-12-16T10:23:55.000Z</time>
      </trkpt>
      <trkpt lat="47.23457" lon="-1.38846">
        <ele>62</ele>
        <time>2020-12-16T10:23:57.000Z</time>
      </trkpt>
      <trkpt lat="47.23459" lon="-1.38829">
        <ele>62</ele>
        <time>2020-12-16T10:23:59.000Z</time>
      </trkpt>
      <trkpt lat="47.23461" lon="-1.38811">
        <ele>63</ele>
        <time>2020-12-16T10:24:01.000Z</time>
      </trkpt>
      <trkpt lat="47.23463" lon="-1.38794">
        <ele>63</ele>
        <time>2020-12-16T10:24:03.000Z</time>
      </trkpt>
      <trkpt lat="47.23465" lon="-1.38776">
        <ele>63</ele>
        <time>2020-12-16T10:24:05.000Z</time>
      </trkpt>
      <trkpt lat="47.23466" lon="-1.38758">
        <ele>63</ele>
        <time>2020-12-16T10:24:07.000Z</time>
      </trkpt>
      <trkpt lat="47.23469" lon="-1.38731">
        <ele>62</ele>
        <time>2020-12-16T10:24:10.000Z</time>
      </trkpt>
      <trkpt lat="47.2347" lon="-1.38713">
        <ele>62</ele>
        <time>2020-12-16T10:24:12.000Z</time>
      </trkpt>
      <trkpt lat="47.23472" lon="-1.38696">
        <ele>63</ele>
        <time>2020-12-16T10:24:14.000Z</time>
      </trkpt>
      <trkpt lat="47.23474" lon="-1.38678">
        <ele>63</ele>
        <time>2020-12-16T10:24:16.000Z</time>
      </trkpt>
      <trkpt lat="47.23476" lon="-1.3866">
        <ele>61</ele>
        <time>2020-12-16T10:24:18.000Z</time>
      </trkpt>
      <trkpt lat="47.23475" lon="-1.38643">
        <ele>59</ele>
        <time>2020-12-16T10:24:20.000Z</time>
      </trkpt>
      <trkpt lat="47.23476" lon="-1.38625">
        <ele>59</ele>
        <time>2020-12-16T10:24:22.000Z</time>
      </trkpt>
      <trkpt lat="47.23477" lon="-1.38608">
        <ele>61</ele>
        <time>2020-12-16T10:24:24.000Z</time>
      </trkpt>
      <trkpt lat="47.2348" lon="-1.38591">
        <ele>62</ele>
        <time>2020-12-16T10:24:26.000Z</time>
      </trkpt>
      <trkpt lat="47.23482" lon="-1.38574">
        <ele>61</ele>
        <time>2020-12-16T10:24:28.000Z</time>
      </trkpt>
      <trkpt lat="47.23484" lon="-1.38557">
        <ele>62</ele>
        <time>2020-12-16T10:24:30.000Z</time>
      </trkpt>
      <trkpt lat="47.23486" lon="-1.3854">
        <ele>62</ele>
        <time>2020-12-16T10:24:32.000Z</time>
      </trkpt>
      <trkpt lat="47.23488" lon="-1.38522">
        <ele>62</ele>
        <time>2020-12-16T10:24:34.000Z</time>
      </trkpt>
      <trkpt lat="47.23488" lon="-1.38504">
        <ele>62</ele>
        <time>2020-12-16T10:24:36.000Z</time>
      </trkpt>
      <trkpt lat="47.23486" lon="-1.38486">
        <ele>63</ele>
        <time>2020-12-16T10:24:38.000Z</time>
      </trkpt>
      <trkpt lat="47.23485" lon="-1.38467">
        <ele>63</ele>
        <time>2020-12-16T10:24:40.000Z</time>
      </trkpt>
      <trkpt lat="47.2349" lon="-1.3845">
        <ele>63</ele>
        <time>2020-12-16T10:24:42.000Z</time>
      </trkpt>
      <trkpt lat="47.23495" lon="-1.38432">
        <ele>62</ele>
        <time>2020-12-16T10:24:44.000Z</time>
      </trkpt>
      <trkpt lat="47.23498" lon="-1.38412">
        <ele>62</ele>
        <time>2020-12-16T10:24:46.000Z</time>
      </trkpt>
      <trkpt lat="47.235" lon="-1.38382">
        <ele>62</ele>
        <time>2020-12-16T10:24:49.000Z</time>
      </trkpt>
      <trkpt lat="47.23501" lon="-1.38362">
        <ele>62</ele>
        <time>2020-12-16T10:24:51.000Z</time>
      </trkpt>
      <trkpt lat="47.23503" lon="-1.38342">
        <ele>62</ele>
        <time>2020-12-16T10:24:53.000Z</time>
      </trkpt>
      <trkpt lat="47.23506" lon="-1.3831">
        <ele>61</ele>
        <time>2020-12-16T10:24:56.000Z</time>
      </trkpt>
      <trkpt lat="47.23509" lon="-1.38289">
        <ele>61</ele>
        <time>2020-12-16T10:24:58.000Z</time>
      </trkpt>
      <trkpt lat="47.23511" lon="-1.38269">
        <ele>61</ele>
        <time>2020-12-16T10:25:00.000Z</time>
      </trkpt>
      <trkpt lat="47.23512" lon="-1.3825">
        <ele>60</ele>
        <time>2020-12-16T10:25:02.000Z</time>
      </trkpt>
      <trkpt lat="47.23514" lon="-1.38229">
        <ele>61</ele>
        <time>2020-12-16T10:25:04.000Z</time>
      </trkpt>
      <trkpt lat="47.23516" lon="-1.38209">
        <ele>61</ele>
        <time>2020-12-16T10:25:06.000Z</time>
      </trkpt>
      <trkpt lat="47.23518" lon="-1.38187">
        <ele>61</ele>
        <time>2020-12-16T10:25:08.000Z</time>
      </trkpt>
      <trkpt lat="47.2352" lon="-1.38167">
        <ele>61</ele>
        <time>2020-12-16T10:25:10.000Z</time>
      </trkpt>
      <trkpt lat="47.23522" lon="-1.38146">
        <ele>60</ele>
        <time>2020-12-16T10:25:12.000Z</time>
      </trkpt>
      <trkpt lat="47.23524" lon="-1.38126">
        <ele>60</ele>
        <time>2020-12-16T10:25:14.000Z</time>
      </trkpt>
      <trkpt lat="47.23529" lon="-1.38085">
        <ele>60</ele>
        <time>2020-12-16T10:25:18.000Z</time>
      </trkpt>
      <trkpt lat="47.23529" lon="-1.38067">
        <ele>60</ele>
        <time>2020-12-16T10:25:20.000Z</time>
      </trkpt>
      <trkpt lat="47.23531" lon="-1.38047">
        <ele>60</ele>
        <time>2020-12-16T10:25:22.000Z</time>
      </trkpt>
      <trkpt lat="47.23532" lon="-1.38028">
        <ele>61</ele>
        <time>2020-12-16T10:25:24.000Z</time>
      </trkpt>
      <trkpt lat="47.23535" lon="-1.38008">
        <ele>60</ele>
        <time>2020-12-16T10:25:26.000Z</time>
      </trkpt>
      <trkpt lat="47.23536" lon="-1.37989">
        <ele>59</ele>
        <time>2020-12-16T10:25:28.000Z</time>
      </trkpt>
      <trkpt lat="47.2354" lon="-1.3796">
        <ele>54</ele>
        <time>2020-12-16T10:25:31.000Z</time>
      </trkpt>
      <trkpt lat="47.23543" lon="-1.37931">
        <ele>55</ele>
        <time>2020-12-16T10:25:34.000Z</time>
      </trkpt>
      <trkpt lat="47.23544" lon="-1.37903">
        <ele>55</ele>
        <time>2020-12-16T10:25:37.000Z</time>
      </trkpt>
      <trkpt lat="47.23545" lon="-1.37881">
        <ele>54</ele>
        <time>2020-12-16T10:25:39.000Z</time>
      </trkpt>
      <trkpt lat="47.23548" lon="-1.37859">
        <ele>54</ele>
        <time>2020-12-16T10:25:41.000Z</time>
      </trkpt>
      <trkpt lat="47.23549" lon="-1.37842">
        <ele>54</ele>
        <time>2020-12-16T10:25:43.000Z</time>
      </trkpt>
      <trkpt lat="47.23552" lon="-1.37815">
        <ele>53</ele>
        <time>2020-12-16T10:25:46.000Z</time>
      </trkpt>
      <trkpt lat="47.23554" lon="-1.37788">
        <ele>50</ele>
        <time>2020-12-16T10:25:49.000Z</time>
      </trkpt>
      <trkpt lat="47.23556" lon="-1.3777">
        <ele>51</ele>
        <time>2020-12-16T10:25:51.000Z</time>
      </trkpt>
      <trkpt lat="47.23557" lon="-1.37752">
        <ele>52</ele>
        <time>2020-12-16T10:25:53.000Z</time>
      </trkpt>
      <trkpt lat="47.23558" lon="-1.37733">
        <ele>53</ele>
        <time>2020-12-16T10:25:55.000Z</time>
      </trkpt>
      <trkpt lat="47.23561" lon="-1.37713">
        <ele>52</ele>
        <time>2020-12-16T10:25:57.000Z</time>
      </trkpt>
      <trkpt lat="47.23562" lon="-1.37693">
        <ele>52</ele>
        <time>2020-12-16T10:25:59.000Z</time>
      </trkpt>
      <trkpt lat="47.23563" lon="-1.37674">
        <ele>54</ele>
        <time>2020-12-16T10:26:01.000Z</time>
      </trkpt>
      <trkpt lat="47.23563" lon="-1.37656">
        <ele>53</ele>
        <time>2020-12-16T10:26:03.000Z</time>
      </trkpt>
      <trkpt lat="47.23565" lon="-1.37642">
        <ele>52</ele>
        <time>2020-12-16T10:26:05.000Z</time>
      </trkpt>
      <trkpt lat="47.23567" lon="-1.37622">
        <ele>54</ele>
        <time>2020-12-16T10:26:07.000Z</time>
      </trkpt>
      <trkpt lat="47.23569" lon="-1.376">
        <ele>55</ele>
        <time>2020-12-16T10:26:09.000Z</time>
      </trkpt>
      <trkpt lat="47.23572" lon="-1.3758">
        <ele>55</ele>
        <time>2020-12-16T10:26:11.000Z</time>
      </trkpt>
      <trkpt lat="47.23573" lon="-1.3756">
        <ele>56</ele>
        <time>2020-12-16T10:26:13.000Z</time>
      </trkpt>
      <trkpt lat="47.23575" lon="-1.37539">
        <ele>57</ele>
        <time>2020-12-16T10:26:15.000Z</time>
      </trkpt>
      <trkpt lat="47.23576" lon="-1.37513">
        <ele>55</ele>
        <time>2020-12-16T10:26:18.000Z</time>
      </trkpt>
      <trkpt lat="47.23577" lon="-1.37495">
        <ele>56</ele>
        <time>2020-12-16T10:26:20.000Z</time>
      </trkpt>
      <trkpt lat="47.23581" lon="-1.37472">
        <ele>57</ele>
        <time>2020-12-16T10:26:22.000Z</time>
      </trkpt>
      <trkpt lat="47.23585" lon="-1.37441">
        <ele>53</ele>
        <time>2020-12-16T10:26:25.000Z</time>
      </trkpt>
      <trkpt lat="47.23586" lon="-1.37419">
        <ele>54</ele>
        <time>2020-12-16T10:26:27.000Z</time>
      </trkpt>
      <trkpt lat="47.23589" lon="-1.374">
        <ele>56</ele>
        <time>2020-12-16T10:26:29.000Z</time>
      </trkpt>
      <trkpt lat="47.23591" lon="-1.3738">
        <ele>56</ele>
        <time>2020-12-16T10:26:31.000Z</time>
      </trkpt>
      <trkpt lat="47.23594" lon="-1.37353">
        <ele>54</ele>
        <time>2020-12-16T10:26:34.000Z</time>
      </trkpt>
      <trkpt lat="47.23596" lon="-1.37333">
        <ele>54</ele>
        <time>2020-12-16T10:26:36.000Z</time>
      </trkpt>
      <trkpt lat="47.23599" lon="-1.37313">
        <ele>55</ele>
        <time>2020-12-16T10:26:38.000Z</time>
      </trkpt>
      <trkpt lat="47.23602" lon="-1.37292">
        <ele>55</ele>
        <time>2020-12-16T10:26:40.000Z</time>
      </trkpt>
      <trkpt lat="47.23603" lon="-1.37274">
        <ele>54</ele>
        <time>2020-12-16T10:26:42.000Z</time>
      </trkpt>
      <trkpt lat="47.23604" lon="-1.37255">
        <ele>54</ele>
        <time>2020-12-16T10:26:44.000Z</time>
      </trkpt>
      <trkpt lat="47.23608" lon="-1.37236">
        <ele>54</ele>
        <time>2020-12-16T10:26:46.000Z</time>
      </trkpt>
      <trkpt lat="47.23611" lon="-1.37218">
        <ele>55</ele>
        <time>2020-12-16T10:26:48.000Z</time>
      </trkpt>
      <trkpt lat="47.23614" lon="-1.372">
        <ele>55</ele>
        <time>2020-12-16T10:26:50.000Z</time>
      </trkpt>
      <trkpt lat="47.23617" lon="-1.37183">
        <ele>54</ele>
        <time>2020-12-16T10:26:52.000Z</time>
      </trkpt>
      <trkpt lat="47.23618" lon="-1.37166">
        <ele>55</ele>
        <time>2020-12-16T10:26:54.000Z</time>
      </trkpt>
      <trkpt lat="47.23621" lon="-1.37139">
        <ele>57</ele>
        <time>2020-12-16T10:26:57.000Z</time>
      </trkpt>
      <trkpt lat="47.23625" lon="-1.37121">
        <ele>58</ele>
        <time>2020-12-16T10:26:59.000Z</time>
      </trkpt>
      <trkpt lat="47.23627" lon="-1.371">
        <ele>56</ele>
        <time>2020-12-16T10:27:01.000Z</time>
      </trkpt>
      <trkpt lat="47.23634" lon="-1.37075">
        <ele>57</ele>
        <time>2020-12-16T10:27:04.000Z</time>
      </trkpt>
      <trkpt lat="47.23644" lon="-1.37049">
        <ele>57</ele>
        <time>2020-12-16T10:27:07.000Z</time>
      </trkpt>
      <trkpt lat="47.23651" lon="-1.37023">
        <ele>55</ele>
        <time>2020-12-16T10:27:10.000Z</time>
      </trkpt>
      <trkpt lat="47.23655" lon="-1.3701">
        <ele>55</ele>
        <time>2020-12-16T10:27:12.000Z</time>
      </trkpt>
      <trkpt lat="47.23655" lon="-1.36991">
        <ele>54</ele>
        <time>2020-12-16T10:27:14.000Z</time>
      </trkpt>
      <trkpt lat="47.23659" lon="-1.36976">
        <ele>56</ele>
        <time>2020-12-16T10:27:16.000Z</time>
      </trkpt>
      <trkpt lat="47.23679" lon="-1.36958">
        <ele>55</ele>
        <time>2020-12-16T10:27:19.000Z</time>
      </trkpt>
      <trkpt lat="47.23689" lon="-1.36947">
        <ele>56</ele>
        <time>2020-12-16T10:27:21.000Z</time>
      </trkpt>
      <trkpt lat="47.23699" lon="-1.36932">
        <ele>56</ele>
        <time>2020-12-16T10:27:23.000Z</time>
      </trkpt>
      <trkpt lat="47.23707" lon="-1.36915">
        <ele>58</ele>
        <time>2020-12-16T10:27:25.000Z</time>
      </trkpt>
      <trkpt lat="47.23719" lon="-1.36894">
        <ele>58</ele>
        <time>2020-12-16T10:27:28.000Z</time>
      </trkpt>
      <trkpt lat="47.23728" lon="-1.36879">
        <ele>58</ele>
        <time>2020-12-16T10:27:30.000Z</time>
      </trkpt>
      <trkpt lat="47.23738" lon="-1.36866">
        <ele>58</ele>
        <time>2020-12-16T10:27:32.000Z</time>
      </trkpt>
      <trkpt lat="47.23747" lon="-1.36853">
        <ele>59</ele>
        <time>2020-12-16T10:27:34.000Z</time>
      </trkpt>
      <trkpt lat="47.23763" lon="-1.36834">
        <ele>59</ele>
        <time>2020-12-16T10:27:37.000Z</time>
      </trkpt>
      <trkpt lat="47.23779" lon="-1.36816">
        <ele>57</ele>
        <time>2020-12-16T10:27:40.000Z</time>
      </trkpt>
      <trkpt lat="47.23794" lon="-1.36801">
        <ele>57</ele>
        <time>2020-12-16T10:27:43.000Z</time>
      </trkpt>
      <trkpt lat="47.23809" lon="-1.36788">
        <ele>58</ele>
        <time>2020-12-16T10:27:46.000Z</time>
      </trkpt>
      <trkpt lat="47.23827" lon="-1.36773">
        <ele>59</ele>
        <time>2020-12-16T10:27:49.000Z</time>
      </trkpt>
      <trkpt lat="47.23841" lon="-1.36756">
        <ele>57</ele>
        <time>2020-12-16T10:27:52.000Z</time>
      </trkpt>
      <trkpt lat="47.23858" lon="-1.36743">
        <ele>56</ele>
        <time>2020-12-16T10:27:55.000Z</time>
      </trkpt>
      <trkpt lat="47.23875" lon="-1.36731">
        <ele>57</ele>
        <time>2020-12-16T10:27:58.000Z</time>
      </trkpt>
      <trkpt lat="47.23887" lon="-1.36723">
        <ele>58</ele>
        <time>2020-12-16T10:28:00.000Z</time>
      </trkpt>
      <trkpt lat="47.23898" lon="-1.36714">
        <ele>59</ele>
        <time>2020-12-16T10:28:02.000Z</time>
      </trkpt>
      <trkpt lat="47.2391" lon="-1.36706">
        <ele>59</ele>
        <time>2020-12-16T10:28:04.000Z</time>
      </trkpt>
      <trkpt lat="47.23921" lon="-1.36697">
        <ele>59</ele>
        <time>2020-12-16T10:28:06.000Z</time>
      </trkpt>
      <trkpt lat="47.23933" lon="-1.36688">
        <ele>59</ele>
        <time>2020-12-16T10:28:08.000Z</time>
      </trkpt>
      <trkpt lat="47.23945" lon="-1.36679">
        <ele>60</ele>
        <time>2020-12-16T10:28:10.000Z</time>
      </trkpt>
      <trkpt lat="47.23956" lon="-1.36669">
        <ele>60</ele>
        <time>2020-12-16T10:28:12.000Z</time>
      </trkpt>
      <trkpt lat="47.23967" lon="-1.3666">
        <ele>60</ele>
        <time>2020-12-16T10:28:14.000Z</time>
      </trkpt>
      <trkpt lat="47.23978" lon="-1.36651">
        <ele>60</ele>
        <time>2020-12-16T10:28:16.000Z</time>
      </trkpt>
      <trkpt lat="47.23995" lon="-1.36636">
        <ele>61</ele>
        <time>2020-12-16T10:28:19.000Z</time>
      </trkpt>
      <trkpt lat="47.24015" lon="-1.36618">
        <ele>59</ele>
        <time>2020-12-16T10:28:23.000Z</time>
      </trkpt>
      <trkpt lat="47.24027" lon="-1.36608">
        <ele>60</ele>
        <time>2020-12-16T10:28:25.000Z</time>
      </trkpt>
      <trkpt lat="47.24045" lon="-1.36592">
        <ele>61</ele>
        <time>2020-12-16T10:28:28.000Z</time>
      </trkpt>
      <trkpt lat="47.24064" lon="-1.36581">
        <ele>59</ele>
        <time>2020-12-16T10:28:31.000Z</time>
      </trkpt>
      <trkpt lat="47.24076" lon="-1.36568">
        <ele>61</ele>
        <time>2020-12-16T10:28:33.000Z</time>
      </trkpt>
      <trkpt lat="47.24087" lon="-1.36557">
        <ele>62</ele>
        <time>2020-12-16T10:28:35.000Z</time>
      </trkpt>
      <trkpt lat="47.24098" lon="-1.36547">
        <ele>63</ele>
        <time>2020-12-16T10:28:37.000Z</time>
      </trkpt>
      <trkpt lat="47.24109" lon="-1.36536">
        <ele>64</ele>
        <time>2020-12-16T10:28:39.000Z</time>
      </trkpt>
      <trkpt lat="47.2412" lon="-1.36525">
        <ele>65</ele>
        <time>2020-12-16T10:28:41.000Z</time>
      </trkpt>
      <trkpt lat="47.24131" lon="-1.36513">
        <ele>65</ele>
        <time>2020-12-16T10:28:43.000Z</time>
      </trkpt>
      <trkpt lat="47.24146" lon="-1.36497">
        <ele>66</ele>
        <time>2020-12-16T10:28:46.000Z</time>
      </trkpt>
      <trkpt lat="47.24157" lon="-1.36485">
        <ele>67</ele>
        <time>2020-12-16T10:28:48.000Z</time>
      </trkpt>
      <trkpt lat="47.24167" lon="-1.36474">
        <ele>67</ele>
        <time>2020-12-16T10:28:50.000Z</time>
      </trkpt>
      <trkpt lat="47.24177" lon="-1.36462">
        <ele>68</ele>
        <time>2020-12-16T10:28:52.000Z</time>
      </trkpt>
      <trkpt lat="47.24187" lon="-1.3645">
        <ele>68</ele>
        <time>2020-12-16T10:28:54.000Z</time>
      </trkpt>
      <trkpt lat="47.24196" lon="-1.36438">
        <ele>68</ele>
        <time>2020-12-16T10:28:56.000Z</time>
      </trkpt>
      <trkpt lat="47.24206" lon="-1.36426">
        <ele>67</ele>
        <time>2020-12-16T10:28:58.000Z</time>
      </trkpt>
      <trkpt lat="47.2422" lon="-1.36407">
        <ele>67</ele>
        <time>2020-12-16T10:29:01.000Z</time>
      </trkpt>
      <trkpt lat="47.24234" lon="-1.36389">
        <ele>67</ele>
        <time>2020-12-16T10:29:04.000Z</time>
      </trkpt>
      <trkpt lat="47.24248" lon="-1.36368">
        <ele>66</ele>
        <time>2020-12-16T10:29:07.000Z</time>
      </trkpt>
      <trkpt lat="47.24263" lon="-1.3635">
        <ele>64</ele>
        <time>2020-12-16T10:29:10.000Z</time>
      </trkpt>
      <trkpt lat="47.24275" lon="-1.36332">
        <ele>65</ele>
        <time>2020-12-16T10:29:13.000Z</time>
      </trkpt>
      <trkpt lat="47.24282" lon="-1.3632">
        <ele>64</ele>
        <time>2020-12-16T10:29:15.000Z</time>
      </trkpt>
      <trkpt lat="47.2429" lon="-1.36307">
        <ele>65</ele>
        <time>2020-12-16T10:29:17.000Z</time>
      </trkpt>
      <trkpt lat="47.24299" lon="-1.36293">
        <ele>65</ele>
        <time>2020-12-16T10:29:19.000Z</time>
      </trkpt>
      <trkpt lat="47.24308" lon="-1.36279">
        <ele>64</ele>
        <time>2020-12-16T10:29:21.000Z</time>
      </trkpt>
      <trkpt lat="47.24317" lon="-1.36265">
        <ele>66</ele>
        <time>2020-12-16T10:29:23.000Z</time>
      </trkpt>
      <trkpt lat="47.24327" lon="-1.3625">
        <ele>68</ele>
        <time>2020-12-16T10:29:25.000Z</time>
      </trkpt>
      <trkpt lat="47.24336" lon="-1.36235">
        <ele>69</ele>
        <time>2020-12-16T10:29:27.000Z</time>
      </trkpt>
      <trkpt lat="47.24344" lon="-1.36221">
        <ele>69</ele>
        <time>2020-12-16T10:29:29.000Z</time>
      </trkpt>
      <trkpt lat="47.24351" lon="-1.36206">
        <ele>69</ele>
        <time>2020-12-16T10:29:31.000Z</time>
      </trkpt>
      <trkpt lat="47.24359" lon="-1.36191">
        <ele>71</ele>
        <time>2020-12-16T10:29:33.000Z</time>
      </trkpt>
      <trkpt lat="47.24366" lon="-1.36176">
        <ele>71</ele>
        <time>2020-12-16T10:29:35.000Z</time>
      </trkpt>
      <trkpt lat="47.24372" lon="-1.3616">
        <ele>72</ele>
        <time>2020-12-16T10:29:37.000Z</time>
      </trkpt>
      <trkpt lat="47.24383" lon="-1.36139">
        <ele>70</ele>
        <time>2020-12-16T10:29:40.000Z</time>
      </trkpt>
      <trkpt lat="47.24391" lon="-1.36126">
        <ele>70</ele>
        <time>2020-12-16T10:29:42.000Z</time>
      </trkpt>
      <trkpt lat="47.24398" lon="-1.36112">
        <ele>71</ele>
        <time>2020-12-16T10:29:44.000Z</time>
      </trkpt>
      <trkpt lat="47.24404" lon="-1.36099">
        <ele>71</ele>
        <time>2020-12-16T10:29:46.000Z</time>
      </trkpt>
      <trkpt lat="47.24416" lon="-1.36073">
        <ele>72</ele>
        <time>2020-12-16T10:29:50.000Z</time>
      </trkpt>
      <trkpt lat="47.24421" lon="-1.36061">
        <ele>74</ele>
        <time>2020-12-16T10:29:52.000Z</time>
      </trkpt>
      <trkpt lat="47.24422" lon="-1.36043">
        <ele>74</ele>
        <time>2020-12-16T10:29:59.000Z</time>
      </trkpt>
      <trkpt lat="47.24425" lon="-1.3603">
        <ele>75</ele>
        <time>2020-12-16T10:30:01.000Z</time>
      </trkpt>
      <trkpt lat="47.24432" lon="-1.36015">
        <ele>76</ele>
        <time>2020-12-16T10:30:04.000Z</time>
      </trkpt>
      <trkpt lat="47.24443" lon="-1.36016">
        <ele>75</ele>
        <time>2020-12-16T10:30:06.000Z</time>
      </trkpt>
      <trkpt lat="47.24452" lon="-1.36021">
        <ele>75</ele>
        <time>2020-12-16T10:30:08.000Z</time>
      </trkpt>
      <trkpt lat="47.24458" lon="-1.36039">
        <ele>75</ele>
        <time>2020-12-16T10:30:10.000Z</time>
      </trkpt>
      <trkpt lat="47.24465" lon="-1.36057">
        <ele>75</ele>
        <time>2020-12-16T10:30:12.000Z</time>
      </trkpt>
      <trkpt lat="47.24475" lon="-1.36074">
        <ele>73</ele>
        <time>2020-12-16T10:30:14.000Z</time>
      </trkpt>
      <trkpt lat="47.24486" lon="-1.36093">
        <ele>72</ele>
        <time>2020-12-16T10:30:16.000Z</time>
      </trkpt>
      <trkpt lat="47.24503" lon="-1.36123">
        <ele>71</ele>
        <time>2020-12-16T10:30:19.000Z</time>
      </trkpt>
      <trkpt lat="47.24509" lon="-1.36133">
        <ele>71</ele>
        <time>2020-12-16T10:30:20.000Z</time>
      </trkpt>
      <trkpt lat="47.24521" lon="-1.36154">
        <ele>69</ele>
        <time>2020-12-16T10:30:22.000Z</time>
      </trkpt>
      <trkpt lat="47.24527" lon="-1.36165">
        <ele>69</ele>
        <time>2020-12-16T10:30:23.000Z</time>
      </trkpt>
      <trkpt lat="47.24538" lon="-1.3619">
        <ele>69</ele>
        <time>2020-12-16T10:30:25.000Z</time>
      </trkpt>
      <trkpt lat="47.24541" lon="-1.36202">
        <ele>67</ele>
        <time>2020-12-16T10:30:26.000Z</time>
      </trkpt>
      <trkpt lat="47.24548" lon="-1.36227">
        <ele>68</ele>
        <time>2020-12-16T10:30:28.000Z</time>
      </trkpt>
      <trkpt lat="47.24551" lon="-1.36241">
        <ele>67</ele>
        <time>2020-12-16T10:30:29.000Z</time>
      </trkpt>
      <trkpt lat="47.24555" lon="-1.36254">
        <ele>67</ele>
        <time>2020-12-16T10:30:30.000Z</time>
      </trkpt>
      <trkpt lat="47.24558" lon="-1.36268">
        <ele>67</ele>
        <time>2020-12-16T10:30:31.000Z</time>
      </trkpt>
      <trkpt lat="47.2456" lon="-1.36281">
        <ele>64</ele>
        <time>2020-12-16T10:30:32.000Z</time>
      </trkpt>
      <trkpt lat="47.24566" lon="-1.36308">
        <ele>64</ele>
        <time>2020-12-16T10:30:34.000Z</time>
      </trkpt>
      <trkpt lat="47.24574" lon="-1.36343">
        <ele>64</ele>
        <time>2020-12-16T10:30:37.000Z</time>
      </trkpt>
      <trkpt lat="47.2458" lon="-1.36366">
        <ele>64</ele>
        <time>2020-12-16T10:30:39.000Z</time>
      </trkpt>
      <trkpt lat="47.24583" lon="-1.36379">
        <ele>63</ele>
        <time>2020-12-16T10:30:40.000Z</time>
      </trkpt>
      <trkpt lat="47.24587" lon="-1.36391">
        <ele>63</ele>
        <time>2020-12-16T10:30:41.000Z</time>
      </trkpt>
      <trkpt lat="47.24591" lon="-1.36403">
        <ele>63</ele>
        <time>2020-12-16T10:30:42.000Z</time>
      </trkpt>
      <trkpt lat="47.246" lon="-1.36425">
        <ele>62</ele>
        <time>2020-12-16T10:30:44.000Z</time>
      </trkpt>
      <trkpt lat="47.24605" lon="-1.36437">
        <ele>62</ele>
        <time>2020-12-16T10:30:45.000Z</time>
      </trkpt>
      <trkpt lat="47.2461" lon="-1.36448">
        <ele>62</ele>
        <time>2020-12-16T10:30:46.000Z</time>
      </trkpt>
      <trkpt lat="47.2462" lon="-1.3647">
        <ele>61</ele>
        <time>2020-12-16T10:30:48.000Z</time>
      </trkpt>
      <trkpt lat="47.24625" lon="-1.36481">
        <ele>61</ele>
        <time>2020-12-16T10:30:49.000Z</time>
      </trkpt>
      <trkpt lat="47.2463" lon="-1.36492">
        <ele>61</ele>
        <time>2020-12-16T10:30:50.000Z</time>
      </trkpt>
      <trkpt lat="47.24635" lon="-1.36503">
        <ele>61</ele>
        <time>2020-12-16T10:30:51.000Z</time>
      </trkpt>
      <trkpt lat="47.2464" lon="-1.36514">
        <ele>61</ele>
        <time>2020-12-16T10:30:52.000Z</time>
      </trkpt>
      <trkpt lat="47.2465" lon="-1.36536">
        <ele>60</ele>
        <time>2020-12-16T10:30:54.000Z</time>
      </trkpt>
      <trkpt lat="47.24664" lon="-1.36567">
        <ele>60</ele>
        <time>2020-12-16T10:30:57.000Z</time>
      </trkpt>
      <trkpt lat="47.24673" lon="-1.36588">
        <ele>57</ele>
        <time>2020-12-16T10:30:59.000Z</time>
      </trkpt>
      <trkpt lat="47.2468" lon="-1.3661">
        <ele>57</ele>
        <time>2020-12-16T10:31:01.000Z</time>
      </trkpt>
      <trkpt lat="47.24691" lon="-1.36645">
        <ele>55</ele>
        <time>2020-12-16T10:31:04.000Z</time>
      </trkpt>
      <trkpt lat="47.24696" lon="-1.36667">
        <ele>56</ele>
        <time>2020-12-16T10:31:06.000Z</time>
      </trkpt>
      <trkpt lat="47.24702" lon="-1.36691">
        <ele>57</ele>
        <time>2020-12-16T10:31:08.000Z</time>
      </trkpt>
      <trkpt lat="47.24707" lon="-1.36714">
        <ele>57</ele>
        <time>2020-12-16T10:31:10.000Z</time>
      </trkpt>
      <trkpt lat="47.24713" lon="-1.36739">
        <ele>55</ele>
        <time>2020-12-16T10:31:12.000Z</time>
      </trkpt>
      <trkpt lat="47.24717" lon="-1.36752">
        <ele>53</ele>
        <time>2020-12-16T10:31:13.000Z</time>
      </trkpt>
      <trkpt lat="47.2472" lon="-1.36765">
        <ele>53</ele>
        <time>2020-12-16T10:31:14.000Z</time>
      </trkpt>
      <trkpt lat="47.24726" lon="-1.36789">
        <ele>53</ele>
        <time>2020-12-16T10:31:16.000Z</time>
      </trkpt>
      <trkpt lat="47.24729" lon="-1.36802">
        <ele>53</ele>
        <time>2020-12-16T10:31:17.000Z</time>
      </trkpt>
      <trkpt lat="47.24734" lon="-1.36825">
        <ele>53</ele>
        <time>2020-12-16T10:31:19.000Z</time>
      </trkpt>
      <trkpt lat="47.24747" lon="-1.36873">
        <ele>51</ele>
        <time>2020-12-16T10:31:23.000Z</time>
      </trkpt>
      <trkpt lat="47.2475" lon="-1.36885">
        <ele>51</ele>
        <time>2020-12-16T10:31:24.000Z</time>
      </trkpt>
      <trkpt lat="47.24756" lon="-1.36908">
        <ele>51</ele>
        <time>2020-12-16T10:31:26.000Z</time>
      </trkpt>
      <trkpt lat="47.24761" lon="-1.36931">
        <ele>51</ele>
        <time>2020-12-16T10:31:28.000Z</time>
      </trkpt>
      <trkpt lat="47.24766" lon="-1.36955">
        <ele>50</ele>
        <time>2020-12-16T10:31:30.000Z</time>
      </trkpt>
      <trkpt lat="47.2477" lon="-1.36978">
        <ele>48</ele>
        <time>2020-12-16T10:31:32.000Z</time>
      </trkpt>
      <trkpt lat="47.24777" lon="-1.37">
        <ele>49</ele>
        <time>2020-12-16T10:31:34.000Z</time>
      </trkpt>
      <trkpt lat="47.2478" lon="-1.37013">
        <ele>47</ele>
        <time>2020-12-16T10:31:35.000Z</time>
      </trkpt>
      <trkpt lat="47.24784" lon="-1.37025">
        <ele>47</ele>
        <time>2020-12-16T10:31:36.000Z</time>
      </trkpt>
      <trkpt lat="47.24793" lon="-1.37053">
        <ele>48</ele>
        <time>2020-12-16T10:31:39.000Z</time>
      </trkpt>
      <trkpt lat="47.24802" lon="-1.3707">
        <ele>48</ele>
        <time>2020-12-16T10:31:41.000Z</time>
      </trkpt>
      <trkpt lat="47.24812" lon="-1.3709">
        <ele>48</ele>
        <time>2020-12-16T10:31:43.000Z</time>
      </trkpt>
      <trkpt lat="47.24822" lon="-1.37119">
        <ele>47</ele>
        <time>2020-12-16T10:31:46.000Z</time>
      </trkpt>
      <trkpt lat="47.24832" lon="-1.37151">
        <ele>47</ele>
        <time>2020-12-16T10:31:49.000Z</time>
      </trkpt>
      <trkpt lat="47.24837" lon="-1.37162">
        <ele>47</ele>
        <time>2020-12-16T10:31:50.000Z</time>
      </trkpt>
      <trkpt lat="47.24849" lon="-1.37183">
        <ele>46</ele>
        <time>2020-12-16T10:31:52.000Z</time>
      </trkpt>
      <trkpt lat="47.24856" lon="-1.37193">
        <ele>47</ele>
        <time>2020-12-16T10:31:53.000Z</time>
      </trkpt>
      <trkpt lat="47.24867" lon="-1.37211">
        <ele>48</ele>
        <time>2020-12-16T10:31:55.000Z</time>
      </trkpt>
      <trkpt lat="47.24879" lon="-1.37229">
        <ele>48</ele>
        <time>2020-12-16T10:31:57.000Z</time>
      </trkpt>
      <trkpt lat="47.24892" lon="-1.37245">
        <ele>48</ele>
        <time>2020-12-16T10:31:59.000Z</time>
      </trkpt>
      <trkpt lat="47.24905" lon="-1.37265">
        <ele>45</ele>
        <time>2020-12-16T10:32:01.000Z</time>
      </trkpt>
      <trkpt lat="47.24917" lon="-1.3728">
        <ele>45</ele>
        <time>2020-12-16T10:32:03.000Z</time>
      </trkpt>
      <trkpt lat="47.2493" lon="-1.37293">
        <ele>45</ele>
        <time>2020-12-16T10:32:05.000Z</time>
      </trkpt>
      <trkpt lat="47.24943" lon="-1.37308">
        <ele>46</ele>
        <time>2020-12-16T10:32:07.000Z</time>
      </trkpt>
      <trkpt lat="47.24961" lon="-1.37329">
        <ele>46</ele>
        <time>2020-12-16T10:32:10.000Z</time>
      </trkpt>
      <trkpt lat="47.2498" lon="-1.37349">
        <ele>46</ele>
        <time>2020-12-16T10:32:13.000Z</time>
      </trkpt>
      <trkpt lat="47.24993" lon="-1.37365">
        <ele>44</ele>
        <time>2020-12-16T10:32:15.000Z</time>
      </trkpt>
      <trkpt lat="47.25005" lon="-1.37378">
        <ele>43</ele>
        <time>2020-12-16T10:32:17.000Z</time>
      </trkpt>
      <trkpt lat="47.25023" lon="-1.37399">
        <ele>44</ele>
        <time>2020-12-16T10:32:20.000Z</time>
      </trkpt>
      <trkpt lat="47.25035" lon="-1.37415">
        <ele>45</ele>
        <time>2020-12-16T10:32:22.000Z</time>
      </trkpt>
      <trkpt lat="47.25047" lon="-1.37431">
        <ele>42</ele>
        <time>2020-12-16T10:32:24.000Z</time>
      </trkpt>
      <trkpt lat="47.25058" lon="-1.37445">
        <ele>43</ele>
        <time>2020-12-16T10:32:26.000Z</time>
      </trkpt>
      <trkpt lat="47.2507" lon="-1.37458">
        <ele>44</ele>
        <time>2020-12-16T10:32:28.000Z</time>
      </trkpt>
      <trkpt lat="47.25082" lon="-1.37472">
        <ele>45</ele>
        <time>2020-12-16T10:32:30.000Z</time>
      </trkpt>
      <trkpt lat="47.25095" lon="-1.37486">
        <ele>45</ele>
        <time>2020-12-16T10:32:32.000Z</time>
      </trkpt>
      <trkpt lat="47.25107" lon="-1.37501">
        <ele>45</ele>
        <time>2020-12-16T10:32:34.000Z</time>
      </trkpt>
      <trkpt lat="47.25126" lon="-1.37523">
        <ele>46</ele>
        <time>2020-12-16T10:32:37.000Z</time>
      </trkpt>
      <trkpt lat="47.25138" lon="-1.37537">
        <ele>46</ele>
        <time>2020-12-16T10:32:39.000Z</time>
      </trkpt>
      <trkpt lat="47.2515" lon="-1.37551">
        <ele>47</ele>
        <time>2020-12-16T10:32:41.000Z</time>
      </trkpt>
      <trkpt lat="47.25162" lon="-1.37565">
        <ele>46</ele>
        <time>2020-12-16T10:32:43.000Z</time>
      </trkpt>
      <trkpt lat="47.25174" lon="-1.37579">
        <ele>46</ele>
        <time>2020-12-16T10:32:45.000Z</time>
      </trkpt>
      <trkpt lat="47.25185" lon="-1.37594">
        <ele>46</ele>
        <time>2020-12-16T10:32:47.000Z</time>
      </trkpt>
      <trkpt lat="47.25196" lon="-1.37607">
        <ele>46</ele>
        <time>2020-12-16T10:32:49.000Z</time>
      </trkpt>
      <trkpt lat="47.25208" lon="-1.3762">
        <ele>46</ele>
        <time>2020-12-16T10:32:51.000Z</time>
      </trkpt>
      <trkpt lat="47.25219" lon="-1.37632">
        <ele>46</ele>
        <time>2020-12-16T10:32:53.000Z</time>
      </trkpt>
      <trkpt lat="47.2523" lon="-1.37645">
        <ele>46</ele>
        <time>2020-12-16T10:32:55.000Z</time>
      </trkpt>
      <trkpt lat="47.25248" lon="-1.37666">
        <ele>47</ele>
        <time>2020-12-16T10:32:58.000Z</time>
      </trkpt>
      <trkpt lat="47.25259" lon="-1.3768">
        <ele>47</ele>
        <time>2020-12-16T10:33:00.000Z</time>
      </trkpt>
      <trkpt lat="47.25271" lon="-1.37695">
        <ele>46</ele>
        <time>2020-12-16T10:33:02.000Z</time>
      </trkpt>
      <trkpt lat="47.25283" lon="-1.37709">
        <ele>47</ele>
        <time>2020-12-16T10:33:04.000Z</time>
      </trkpt>
      <trkpt lat="47.25296" lon="-1.37723">
        <ele>48</ele>
        <time>2020-12-16T10:33:06.000Z</time>
      </trkpt>
      <trkpt lat="47.25308" lon="-1.37737">
        <ele>48</ele>
        <time>2020-12-16T10:33:08.000Z</time>
      </trkpt>
      <trkpt lat="47.25319" lon="-1.37752">
        <ele>47</ele>
        <time>2020-12-16T10:33:10.000Z</time>
      </trkpt>
      <trkpt lat="47.25338" lon="-1.37771">
        <ele>47</ele>
        <time>2020-12-16T10:33:13.000Z</time>
      </trkpt>
      <trkpt lat="47.25353" lon="-1.37792">
        <ele>47</ele>
        <time>2020-12-16T10:33:16.000Z</time>
      </trkpt>
      <trkpt lat="47.25364" lon="-1.37806">
        <ele>47</ele>
        <time>2020-12-16T10:33:18.000Z</time>
      </trkpt>
      <trkpt lat="47.25376" lon="-1.37818">
        <ele>48</ele>
        <time>2020-12-16T10:33:20.000Z</time>
      </trkpt>
      <trkpt lat="47.25394" lon="-1.37841">
        <ele>49</ele>
        <time>2020-12-16T10:33:23.000Z</time>
      </trkpt>
      <trkpt lat="47.25406" lon="-1.37856">
        <ele>49</ele>
        <time>2020-12-16T10:33:25.000Z</time>
      </trkpt>
      <trkpt lat="47.25418" lon="-1.37871">
        <ele>49</ele>
        <time>2020-12-16T10:33:27.000Z</time>
      </trkpt>
      <trkpt lat="47.2544" lon="-1.37903">
        <ele>49</ele>
        <time>2020-12-16T10:33:31.000Z</time>
      </trkpt>
      <trkpt lat="47.25452" lon="-1.37923">
        <ele>46</ele>
        <time>2020-12-16T10:33:33.000Z</time>
      </trkpt>
      <trkpt lat="47.25462" lon="-1.37941">
        <ele>46</ele>
        <time>2020-12-16T10:33:35.000Z</time>
      </trkpt>
      <trkpt lat="47.25472" lon="-1.37959">
        <ele>46</ele>
        <time>2020-12-16T10:33:37.000Z</time>
      </trkpt>
      <trkpt lat="47.25481" lon="-1.37979">
        <ele>45</ele>
        <time>2020-12-16T10:33:39.000Z</time>
      </trkpt>
      <trkpt lat="47.25489" lon="-1.37998">
        <ele>44</ele>
        <time>2020-12-16T10:33:41.000Z</time>
      </trkpt>
      <trkpt lat="47.25499" lon="-1.38019">
        <ele>46</ele>
        <time>2020-12-16T10:33:43.000Z</time>
      </trkpt>
      <trkpt lat="47.25511" lon="-1.38051">
        <ele>48</ele>
        <time>2020-12-16T10:33:46.000Z</time>
      </trkpt>
      <trkpt lat="47.25522" lon="-1.3808">
        <ele>46</ele>
        <time>2020-12-16T10:33:49.000Z</time>
      </trkpt>
      <trkpt lat="47.25529" lon="-1.38112">
        <ele>44</ele>
        <time>2020-12-16T10:33:52.000Z</time>
      </trkpt>
      <trkpt lat="47.25536" lon="-1.38144">
        <ele>45</ele>
        <time>2020-12-16T10:33:55.000Z</time>
      </trkpt>
      <trkpt lat="47.25544" lon="-1.38176">
        <ele>44</ele>
        <time>2020-12-16T10:33:58.000Z</time>
      </trkpt>
      <trkpt lat="47.25549" lon="-1.38208">
        <ele>43</ele>
        <time>2020-12-16T10:34:01.000Z</time>
      </trkpt>
      <trkpt lat="47.25552" lon="-1.38231">
        <ele>45</ele>
        <time>2020-12-16T10:34:03.000Z</time>
      </trkpt>
      <trkpt lat="47.25554" lon="-1.38253">
        <ele>47</ele>
        <time>2020-12-16T10:34:05.000Z</time>
      </trkpt>
      <trkpt lat="47.25557" lon="-1.38276">
        <ele>47</ele>
        <time>2020-12-16T10:34:07.000Z</time>
      </trkpt>
      <trkpt lat="47.25559" lon="-1.38311">
        <ele>47</ele>
        <time>2020-12-16T10:34:10.000Z</time>
      </trkpt>
      <trkpt lat="47.25559" lon="-1.38334">
        <ele>49</ele>
        <time>2020-12-16T10:34:12.000Z</time>
      </trkpt>
      <trkpt lat="47.25559" lon="-1.38356">
        <ele>50</ele>
        <time>2020-12-16T10:34:14.000Z</time>
      </trkpt>
      <trkpt lat="47.25559" lon="-1.38391">
        <ele>49</ele>
        <time>2020-12-16T10:34:17.000Z</time>
      </trkpt>
      <trkpt lat="47.25558" lon="-1.38412">
        <ele>50</ele>
        <time>2020-12-16T10:34:19.000Z</time>
      </trkpt>
      <trkpt lat="47.25557" lon="-1.38435">
        <ele>51</ele>
        <time>2020-12-16T10:34:21.000Z</time>
      </trkpt>
      <trkpt lat="47.25556" lon="-1.38459">
        <ele>50</ele>
        <time>2020-12-16T10:34:23.000Z</time>
      </trkpt>
      <trkpt lat="47.25556" lon="-1.38481">
        <ele>50</ele>
        <time>2020-12-16T10:34:25.000Z</time>
      </trkpt>
      <trkpt lat="47.25556" lon="-1.38503">
        <ele>50</ele>
        <time>2020-12-16T10:34:27.000Z</time>
      </trkpt>
      <trkpt lat="47.25554" lon="-1.38523">
        <ele>50</ele>
        <time>2020-12-16T10:34:29.000Z</time>
      </trkpt>
      <trkpt lat="47.25552" lon="-1.38543">
        <ele>50</ele>
        <time>2020-12-16T10:34:31.000Z</time>
      </trkpt>
      <trkpt lat="47.25552" lon="-1.38563">
        <ele>50</ele>
        <time>2020-12-16T10:34:33.000Z</time>
      </trkpt>
      <trkpt lat="47.25553" lon="-1.38584">
        <ele>50</ele>
        <time>2020-12-16T10:34:35.000Z</time>
      </trkpt>
      <trkpt lat="47.25553" lon="-1.38611">
        <ele>48</ele>
        <time>2020-12-16T10:34:38.000Z</time>
      </trkpt>
      <trkpt lat="47.25557" lon="-1.38629">
        <ele>49</ele>
        <time>2020-12-16T10:34:40.000Z</time>
      </trkpt>
      <trkpt lat="47.25559" lon="-1.3865">
        <ele>53</ele>
        <time>2020-12-16T10:34:42.000Z</time>
      </trkpt>
      <trkpt lat="47.25552" lon="-1.38671">
        <ele>52</ele>
        <time>2020-12-16T10:34:44.000Z</time>
      </trkpt>
      <trkpt lat="47.25549" lon="-1.38693">
        <ele>53</ele>
        <time>2020-12-16T10:34:46.000Z</time>
      </trkpt>
      <trkpt lat="47.25548" lon="-1.38714">
        <ele>53</ele>
        <time>2020-12-16T10:34:48.000Z</time>
      </trkpt>
      <trkpt lat="47.25548" lon="-1.38736">
        <ele>53</ele>
        <time>2020-12-16T10:34:50.000Z</time>
      </trkpt>
      <trkpt lat="47.25547" lon="-1.38759">
        <ele>53</ele>
        <time>2020-12-16T10:34:52.000Z</time>
      </trkpt>
      <trkpt lat="47.25546" lon="-1.38781">
        <ele>52</ele>
        <time>2020-12-16T10:34:54.000Z</time>
      </trkpt>
      <trkpt lat="47.25546" lon="-1.38803">
        <ele>52</ele>
        <time>2020-12-16T10:34:56.000Z</time>
      </trkpt>
      <trkpt lat="47.25545" lon="-1.38836">
        <ele>52</ele>
        <time>2020-12-16T10:34:59.000Z</time>
      </trkpt>
      <trkpt lat="47.25544" lon="-1.38858">
        <ele>52</ele>
        <time>2020-12-16T10:35:01.000Z</time>
      </trkpt>
      <trkpt lat="47.25544" lon="-1.38891">
        <ele>52</ele>
        <time>2020-12-16T10:35:04.000Z</time>
      </trkpt>
      <trkpt lat="47.25543" lon="-1.38913">
        <ele>52</ele>
        <time>2020-12-16T10:35:06.000Z</time>
      </trkpt>
      <trkpt lat="47.25543" lon="-1.38937">
        <ele>49</ele>
        <time>2020-12-16T10:35:08.000Z</time>
      </trkpt>
      <trkpt lat="47.25539" lon="-1.38969">
        <ele>46</ele>
        <time>2020-12-16T10:35:11.000Z</time>
      </trkpt>
      <trkpt lat="47.25537" lon="-1.3899">
        <ele>46</ele>
        <time>2020-12-16T10:35:13.000Z</time>
      </trkpt>
      <trkpt lat="47.25537" lon="-1.39013">
        <ele>47</ele>
        <time>2020-12-16T10:35:15.000Z</time>
      </trkpt>
      <trkpt lat="47.25535" lon="-1.39035">
        <ele>48</ele>
        <time>2020-12-16T10:35:17.000Z</time>
      </trkpt>
      <trkpt lat="47.25533" lon="-1.39057">
        <ele>49</ele>
        <time>2020-12-16T10:35:19.000Z</time>
      </trkpt>
      <trkpt lat="47.2553" lon="-1.3908">
        <ele>49</ele>
        <time>2020-12-16T10:35:21.000Z</time>
      </trkpt>
      <trkpt lat="47.25527" lon="-1.39103">
        <ele>50</ele>
        <time>2020-12-16T10:35:23.000Z</time>
      </trkpt>
      <trkpt lat="47.25523" lon="-1.39124">
        <ele>50</ele>
        <time>2020-12-16T10:35:25.000Z</time>
      </trkpt>
      <trkpt lat="47.25519" lon="-1.39147">
        <ele>50</ele>
        <time>2020-12-16T10:35:27.000Z</time>
      </trkpt>
      <trkpt lat="47.25514" lon="-1.39168">
        <ele>50</ele>
        <time>2020-12-16T10:35:29.000Z</time>
      </trkpt>
      <trkpt lat="47.25508" lon="-1.39189">
        <ele>50</ele>
        <time>2020-12-16T10:35:31.000Z</time>
      </trkpt>
      <trkpt lat="47.25502" lon="-1.39209">
        <ele>50</ele>
        <time>2020-12-16T10:35:33.000Z</time>
      </trkpt>
      <trkpt lat="47.25497" lon="-1.39228">
        <ele>50</ele>
        <time>2020-12-16T10:35:35.000Z</time>
      </trkpt>
      <trkpt lat="47.25491" lon="-1.39247">
        <ele>51</ele>
        <time>2020-12-16T10:35:37.000Z</time>
      </trkpt>
      <trkpt lat="47.25483" lon="-1.39274">
        <ele>50</ele>
        <time>2020-12-16T10:35:40.000Z</time>
      </trkpt>
      <trkpt lat="47.25475" lon="-1.39302">
        <ele>50</ele>
        <time>2020-12-16T10:35:43.000Z</time>
      </trkpt>
      <trkpt lat="47.25467" lon="-1.3932">
        <ele>49</ele>
        <time>2020-12-16T10:35:45.000Z</time>
      </trkpt>
      <trkpt lat="47.2546" lon="-1.39338">
        <ele>50</ele>
        <time>2020-12-16T10:35:47.000Z</time>
      </trkpt>
      <trkpt lat="47.25453" lon="-1.39356">
        <ele>50</ele>
        <time>2020-12-16T10:35:49.000Z</time>
      </trkpt>
      <trkpt lat="47.2544" lon="-1.39392">
        <ele>50</ele>
        <time>2020-12-16T10:35:53.000Z</time>
      </trkpt>
      <trkpt lat="47.25433" lon="-1.3941">
        <ele>50</ele>
        <time>2020-12-16T10:35:55.000Z</time>
      </trkpt>
      <trkpt lat="47.25424" lon="-1.39436">
        <ele>51</ele>
        <time>2020-12-16T10:35:58.000Z</time>
      </trkpt>
      <trkpt lat="47.25416" lon="-1.39464">
        <ele>48</ele>
        <time>2020-12-16T10:36:01.000Z</time>
      </trkpt>
      <trkpt lat="47.25411" lon="-1.39482">
        <ele>49</ele>
        <time>2020-12-16T10:36:03.000Z</time>
      </trkpt>
      <trkpt lat="47.25407" lon="-1.39502">
        <ele>50</ele>
        <time>2020-12-16T10:36:05.000Z</time>
      </trkpt>
      <trkpt lat="47.25404" lon="-1.39521">
        <ele>50</ele>
        <time>2020-12-16T10:36:07.000Z</time>
      </trkpt>
      <trkpt lat="47.25399" lon="-1.39552">
        <ele>48</ele>
        <time>2020-12-16T10:36:10.000Z</time>
      </trkpt>
      <trkpt lat="47.25397" lon="-1.3957">
        <ele>48</ele>
        <time>2020-12-16T10:36:12.000Z</time>
      </trkpt>
      <trkpt lat="47.25395" lon="-1.3959">
        <ele>49</ele>
        <time>2020-12-16T10:36:14.000Z</time>
      </trkpt>
      <trkpt lat="47.25394" lon="-1.3961">
        <ele>49</ele>
        <time>2020-12-16T10:36:16.000Z</time>
      </trkpt>
      <trkpt lat="47.25396" lon="-1.39643">
        <ele>47</ele>
        <time>2020-12-16T10:36:19.000Z</time>
      </trkpt>
      <trkpt lat="47.25397" lon="-1.39661">
        <ele>48</ele>
        <time>2020-12-16T10:36:21.000Z</time>
      </trkpt>
      <trkpt lat="47.25399" lon="-1.3968">
        <ele>48</ele>
        <time>2020-12-16T10:36:23.000Z</time>
      </trkpt>
      <trkpt lat="47.254" lon="-1.397">
        <ele>49</ele>
        <time>2020-12-16T10:36:25.000Z</time>
      </trkpt>
      <trkpt lat="47.25404" lon="-1.39728">
        <ele>49</ele>
        <time>2020-12-16T10:36:28.000Z</time>
      </trkpt>
      <trkpt lat="47.25406" lon="-1.39747">
        <ele>48</ele>
        <time>2020-12-16T10:36:30.000Z</time>
      </trkpt>
      <trkpt lat="47.25409" lon="-1.39768">
        <ele>47</ele>
        <time>2020-12-16T10:36:32.000Z</time>
      </trkpt>
      <trkpt lat="47.25411" lon="-1.39787">
        <ele>49</ele>
        <time>2020-12-16T10:36:34.000Z</time>
      </trkpt>
      <trkpt lat="47.25413" lon="-1.3981">
        <ele>50</ele>
        <time>2020-12-16T10:36:36.000Z</time>
      </trkpt>
      <trkpt lat="47.25416" lon="-1.39831">
        <ele>50</ele>
        <time>2020-12-16T10:36:38.000Z</time>
      </trkpt>
      <trkpt lat="47.2542" lon="-1.3985">
        <ele>50</ele>
        <time>2020-12-16T10:36:40.000Z</time>
      </trkpt>
      <trkpt lat="47.25422" lon="-1.39873">
        <ele>51</ele>
        <time>2020-12-16T10:36:42.000Z</time>
      </trkpt>
      <trkpt lat="47.25423" lon="-1.39896">
        <ele>52</ele>
        <time>2020-12-16T10:36:44.000Z</time>
      </trkpt>
      <trkpt lat="47.25426" lon="-1.39918">
        <ele>51</ele>
        <time>2020-12-16T10:36:46.000Z</time>
      </trkpt>
      <trkpt lat="47.25427" lon="-1.39939">
        <ele>52</ele>
        <time>2020-12-16T10:36:48.000Z</time>
      </trkpt>
      <trkpt lat="47.25429" lon="-1.39961">
        <ele>50</ele>
        <time>2020-12-16T10:36:50.000Z</time>
      </trkpt>
      <trkpt lat="47.25431" lon="-1.39982">
        <ele>50</ele>
        <time>2020-12-16T10:36:52.000Z</time>
      </trkpt>
      <trkpt lat="47.25436" lon="-1.40011">
        <ele>49</ele>
        <time>2020-12-16T10:36:55.000Z</time>
      </trkpt>
      <trkpt lat="47.25439" lon="-1.40031">
        <ele>50</ele>
        <time>2020-12-16T10:36:57.000Z</time>
      </trkpt>
      <trkpt lat="47.25441" lon="-1.40052">
        <ele>51</ele>
        <time>2020-12-16T10:36:59.000Z</time>
      </trkpt>
      <trkpt lat="47.25443" lon="-1.40073">
        <ele>50</ele>
        <time>2020-12-16T10:37:01.000Z</time>
      </trkpt>
      <trkpt lat="47.25447" lon="-1.40107">
        <ele>49</ele>
        <time>2020-12-16T10:37:04.000Z</time>
      </trkpt>
      <trkpt lat="47.25449" lon="-1.40128">
        <ele>48</ele>
        <time>2020-12-16T10:37:06.000Z</time>
      </trkpt>
      <trkpt lat="47.2545" lon="-1.40148">
        <ele>48</ele>
        <time>2020-12-16T10:37:08.000Z</time>
      </trkpt>
      <trkpt lat="47.25451" lon="-1.40167">
        <ele>48</ele>
        <time>2020-12-16T10:37:10.000Z</time>
      </trkpt>
      <trkpt lat="47.25455" lon="-1.4019">
        <ele>46</ele>
        <time>2020-12-16T10:37:12.000Z</time>
      </trkpt>
      <trkpt lat="47.25458" lon="-1.40211">
        <ele>46</ele>
        <time>2020-12-16T10:37:14.000Z</time>
      </trkpt>
      <trkpt lat="47.2546" lon="-1.4023">
        <ele>47</ele>
        <time>2020-12-16T10:37:16.000Z</time>
      </trkpt>
      <trkpt lat="47.25463" lon="-1.40263">
        <ele>47</ele>
        <time>2020-12-16T10:37:19.000Z</time>
      </trkpt>
      <trkpt lat="47.25467" lon="-1.40287">
        <ele>44</ele>
        <time>2020-12-16T10:37:21.000Z</time>
      </trkpt>
      <trkpt lat="47.25469" lon="-1.40306">
        <ele>42</ele>
        <time>2020-12-16T10:37:23.000Z</time>
      </trkpt>
      <trkpt lat="47.25472" lon="-1.40336">
        <ele>44</ele>
        <time>2020-12-16T10:37:26.000Z</time>
      </trkpt>
      <trkpt lat="47.25475" lon="-1.40357">
        <ele>45</ele>
        <time>2020-12-16T10:37:28.000Z</time>
      </trkpt>
      <trkpt lat="47.25481" lon="-1.40386">
        <ele>45</ele>
        <time>2020-12-16T10:37:31.000Z</time>
      </trkpt>
      <trkpt lat="47.25482" lon="-1.40405">
        <ele>45</ele>
        <time>2020-12-16T10:37:33.000Z</time>
      </trkpt>
      <trkpt lat="47.25483" lon="-1.40427">
        <ele>46</ele>
        <time>2020-12-16T10:37:35.000Z</time>
      </trkpt>
      <trkpt lat="47.25485" lon="-1.40448">
        <ele>47</ele>
        <time>2020-12-16T10:37:37.000Z</time>
      </trkpt>
      <trkpt lat="47.25488" lon="-1.40479">
        <ele>46</ele>
        <time>2020-12-16T10:37:40.000Z</time>
      </trkpt>
      <trkpt lat="47.25489" lon="-1.40499">
        <ele>47</ele>
        <time>2020-12-16T10:37:42.000Z</time>
      </trkpt>
      <trkpt lat="47.25493" lon="-1.40518">
        <ele>47</ele>
        <time>2020-12-16T10:37:44.000Z</time>
      </trkpt>
      <trkpt lat="47.25494" lon="-1.40539">
        <ele>48</ele>
        <time>2020-12-16T10:37:46.000Z</time>
      </trkpt>
      <trkpt lat="47.25497" lon="-1.40559">
        <ele>49</ele>
        <time>2020-12-16T10:37:48.000Z</time>
      </trkpt>
      <trkpt lat="47.255" lon="-1.40579">
        <ele>48</ele>
        <time>2020-12-16T10:37:50.000Z</time>
      </trkpt>
      <trkpt lat="47.25503" lon="-1.40608">
        <ele>49</ele>
        <time>2020-12-16T10:37:53.000Z</time>
      </trkpt>
      <trkpt lat="47.25506" lon="-1.40626">
        <ele>46</ele>
        <time>2020-12-16T10:37:55.000Z</time>
      </trkpt>
      <trkpt lat="47.25516" lon="-1.40639">
        <ele>45</ele>
        <time>2020-12-16T10:37:58.000Z</time>
      </trkpt>
      <trkpt lat="47.25521" lon="-1.40654">
        <ele>46</ele>
        <time>2020-12-16T10:38:01.000Z</time>
      </trkpt>
      <trkpt lat="47.25526" lon="-1.40675">
        <ele>46</ele>
        <time>2020-12-16T10:38:03.000Z</time>
      </trkpt>
      <trkpt lat="47.25527" lon="-1.40696">
        <ele>46</ele>
        <time>2020-12-16T10:38:05.000Z</time>
      </trkpt>
      <trkpt lat="47.25528" lon="-1.40717">
        <ele>45</ele>
        <time>2020-12-16T10:38:07.000Z</time>
      </trkpt>
      <trkpt lat="47.2553" lon="-1.40737">
        <ele>45</ele>
        <time>2020-12-16T10:38:09.000Z</time>
      </trkpt>
      <trkpt lat="47.25532" lon="-1.4076">
        <ele>47</ele>
        <time>2020-12-16T10:38:11.000Z</time>
      </trkpt>
      <trkpt lat="47.25535" lon="-1.4078">
        <ele>47</ele>
        <time>2020-12-16T10:38:13.000Z</time>
      </trkpt>
      <trkpt lat="47.25536" lon="-1.408">
        <ele>48</ele>
        <time>2020-12-16T10:38:15.000Z</time>
      </trkpt>
      <trkpt lat="47.25538" lon="-1.40819">
        <ele>47</ele>
        <time>2020-12-16T10:38:17.000Z</time>
      </trkpt>
      <trkpt lat="47.2554" lon="-1.40839">
        <ele>48</ele>
        <time>2020-12-16T10:38:19.000Z</time>
      </trkpt>
      <trkpt lat="47.25543" lon="-1.40858">
        <ele>48</ele>
        <time>2020-12-16T10:38:21.000Z</time>
      </trkpt>
      <trkpt lat="47.25545" lon="-1.40876">
        <ele>48</ele>
        <time>2020-12-16T10:38:23.000Z</time>
      </trkpt>
      <trkpt lat="47.2555" lon="-1.40904">
        <ele>48</ele>
        <time>2020-12-16T10:38:26.000Z</time>
      </trkpt>
      <trkpt lat="47.25553" lon="-1.40923">
        <ele>48</ele>
        <time>2020-12-16T10:38:28.000Z</time>
      </trkpt>
      <trkpt lat="47.25556" lon="-1.40941">
        <ele>49</ele>
        <time>2020-12-16T10:38:30.000Z</time>
      </trkpt>
      <trkpt lat="47.25559" lon="-1.40959">
        <ele>49</ele>
        <time>2020-12-16T10:38:32.000Z</time>
      </trkpt>
      <trkpt lat="47.25562" lon="-1.40977">
        <ele>49</ele>
        <time>2020-12-16T10:38:34.000Z</time>
      </trkpt>
      <trkpt lat="47.25566" lon="-1.40994">
        <ele>49</ele>
        <time>2020-12-16T10:38:36.000Z</time>
      </trkpt>
      <trkpt lat="47.25568" lon="-1.41011">
        <ele>49</ele>
        <time>2020-12-16T10:38:38.000Z</time>
      </trkpt>
      <trkpt lat="47.25562" lon="-1.41032">
        <ele>50</ele>
        <time>2020-12-16T10:38:41.000Z</time>
      </trkpt>
      <trkpt lat="47.25558" lon="-1.41044">
        <ele>50</ele>
        <time>2020-12-16T10:38:43.000Z</time>
      </trkpt>
      <trkpt lat="47.25555" lon="-1.41058">
        <ele>50</ele>
        <time>2020-12-16T10:38:45.000Z</time>
      </trkpt>
      <trkpt lat="47.25554" lon="-1.41075">
        <ele>50</ele>
        <time>2020-12-16T10:38:47.000Z</time>
      </trkpt>
      <trkpt lat="47.25557" lon="-1.41092">
        <ele>50</ele>
        <time>2020-12-16T10:38:49.000Z</time>
      </trkpt>
      <trkpt lat="47.25561" lon="-1.4111">
        <ele>51</ele>
        <time>2020-12-16T10:38:51.000Z</time>
      </trkpt>
      <trkpt lat="47.25562" lon="-1.41141">
        <ele>50</ele>
        <time>2020-12-16T10:38:54.000Z</time>
      </trkpt>
      <trkpt lat="47.25562" lon="-1.41173">
        <ele>50</ele>
        <time>2020-12-16T10:38:57.000Z</time>
      </trkpt>
      <trkpt lat="47.25566" lon="-1.41192">
        <ele>50</ele>
        <time>2020-12-16T10:38:59.000Z</time>
      </trkpt>
      <trkpt lat="47.25569" lon="-1.41208">
        <ele>50</ele>
        <time>2020-12-16T10:39:01.000Z</time>
      </trkpt>
      <trkpt lat="47.25573" lon="-1.41237">
        <ele>50</ele>
        <time>2020-12-16T10:39:04.000Z</time>
      </trkpt>
      <trkpt lat="47.25577" lon="-1.41266">
        <ele>48</ele>
        <time>2020-12-16T10:39:07.000Z</time>
      </trkpt>
      <trkpt lat="47.25578" lon="-1.41285">
        <ele>48</ele>
        <time>2020-12-16T10:39:09.000Z</time>
      </trkpt>
      <trkpt lat="47.25581" lon="-1.41305">
        <ele>48</ele>
        <time>2020-12-16T10:39:11.000Z</time>
      </trkpt>
      <trkpt lat="47.25583" lon="-1.41324">
        <ele>48</ele>
        <time>2020-12-16T10:39:13.000Z</time>
      </trkpt>
      <trkpt lat="47.25586" lon="-1.41344">
        <ele>48</ele>
        <time>2020-12-16T10:39:15.000Z</time>
      </trkpt>
      <trkpt lat="47.25587" lon="-1.41363">
        <ele>49</ele>
        <time>2020-12-16T10:39:17.000Z</time>
      </trkpt>
      <trkpt lat="47.2559" lon="-1.41383">
        <ele>48</ele>
        <time>2020-12-16T10:39:19.000Z</time>
      </trkpt>
      <trkpt lat="47.25594" lon="-1.4141">
        <ele>47</ele>
        <time>2020-12-16T10:39:22.000Z</time>
      </trkpt>
      <trkpt lat="47.25594" lon="-1.41428">
        <ele>48</ele>
        <time>2020-12-16T10:39:24.000Z</time>
      </trkpt>
      <trkpt lat="47.25594" lon="-1.41442">
        <ele>46</ele>
        <time>2020-12-16T10:39:26.000Z</time>
      </trkpt>
      <trkpt lat="47.25599" lon="-1.41464">
        <ele>46</ele>
        <time>2020-12-16T10:39:28.000Z</time>
      </trkpt>
      <trkpt lat="47.25601" lon="-1.41485">
        <ele>47</ele>
        <time>2020-12-16T10:39:30.000Z</time>
      </trkpt>
      <trkpt lat="47.25603" lon="-1.41522">
        <ele>47</ele>
        <time>2020-12-16T10:39:34.000Z</time>
      </trkpt>
      <trkpt lat="47.25604" lon="-1.41539">
        <ele>48</ele>
        <time>2020-12-16T10:39:36.000Z</time>
      </trkpt>
      <trkpt lat="47.25605" lon="-1.41558">
        <ele>47</ele>
        <time>2020-12-16T10:39:38.000Z</time>
      </trkpt>
      <trkpt lat="47.25608" lon="-1.41579">
        <ele>48</ele>
        <time>2020-12-16T10:39:40.000Z</time>
      </trkpt>
      <trkpt lat="47.25615" lon="-1.4162">
        <ele>51</ele>
        <time>2020-12-16T10:39:45.000Z</time>
      </trkpt>
      <trkpt lat="47.25614" lon="-1.41633">
        <ele>49</ele>
        <time>2020-12-16T10:39:46.000Z</time>
      </trkpt>
      <trkpt lat="47.25618" lon="-1.41648">
        <ele>51</ele>
        <time>2020-12-16T10:39:48.000Z</time>
      </trkpt>
      <trkpt lat="47.25619" lon="-1.41668">
        <ele>49</ele>
        <time>2020-12-16T10:39:50.000Z</time>
      </trkpt>
      <trkpt lat="47.25621" lon="-1.41688">
        <ele>48</ele>
        <time>2020-12-16T10:39:52.000Z</time>
      </trkpt>
      <trkpt lat="47.25624" lon="-1.41719">
        <ele>48</ele>
        <time>2020-12-16T10:39:55.000Z</time>
      </trkpt>
      <trkpt lat="47.25626" lon="-1.41738">
        <ele>48</ele>
        <time>2020-12-16T10:39:57.000Z</time>
      </trkpt>
      <trkpt lat="47.25628" lon="-1.41758">
        <ele>48</ele>
        <time>2020-12-16T10:39:59.000Z</time>
      </trkpt>
      <trkpt lat="47.2563" lon="-1.41775">
        <ele>46</ele>
        <time>2020-12-16T10:40:01.000Z</time>
      </trkpt>
      <trkpt lat="47.25631" lon="-1.41794">
        <ele>46</ele>
        <time>2020-12-16T10:40:03.000Z</time>
      </trkpt>
      <trkpt lat="47.25634" lon="-1.41814">
        <ele>47</ele>
        <time>2020-12-16T10:40:05.000Z</time>
      </trkpt>
      <trkpt lat="47.25636" lon="-1.41834">
        <ele>47</ele>
        <time>2020-12-16T10:40:07.000Z</time>
      </trkpt>
      <trkpt lat="47.2564" lon="-1.41866">
        <ele>48</ele>
        <time>2020-12-16T10:40:10.000Z</time>
      </trkpt>
      <trkpt lat="47.25643" lon="-1.41885">
        <ele>48</ele>
        <time>2020-12-16T10:40:12.000Z</time>
      </trkpt>
      <trkpt lat="47.25644" lon="-1.41906">
        <ele>48</ele>
        <time>2020-12-16T10:40:14.000Z</time>
      </trkpt>
      <trkpt lat="47.25645" lon="-1.41925">
        <ele>48</ele>
        <time>2020-12-16T10:40:16.000Z</time>
      </trkpt>
      <trkpt lat="47.25646" lon="-1.41944">
        <ele>48</ele>
        <time>2020-12-16T10:40:18.000Z</time>
      </trkpt>
      <trkpt lat="47.25649" lon="-1.41964">
        <ele>49</ele>
        <time>2020-12-16T10:40:20.000Z</time>
      </trkpt>
      <trkpt lat="47.25653" lon="-1.41983">
        <ele>48</ele>
        <time>2020-12-16T10:40:22.000Z</time>
      </trkpt>
      <trkpt lat="47.25655" lon="-1.42003">
        <ele>49</ele>
        <time>2020-12-16T10:40:24.000Z</time>
      </trkpt>
      <trkpt lat="47.25657" lon="-1.42022">
        <ele>49</ele>
        <time>2020-12-16T10:40:26.000Z</time>
      </trkpt>
      <trkpt lat="47.25659" lon="-1.42042">
        <ele>50</ele>
        <time>2020-12-16T10:40:28.000Z</time>
      </trkpt>
      <trkpt lat="47.25661" lon="-1.42061">
        <ele>50</ele>
        <time>2020-12-16T10:40:30.000Z</time>
      </trkpt>
      <trkpt lat="47.25663" lon="-1.42079">
        <ele>50</ele>
        <time>2020-12-16T10:40:32.000Z</time>
      </trkpt>
      <trkpt lat="47.25666" lon="-1.42097">
        <ele>50</ele>
        <time>2020-12-16T10:40:34.000Z</time>
      </trkpt>
      <trkpt lat="47.25667" lon="-1.42115">
        <ele>50</ele>
        <time>2020-12-16T10:40:36.000Z</time>
      </trkpt>
      <trkpt lat="47.25669" lon="-1.4213">
        <ele>50</ele>
        <time>2020-12-16T10:40:38.000Z</time>
      </trkpt>
      <trkpt lat="47.25668" lon="-1.42145">
        <ele>50</ele>
        <time>2020-12-16T10:40:40.000Z</time>
      </trkpt>
      <trkpt lat="47.25665" lon="-1.42163">
        <ele>50</ele>
        <time>2020-12-16T10:40:42.000Z</time>
      </trkpt>
      <trkpt lat="47.25663" lon="-1.42178">
        <ele>50</ele>
        <time>2020-12-16T10:40:44.000Z</time>
      </trkpt>
      <trkpt lat="47.25671" lon="-1.42211">
        <ele>50</ele>
        <time>2020-12-16T10:40:47.000Z</time>
      </trkpt>
      <trkpt lat="47.25674" lon="-1.42231">
        <ele>50</ele>
        <time>2020-12-16T10:40:49.000Z</time>
      </trkpt>
      <trkpt lat="47.25677" lon="-1.42251">
        <ele>51</ele>
        <time>2020-12-16T10:40:51.000Z</time>
      </trkpt>
      <trkpt lat="47.25679" lon="-1.42271">
        <ele>51</ele>
        <time>2020-12-16T10:40:53.000Z</time>
      </trkpt>
      <trkpt lat="47.25682" lon="-1.4229">
        <ele>52</ele>
        <time>2020-12-16T10:40:55.000Z</time>
      </trkpt>
      <trkpt lat="47.25686" lon="-1.42309">
        <ele>51</ele>
        <time>2020-12-16T10:40:57.000Z</time>
      </trkpt>
      <trkpt lat="47.25687" lon="-1.42325">
        <ele>51</ele>
        <time>2020-12-16T10:40:59.000Z</time>
      </trkpt>
      <trkpt lat="47.25688" lon="-1.42346">
        <ele>50</ele>
        <time>2020-12-16T10:41:01.000Z</time>
      </trkpt>
      <trkpt lat="47.2569" lon="-1.42365">
        <ele>51</ele>
        <time>2020-12-16T10:41:03.000Z</time>
      </trkpt>
      <trkpt lat="47.25693" lon="-1.42386">
        <ele>49</ele>
        <time>2020-12-16T10:41:05.000Z</time>
      </trkpt>
      <trkpt lat="47.25697" lon="-1.42405">
        <ele>49</ele>
        <time>2020-12-16T10:41:07.000Z</time>
      </trkpt>
      <trkpt lat="47.25699" lon="-1.42424">
        <ele>49</ele>
        <time>2020-12-16T10:41:09.000Z</time>
      </trkpt>
      <trkpt lat="47.25701" lon="-1.42444">
        <ele>49</ele>
        <time>2020-12-16T10:41:11.000Z</time>
      </trkpt>
      <trkpt lat="47.25705" lon="-1.42472">
        <ele>49</ele>
        <time>2020-12-16T10:41:14.000Z</time>
      </trkpt>
      <trkpt lat="47.25707" lon="-1.42492">
        <ele>49</ele>
        <time>2020-12-16T10:41:16.000Z</time>
      </trkpt>
      <trkpt lat="47.25709" lon="-1.42511">
        <ele>50</ele>
        <time>2020-12-16T10:41:18.000Z</time>
      </trkpt>
      <trkpt lat="47.2571" lon="-1.42529">
        <ele>50</ele>
        <time>2020-12-16T10:41:20.000Z</time>
      </trkpt>
      <trkpt lat="47.25711" lon="-1.42546">
        <ele>50</ele>
        <time>2020-12-16T10:41:22.000Z</time>
      </trkpt>
      <trkpt lat="47.25713" lon="-1.42564">
        <ele>52</ele>
        <time>2020-12-16T10:41:24.000Z</time>
      </trkpt>
      <trkpt lat="47.25716" lon="-1.42581">
        <ele>53</ele>
        <time>2020-12-16T10:41:26.000Z</time>
      </trkpt>
      <trkpt lat="47.2572" lon="-1.42595">
        <ele>53</ele>
        <time>2020-12-16T10:41:28.000Z</time>
      </trkpt>
      <trkpt lat="47.25726" lon="-1.42606">
        <ele>53</ele>
        <time>2020-12-16T10:41:30.000Z</time>
      </trkpt>
      <trkpt lat="47.25733" lon="-1.42621">
        <ele>54</ele>
        <time>2020-12-16T10:41:32.000Z</time>
      </trkpt>
      <trkpt lat="47.25739" lon="-1.42637">
        <ele>55</ele>
        <time>2020-12-16T10:41:34.000Z</time>
      </trkpt>
      <trkpt lat="47.25746" lon="-1.42653">
        <ele>56</ele>
        <time>2020-12-16T10:41:36.000Z</time>
      </trkpt>
      <trkpt lat="47.25753" lon="-1.42671">
        <ele>56</ele>
        <time>2020-12-16T10:41:38.000Z</time>
      </trkpt>
      <trkpt lat="47.2576" lon="-1.42688">
        <ele>56</ele>
        <time>2020-12-16T10:41:40.000Z</time>
      </trkpt>
      <trkpt lat="47.25767" lon="-1.42706">
        <ele>56</ele>
        <time>2020-12-16T10:41:42.000Z</time>
      </trkpt>
      <trkpt lat="47.25774" lon="-1.42723">
        <ele>56</ele>
        <time>2020-12-16T10:41:44.000Z</time>
      </trkpt>
      <trkpt lat="47.25781" lon="-1.4274">
        <ele>56</ele>
        <time>2020-12-16T10:41:46.000Z</time>
      </trkpt>
      <trkpt lat="47.25788" lon="-1.42757">
        <ele>56</ele>
        <time>2020-12-16T10:41:48.000Z</time>
      </trkpt>
      <trkpt lat="47.25794" lon="-1.42774">
        <ele>56</ele>
        <time>2020-12-16T10:41:50.000Z</time>
      </trkpt>
      <trkpt lat="47.25801" lon="-1.42791">
        <ele>56</ele>
        <time>2020-12-16T10:41:52.000Z</time>
      </trkpt>
      <trkpt lat="47.25808" lon="-1.42808">
        <ele>56</ele>
        <time>2020-12-16T10:41:54.000Z</time>
      </trkpt>
      <trkpt lat="47.25815" lon="-1.42824">
        <ele>57</ele>
        <time>2020-12-16T10:41:56.000Z</time>
      </trkpt>
      <trkpt lat="47.25822" lon="-1.42842">
        <ele>57</ele>
        <time>2020-12-16T10:41:58.000Z</time>
      </trkpt>
      <trkpt lat="47.25832" lon="-1.42867">
        <ele>56</ele>
        <time>2020-12-16T10:42:01.000Z</time>
      </trkpt>
      <trkpt lat="47.25838" lon="-1.42883">
        <ele>57</ele>
        <time>2020-12-16T10:42:03.000Z</time>
      </trkpt>
      <trkpt lat="47.25845" lon="-1.42899">
        <ele>57</ele>
        <time>2020-12-16T10:42:05.000Z</time>
      </trkpt>
      <trkpt lat="47.25851" lon="-1.42915">
        <ele>57</ele>
        <time>2020-12-16T10:42:07.000Z</time>
      </trkpt>
      <trkpt lat="47.25859" lon="-1.42932">
        <ele>57</ele>
        <time>2020-12-16T10:42:09.000Z</time>
      </trkpt>
      <trkpt lat="47.2587" lon="-1.4296">
        <ele>57</ele>
        <time>2020-12-16T10:42:12.000Z</time>
      </trkpt>
      <trkpt lat="47.25878" lon="-1.4298">
        <ele>57</ele>
        <time>2020-12-16T10:42:14.000Z</time>
      </trkpt>
      <trkpt lat="47.25886" lon="-1.43">
        <ele>55</ele>
        <time>2020-12-16T10:42:16.000Z</time>
      </trkpt>
      <trkpt lat="47.25894" lon="-1.4302">
        <ele>55</ele>
        <time>2020-12-16T10:42:18.000Z</time>
      </trkpt>
      <trkpt lat="47.25903" lon="-1.43054">
        <ele>53</ele>
        <time>2020-12-16T10:42:21.000Z</time>
      </trkpt>
      <trkpt lat="47.25912" lon="-1.43072">
        <ele>53</ele>
        <time>2020-12-16T10:42:23.000Z</time>
      </trkpt>
      <trkpt lat="47.25921" lon="-1.4309">
        <ele>53</ele>
        <time>2020-12-16T10:42:25.000Z</time>
      </trkpt>
      <trkpt lat="47.25929" lon="-1.43107">
        <ele>53</ele>
        <time>2020-12-16T10:42:27.000Z</time>
      </trkpt>
      <trkpt lat="47.25938" lon="-1.43124">
        <ele>53</ele>
        <time>2020-12-16T10:42:29.000Z</time>
      </trkpt>
      <trkpt lat="47.25945" lon="-1.43142">
        <ele>53</ele>
        <time>2020-12-16T10:42:31.000Z</time>
      </trkpt>
      <trkpt lat="47.25956" lon="-1.43156">
        <ele>52</ele>
        <time>2020-12-16T10:42:33.000Z</time>
      </trkpt>
      <trkpt lat="47.25966" lon="-1.43168">
        <ele>52</ele>
        <time>2020-12-16T10:42:35.000Z</time>
      </trkpt>
      <trkpt lat="47.25976" lon="-1.43181">
        <ele>53</ele>
        <time>2020-12-16T10:42:37.000Z</time>
      </trkpt>
      <trkpt lat="47.25985" lon="-1.43193">
        <ele>53</ele>
        <time>2020-12-16T10:42:39.000Z</time>
      </trkpt>
      <trkpt lat="47.25994" lon="-1.43205">
        <ele>54</ele>
        <time>2020-12-16T10:42:41.000Z</time>
      </trkpt>
      <trkpt lat="47.26004" lon="-1.43217">
        <ele>53</ele>
        <time>2020-12-16T10:42:43.000Z</time>
      </trkpt>
      <trkpt lat="47.26013" lon="-1.4323">
        <ele>53</ele>
        <time>2020-12-16T10:42:45.000Z</time>
      </trkpt>
      <trkpt lat="47.26022" lon="-1.43244">
        <ele>52</ele>
        <time>2020-12-16T10:42:47.000Z</time>
      </trkpt>
      <trkpt lat="47.26034" lon="-1.43262">
        <ele>52</ele>
        <time>2020-12-16T10:42:50.000Z</time>
      </trkpt>
      <trkpt lat="47.26043" lon="-1.43276">
        <ele>50</ele>
        <time>2020-12-16T10:42:52.000Z</time>
      </trkpt>
      <trkpt lat="47.26052" lon="-1.43291">
        <ele>50</ele>
        <time>2020-12-16T10:42:54.000Z</time>
      </trkpt>
      <trkpt lat="47.26067" lon="-1.43313">
        <ele>52</ele>
        <time>2020-12-16T10:42:57.000Z</time>
      </trkpt>
      <trkpt lat="47.26077" lon="-1.43325">
        <ele>52</ele>
        <time>2020-12-16T10:42:59.000Z</time>
      </trkpt>
      <trkpt lat="47.26087" lon="-1.4334">
        <ele>52</ele>
        <time>2020-12-16T10:43:01.000Z</time>
      </trkpt>
      <trkpt lat="47.26097" lon="-1.43355">
        <ele>53</ele>
        <time>2020-12-16T10:43:03.000Z</time>
      </trkpt>
      <trkpt lat="47.26107" lon="-1.43369">
        <ele>53</ele>
        <time>2020-12-16T10:43:05.000Z</time>
      </trkpt>
      <trkpt lat="47.26122" lon="-1.43388">
        <ele>53</ele>
        <time>2020-12-16T10:43:08.000Z</time>
      </trkpt>
      <trkpt lat="47.26131" lon="-1.43401">
        <ele>53</ele>
        <time>2020-12-16T10:43:10.000Z</time>
      </trkpt>
      <trkpt lat="47.26141" lon="-1.43414">
        <ele>53</ele>
        <time>2020-12-16T10:43:12.000Z</time>
      </trkpt>
      <trkpt lat="47.26151" lon="-1.43428">
        <ele>53</ele>
        <time>2020-12-16T10:43:14.000Z</time>
      </trkpt>
      <trkpt lat="47.26163" lon="-1.43443">
        <ele>50</ele>
        <time>2020-12-16T10:43:16.000Z</time>
      </trkpt>
      <trkpt lat="47.26173" lon="-1.43456">
        <ele>49</ele>
        <time>2020-12-16T10:43:18.000Z</time>
      </trkpt>
      <trkpt lat="47.26181" lon="-1.43468">
        <ele>50</ele>
        <time>2020-12-16T10:43:20.000Z</time>
      </trkpt>
      <trkpt lat="47.26195" lon="-1.4349">
        <ele>48</ele>
        <time>2020-12-16T10:43:23.000Z</time>
      </trkpt>
      <trkpt lat="47.26209" lon="-1.43511">
        <ele>49</ele>
        <time>2020-12-16T10:43:26.000Z</time>
      </trkpt>
      <trkpt lat="47.26218" lon="-1.43526">
        <ele>49</ele>
        <time>2020-12-16T10:43:28.000Z</time>
      </trkpt>
      <trkpt lat="47.26226" lon="-1.4354">
        <ele>49</ele>
        <time>2020-12-16T10:43:30.000Z</time>
      </trkpt>
      <trkpt lat="47.26231" lon="-1.43553">
        <ele>50</ele>
        <time>2020-12-16T10:43:32.000Z</time>
      </trkpt>
      <trkpt lat="47.26228" lon="-1.43566">
        <ele>51</ele>
        <time>2020-12-16T10:43:34.000Z</time>
      </trkpt>
      <trkpt lat="47.2622" lon="-1.43581">
        <ele>51</ele>
        <time>2020-12-16T10:43:36.000Z</time>
      </trkpt>
      <trkpt lat="47.2621" lon="-1.43596">
        <ele>51</ele>
        <time>2020-12-16T10:43:38.000Z</time>
      </trkpt>
      <trkpt lat="47.26198" lon="-1.43611">
        <ele>52</ele>
        <time>2020-12-16T10:43:40.000Z</time>
      </trkpt>
      <trkpt lat="47.26187" lon="-1.43625">
        <ele>51</ele>
        <time>2020-12-16T10:43:42.000Z</time>
      </trkpt>
      <trkpt lat="47.26176" lon="-1.4364">
        <ele>51</ele>
        <time>2020-12-16T10:43:44.000Z</time>
      </trkpt>
      <trkpt lat="47.26165" lon="-1.43656">
        <ele>51</ele>
        <time>2020-12-16T10:43:46.000Z</time>
      </trkpt>
      <trkpt lat="47.26155" lon="-1.43672">
        <ele>50</ele>
        <time>2020-12-16T10:43:48.000Z</time>
      </trkpt>
      <trkpt lat="47.26142" lon="-1.43697">
        <ele>49</ele>
        <time>2020-12-16T10:43:51.000Z</time>
      </trkpt>
      <trkpt lat="47.26135" lon="-1.43714">
        <ele>47</ele>
        <time>2020-12-16T10:43:53.000Z</time>
      </trkpt>
      <trkpt lat="47.26117" lon="-1.43735">
        <ele>48</ele>
        <time>2020-12-16T10:43:56.000Z</time>
      </trkpt>
      <trkpt lat="47.26106" lon="-1.43748">
        <ele>47</ele>
        <time>2020-12-16T10:43:58.000Z</time>
      </trkpt>
      <trkpt lat="47.26094" lon="-1.43765">
        <ele>45</ele>
        <time>2020-12-16T10:44:01.000Z</time>
      </trkpt>
      <trkpt lat="47.26085" lon="-1.43778">
        <ele>45</ele>
        <time>2020-12-16T10:44:03.000Z</time>
      </trkpt>
      <trkpt lat="47.26074" lon="-1.43792">
        <ele>45</ele>
        <time>2020-12-16T10:44:05.000Z</time>
      </trkpt>
      <trkpt lat="47.26064" lon="-1.43807">
        <ele>46</ele>
        <time>2020-12-16T10:44:07.000Z</time>
      </trkpt>
      <trkpt lat="47.26055" lon="-1.43824">
        <ele>48</ele>
        <time>2020-12-16T10:44:09.000Z</time>
      </trkpt>
      <trkpt lat="47.2605" lon="-1.43841">
        <ele>46</ele>
        <time>2020-12-16T10:44:11.000Z</time>
      </trkpt>
      <trkpt lat="47.26038" lon="-1.43863">
        <ele>48</ele>
        <time>2020-12-16T10:44:14.000Z</time>
      </trkpt>
      <trkpt lat="47.26026" lon="-1.43874">
        <ele>49</ele>
        <time>2020-12-16T10:44:16.000Z</time>
      </trkpt>
      <trkpt lat="47.26014" lon="-1.43886">
        <ele>49</ele>
        <time>2020-12-16T10:44:18.000Z</time>
      </trkpt>
      <trkpt lat="47.25998" lon="-1.43903">
        <ele>49</ele>
        <time>2020-12-16T10:44:21.000Z</time>
      </trkpt>
      <trkpt lat="47.25987" lon="-1.43916">
        <ele>48</ele>
        <time>2020-12-16T10:44:23.000Z</time>
      </trkpt>
      <trkpt lat="47.25974" lon="-1.43929">
        <ele>49</ele>
        <time>2020-12-16T10:44:25.000Z</time>
      </trkpt>
      <trkpt lat="47.25963" lon="-1.43942">
        <ele>50</ele>
        <time>2020-12-16T10:44:27.000Z</time>
      </trkpt>
      <trkpt lat="47.25953" lon="-1.43955">
        <ele>46</ele>
        <time>2020-12-16T10:44:29.000Z</time>
      </trkpt>
      <trkpt lat="47.25943" lon="-1.43967">
        <ele>47</ele>
        <time>2020-12-16T10:44:31.000Z</time>
      </trkpt>
      <trkpt lat="47.25933" lon="-1.43979">
        <ele>48</ele>
        <time>2020-12-16T10:44:33.000Z</time>
      </trkpt>
      <trkpt lat="47.25923" lon="-1.43991">
        <ele>48</ele>
        <time>2020-12-16T10:44:35.000Z</time>
      </trkpt>
      <trkpt lat="47.25915" lon="-1.44002">
        <ele>45</ele>
        <time>2020-12-16T10:44:37.000Z</time>
      </trkpt>
      <trkpt lat="47.25896" lon="-1.44022">
        <ele>45</ele>
        <time>2020-12-16T10:44:40.000Z</time>
      </trkpt>
      <trkpt lat="47.25886" lon="-1.44035">
        <ele>45</ele>
        <time>2020-12-16T10:44:42.000Z</time>
      </trkpt>
      <trkpt lat="47.25874" lon="-1.4406">
        <ele>48</ele>
        <time>2020-12-16T10:44:45.000Z</time>
      </trkpt>
      <trkpt lat="47.25868" lon="-1.44077">
        <ele>48</ele>
        <time>2020-12-16T10:44:47.000Z</time>
      </trkpt>
      <trkpt lat="47.25861" lon="-1.44092">
        <ele>48</ele>
        <time>2020-12-16T10:44:49.000Z</time>
      </trkpt>
      <trkpt lat="47.25845" lon="-1.44113">
        <ele>46</ele>
        <time>2020-12-16T10:44:52.000Z</time>
      </trkpt>
      <trkpt lat="47.25835" lon="-1.4412">
        <ele>47</ele>
        <time>2020-12-16T10:44:54.000Z</time>
      </trkpt>
      <trkpt lat="47.25825" lon="-1.44129">
        <ele>46</ele>
        <time>2020-12-16T10:44:56.000Z</time>
      </trkpt>
      <trkpt lat="47.25811" lon="-1.44143">
        <ele>48</ele>
        <time>2020-12-16T10:44:59.000Z</time>
      </trkpt>
      <trkpt lat="47.258" lon="-1.44154">
        <ele>48</ele>
        <time>2020-12-16T10:45:01.000Z</time>
      </trkpt>
      <trkpt lat="47.2579" lon="-1.44166">
        <ele>49</ele>
        <time>2020-12-16T10:45:03.000Z</time>
      </trkpt>
      <trkpt lat="47.2578" lon="-1.44177">
        <ele>49</ele>
        <time>2020-12-16T10:45:05.000Z</time>
      </trkpt>
      <trkpt lat="47.25771" lon="-1.44188">
        <ele>50</ele>
        <time>2020-12-16T10:45:07.000Z</time>
      </trkpt>
      <trkpt lat="47.25762" lon="-1.44197">
        <ele>50</ele>
        <time>2020-12-16T10:45:09.000Z</time>
      </trkpt>
      <trkpt lat="47.25754" lon="-1.44207">
        <ele>49</ele>
        <time>2020-12-16T10:45:11.000Z</time>
      </trkpt>
      <trkpt lat="47.25746" lon="-1.44215">
        <ele>49</ele>
        <time>2020-12-16T10:45:13.000Z</time>
      </trkpt>
      <trkpt lat="47.25739" lon="-1.44223">
        <ele>49</ele>
        <time>2020-12-16T10:45:15.000Z</time>
      </trkpt>
      <trkpt lat="47.25729" lon="-1.44234">
        <ele>50</ele>
        <time>2020-12-16T10:45:18.000Z</time>
      </trkpt>
      <trkpt lat="47.25721" lon="-1.44246">
        <ele>51</ele>
        <time>2020-12-16T10:45:21.000Z</time>
      </trkpt>
      <trkpt lat="47.25714" lon="-1.44259">
        <ele>51</ele>
        <time>2020-12-16T10:45:24.000Z</time>
      </trkpt>
      <trkpt lat="47.25705" lon="-1.44273">
        <ele>52</ele>
        <time>2020-12-16T10:45:27.000Z</time>
      </trkpt>
      <trkpt lat="47.25696" lon="-1.44282">
        <ele>53</ele>
        <time>2020-12-16T10:45:29.000Z</time>
      </trkpt>
      <trkpt lat="47.25687" lon="-1.4429">
        <ele>52</ele>
        <time>2020-12-16T10:45:31.000Z</time>
      </trkpt>
      <trkpt lat="47.25679" lon="-1.44298">
        <ele>53</ele>
        <time>2020-12-16T10:45:33.000Z</time>
      </trkpt>
      <trkpt lat="47.25671" lon="-1.44307">
        <ele>53</ele>
        <time>2020-12-16T10:45:35.000Z</time>
      </trkpt>
      <trkpt lat="47.25661" lon="-1.44319">
        <ele>53</ele>
        <time>2020-12-16T10:45:38.000Z</time>
      </trkpt>
      <trkpt lat="47.25653" lon="-1.44333">
        <ele>53</ele>
        <time>2020-12-16T10:45:41.000Z</time>
      </trkpt>
      <trkpt lat="47.25642" lon="-1.44347">
        <ele>53</ele>
        <time>2020-12-16T10:45:44.000Z</time>
      </trkpt>
      <trkpt lat="47.25634" lon="-1.44358">
        <ele>53</ele>
        <time>2020-12-16T10:45:46.000Z</time>
      </trkpt>
      <trkpt lat="47.25625" lon="-1.44369">
        <ele>53</ele>
        <time>2020-12-16T10:45:48.000Z</time>
      </trkpt>
      <trkpt lat="47.25616" lon="-1.44379">
        <ele>53</ele>
        <time>2020-12-16T10:45:50.000Z</time>
      </trkpt>
      <trkpt lat="47.25606" lon="-1.4439">
        <ele>53</ele>
        <time>2020-12-16T10:45:52.000Z</time>
      </trkpt>
      <trkpt lat="47.25596" lon="-1.44401">
        <ele>53</ele>
        <time>2020-12-16T10:45:54.000Z</time>
      </trkpt>
      <trkpt lat="47.25586" lon="-1.44412">
        <ele>53</ele>
        <time>2020-12-16T10:45:56.000Z</time>
      </trkpt>
      <trkpt lat="47.25577" lon="-1.44424">
        <ele>53</ele>
        <time>2020-12-16T10:45:58.000Z</time>
      </trkpt>
      <trkpt lat="47.25567" lon="-1.44436">
        <ele>53</ele>
        <time>2020-12-16T10:46:00.000Z</time>
      </trkpt>
      <trkpt lat="47.25559" lon="-1.44446">
        <ele>53</ele>
        <time>2020-12-16T10:46:02.000Z</time>
      </trkpt>
      <trkpt lat="47.25551" lon="-1.44461">
        <ele>52</ele>
        <time>2020-12-16T10:46:04.000Z</time>
      </trkpt>
      <trkpt lat="47.25536" lon="-1.44482">
        <ele>52</ele>
        <time>2020-12-16T10:46:07.000Z</time>
      </trkpt>
      <trkpt lat="47.25523" lon="-1.44504">
        <ele>52</ele>
        <time>2020-12-16T10:46:10.000Z</time>
      </trkpt>
      <trkpt lat="47.25514" lon="-1.44517">
        <ele>51</ele>
        <time>2020-12-16T10:46:12.000Z</time>
      </trkpt>
      <trkpt lat="47.25505" lon="-1.4453">
        <ele>51</ele>
        <time>2020-12-16T10:46:14.000Z</time>
      </trkpt>
      <trkpt lat="47.25495" lon="-1.44543">
        <ele>51</ele>
        <time>2020-12-16T10:46:16.000Z</time>
      </trkpt>
      <trkpt lat="47.25484" lon="-1.44556">
        <ele>51</ele>
        <time>2020-12-16T10:46:18.000Z</time>
      </trkpt>
      <trkpt lat="47.25475" lon="-1.4457">
        <ele>51</ele>
        <time>2020-12-16T10:46:20.000Z</time>
      </trkpt>
      <trkpt lat="47.25464" lon="-1.44586">
        <ele>51</ele>
        <time>2020-12-16T10:46:23.000Z</time>
      </trkpt>
      <trkpt lat="47.25456" lon="-1.44601">
        <ele>51</ele>
        <time>2020-12-16T10:46:25.000Z</time>
      </trkpt>
      <trkpt lat="47.25447" lon="-1.44614">
        <ele>51</ele>
        <time>2020-12-16T10:46:27.000Z</time>
      </trkpt>
      <trkpt lat="47.25439" lon="-1.44626">
        <ele>52</ele>
        <time>2020-12-16T10:46:29.000Z</time>
      </trkpt>
      <trkpt lat="47.25431" lon="-1.44636">
        <ele>52</ele>
        <time>2020-12-16T10:46:31.000Z</time>
      </trkpt>
      <trkpt lat="47.25421" lon="-1.4465">
        <ele>51</ele>
        <time>2020-12-16T10:46:33.000Z</time>
      </trkpt>
      <trkpt lat="47.25411" lon="-1.44663">
        <ele>52</ele>
        <time>2020-12-16T10:46:35.000Z</time>
      </trkpt>
      <trkpt lat="47.25395" lon="-1.44681">
        <ele>51</ele>
        <time>2020-12-16T10:46:38.000Z</time>
      </trkpt>
      <trkpt lat="47.25385" lon="-1.44694">
        <ele>51</ele>
        <time>2020-12-16T10:46:40.000Z</time>
      </trkpt>
      <trkpt lat="47.2537" lon="-1.44719">
        <ele>49</ele>
        <time>2020-12-16T10:46:44.000Z</time>
      </trkpt>
      <trkpt lat="47.25355" lon="-1.44735">
        <ele>50</ele>
        <time>2020-12-16T10:46:47.000Z</time>
      </trkpt>
      <trkpt lat="47.25337" lon="-1.4475">
        <ele>49</ele>
        <time>2020-12-16T10:46:50.000Z</time>
      </trkpt>
      <trkpt lat="47.25319" lon="-1.44763">
        <ele>50</ele>
        <time>2020-12-16T10:46:53.000Z</time>
      </trkpt>
      <trkpt lat="47.25309" lon="-1.44773">
        <ele>50</ele>
        <time>2020-12-16T10:46:55.000Z</time>
      </trkpt>
      <trkpt lat="47.25302" lon="-1.44783">
        <ele>50</ele>
        <time>2020-12-16T10:46:57.000Z</time>
      </trkpt>
      <trkpt lat="47.25292" lon="-1.44792">
        <ele>50</ele>
        <time>2020-12-16T10:47:01.000Z</time>
      </trkpt>
      <trkpt lat="47.2528" lon="-1.44809">
        <ele>50</ele>
        <time>2020-12-16T10:47:05.000Z</time>
      </trkpt>
      <trkpt lat="47.2527" lon="-1.4482">
        <ele>50</ele>
        <time>2020-12-16T10:47:07.000Z</time>
      </trkpt>
      <trkpt lat="47.25259" lon="-1.44834">
        <ele>50</ele>
        <time>2020-12-16T10:47:09.000Z</time>
      </trkpt>
      <trkpt lat="47.25246" lon="-1.44847">
        <ele>50</ele>
        <time>2020-12-16T10:47:11.000Z</time>
      </trkpt>
      <trkpt lat="47.25234" lon="-1.44861">
        <ele>50</ele>
        <time>2020-12-16T10:47:13.000Z</time>
      </trkpt>
      <trkpt lat="47.25223" lon="-1.44874">
        <ele>50</ele>
        <time>2020-12-16T10:47:15.000Z</time>
      </trkpt>
      <trkpt lat="47.25205" lon="-1.44891">
        <ele>49</ele>
        <time>2020-12-16T10:47:18.000Z</time>
      </trkpt>
      <trkpt lat="47.25193" lon="-1.44899">
        <ele>48</ele>
        <time>2020-12-16T10:47:20.000Z</time>
      </trkpt>
      <trkpt lat="47.2518" lon="-1.44909">
        <ele>48</ele>
        <time>2020-12-16T10:47:22.000Z</time>
      </trkpt>
      <trkpt lat="47.2516" lon="-1.44927">
        <ele>49</ele>
        <time>2020-12-16T10:47:25.000Z</time>
      </trkpt>
      <trkpt lat="47.25142" lon="-1.44943">
        <ele>50</ele>
        <time>2020-12-16T10:47:28.000Z</time>
      </trkpt>
      <trkpt lat="47.25129" lon="-1.44955">
        <ele>50</ele>
        <time>2020-12-16T10:47:30.000Z</time>
      </trkpt>
      <trkpt lat="47.25117" lon="-1.44966">
        <ele>50</ele>
        <time>2020-12-16T10:47:32.000Z</time>
      </trkpt>
      <trkpt lat="47.25105" lon="-1.44977">
        <ele>50</ele>
        <time>2020-12-16T10:47:34.000Z</time>
      </trkpt>
      <trkpt lat="47.25093" lon="-1.44988">
        <ele>50</ele>
        <time>2020-12-16T10:47:36.000Z</time>
      </trkpt>
      <trkpt lat="47.25081" lon="-1.44998">
        <ele>47</ele>
        <time>2020-12-16T10:47:38.000Z</time>
      </trkpt>
      <trkpt lat="47.25069" lon="-1.45006">
        <ele>46</ele>
        <time>2020-12-16T10:47:40.000Z</time>
      </trkpt>
      <trkpt lat="47.25056" lon="-1.45014">
        <ele>47</ele>
        <time>2020-12-16T10:47:42.000Z</time>
      </trkpt>
      <trkpt lat="47.25045" lon="-1.45024">
        <ele>48</ele>
        <time>2020-12-16T10:47:44.000Z</time>
      </trkpt>
      <trkpt lat="47.25033" lon="-1.45033">
        <ele>48</ele>
        <time>2020-12-16T10:47:46.000Z</time>
      </trkpt>
      <trkpt lat="47.25023" lon="-1.45041">
        <ele>46</ele>
        <time>2020-12-16T10:47:48.000Z</time>
      </trkpt>
      <trkpt lat="47.25014" lon="-1.4505">
        <ele>45</ele>
        <time>2020-12-16T10:47:50.000Z</time>
      </trkpt>
      <trkpt lat="47.24997" lon="-1.45065">
        <ele>45</ele>
        <time>2020-12-16T10:47:53.000Z</time>
      </trkpt>
      <trkpt lat="47.24987" lon="-1.45077">
        <ele>45</ele>
        <time>2020-12-16T10:47:55.000Z</time>
      </trkpt>
      <trkpt lat="47.24973" lon="-1.45095">
        <ele>44</ele>
        <time>2020-12-16T10:47:58.000Z</time>
      </trkpt>
      <trkpt lat="47.24957" lon="-1.45114">
        <ele>42</ele>
        <time>2020-12-16T10:48:01.000Z</time>
      </trkpt>
      <trkpt lat="47.24946" lon="-1.45124">
        <ele>43</ele>
        <time>2020-12-16T10:48:03.000Z</time>
      </trkpt>
      <trkpt lat="47.24933" lon="-1.45131">
        <ele>44</ele>
        <time>2020-12-16T10:48:05.000Z</time>
      </trkpt>
      <trkpt lat="47.24922" lon="-1.45144">
        <ele>44</ele>
        <time>2020-12-16T10:48:07.000Z</time>
      </trkpt>
      <trkpt lat="47.24913" lon="-1.45156">
        <ele>44</ele>
        <time>2020-12-16T10:48:09.000Z</time>
      </trkpt>
      <trkpt lat="47.24903" lon="-1.45169">
        <ele>46</ele>
        <time>2020-12-16T10:48:11.000Z</time>
      </trkpt>
      <trkpt lat="47.24895" lon="-1.45183">
        <ele>46</ele>
        <time>2020-12-16T10:48:13.000Z</time>
      </trkpt>
      <trkpt lat="47.2489" lon="-1.45196">
        <ele>45</ele>
        <time>2020-12-16T10:48:15.000Z</time>
      </trkpt>
      <trkpt lat="47.24883" lon="-1.45208">
        <ele>46</ele>
        <time>2020-12-16T10:48:17.000Z</time>
      </trkpt>
      <trkpt lat="47.24874" lon="-1.45219">
        <ele>46</ele>
        <time>2020-12-16T10:48:19.000Z</time>
      </trkpt>
      <trkpt lat="47.24861" lon="-1.45237">
        <ele>48</ele>
        <time>2020-12-16T10:48:22.000Z</time>
      </trkpt>
      <trkpt lat="47.24853" lon="-1.4525">
        <ele>48</ele>
        <time>2020-12-16T10:48:24.000Z</time>
      </trkpt>
      <trkpt lat="47.24845" lon="-1.45264">
        <ele>48</ele>
        <time>2020-12-16T10:48:26.000Z</time>
      </trkpt>
      <trkpt lat="47.24837" lon="-1.45278">
        <ele>48</ele>
        <time>2020-12-16T10:48:28.000Z</time>
      </trkpt>
      <trkpt lat="47.24826" lon="-1.45299">
        <ele>48</ele>
        <time>2020-12-16T10:48:31.000Z</time>
      </trkpt>
      <trkpt lat="47.2482" lon="-1.45315">
        <ele>48</ele>
        <time>2020-12-16T10:48:33.000Z</time>
      </trkpt>
      <trkpt lat="47.24806" lon="-1.45333">
        <ele>48</ele>
        <time>2020-12-16T10:48:36.000Z</time>
      </trkpt>
      <trkpt lat="47.24793" lon="-1.45354">
        <ele>49</ele>
        <time>2020-12-16T10:48:39.000Z</time>
      </trkpt>
      <trkpt lat="47.24787" lon="-1.45371">
        <ele>50</ele>
        <time>2020-12-16T10:48:41.000Z</time>
      </trkpt>
      <trkpt lat="47.24781" lon="-1.45392">
        <ele>52</ele>
        <time>2020-12-16T10:48:44.000Z</time>
      </trkpt>
      <trkpt lat="47.24775" lon="-1.45406">
        <ele>52</ele>
        <time>2020-12-16T10:48:46.000Z</time>
      </trkpt>
      <trkpt lat="47.24769" lon="-1.45421">
        <ele>53</ele>
        <time>2020-12-16T10:48:48.000Z</time>
      </trkpt>
      <trkpt lat="47.24758" lon="-1.45444">
        <ele>52</ele>
        <time>2020-12-16T10:48:51.000Z</time>
      </trkpt>
      <trkpt lat="47.24752" lon="-1.45462">
        <ele>53</ele>
        <time>2020-12-16T10:48:53.000Z</time>
      </trkpt>
      <trkpt lat="47.24746" lon="-1.45478">
        <ele>52</ele>
        <time>2020-12-16T10:48:55.000Z</time>
      </trkpt>
      <trkpt lat="47.24738" lon="-1.45495">
        <ele>52</ele>
        <time>2020-12-16T10:48:57.000Z</time>
      </trkpt>
      <trkpt lat="47.2473" lon="-1.45513">
        <ele>52</ele>
        <time>2020-12-16T10:48:59.000Z</time>
      </trkpt>
      <trkpt lat="47.24724" lon="-1.45529">
        <ele>52</ele>
        <time>2020-12-16T10:49:01.000Z</time>
      </trkpt>
      <trkpt lat="47.24718" lon="-1.45547">
        <ele>52</ele>
        <time>2020-12-16T10:49:03.000Z</time>
      </trkpt>
      <trkpt lat="47.24711" lon="-1.45565">
        <ele>52</ele>
        <time>2020-12-16T10:49:05.000Z</time>
      </trkpt>
      <trkpt lat="47.24703" lon="-1.4559">
        <ele>52</ele>
        <time>2020-12-16T10:49:08.000Z</time>
      </trkpt>
      <trkpt lat="47.24698" lon="-1.45607">
        <ele>52</ele>
        <time>2020-12-16T10:49:10.000Z</time>
      </trkpt>
      <trkpt lat="47.24692" lon="-1.45624">
        <ele>52</ele>
        <time>2020-12-16T10:49:12.000Z</time>
      </trkpt>
      <trkpt lat="47.24686" lon="-1.45641">
        <ele>53</ele>
        <time>2020-12-16T10:49:14.000Z</time>
      </trkpt>
      <trkpt lat="47.24681" lon="-1.45656">
        <ele>52</ele>
        <time>2020-12-16T10:49:16.000Z</time>
      </trkpt>
      <trkpt lat="47.24675" lon="-1.4568">
        <ele>52</ele>
        <time>2020-12-16T10:49:19.000Z</time>
      </trkpt>
      <trkpt lat="47.2467" lon="-1.45696">
        <ele>50</ele>
        <time>2020-12-16T10:49:21.000Z</time>
      </trkpt>
      <trkpt lat="47.24663" lon="-1.45724">
        <ele>50</ele>
        <time>2020-12-16T10:49:24.000Z</time>
      </trkpt>
      <trkpt lat="47.24659" lon="-1.45743">
        <ele>49</ele>
        <time>2020-12-16T10:49:26.000Z</time>
      </trkpt>
      <trkpt lat="47.24655" lon="-1.45762">
        <ele>49</ele>
        <time>2020-12-16T10:49:28.000Z</time>
      </trkpt>
      <trkpt lat="47.24649" lon="-1.45787">
        <ele>50</ele>
        <time>2020-12-16T10:49:31.000Z</time>
      </trkpt>
      <trkpt lat="47.24644" lon="-1.45805">
        <ele>50</ele>
        <time>2020-12-16T10:49:33.000Z</time>
      </trkpt>
      <trkpt lat="47.24639" lon="-1.45821">
        <ele>50</ele>
        <time>2020-12-16T10:49:35.000Z</time>
      </trkpt>
      <trkpt lat="47.24634" lon="-1.45839">
        <ele>50</ele>
        <time>2020-12-16T10:49:37.000Z</time>
      </trkpt>
      <trkpt lat="47.2463" lon="-1.45856">
        <ele>51</ele>
        <time>2020-12-16T10:49:39.000Z</time>
      </trkpt>
      <trkpt lat="47.24625" lon="-1.45873">
        <ele>51</ele>
        <time>2020-12-16T10:49:41.000Z</time>
      </trkpt>
      <trkpt lat="47.24622" lon="-1.4589">
        <ele>51</ele>
        <time>2020-12-16T10:49:43.000Z</time>
      </trkpt>
      <trkpt lat="47.24616" lon="-1.45906">
        <ele>51</ele>
        <time>2020-12-16T10:49:45.000Z</time>
      </trkpt>
      <trkpt lat="47.2461" lon="-1.45923">
        <ele>51</ele>
        <time>2020-12-16T10:49:47.000Z</time>
      </trkpt>
      <trkpt lat="47.24604" lon="-1.45939">
        <ele>51</ele>
        <time>2020-12-16T10:49:49.000Z</time>
      </trkpt>
      <trkpt lat="47.24596" lon="-1.45954">
        <ele>51</ele>
        <time>2020-12-16T10:49:51.000Z</time>
      </trkpt>
      <trkpt lat="47.2459" lon="-1.45969">
        <ele>51</ele>
        <time>2020-12-16T10:49:53.000Z</time>
      </trkpt>
      <trkpt lat="47.24582" lon="-1.45985">
        <ele>52</ele>
        <time>2020-12-16T10:49:55.000Z</time>
      </trkpt>
      <trkpt lat="47.24575" lon="-1.46001">
        <ele>52</ele>
        <time>2020-12-16T10:49:57.000Z</time>
      </trkpt>
      <trkpt lat="47.24568" lon="-1.46017">
        <ele>52</ele>
        <time>2020-12-16T10:49:59.000Z</time>
      </trkpt>
      <trkpt lat="47.2456" lon="-1.46032">
        <ele>53</ele>
        <time>2020-12-16T10:50:01.000Z</time>
      </trkpt>
      <trkpt lat="47.24552" lon="-1.46048">
        <ele>53</ele>
        <time>2020-12-16T10:50:03.000Z</time>
      </trkpt>
      <trkpt lat="47.24543" lon="-1.46063">
        <ele>52</ele>
        <time>2020-12-16T10:50:05.000Z</time>
      </trkpt>
      <trkpt lat="47.24534" lon="-1.46078">
        <ele>52</ele>
        <time>2020-12-16T10:50:07.000Z</time>
      </trkpt>
      <trkpt lat="47.24522" lon="-1.46101">
        <ele>52</ele>
        <time>2020-12-16T10:50:10.000Z</time>
      </trkpt>
      <trkpt lat="47.24512" lon="-1.46113">
        <ele>52</ele>
        <time>2020-12-16T10:50:12.000Z</time>
      </trkpt>
      <trkpt lat="47.24502" lon="-1.46124">
        <ele>52</ele>
        <time>2020-12-16T10:50:14.000Z</time>
      </trkpt>
      <trkpt lat="47.24492" lon="-1.46137">
        <ele>51</ele>
        <time>2020-12-16T10:50:16.000Z</time>
      </trkpt>
      <trkpt lat="47.24482" lon="-1.4615">
        <ele>51</ele>
        <time>2020-12-16T10:50:18.000Z</time>
      </trkpt>
      <trkpt lat="47.24472" lon="-1.46162">
        <ele>51</ele>
        <time>2020-12-16T10:50:20.000Z</time>
      </trkpt>
      <trkpt lat="47.24464" lon="-1.46173">
        <ele>49</ele>
        <time>2020-12-16T10:50:22.000Z</time>
      </trkpt>
      <trkpt lat="47.24455" lon="-1.46186">
        <ele>48</ele>
        <time>2020-12-16T10:50:24.000Z</time>
      </trkpt>
      <trkpt lat="47.24444" lon="-1.46199">
        <ele>49</ele>
        <time>2020-12-16T10:50:26.000Z</time>
      </trkpt>
      <trkpt lat="47.24434" lon="-1.46212">
        <ele>50</ele>
        <time>2020-12-16T10:50:28.000Z</time>
      </trkpt>
      <trkpt lat="47.24424" lon="-1.46225">
        <ele>50</ele>
        <time>2020-12-16T10:50:30.000Z</time>
      </trkpt>
      <trkpt lat="47.24415" lon="-1.46237">
        <ele>50</ele>
        <time>2020-12-16T10:50:32.000Z</time>
      </trkpt>
      <trkpt lat="47.24406" lon="-1.4625">
        <ele>49</ele>
        <time>2020-12-16T10:50:34.000Z</time>
      </trkpt>
      <trkpt lat="47.24398" lon="-1.4626">
        <ele>50</ele>
        <time>2020-12-16T10:50:36.000Z</time>
      </trkpt>
      <trkpt lat="47.24382" lon="-1.4629">
        <ele>49</ele>
        <time>2020-12-16T10:50:40.000Z</time>
      </trkpt>
      <trkpt lat="47.24373" lon="-1.46302">
        <ele>49</ele>
        <time>2020-12-16T10:50:42.000Z</time>
      </trkpt>
      <trkpt lat="47.24359" lon="-1.4632">
        <ele>48</ele>
        <time>2020-12-16T10:50:45.000Z</time>
      </trkpt>
      <trkpt lat="47.2435" lon="-1.46332">
        <ele>48</ele>
        <time>2020-12-16T10:50:47.000Z</time>
      </trkpt>
      <trkpt lat="47.24339" lon="-1.46353">
        <ele>49</ele>
        <time>2020-12-16T10:50:50.000Z</time>
      </trkpt>
      <trkpt lat="47.2433" lon="-1.46367">
        <ele>49</ele>
        <time>2020-12-16T10:50:52.000Z</time>
      </trkpt>
      <trkpt lat="47.24322" lon="-1.46382">
        <ele>49</ele>
        <time>2020-12-16T10:50:54.000Z</time>
      </trkpt>
      <trkpt lat="47.2431" lon="-1.46403">
        <ele>50</ele>
        <time>2020-12-16T10:50:57.000Z</time>
      </trkpt>
      <trkpt lat="47.24301" lon="-1.46417">
        <ele>50</ele>
        <time>2020-12-16T10:50:59.000Z</time>
      </trkpt>
      <trkpt lat="47.24293" lon="-1.4643">
        <ele>50</ele>
        <time>2020-12-16T10:51:01.000Z</time>
      </trkpt>
      <trkpt lat="47.24284" lon="-1.46443">
        <ele>50</ele>
        <time>2020-12-16T10:51:03.000Z</time>
      </trkpt>
      <trkpt lat="47.24274" lon="-1.46456">
        <ele>51</ele>
        <time>2020-12-16T10:51:05.000Z</time>
      </trkpt>
      <trkpt lat="47.24265" lon="-1.46468">
        <ele>51</ele>
        <time>2020-12-16T10:51:07.000Z</time>
      </trkpt>
      <trkpt lat="47.24255" lon="-1.4648">
        <ele>51</ele>
        <time>2020-12-16T10:51:09.000Z</time>
      </trkpt>
      <trkpt lat="47.24246" lon="-1.46493">
        <ele>51</ele>
        <time>2020-12-16T10:51:11.000Z</time>
      </trkpt>
      <trkpt lat="47.24236" lon="-1.46506">
        <ele>52</ele>
        <time>2020-12-16T10:51:13.000Z</time>
      </trkpt>
      <trkpt lat="47.24226" lon="-1.46518">
        <ele>52</ele>
        <time>2020-12-16T10:51:15.000Z</time>
      </trkpt>
      <trkpt lat="47.24217" lon="-1.46529">
        <ele>52</ele>
        <time>2020-12-16T10:51:17.000Z</time>
      </trkpt>
      <trkpt lat="47.24207" lon="-1.46541">
        <ele>52</ele>
        <time>2020-12-16T10:51:19.000Z</time>
      </trkpt>
      <trkpt lat="47.24199" lon="-1.46553">
        <ele>52</ele>
        <time>2020-12-16T10:51:21.000Z</time>
      </trkpt>
      <trkpt lat="47.2419" lon="-1.46565">
        <ele>52</ele>
        <time>2020-12-16T10:51:23.000Z</time>
      </trkpt>
      <trkpt lat="47.2418" lon="-1.46577">
        <ele>52</ele>
        <time>2020-12-16T10:51:25.000Z</time>
      </trkpt>
      <trkpt lat="47.24169" lon="-1.4659">
        <ele>53</ele>
        <time>2020-12-16T10:51:27.000Z</time>
      </trkpt>
      <trkpt lat="47.2416" lon="-1.46601">
        <ele>53</ele>
        <time>2020-12-16T10:51:29.000Z</time>
      </trkpt>
      <trkpt lat="47.24151" lon="-1.46614">
        <ele>51</ele>
        <time>2020-12-16T10:51:31.000Z</time>
      </trkpt>
      <trkpt lat="47.24142" lon="-1.46628">
        <ele>51</ele>
        <time>2020-12-16T10:51:33.000Z</time>
      </trkpt>
      <trkpt lat="47.24133" lon="-1.46637">
        <ele>51</ele>
        <time>2020-12-16T10:51:35.000Z</time>
      </trkpt>
      <trkpt lat="47.24125" lon="-1.46649">
        <ele>52</ele>
        <time>2020-12-16T10:51:37.000Z</time>
      </trkpt>
      <trkpt lat="47.24118" lon="-1.46658">
        <ele>51</ele>
        <time>2020-12-16T10:51:39.000Z</time>
      </trkpt>
      <trkpt lat="47.24108" lon="-1.46676">
        <ele>50</ele>
        <time>2020-12-16T10:51:42.000Z</time>
      </trkpt>
      <trkpt lat="47.24098" lon="-1.4669">
        <ele>50</ele>
        <time>2020-12-16T10:51:44.000Z</time>
      </trkpt>
      <trkpt lat="47.2409" lon="-1.46702">
        <ele>51</ele>
        <time>2020-12-16T10:51:46.000Z</time>
      </trkpt>
      <trkpt lat="47.24083" lon="-1.46716">
        <ele>50</ele>
        <time>2020-12-16T10:51:48.000Z</time>
      </trkpt>
      <trkpt lat="47.24077" lon="-1.46731">
        <ele>50</ele>
        <time>2020-12-16T10:51:50.000Z</time>
      </trkpt>
      <trkpt lat="47.24066" lon="-1.46742">
        <ele>51</ele>
        <time>2020-12-16T10:51:52.000Z</time>
      </trkpt>
      <trkpt lat="47.24055" lon="-1.46748">
        <ele>51</ele>
        <time>2020-12-16T10:51:54.000Z</time>
      </trkpt>
      <trkpt lat="47.24045" lon="-1.46755">
        <ele>51</ele>
        <time>2020-12-16T10:51:56.000Z</time>
      </trkpt>
      <trkpt lat="47.24035" lon="-1.46765">
        <ele>51</ele>
        <time>2020-12-16T10:51:58.000Z</time>
      </trkpt>
      <trkpt lat="47.24026" lon="-1.46777">
        <ele>52</ele>
        <time>2020-12-16T10:52:00.000Z</time>
      </trkpt>
      <trkpt lat="47.24012" lon="-1.46796">
        <ele>52</ele>
        <time>2020-12-16T10:52:03.000Z</time>
      </trkpt>
      <trkpt lat="47.24002" lon="-1.46807">
        <ele>52</ele>
        <time>2020-12-16T10:52:05.000Z</time>
      </trkpt>
      <trkpt lat="47.23992" lon="-1.46818">
        <ele>52</ele>
        <time>2020-12-16T10:52:07.000Z</time>
      </trkpt>
      <trkpt lat="47.23982" lon="-1.46829">
        <ele>52</ele>
        <time>2020-12-16T10:52:09.000Z</time>
      </trkpt>
      <trkpt lat="47.23972" lon="-1.46838">
        <ele>51</ele>
        <time>2020-12-16T10:52:11.000Z</time>
      </trkpt>
      <trkpt lat="47.23961" lon="-1.46846">
        <ele>51</ele>
        <time>2020-12-16T10:52:13.000Z</time>
      </trkpt>
      <trkpt lat="47.23953" lon="-1.46857">
        <ele>50</ele>
        <time>2020-12-16T10:52:15.000Z</time>
      </trkpt>
      <trkpt lat="47.23945" lon="-1.46865">
        <ele>49</ele>
        <time>2020-12-16T10:52:17.000Z</time>
      </trkpt>
      <trkpt lat="47.23926" lon="-1.46881">
        <ele>48</ele>
        <time>2020-12-16T10:52:21.000Z</time>
      </trkpt>
      <trkpt lat="47.23917" lon="-1.46893">
        <ele>49</ele>
        <time>2020-12-16T10:52:23.000Z</time>
      </trkpt>
      <trkpt lat="47.23909" lon="-1.46906">
        <ele>48</ele>
        <time>2020-12-16T10:52:25.000Z</time>
      </trkpt>
      <trkpt lat="47.23905" lon="-1.4692">
        <ele>45</ele>
        <time>2020-12-16T10:52:27.000Z</time>
      </trkpt>
      <trkpt lat="47.23896" lon="-1.4693">
        <ele>44</ele>
        <time>2020-12-16T10:52:29.000Z</time>
      </trkpt>
      <trkpt lat="47.23879" lon="-1.46946">
        <ele>45</ele>
        <time>2020-12-16T10:52:32.000Z</time>
      </trkpt>
      <trkpt lat="47.23868" lon="-1.46958">
        <ele>46</ele>
        <time>2020-12-16T10:52:34.000Z</time>
      </trkpt>
      <trkpt lat="47.23858" lon="-1.46971">
        <ele>47</ele>
        <time>2020-12-16T10:52:36.000Z</time>
      </trkpt>
      <trkpt lat="47.23849" lon="-1.46983">
        <ele>48</ele>
        <time>2020-12-16T10:52:38.000Z</time>
      </trkpt>
      <trkpt lat="47.23842" lon="-1.46997">
        <ele>48</ele>
        <time>2020-12-16T10:52:40.000Z</time>
      </trkpt>
      <trkpt lat="47.23834" lon="-1.4701">
        <ele>48</ele>
        <time>2020-12-16T10:52:42.000Z</time>
      </trkpt>
      <trkpt lat="47.23823" lon="-1.47022">
        <ele>48</ele>
        <time>2020-12-16T10:52:44.000Z</time>
      </trkpt>
      <trkpt lat="47.23814" lon="-1.47035">
        <ele>49</ele>
        <time>2020-12-16T10:52:46.000Z</time>
      </trkpt>
      <trkpt lat="47.23805" lon="-1.47047">
        <ele>50</ele>
        <time>2020-12-16T10:52:48.000Z</time>
      </trkpt>
      <trkpt lat="47.23796" lon="-1.4706">
        <ele>51</ele>
        <time>2020-12-16T10:52:50.000Z</time>
      </trkpt>
      <trkpt lat="47.23787" lon="-1.47072">
        <ele>51</ele>
        <time>2020-12-16T10:52:52.000Z</time>
      </trkpt>
      <trkpt lat="47.23778" lon="-1.47084">
        <ele>51</ele>
        <time>2020-12-16T10:52:54.000Z</time>
      </trkpt>
      <trkpt lat="47.2377" lon="-1.47096">
        <ele>51</ele>
        <time>2020-12-16T10:52:56.000Z</time>
      </trkpt>
      <trkpt lat="47.23762" lon="-1.47107">
        <ele>52</ele>
        <time>2020-12-16T10:52:58.000Z</time>
      </trkpt>
      <trkpt lat="47.23754" lon="-1.47118">
        <ele>52</ele>
        <time>2020-12-16T10:53:00.000Z</time>
      </trkpt>
      <trkpt lat="47.23745" lon="-1.47129">
        <ele>52</ele>
        <time>2020-12-16T10:53:02.000Z</time>
      </trkpt>
      <trkpt lat="47.23735" lon="-1.47139">
        <ele>52</ele>
        <time>2020-12-16T10:53:04.000Z</time>
      </trkpt>
      <trkpt lat="47.23725" lon="-1.4715">
        <ele>53</ele>
        <time>2020-12-16T10:53:06.000Z</time>
      </trkpt>
      <trkpt lat="47.23716" lon="-1.47162">
        <ele>53</ele>
        <time>2020-12-16T10:53:08.000Z</time>
      </trkpt>
      <trkpt lat="47.23707" lon="-1.47174">
        <ele>53</ele>
        <time>2020-12-16T10:53:10.000Z</time>
      </trkpt>
      <trkpt lat="47.23699" lon="-1.47186">
        <ele>52</ele>
        <time>2020-12-16T10:53:12.000Z</time>
      </trkpt>
      <trkpt lat="47.23691" lon="-1.47198">
        <ele>52</ele>
        <time>2020-12-16T10:53:14.000Z</time>
      </trkpt>
      <trkpt lat="47.23681" lon="-1.47218">
        <ele>52</ele>
        <time>2020-12-16T10:53:17.000Z</time>
      </trkpt>
      <trkpt lat="47.23666" lon="-1.47234">
        <ele>52</ele>
        <time>2020-12-16T10:53:20.000Z</time>
      </trkpt>
      <trkpt lat="47.23656" lon="-1.47245">
        <ele>52</ele>
        <time>2020-12-16T10:53:22.000Z</time>
      </trkpt>
      <trkpt lat="47.23647" lon="-1.47256">
        <ele>51</ele>
        <time>2020-12-16T10:53:24.000Z</time>
      </trkpt>
      <trkpt lat="47.23633" lon="-1.47273">
        <ele>52</ele>
        <time>2020-12-16T10:53:27.000Z</time>
      </trkpt>
      <trkpt lat="47.23624" lon="-1.47283">
        <ele>51</ele>
        <time>2020-12-16T10:53:29.000Z</time>
      </trkpt>
      <trkpt lat="47.23614" lon="-1.47294">
        <ele>51</ele>
        <time>2020-12-16T10:53:31.000Z</time>
      </trkpt>
      <trkpt lat="47.23604" lon="-1.47305">
        <ele>51</ele>
        <time>2020-12-16T10:53:33.000Z</time>
      </trkpt>
      <trkpt lat="47.23594" lon="-1.47314">
        <ele>51</ele>
        <time>2020-12-16T10:53:35.000Z</time>
      </trkpt>
      <trkpt lat="47.23583" lon="-1.47325">
        <ele>52</ele>
        <time>2020-12-16T10:53:37.000Z</time>
      </trkpt>
      <trkpt lat="47.23573" lon="-1.47333">
        <ele>51</ele>
        <time>2020-12-16T10:53:39.000Z</time>
      </trkpt>
      <trkpt lat="47.23562" lon="-1.47341">
        <ele>51</ele>
        <time>2020-12-16T10:53:41.000Z</time>
      </trkpt>
      <trkpt lat="47.23551" lon="-1.4735">
        <ele>51</ele>
        <time>2020-12-16T10:53:43.000Z</time>
      </trkpt>
      <trkpt lat="47.23529" lon="-1.47365">
        <ele>52</ele>
        <time>2020-12-16T10:53:47.000Z</time>
      </trkpt>
      <trkpt lat="47.2352" lon="-1.47374">
        <ele>51</ele>
        <time>2020-12-16T10:53:49.000Z</time>
      </trkpt>
      <trkpt lat="47.23509" lon="-1.47385">
        <ele>51</ele>
        <time>2020-12-16T10:53:51.000Z</time>
      </trkpt>
      <trkpt lat="47.235" lon="-1.47392">
        <ele>51</ele>
        <time>2020-12-16T10:53:53.000Z</time>
      </trkpt>
      <trkpt lat="47.23491" lon="-1.474">
        <ele>51</ele>
        <time>2020-12-16T10:53:55.000Z</time>
      </trkpt>
      <trkpt lat="47.2348" lon="-1.47406">
        <ele>51</ele>
        <time>2020-12-16T10:53:57.000Z</time>
      </trkpt>
      <trkpt lat="47.2347" lon="-1.47409">
        <ele>51</ele>
        <time>2020-12-16T10:53:59.000Z</time>
      </trkpt>
      <trkpt lat="47.23458" lon="-1.47414">
        <ele>51</ele>
        <time>2020-12-16T10:54:01.000Z</time>
      </trkpt>
      <trkpt lat="47.23446" lon="-1.47418">
        <ele>51</ele>
        <time>2020-12-16T10:54:03.000Z</time>
      </trkpt>
      <trkpt lat="47.23435" lon="-1.47422">
        <ele>51</ele>
        <time>2020-12-16T10:54:05.000Z</time>
      </trkpt>
      <trkpt lat="47.23426" lon="-1.47429">
        <ele>49</ele>
        <time>2020-12-16T10:54:07.000Z</time>
      </trkpt>
      <trkpt lat="47.23415" lon="-1.47435">
        <ele>49</ele>
        <time>2020-12-16T10:54:09.000Z</time>
      </trkpt>
      <trkpt lat="47.23404" lon="-1.47445">
        <ele>50</ele>
        <time>2020-12-16T10:54:11.000Z</time>
      </trkpt>
      <trkpt lat="47.23393" lon="-1.47452">
        <ele>51</ele>
        <time>2020-12-16T10:54:13.000Z</time>
      </trkpt>
      <trkpt lat="47.23382" lon="-1.4746">
        <ele>51</ele>
        <time>2020-12-16T10:54:15.000Z</time>
      </trkpt>
      <trkpt lat="47.23371" lon="-1.47465">
        <ele>52</ele>
        <time>2020-12-16T10:54:17.000Z</time>
      </trkpt>
      <trkpt lat="47.23359" lon="-1.4747">
        <ele>51</ele>
        <time>2020-12-16T10:54:19.000Z</time>
      </trkpt>
      <trkpt lat="47.23347" lon="-1.47474">
        <ele>51</ele>
        <time>2020-12-16T10:54:21.000Z</time>
      </trkpt>
      <trkpt lat="47.23336" lon="-1.47481">
        <ele>51</ele>
        <time>2020-12-16T10:54:23.000Z</time>
      </trkpt>
      <trkpt lat="47.23327" lon="-1.47489">
        <ele>51</ele>
        <time>2020-12-16T10:54:25.000Z</time>
      </trkpt>
      <trkpt lat="47.2331" lon="-1.47503">
        <ele>49</ele>
        <time>2020-12-16T10:54:28.000Z</time>
      </trkpt>
      <trkpt lat="47.23296" lon="-1.47509">
        <ele>47</ele>
        <time>2020-12-16T10:54:30.000Z</time>
      </trkpt>
      <trkpt lat="47.23286" lon="-1.47511">
        <ele>45</ele>
        <time>2020-12-16T10:54:32.000Z</time>
      </trkpt>
      <trkpt lat="47.23273" lon="-1.47526">
        <ele>42</ele>
        <time>2020-12-16T10:54:35.000Z</time>
      </trkpt>
      <trkpt lat="47.23265" lon="-1.47536">
        <ele>44</ele>
        <time>2020-12-16T10:54:37.000Z</time>
      </trkpt>
      <trkpt lat="47.23255" lon="-1.47548">
        <ele>45</ele>
        <time>2020-12-16T10:54:39.000Z</time>
      </trkpt>
      <trkpt lat="47.23249" lon="-1.47561">
        <ele>44</ele>
        <time>2020-12-16T10:54:41.000Z</time>
      </trkpt>
      <trkpt lat="47.23242" lon="-1.47573">
        <ele>46</ele>
        <time>2020-12-16T10:54:43.000Z</time>
      </trkpt>
      <trkpt lat="47.23229" lon="-1.47594">
        <ele>47</ele>
        <time>2020-12-16T10:54:46.000Z</time>
      </trkpt>
      <trkpt lat="47.23221" lon="-1.4761">
        <ele>48</ele>
        <time>2020-12-16T10:54:48.000Z</time>
      </trkpt>
      <trkpt lat="47.23214" lon="-1.47625">
        <ele>49</ele>
        <time>2020-12-16T10:54:50.000Z</time>
      </trkpt>
      <trkpt lat="47.23209" lon="-1.4764">
        <ele>49</ele>
        <time>2020-12-16T10:54:52.000Z</time>
      </trkpt>
      <trkpt lat="47.23203" lon="-1.47655">
        <ele>49</ele>
        <time>2020-12-16T10:54:54.000Z</time>
      </trkpt>
      <trkpt lat="47.23197" lon="-1.47669">
        <ele>48</ele>
        <time>2020-12-16T10:54:56.000Z</time>
      </trkpt>
      <trkpt lat="47.23191" lon="-1.47685">
        <ele>48</ele>
        <time>2020-12-16T10:54:58.000Z</time>
      </trkpt>
      <trkpt lat="47.23182" lon="-1.477">
        <ele>48</ele>
        <time>2020-12-16T10:55:00.000Z</time>
      </trkpt>
      <trkpt lat="47.23173" lon="-1.47716">
        <ele>48</ele>
        <time>2020-12-16T10:55:02.000Z</time>
      </trkpt>
      <trkpt lat="47.23166" lon="-1.47733">
        <ele>49</ele>
        <time>2020-12-16T10:55:04.000Z</time>
      </trkpt>
      <trkpt lat="47.23162" lon="-1.47748">
        <ele>50</ele>
        <time>2020-12-16T10:55:06.000Z</time>
      </trkpt>
      <trkpt lat="47.23155" lon="-1.47762">
        <ele>50</ele>
        <time>2020-12-16T10:55:08.000Z</time>
      </trkpt>
      <trkpt lat="47.23149" lon="-1.47777">
        <ele>50</ele>
        <time>2020-12-16T10:55:10.000Z</time>
      </trkpt>
      <trkpt lat="47.23143" lon="-1.47792">
        <ele>50</ele>
        <time>2020-12-16T10:55:12.000Z</time>
      </trkpt>
      <trkpt lat="47.23138" lon="-1.47807">
        <ele>50</ele>
        <time>2020-12-16T10:55:14.000Z</time>
      </trkpt>
      <trkpt lat="47.23133" lon="-1.47822">
        <ele>50</ele>
        <time>2020-12-16T10:55:16.000Z</time>
      </trkpt>
      <trkpt lat="47.23124" lon="-1.47845">
        <ele>49</ele>
        <time>2020-12-16T10:55:19.000Z</time>
      </trkpt>
      <trkpt lat="47.23117" lon="-1.4786">
        <ele>50</ele>
        <time>2020-12-16T10:55:21.000Z</time>
      </trkpt>
      <trkpt lat="47.23108" lon="-1.47873">
        <ele>49</ele>
        <time>2020-12-16T10:55:23.000Z</time>
      </trkpt>
      <trkpt lat="47.23098" lon="-1.47886">
        <ele>50</ele>
        <time>2020-12-16T10:55:25.000Z</time>
      </trkpt>
      <trkpt lat="47.23088" lon="-1.47899">
        <ele>50</ele>
        <time>2020-12-16T10:55:27.000Z</time>
      </trkpt>
      <trkpt lat="47.23074" lon="-1.47917">
        <ele>50</ele>
        <time>2020-12-16T10:55:30.000Z</time>
      </trkpt>
      <trkpt lat="47.23065" lon="-1.47929">
        <ele>49</ele>
        <time>2020-12-16T10:55:32.000Z</time>
      </trkpt>
      <trkpt lat="47.23056" lon="-1.4794">
        <ele>49</ele>
        <time>2020-12-16T10:55:34.000Z</time>
      </trkpt>
      <trkpt lat="47.23046" lon="-1.47952">
        <ele>49</ele>
        <time>2020-12-16T10:55:36.000Z</time>
      </trkpt>
      <trkpt lat="47.23037" lon="-1.47965">
        <ele>49</ele>
        <time>2020-12-16T10:55:38.000Z</time>
      </trkpt>
      <trkpt lat="47.23028" lon="-1.47976">
        <ele>49</ele>
        <time>2020-12-16T10:55:40.000Z</time>
      </trkpt>
      <trkpt lat="47.2302" lon="-1.47988">
        <ele>49</ele>
        <time>2020-12-16T10:55:42.000Z</time>
      </trkpt>
      <trkpt lat="47.23012" lon="-1.48001">
        <ele>49</ele>
        <time>2020-12-16T10:55:44.000Z</time>
      </trkpt>
      <trkpt lat="47.23004" lon="-1.48014">
        <ele>49</ele>
        <time>2020-12-16T10:55:46.000Z</time>
      </trkpt>
      <trkpt lat="47.22996" lon="-1.48027">
        <ele>49</ele>
        <time>2020-12-16T10:55:48.000Z</time>
      </trkpt>
      <trkpt lat="47.22989" lon="-1.4804">
        <ele>49</ele>
        <time>2020-12-16T10:55:50.000Z</time>
      </trkpt>
      <trkpt lat="47.22977" lon="-1.4806">
        <ele>50</ele>
        <time>2020-12-16T10:55:53.000Z</time>
      </trkpt>
      <trkpt lat="47.2297" lon="-1.48073">
        <ele>50</ele>
        <time>2020-12-16T10:55:55.000Z</time>
      </trkpt>
      <trkpt lat="47.22961" lon="-1.48088">
        <ele>51</ele>
        <time>2020-12-16T10:55:58.000Z</time>
      </trkpt>
      <trkpt lat="47.22955" lon="-1.48099">
        <ele>51</ele>
        <time>2020-12-16T10:56:00.000Z</time>
      </trkpt>
      <trkpt lat="47.2294" lon="-1.48109">
        <ele>50</ele>
        <time>2020-12-16T10:56:03.000Z</time>
      </trkpt>
      <trkpt lat="47.22928" lon="-1.48112">
        <ele>50</ele>
        <time>2020-12-16T10:56:05.000Z</time>
      </trkpt>
      <trkpt lat="47.22909" lon="-1.48119">
        <ele>48</ele>
        <time>2020-12-16T10:56:08.000Z</time>
      </trkpt>
      <trkpt lat="47.22899" lon="-1.48128">
        <ele>47</ele>
        <time>2020-12-16T10:56:10.000Z</time>
      </trkpt>
      <trkpt lat="47.22889" lon="-1.48139">
        <ele>47</ele>
        <time>2020-12-16T10:56:12.000Z</time>
      </trkpt>
      <trkpt lat="47.22881" lon="-1.48152">
        <ele>49</ele>
        <time>2020-12-16T10:56:14.000Z</time>
      </trkpt>
      <trkpt lat="47.22873" lon="-1.48166">
        <ele>49</ele>
        <time>2020-12-16T10:56:16.000Z</time>
      </trkpt>
      <trkpt lat="47.22865" lon="-1.48179">
        <ele>50</ele>
        <time>2020-12-16T10:56:18.000Z</time>
      </trkpt>
      <trkpt lat="47.2286" lon="-1.48191">
        <ele>48</ele>
        <time>2020-12-16T10:56:20.000Z</time>
      </trkpt>
      <trkpt lat="47.2285" lon="-1.48205">
        <ele>49</ele>
        <time>2020-12-16T10:56:22.000Z</time>
      </trkpt>
      <trkpt lat="47.22841" lon="-1.48219">
        <ele>49</ele>
        <time>2020-12-16T10:56:24.000Z</time>
      </trkpt>
      <trkpt lat="47.22833" lon="-1.48232">
        <ele>48</ele>
        <time>2020-12-16T10:56:26.000Z</time>
      </trkpt>
      <trkpt lat="47.22822" lon="-1.48249">
        <ele>48</ele>
        <time>2020-12-16T10:56:29.000Z</time>
      </trkpt>
      <trkpt lat="47.22813" lon="-1.48263">
        <ele>49</ele>
        <time>2020-12-16T10:56:31.000Z</time>
      </trkpt>
      <trkpt lat="47.22805" lon="-1.48276">
        <ele>49</ele>
        <time>2020-12-16T10:56:33.000Z</time>
      </trkpt>
      <trkpt lat="47.22791" lon="-1.48295">
        <ele>46</ele>
        <time>2020-12-16T10:56:36.000Z</time>
      </trkpt>
      <trkpt lat="47.22778" lon="-1.48317">
        <ele>46</ele>
        <time>2020-12-16T10:56:39.000Z</time>
      </trkpt>
      <trkpt lat="47.22768" lon="-1.4833">
        <ele>48</ele>
        <time>2020-12-16T10:56:41.000Z</time>
      </trkpt>
      <trkpt lat="47.22754" lon="-1.48349">
        <ele>48</ele>
        <time>2020-12-16T10:56:44.000Z</time>
      </trkpt>
      <trkpt lat="47.22745" lon="-1.48362">
        <ele>48</ele>
        <time>2020-12-16T10:56:46.000Z</time>
      </trkpt>
      <trkpt lat="47.22736" lon="-1.48375">
        <ele>49</ele>
        <time>2020-12-16T10:56:48.000Z</time>
      </trkpt>
      <trkpt lat="47.22726" lon="-1.48388">
        <ele>49</ele>
        <time>2020-12-16T10:56:50.000Z</time>
      </trkpt>
      <trkpt lat="47.22717" lon="-1.484">
        <ele>50</ele>
        <time>2020-12-16T10:56:52.000Z</time>
      </trkpt>
      <trkpt lat="47.22709" lon="-1.48413">
        <ele>50</ele>
        <time>2020-12-16T10:56:54.000Z</time>
      </trkpt>
      <trkpt lat="47.22702" lon="-1.48429">
        <ele>50</ele>
        <time>2020-12-16T10:56:56.000Z</time>
      </trkpt>
      <trkpt lat="47.22696" lon="-1.48446">
        <ele>50</ele>
        <time>2020-12-16T10:56:58.000Z</time>
      </trkpt>
      <trkpt lat="47.2269" lon="-1.48463">
        <ele>49</ele>
        <time>2020-12-16T10:57:00.000Z</time>
      </trkpt>
      <trkpt lat="47.22682" lon="-1.48479">
        <ele>49</ele>
        <time>2020-12-16T10:57:02.000Z</time>
      </trkpt>
      <trkpt lat="47.22675" lon="-1.48494">
        <ele>49</ele>
        <time>2020-12-16T10:57:04.000Z</time>
      </trkpt>
      <trkpt lat="47.2267" lon="-1.48509">
        <ele>49</ele>
        <time>2020-12-16T10:57:06.000Z</time>
      </trkpt>
      <trkpt lat="47.22665" lon="-1.48526">
        <ele>49</ele>
        <time>2020-12-16T10:57:08.000Z</time>
      </trkpt>
      <trkpt lat="47.22661" lon="-1.48541">
        <ele>48</ele>
        <time>2020-12-16T10:57:10.000Z</time>
      </trkpt>
      <trkpt lat="47.22655" lon="-1.48559">
        <ele>48</ele>
        <time>2020-12-16T10:57:12.000Z</time>
      </trkpt>
      <trkpt lat="47.22645" lon="-1.48582">
        <ele>45</ele>
        <time>2020-12-16T10:57:15.000Z</time>
      </trkpt>
      <trkpt lat="47.2264" lon="-1.48597">
        <ele>45</ele>
        <time>2020-12-16T10:57:17.000Z</time>
      </trkpt>
      <trkpt lat="47.22634" lon="-1.48611">
        <ele>45</ele>
        <time>2020-12-16T10:57:19.000Z</time>
      </trkpt>
      <trkpt lat="47.2263" lon="-1.48626">
        <ele>45</ele>
        <time>2020-12-16T10:57:21.000Z</time>
      </trkpt>
      <trkpt lat="47.22624" lon="-1.48643">
        <ele>45</ele>
        <time>2020-12-16T10:57:23.000Z</time>
      </trkpt>
      <trkpt lat="47.22619" lon="-1.4866">
        <ele>46</ele>
        <time>2020-12-16T10:57:25.000Z</time>
      </trkpt>
      <trkpt lat="47.22613" lon="-1.48677">
        <ele>47</ele>
        <time>2020-12-16T10:57:27.000Z</time>
      </trkpt>
      <trkpt lat="47.22608" lon="-1.48694">
        <ele>48</ele>
        <time>2020-12-16T10:57:29.000Z</time>
      </trkpt>
      <trkpt lat="47.22603" lon="-1.48711">
        <ele>48</ele>
        <time>2020-12-16T10:57:31.000Z</time>
      </trkpt>
      <trkpt lat="47.22596" lon="-1.48728">
        <ele>48</ele>
        <time>2020-12-16T10:57:33.000Z</time>
      </trkpt>
      <trkpt lat="47.2259" lon="-1.48746">
        <ele>49</ele>
        <time>2020-12-16T10:57:35.000Z</time>
      </trkpt>
      <trkpt lat="47.22587" lon="-1.48763">
        <ele>49</ele>
        <time>2020-12-16T10:57:37.000Z</time>
      </trkpt>
      <trkpt lat="47.22583" lon="-1.48779">
        <ele>49</ele>
        <time>2020-12-16T10:57:39.000Z</time>
      </trkpt>
      <trkpt lat="47.2258" lon="-1.48796">
        <ele>50</ele>
        <time>2020-12-16T10:57:41.000Z</time>
      </trkpt>
      <trkpt lat="47.22572" lon="-1.48815">
        <ele>50</ele>
        <time>2020-12-16T10:57:44.000Z</time>
      </trkpt>
      <trkpt lat="47.22566" lon="-1.48829">
        <ele>50</ele>
        <time>2020-12-16T10:57:46.000Z</time>
      </trkpt>
      <trkpt lat="47.22561" lon="-1.48846">
        <ele>49</ele>
        <time>2020-12-16T10:57:48.000Z</time>
      </trkpt>
      <trkpt lat="47.22556" lon="-1.48862">
        <ele>48</ele>
        <time>2020-12-16T10:57:50.000Z</time>
      </trkpt>
      <trkpt lat="47.22551" lon="-1.48877">
        <ele>48</ele>
        <time>2020-12-16T10:57:52.000Z</time>
      </trkpt>
      <trkpt lat="47.22546" lon="-1.48893">
        <ele>48</ele>
        <time>2020-12-16T10:57:54.000Z</time>
      </trkpt>
      <trkpt lat="47.22543" lon="-1.48908">
        <ele>48</ele>
        <time>2020-12-16T10:57:56.000Z</time>
      </trkpt>
      <trkpt lat="47.22539" lon="-1.48925">
        <ele>48</ele>
        <time>2020-12-16T10:57:58.000Z</time>
      </trkpt>
      <trkpt lat="47.22537" lon="-1.4894">
        <ele>47</ele>
        <time>2020-12-16T10:58:00.000Z</time>
      </trkpt>
      <trkpt lat="47.2253" lon="-1.48963">
        <ele>44</ele>
        <time>2020-12-16T10:58:03.000Z</time>
      </trkpt>
      <trkpt lat="47.22523" lon="-1.4898">
        <ele>44</ele>
        <time>2020-12-16T10:58:05.000Z</time>
      </trkpt>
      <trkpt lat="47.22516" lon="-1.48997">
        <ele>45</ele>
        <time>2020-12-16T10:58:07.000Z</time>
      </trkpt>
      <trkpt lat="47.2251" lon="-1.49015">
        <ele>45</ele>
        <time>2020-12-16T10:58:09.000Z</time>
      </trkpt>
      <trkpt lat="47.22504" lon="-1.49041">
        <ele>43</ele>
        <time>2020-12-16T10:58:12.000Z</time>
      </trkpt>
      <trkpt lat="47.22501" lon="-1.49056">
        <ele>44</ele>
        <time>2020-12-16T10:58:14.000Z</time>
      </trkpt>
      <trkpt lat="47.22497" lon="-1.49073">
        <ele>45</ele>
        <time>2020-12-16T10:58:16.000Z</time>
      </trkpt>
      <trkpt lat="47.2249" lon="-1.49102">
        <ele>43</ele>
        <time>2020-12-16T10:58:20.000Z</time>
      </trkpt>
      <trkpt lat="47.22479" lon="-1.49128">
        <ele>45</ele>
        <time>2020-12-16T10:58:23.000Z</time>
      </trkpt>
      <trkpt lat="47.22474" lon="-1.49147">
        <ele>45</ele>
        <time>2020-12-16T10:58:25.000Z</time>
      </trkpt>
      <trkpt lat="47.22466" lon="-1.49171">
        <ele>43</ele>
        <time>2020-12-16T10:58:28.000Z</time>
      </trkpt>
      <trkpt lat="47.22459" lon="-1.49188">
        <ele>43</ele>
        <time>2020-12-16T10:58:30.000Z</time>
      </trkpt>
      <trkpt lat="47.22452" lon="-1.49203">
        <ele>44</ele>
        <time>2020-12-16T10:58:32.000Z</time>
      </trkpt>
      <trkpt lat="47.22445" lon="-1.49222">
        <ele>44</ele>
        <time>2020-12-16T10:58:34.000Z</time>
      </trkpt>
      <trkpt lat="47.22439" lon="-1.49238">
        <ele>43</ele>
        <time>2020-12-16T10:58:36.000Z</time>
      </trkpt>
      <trkpt lat="47.22431" lon="-1.49257">
        <ele>41</ele>
        <time>2020-12-16T10:58:39.000Z</time>
      </trkpt>
      <trkpt lat="47.22425" lon="-1.49273">
        <ele>42</ele>
        <time>2020-12-16T10:58:41.000Z</time>
      </trkpt>
      <trkpt lat="47.22418" lon="-1.4929">
        <ele>43</ele>
        <time>2020-12-16T10:58:43.000Z</time>
      </trkpt>
      <trkpt lat="47.22411" lon="-1.49309">
        <ele>44</ele>
        <time>2020-12-16T10:58:45.000Z</time>
      </trkpt>
      <trkpt lat="47.22402" lon="-1.49338">
        <ele>44</ele>
        <time>2020-12-16T10:58:48.000Z</time>
      </trkpt>
      <trkpt lat="47.22398" lon="-1.49356">
        <ele>43</ele>
        <time>2020-12-16T10:58:50.000Z</time>
      </trkpt>
      <trkpt lat="47.22391" lon="-1.49372">
        <ele>43</ele>
        <time>2020-12-16T10:58:52.000Z</time>
      </trkpt>
      <trkpt lat="47.22384" lon="-1.49386">
        <ele>44</ele>
        <time>2020-12-16T10:58:54.000Z</time>
      </trkpt>
      <trkpt lat="47.22377" lon="-1.49401">
        <ele>45</ele>
        <time>2020-12-16T10:58:56.000Z</time>
      </trkpt>
      <trkpt lat="47.22369" lon="-1.49416">
        <ele>46</ele>
        <time>2020-12-16T10:58:58.000Z</time>
      </trkpt>
      <trkpt lat="47.22361" lon="-1.4943">
        <ele>46</ele>
        <time>2020-12-16T10:59:00.000Z</time>
      </trkpt>
      <trkpt lat="47.22355" lon="-1.49446">
        <ele>46</ele>
        <time>2020-12-16T10:59:02.000Z</time>
      </trkpt>
      <trkpt lat="47.22351" lon="-1.4946">
        <ele>48</ele>
        <time>2020-12-16T10:59:04.000Z</time>
      </trkpt>
      <trkpt lat="47.22346" lon="-1.49475">
        <ele>48</ele>
        <time>2020-12-16T10:59:06.000Z</time>
      </trkpt>
      <trkpt lat="47.22341" lon="-1.49492">
        <ele>47</ele>
        <time>2020-12-16T10:59:08.000Z</time>
      </trkpt>
      <trkpt lat="47.22334" lon="-1.49517">
        <ele>47</ele>
        <time>2020-12-16T10:59:11.000Z</time>
      </trkpt>
      <trkpt lat="47.22324" lon="-1.49542">
        <ele>47</ele>
        <time>2020-12-16T10:59:14.000Z</time>
      </trkpt>
      <trkpt lat="47.22319" lon="-1.49559">
        <ele>47</ele>
        <time>2020-12-16T10:59:16.000Z</time>
      </trkpt>
      <trkpt lat="47.22313" lon="-1.49574">
        <ele>48</ele>
        <time>2020-12-16T10:59:18.000Z</time>
      </trkpt>
      <trkpt lat="47.22308" lon="-1.49591">
        <ele>48</ele>
        <time>2020-12-16T10:59:20.000Z</time>
      </trkpt>
      <trkpt lat="47.22302" lon="-1.49606">
        <ele>47</ele>
        <time>2020-12-16T10:59:22.000Z</time>
      </trkpt>
      <trkpt lat="47.22298" lon="-1.49632">
        <ele>45</ele>
        <time>2020-12-16T10:59:25.000Z</time>
      </trkpt>
      <trkpt lat="47.22293" lon="-1.49646">
        <ele>45</ele>
        <time>2020-12-16T10:59:27.000Z</time>
      </trkpt>
      <trkpt lat="47.22284" lon="-1.49661">
        <ele>47</ele>
        <time>2020-12-16T10:59:29.000Z</time>
      </trkpt>
      <trkpt lat="47.22278" lon="-1.4968">
        <ele>47</ele>
        <time>2020-12-16T10:59:31.000Z</time>
      </trkpt>
      <trkpt lat="47.22268" lon="-1.49708">
        <ele>49</ele>
        <time>2020-12-16T10:59:34.000Z</time>
      </trkpt>
      <trkpt lat="47.22262" lon="-1.49725">
        <ele>49</ele>
        <time>2020-12-16T10:59:36.000Z</time>
      </trkpt>
      <trkpt lat="47.22259" lon="-1.4974">
        <ele>49</ele>
        <time>2020-12-16T10:59:38.000Z</time>
      </trkpt>
      <trkpt lat="47.22255" lon="-1.49767">
        <ele>49</ele>
        <time>2020-12-16T10:59:41.000Z</time>
      </trkpt>
      <trkpt lat="47.22252" lon="-1.49786">
        <ele>50</ele>
        <time>2020-12-16T10:59:43.000Z</time>
      </trkpt>
      <trkpt lat="47.22249" lon="-1.49805">
        <ele>50</ele>
        <time>2020-12-16T10:59:45.000Z</time>
      </trkpt>
      <trkpt lat="47.22245" lon="-1.49824">
        <ele>51</ele>
        <time>2020-12-16T10:59:47.000Z</time>
      </trkpt>
      <trkpt lat="47.2224" lon="-1.49842">
        <ele>51</ele>
        <time>2020-12-16T10:59:49.000Z</time>
      </trkpt>
      <trkpt lat="47.22235" lon="-1.49859">
        <ele>51</ele>
        <time>2020-12-16T10:59:51.000Z</time>
      </trkpt>
      <trkpt lat="47.22229" lon="-1.49886">
        <ele>51</ele>
        <time>2020-12-16T10:59:54.000Z</time>
      </trkpt>
      <trkpt lat="47.22224" lon="-1.49905">
        <ele>51</ele>
        <time>2020-12-16T10:59:56.000Z</time>
      </trkpt>
      <trkpt lat="47.22218" lon="-1.49931">
        <ele>51</ele>
        <time>2020-12-16T10:59:59.000Z</time>
      </trkpt>
      <trkpt lat="47.22215" lon="-1.49948">
        <ele>51</ele>
        <time>2020-12-16T11:00:01.000Z</time>
      </trkpt>
      <trkpt lat="47.2221" lon="-1.49965">
        <ele>51</ele>
        <time>2020-12-16T11:00:03.000Z</time>
      </trkpt>
      <trkpt lat="47.22202" lon="-1.49989">
        <ele>51</ele>
        <time>2020-12-16T11:00:06.000Z</time>
      </trkpt>
      <trkpt lat="47.22197" lon="-1.50007">
        <ele>50</ele>
        <time>2020-12-16T11:00:08.000Z</time>
      </trkpt>
      <trkpt lat="47.22193" lon="-1.50026">
        <ele>50</ele>
        <time>2020-12-16T11:00:10.000Z</time>
      </trkpt>
      <trkpt lat="47.22189" lon="-1.50044">
        <ele>51</ele>
        <time>2020-12-16T11:00:12.000Z</time>
      </trkpt>
      <trkpt lat="47.22184" lon="-1.50071">
        <ele>51</ele>
        <time>2020-12-16T11:00:15.000Z</time>
      </trkpt>
      <trkpt lat="47.2218" lon="-1.50088">
        <ele>51</ele>
        <time>2020-12-16T11:00:17.000Z</time>
      </trkpt>
      <trkpt lat="47.22176" lon="-1.50103">
        <ele>51</ele>
        <time>2020-12-16T11:00:19.000Z</time>
      </trkpt>
      <trkpt lat="47.22171" lon="-1.50125">
        <ele>51</ele>
        <time>2020-12-16T11:00:22.000Z</time>
      </trkpt>
      <trkpt lat="47.22163" lon="-1.50152">
        <ele>51</ele>
        <time>2020-12-16T11:00:25.000Z</time>
      </trkpt>
      <trkpt lat="47.22157" lon="-1.50168">
        <ele>50</ele>
        <time>2020-12-16T11:00:27.000Z</time>
      </trkpt>
      <trkpt lat="47.22153" lon="-1.50185">
        <ele>50</ele>
        <time>2020-12-16T11:00:29.000Z</time>
      </trkpt>
      <trkpt lat="47.22147" lon="-1.50203">
        <ele>50</ele>
        <time>2020-12-16T11:00:31.000Z</time>
      </trkpt>
      <trkpt lat="47.2214" lon="-1.50227">
        <ele>50</ele>
        <time>2020-12-16T11:00:34.000Z</time>
      </trkpt>
      <trkpt lat="47.22135" lon="-1.50241">
        <ele>50</ele>
        <time>2020-12-16T11:00:36.000Z</time>
      </trkpt>
      <trkpt lat="47.22131" lon="-1.50256">
        <ele>49</ele>
        <time>2020-12-16T11:00:38.000Z</time>
      </trkpt>
      <trkpt lat="47.22127" lon="-1.50271">
        <ele>48</ele>
        <time>2020-12-16T11:00:40.000Z</time>
      </trkpt>
      <trkpt lat="47.22121" lon="-1.50286">
        <ele>49</ele>
        <time>2020-12-16T11:00:42.000Z</time>
      </trkpt>
      <trkpt lat="47.22113" lon="-1.503">
        <ele>50</ele>
        <time>2020-12-16T11:00:45.000Z</time>
      </trkpt>
      <trkpt lat="47.22106" lon="-1.50312">
        <ele>49</ele>
        <time>2020-12-16T11:00:49.000Z</time>
      </trkpt>
      <trkpt lat="47.22098" lon="-1.50326">
        <ele>49</ele>
        <time>2020-12-16T11:00:53.000Z</time>
      </trkpt>
      <trkpt lat="47.22093" lon="-1.50343">
        <ele>49</ele>
        <time>2020-12-16T11:00:55.000Z</time>
      </trkpt>
      <trkpt lat="47.22087" lon="-1.50362">
        <ele>49</ele>
        <time>2020-12-16T11:00:57.000Z</time>
      </trkpt>
      <trkpt lat="47.22083" lon="-1.5038">
        <ele>49</ele>
        <time>2020-12-16T11:00:59.000Z</time>
      </trkpt>
      <trkpt lat="47.22079" lon="-1.50397">
        <ele>48</ele>
        <time>2020-12-16T11:01:01.000Z</time>
      </trkpt>
      <trkpt lat="47.22074" lon="-1.50414">
        <ele>48</ele>
        <time>2020-12-16T11:01:03.000Z</time>
      </trkpt>
      <trkpt lat="47.22071" lon="-1.50431">
        <ele>48</ele>
        <time>2020-12-16T11:01:05.000Z</time>
      </trkpt>
      <trkpt lat="47.22068" lon="-1.50451">
        <ele>48</ele>
        <time>2020-12-16T11:01:07.000Z</time>
      </trkpt>
      <trkpt lat="47.22064" lon="-1.5047">
        <ele>48</ele>
        <time>2020-12-16T11:01:09.000Z</time>
      </trkpt>
      <trkpt lat="47.22061" lon="-1.50505">
        <ele>47</ele>
        <time>2020-12-16T11:01:13.000Z</time>
      </trkpt>
      <trkpt lat="47.22062" lon="-1.50522">
        <ele>47</ele>
        <time>2020-12-16T11:01:15.000Z</time>
      </trkpt>
      <trkpt lat="47.2206" lon="-1.5054">
        <ele>48</ele>
        <time>2020-12-16T11:01:17.000Z</time>
      </trkpt>
      <trkpt lat="47.2206" lon="-1.50559">
        <ele>49</ele>
        <time>2020-12-16T11:01:19.000Z</time>
      </trkpt>
      <trkpt lat="47.22059" lon="-1.50577">
        <ele>49</ele>
        <time>2020-12-16T11:01:21.000Z</time>
      </trkpt>
      <trkpt lat="47.22059" lon="-1.50596">
        <ele>50</ele>
        <time>2020-12-16T11:01:23.000Z</time>
      </trkpt>
      <trkpt lat="47.22057" lon="-1.50614">
        <ele>50</ele>
        <time>2020-12-16T11:01:25.000Z</time>
      </trkpt>
      <trkpt lat="47.22056" lon="-1.50632">
        <ele>50</ele>
        <time>2020-12-16T11:01:27.000Z</time>
      </trkpt>
      <trkpt lat="47.22055" lon="-1.50651">
        <ele>50</ele>
        <time>2020-12-16T11:01:29.000Z</time>
      </trkpt>
      <trkpt lat="47.22053" lon="-1.50668">
        <ele>50</ele>
        <time>2020-12-16T11:01:31.000Z</time>
      </trkpt>
      <trkpt lat="47.22051" lon="-1.50685">
        <ele>51</ele>
        <time>2020-12-16T11:01:33.000Z</time>
      </trkpt>
      <trkpt lat="47.22049" lon="-1.50703">
        <ele>50</ele>
        <time>2020-12-16T11:01:35.000Z</time>
      </trkpt>
      <trkpt lat="47.22047" lon="-1.50721">
        <ele>50</ele>
        <time>2020-12-16T11:01:37.000Z</time>
      </trkpt>
      <trkpt lat="47.22045" lon="-1.50738">
        <ele>50</ele>
        <time>2020-12-16T11:01:39.000Z</time>
      </trkpt>
      <trkpt lat="47.22043" lon="-1.50756">
        <ele>51</ele>
        <time>2020-12-16T11:01:41.000Z</time>
      </trkpt>
      <trkpt lat="47.22039" lon="-1.50773">
        <ele>51</ele>
        <time>2020-12-16T11:01:43.000Z</time>
      </trkpt>
      <trkpt lat="47.22035" lon="-1.5079">
        <ele>50</ele>
        <time>2020-12-16T11:01:45.000Z</time>
      </trkpt>
      <trkpt lat="47.22029" lon="-1.50807">
        <ele>50</ele>
        <time>2020-12-16T11:01:47.000Z</time>
      </trkpt>
      <trkpt lat="47.22023" lon="-1.5082">
        <ele>49</ele>
        <time>2020-12-16T11:01:49.000Z</time>
      </trkpt>
      <trkpt lat="47.22017" lon="-1.50836">
        <ele>47</ele>
        <time>2020-12-16T11:01:51.000Z</time>
      </trkpt>
      <trkpt lat="47.22008" lon="-1.50863">
        <ele>48</ele>
        <time>2020-12-16T11:01:54.000Z</time>
      </trkpt>
      <trkpt lat="47.21998" lon="-1.50889">
        <ele>49</ele>
        <time>2020-12-16T11:01:57.000Z</time>
      </trkpt>
      <trkpt lat="47.2199" lon="-1.50914">
        <ele>50</ele>
        <time>2020-12-16T11:02:00.000Z</time>
      </trkpt>
      <trkpt lat="47.21986" lon="-1.50931">
        <ele>50</ele>
        <time>2020-12-16T11:02:02.000Z</time>
      </trkpt>
      <trkpt lat="47.21981" lon="-1.50946">
        <ele>50</ele>
        <time>2020-12-16T11:02:04.000Z</time>
      </trkpt>
      <trkpt lat="47.21977" lon="-1.50961">
        <ele>50</ele>
        <time>2020-12-16T11:02:06.000Z</time>
      </trkpt>
      <trkpt lat="47.21973" lon="-1.50977">
        <ele>50</ele>
        <time>2020-12-16T11:02:08.000Z</time>
      </trkpt>
      <trkpt lat="47.21968" lon="-1.50993">
        <ele>50</ele>
        <time>2020-12-16T11:02:10.000Z</time>
      </trkpt>
      <trkpt lat="47.21964" lon="-1.51008">
        <ele>51</ele>
        <time>2020-12-16T11:02:12.000Z</time>
      </trkpt>
      <trkpt lat="47.21959" lon="-1.51023">
        <ele>51</ele>
        <time>2020-12-16T11:02:14.000Z</time>
      </trkpt>
      <trkpt lat="47.21955" lon="-1.51037">
        <ele>51</ele>
        <time>2020-12-16T11:02:16.000Z</time>
      </trkpt>
      <trkpt lat="47.21949" lon="-1.51057">
        <ele>52</ele>
        <time>2020-12-16T11:02:19.000Z</time>
      </trkpt>
      <trkpt lat="47.21941" lon="-1.51066">
        <ele>52</ele>
        <time>2020-12-16T11:02:21.000Z</time>
      </trkpt>
      <trkpt lat="47.21934" lon="-1.51076">
        <ele>51</ele>
        <time>2020-12-16T11:02:23.000Z</time>
      </trkpt>
      <trkpt lat="47.21926" lon="-1.51095">
        <ele>52</ele>
        <time>2020-12-16T11:02:26.000Z</time>
      </trkpt>
      <trkpt lat="47.21922" lon="-1.51111">
        <ele>54</ele>
        <time>2020-12-16T11:02:28.000Z</time>
      </trkpt>
      <trkpt lat="47.21916" lon="-1.51135">
        <ele>54</ele>
        <time>2020-12-16T11:02:31.000Z</time>
      </trkpt>
      <trkpt lat="47.21911" lon="-1.51152">
        <ele>53</ele>
        <time>2020-12-16T11:02:33.000Z</time>
      </trkpt>
      <trkpt lat="47.21901" lon="-1.51175">
        <ele>53</ele>
        <time>2020-12-16T11:02:36.000Z</time>
      </trkpt>
      <trkpt lat="47.21895" lon="-1.51192">
        <ele>54</ele>
        <time>2020-12-16T11:02:38.000Z</time>
      </trkpt>
      <trkpt lat="47.2189" lon="-1.51208">
        <ele>54</ele>
        <time>2020-12-16T11:02:40.000Z</time>
      </trkpt>
      <trkpt lat="47.21885" lon="-1.51224">
        <ele>54</ele>
        <time>2020-12-16T11:02:42.000Z</time>
      </trkpt>
      <trkpt lat="47.2188" lon="-1.5124">
        <ele>53</ele>
        <time>2020-12-16T11:02:44.000Z</time>
      </trkpt>
      <trkpt lat="47.21875" lon="-1.51255">
        <ele>53</ele>
        <time>2020-12-16T11:02:46.000Z</time>
      </trkpt>
      <trkpt lat="47.21871" lon="-1.51271">
        <ele>54</ele>
        <time>2020-12-16T11:02:48.000Z</time>
      </trkpt>
      <trkpt lat="47.21866" lon="-1.51287">
        <ele>54</ele>
        <time>2020-12-16T11:02:50.000Z</time>
      </trkpt>
      <trkpt lat="47.2186" lon="-1.51303">
        <ele>53</ele>
        <time>2020-12-16T11:02:52.000Z</time>
      </trkpt>
      <trkpt lat="47.21855" lon="-1.51319">
        <ele>53</ele>
        <time>2020-12-16T11:02:54.000Z</time>
      </trkpt>
      <trkpt lat="47.21851" lon="-1.51335">
        <ele>52</ele>
        <time>2020-12-16T11:02:56.000Z</time>
      </trkpt>
      <trkpt lat="47.21847" lon="-1.5135">
        <ele>52</ele>
        <time>2020-12-16T11:02:58.000Z</time>
      </trkpt>
      <trkpt lat="47.21841" lon="-1.51368">
        <ele>52</ele>
        <time>2020-12-16T11:03:00.000Z</time>
      </trkpt>
      <trkpt lat="47.21838" lon="-1.51384">
        <ele>52</ele>
        <time>2020-12-16T11:03:02.000Z</time>
      </trkpt>
      <trkpt lat="47.21835" lon="-1.514">
        <ele>53</ele>
        <time>2020-12-16T11:03:04.000Z</time>
      </trkpt>
      <trkpt lat="47.21832" lon="-1.51416">
        <ele>52</ele>
        <time>2020-12-16T11:03:06.000Z</time>
      </trkpt>
      <trkpt lat="47.21825" lon="-1.51439">
        <ele>52</ele>
        <time>2020-12-16T11:03:09.000Z</time>
      </trkpt>
      <trkpt lat="47.21819" lon="-1.51464">
        <ele>52</ele>
        <time>2020-12-16T11:03:12.000Z</time>
      </trkpt>
      <trkpt lat="47.21815" lon="-1.5148">
        <ele>49</ele>
        <time>2020-12-16T11:03:14.000Z</time>
      </trkpt>
      <trkpt lat="47.2181" lon="-1.51496">
        <ele>48</ele>
        <time>2020-12-16T11:03:16.000Z</time>
      </trkpt>
      <trkpt lat="47.21803" lon="-1.51517">
        <ele>49</ele>
        <time>2020-12-16T11:03:19.000Z</time>
      </trkpt>
      <trkpt lat="47.21795" lon="-1.51541">
        <ele>49</ele>
        <time>2020-12-16T11:03:22.000Z</time>
      </trkpt>
      <trkpt lat="47.21787" lon="-1.51556">
        <ele>50</ele>
        <time>2020-12-16T11:03:24.000Z</time>
      </trkpt>
      <trkpt lat="47.2178" lon="-1.51569">
        <ele>51</ele>
        <time>2020-12-16T11:03:26.000Z</time>
      </trkpt>
      <trkpt lat="47.21773" lon="-1.51582">
        <ele>51</ele>
        <time>2020-12-16T11:03:28.000Z</time>
      </trkpt>
      <trkpt lat="47.21765" lon="-1.51592">
        <ele>52</ele>
        <time>2020-12-16T11:03:30.000Z</time>
      </trkpt>
      <trkpt lat="47.21757" lon="-1.51604">
        <ele>51</ele>
        <time>2020-12-16T11:03:32.000Z</time>
      </trkpt>
      <trkpt lat="47.21751" lon="-1.51617">
        <ele>52</ele>
        <time>2020-12-16T11:03:34.000Z</time>
      </trkpt>
      <trkpt lat="47.21745" lon="-1.5163">
        <ele>52</ele>
        <time>2020-12-16T11:03:36.000Z</time>
      </trkpt>
      <trkpt lat="47.21738" lon="-1.51643">
        <ele>52</ele>
        <time>2020-12-16T11:03:38.000Z</time>
      </trkpt>
      <trkpt lat="47.21732" lon="-1.51657">
        <ele>52</ele>
        <time>2020-12-16T11:03:40.000Z</time>
      </trkpt>
      <trkpt lat="47.21726" lon="-1.51671">
        <ele>51</ele>
        <time>2020-12-16T11:03:42.000Z</time>
      </trkpt>
      <trkpt lat="47.21719" lon="-1.51684">
        <ele>51</ele>
        <time>2020-12-16T11:03:44.000Z</time>
      </trkpt>
      <trkpt lat="47.21713" lon="-1.51696">
        <ele>51</ele>
        <time>2020-12-16T11:03:46.000Z</time>
      </trkpt>
      <trkpt lat="47.21707" lon="-1.51709">
        <ele>51</ele>
        <time>2020-12-16T11:03:48.000Z</time>
      </trkpt>
      <trkpt lat="47.21701" lon="-1.51722">
        <ele>51</ele>
        <time>2020-12-16T11:03:50.000Z</time>
      </trkpt>
      <trkpt lat="47.21696" lon="-1.51736">
        <ele>52</ele>
        <time>2020-12-16T11:03:52.000Z</time>
      </trkpt>
      <trkpt lat="47.21691" lon="-1.51749">
        <ele>53</ele>
        <time>2020-12-16T11:03:54.000Z</time>
      </trkpt>
      <trkpt lat="47.21685" lon="-1.51762">
        <ele>53</ele>
        <time>2020-12-16T11:03:56.000Z</time>
      </trkpt>
      <trkpt lat="47.21679" lon="-1.51775">
        <ele>53</ele>
        <time>2020-12-16T11:03:58.000Z</time>
      </trkpt>
      <trkpt lat="47.21674" lon="-1.51789">
        <ele>53</ele>
        <time>2020-12-16T11:04:00.000Z</time>
      </trkpt>
      <trkpt lat="47.21668" lon="-1.51801">
        <ele>53</ele>
        <time>2020-12-16T11:04:02.000Z</time>
      </trkpt>
      <trkpt lat="47.21662" lon="-1.51813">
        <ele>54</ele>
        <time>2020-12-16T11:04:04.000Z</time>
      </trkpt>
      <trkpt lat="47.21657" lon="-1.51827">
        <ele>54</ele>
        <time>2020-12-16T11:04:06.000Z</time>
      </trkpt>
      <trkpt lat="47.21652" lon="-1.51841">
        <ele>53</ele>
        <time>2020-12-16T11:04:08.000Z</time>
      </trkpt>
      <trkpt lat="47.21647" lon="-1.51855">
        <ele>54</ele>
        <time>2020-12-16T11:04:10.000Z</time>
      </trkpt>
      <trkpt lat="47.21646" lon="-1.5187">
        <ele>54</ele>
        <time>2020-12-16T11:04:12.000Z</time>
      </trkpt>
      <trkpt lat="47.21642" lon="-1.51885">
        <ele>54</ele>
        <time>2020-12-16T11:04:14.000Z</time>
      </trkpt>
      <trkpt lat="47.21636" lon="-1.51897">
        <ele>54</ele>
        <time>2020-12-16T11:04:16.000Z</time>
      </trkpt>
      <trkpt lat="47.2163" lon="-1.51911">
        <ele>54</ele>
        <time>2020-12-16T11:04:18.000Z</time>
      </trkpt>
      <trkpt lat="47.21625" lon="-1.51925">
        <ele>55</ele>
        <time>2020-12-16T11:04:20.000Z</time>
      </trkpt>
      <trkpt lat="47.21621" lon="-1.51939">
        <ele>54</ele>
        <time>2020-12-16T11:04:22.000Z</time>
      </trkpt>
      <trkpt lat="47.21619" lon="-1.51953">
        <ele>54</ele>
        <time>2020-12-16T11:04:24.000Z</time>
      </trkpt>
      <trkpt lat="47.21615" lon="-1.5197">
        <ele>52</ele>
        <time>2020-12-16T11:04:26.000Z</time>
      </trkpt>
      <trkpt lat="47.21605" lon="-1.51991">
        <ele>53</ele>
        <time>2020-12-16T11:04:29.000Z</time>
      </trkpt>
      <trkpt lat="47.21597" lon="-1.52016">
        <ele>52</ele>
        <time>2020-12-16T11:04:32.000Z</time>
      </trkpt>
      <trkpt lat="47.21591" lon="-1.52033">
        <ele>52</ele>
        <time>2020-12-16T11:04:34.000Z</time>
      </trkpt>
      <trkpt lat="47.21583" lon="-1.52058">
        <ele>52</ele>
        <time>2020-12-16T11:04:37.000Z</time>
      </trkpt>
      <trkpt lat="47.21578" lon="-1.52073">
        <ele>53</ele>
        <time>2020-12-16T11:04:39.000Z</time>
      </trkpt>
      <trkpt lat="47.21574" lon="-1.52088">
        <ele>53</ele>
        <time>2020-12-16T11:04:41.000Z</time>
      </trkpt>
      <trkpt lat="47.21569" lon="-1.52103">
        <ele>53</ele>
        <time>2020-12-16T11:04:43.000Z</time>
      </trkpt>
      <trkpt lat="47.21564" lon="-1.52117">
        <ele>54</ele>
        <time>2020-12-16T11:04:45.000Z</time>
      </trkpt>
      <trkpt lat="47.21559" lon="-1.52131">
        <ele>54</ele>
        <time>2020-12-16T11:04:47.000Z</time>
      </trkpt>
      <trkpt lat="47.21555" lon="-1.52146">
        <ele>53</ele>
        <time>2020-12-16T11:04:49.000Z</time>
      </trkpt>
      <trkpt lat="47.2155" lon="-1.52162">
        <ele>53</ele>
        <time>2020-12-16T11:04:51.000Z</time>
      </trkpt>
      <trkpt lat="47.21543" lon="-1.52185">
        <ele>53</ele>
        <time>2020-12-16T11:04:54.000Z</time>
      </trkpt>
      <trkpt lat="47.21538" lon="-1.522">
        <ele>53</ele>
        <time>2020-12-16T11:04:56.000Z</time>
      </trkpt>
      <trkpt lat="47.21532" lon="-1.52215">
        <ele>53</ele>
        <time>2020-12-16T11:04:58.000Z</time>
      </trkpt>
      <trkpt lat="47.21527" lon="-1.52231">
        <ele>53</ele>
        <time>2020-12-16T11:05:00.000Z</time>
      </trkpt>
      <trkpt lat="47.21522" lon="-1.52247">
        <ele>52</ele>
        <time>2020-12-16T11:05:02.000Z</time>
      </trkpt>
      <trkpt lat="47.21517" lon="-1.52264">
        <ele>53</ele>
        <time>2020-12-16T11:05:04.000Z</time>
      </trkpt>
      <trkpt lat="47.21507" lon="-1.52294">
        <ele>52</ele>
        <time>2020-12-16T11:05:07.000Z</time>
      </trkpt>
      <trkpt lat="47.21501" lon="-1.52312">
        <ele>52</ele>
        <time>2020-12-16T11:05:09.000Z</time>
      </trkpt>
      <trkpt lat="47.21497" lon="-1.52331">
        <ele>51</ele>
        <time>2020-12-16T11:05:11.000Z</time>
      </trkpt>
      <trkpt lat="47.21492" lon="-1.52347">
        <ele>49</ele>
        <time>2020-12-16T11:05:13.000Z</time>
      </trkpt>
      <trkpt lat="47.21484" lon="-1.52371">
        <ele>51</ele>
        <time>2020-12-16T11:05:16.000Z</time>
      </trkpt>
      <trkpt lat="47.2148" lon="-1.52387">
        <ele>51</ele>
        <time>2020-12-16T11:05:18.000Z</time>
      </trkpt>
      <trkpt lat="47.21474" lon="-1.52403">
        <ele>51</ele>
        <time>2020-12-16T11:05:20.000Z</time>
      </trkpt>
      <trkpt lat="47.21468" lon="-1.5242">
        <ele>51</ele>
        <time>2020-12-16T11:05:22.000Z</time>
      </trkpt>
      <trkpt lat="47.21462" lon="-1.52437">
        <ele>52</ele>
        <time>2020-12-16T11:05:24.000Z</time>
      </trkpt>
      <trkpt lat="47.21457" lon="-1.52452">
        <ele>53</ele>
        <time>2020-12-16T11:05:26.000Z</time>
      </trkpt>
      <trkpt lat="47.21451" lon="-1.52468">
        <ele>52</ele>
        <time>2020-12-16T11:05:28.000Z</time>
      </trkpt>
      <trkpt lat="47.21446" lon="-1.52484">
        <ele>53</ele>
        <time>2020-12-16T11:05:30.000Z</time>
      </trkpt>
      <trkpt lat="47.21437" lon="-1.5251">
        <ele>53</ele>
        <time>2020-12-16T11:05:33.000Z</time>
      </trkpt>
      <trkpt lat="47.21432" lon="-1.52526">
        <ele>53</ele>
        <time>2020-12-16T11:05:35.000Z</time>
      </trkpt>
      <trkpt lat="47.21426" lon="-1.52553">
        <ele>53</ele>
        <time>2020-12-16T11:05:38.000Z</time>
      </trkpt>
      <trkpt lat="47.2142" lon="-1.52568">
        <ele>53</ele>
        <time>2020-12-16T11:05:40.000Z</time>
      </trkpt>
      <trkpt lat="47.21413" lon="-1.52585">
        <ele>53</ele>
        <time>2020-12-16T11:05:42.000Z</time>
      </trkpt>
      <trkpt lat="47.21408" lon="-1.526">
        <ele>54</ele>
        <time>2020-12-16T11:05:44.000Z</time>
      </trkpt>
      <trkpt lat="47.21402" lon="-1.52616">
        <ele>54</ele>
        <time>2020-12-16T11:05:46.000Z</time>
      </trkpt>
      <trkpt lat="47.21399" lon="-1.52634">
        <ele>54</ele>
        <time>2020-12-16T11:05:48.000Z</time>
      </trkpt>
      <trkpt lat="47.21393" lon="-1.5265">
        <ele>56</ele>
        <time>2020-12-16T11:05:50.000Z</time>
      </trkpt>
      <trkpt lat="47.21388" lon="-1.52668">
        <ele>55</ele>
        <time>2020-12-16T11:05:52.000Z</time>
      </trkpt>
      <trkpt lat="47.21384" lon="-1.52687">
        <ele>56</ele>
        <time>2020-12-16T11:05:54.000Z</time>
      </trkpt>
      <trkpt lat="47.2138" lon="-1.52704">
        <ele>56</ele>
        <time>2020-12-16T11:05:56.000Z</time>
      </trkpt>
      <trkpt lat="47.21376" lon="-1.5272">
        <ele>56</ele>
        <time>2020-12-16T11:05:58.000Z</time>
      </trkpt>
      <trkpt lat="47.21371" lon="-1.5274">
        <ele>55</ele>
        <time>2020-12-16T11:06:00.000Z</time>
      </trkpt>
      <trkpt lat="47.21368" lon="-1.52757">
        <ele>54</ele>
        <time>2020-12-16T11:06:02.000Z</time>
      </trkpt>
      <trkpt lat="47.21366" lon="-1.52777">
        <ele>53</ele>
        <time>2020-12-16T11:06:04.000Z</time>
      </trkpt>
      <trkpt lat="47.21363" lon="-1.52802">
        <ele>54</ele>
        <time>2020-12-16T11:06:07.000Z</time>
      </trkpt>
      <trkpt lat="47.21362" lon="-1.52819">
        <ele>53</ele>
        <time>2020-12-16T11:06:09.000Z</time>
      </trkpt>
      <trkpt lat="47.21356" lon="-1.52836">
        <ele>52</ele>
        <time>2020-12-16T11:06:11.000Z</time>
      </trkpt>
      <trkpt lat="47.21352" lon="-1.52855">
        <ele>52</ele>
        <time>2020-12-16T11:06:13.000Z</time>
      </trkpt>
      <trkpt lat="47.21348" lon="-1.52873">
        <ele>52</ele>
        <time>2020-12-16T11:06:15.000Z</time>
      </trkpt>
      <trkpt lat="47.21345" lon="-1.5289">
        <ele>52</ele>
        <time>2020-12-16T11:06:17.000Z</time>
      </trkpt>
      <trkpt lat="47.21341" lon="-1.52908">
        <ele>51</ele>
        <time>2020-12-16T11:06:19.000Z</time>
      </trkpt>
      <trkpt lat="47.21339" lon="-1.52927">
        <ele>50</ele>
        <time>2020-12-16T11:06:21.000Z</time>
      </trkpt>
      <trkpt lat="47.2134" lon="-1.52943">
        <ele>50</ele>
        <time>2020-12-16T11:06:23.000Z</time>
      </trkpt>
      <trkpt lat="47.2134" lon="-1.5296">
        <ele>51</ele>
        <time>2020-12-16T11:06:25.000Z</time>
      </trkpt>
      <trkpt lat="47.2134" lon="-1.52981">
        <ele>50</ele>
        <time>2020-12-16T11:06:27.000Z</time>
      </trkpt>
      <trkpt lat="47.21335" lon="-1.53012">
        <ele>54</ele>
        <time>2020-12-16T11:06:30.000Z</time>
      </trkpt>
      <trkpt lat="47.21334" lon="-1.53031">
        <ele>55</ele>
        <time>2020-12-16T11:06:32.000Z</time>
      </trkpt>
      <trkpt lat="47.21329" lon="-1.53059">
        <ele>55</ele>
        <time>2020-12-16T11:06:35.000Z</time>
      </trkpt>
      <trkpt lat="47.21327" lon="-1.53077">
        <ele>54</ele>
        <time>2020-12-16T11:06:37.000Z</time>
      </trkpt>
      <trkpt lat="47.21328" lon="-1.53094">
        <ele>54</ele>
        <time>2020-12-16T11:06:39.000Z</time>
      </trkpt>
      <trkpt lat="47.21327" lon="-1.53112">
        <ele>54</ele>
        <time>2020-12-16T11:06:41.000Z</time>
      </trkpt>
      <trkpt lat="47.21323" lon="-1.5313">
        <ele>54</ele>
        <time>2020-12-16T11:06:43.000Z</time>
      </trkpt>
      <trkpt lat="47.21319" lon="-1.53157">
        <ele>53</ele>
        <time>2020-12-16T11:06:46.000Z</time>
      </trkpt>
      <trkpt lat="47.21317" lon="-1.53175">
        <ele>54</ele>
        <time>2020-12-16T11:06:48.000Z</time>
      </trkpt>
      <trkpt lat="47.21315" lon="-1.53193">
        <ele>55</ele>
        <time>2020-12-16T11:06:50.000Z</time>
      </trkpt>
      <trkpt lat="47.21313" lon="-1.53211">
        <ele>55</ele>
        <time>2020-12-16T11:06:52.000Z</time>
      </trkpt>
      <trkpt lat="47.21313" lon="-1.53229">
        <ele>56</ele>
        <time>2020-12-16T11:06:54.000Z</time>
      </trkpt>
      <trkpt lat="47.21312" lon="-1.53248">
        <ele>56</ele>
        <time>2020-12-16T11:06:56.000Z</time>
      </trkpt>
      <trkpt lat="47.21312" lon="-1.53275">
        <ele>56</ele>
        <time>2020-12-16T11:06:59.000Z</time>
      </trkpt>
      <trkpt lat="47.21312" lon="-1.53295">
        <ele>55</ele>
        <time>2020-12-16T11:07:01.000Z</time>
      </trkpt>
      <trkpt lat="47.21308" lon="-1.53321">
        <ele>54</ele>
        <time>2020-12-16T11:07:04.000Z</time>
      </trkpt>
      <trkpt lat="47.21303" lon="-1.53346">
        <ele>51</ele>
        <time>2020-12-16T11:07:07.000Z</time>
      </trkpt>
      <trkpt lat="47.21299" lon="-1.53372">
        <ele>56</ele>
        <time>2020-12-16T11:07:10.000Z</time>
      </trkpt>
      <trkpt lat="47.21296" lon="-1.5339">
        <ele>55</ele>
        <time>2020-12-16T11:07:12.000Z</time>
      </trkpt>
      <trkpt lat="47.21294" lon="-1.53407">
        <ele>54</ele>
        <time>2020-12-16T11:07:14.000Z</time>
      </trkpt>
      <trkpt lat="47.21292" lon="-1.53421">
        <ele>54</ele>
        <time>2020-12-16T11:07:16.000Z</time>
      </trkpt>
      <trkpt lat="47.2129" lon="-1.53438">
        <ele>54</ele>
        <time>2020-12-16T11:07:18.000Z</time>
      </trkpt>
      <trkpt lat="47.2129" lon="-1.53454">
        <ele>54</ele>
        <time>2020-12-16T11:07:20.000Z</time>
      </trkpt>
      <trkpt lat="47.21294" lon="-1.53471">
        <ele>55</ele>
        <time>2020-12-16T11:07:22.000Z</time>
      </trkpt>
      <trkpt lat="47.21298" lon="-1.53487">
        <ele>54</ele>
        <time>2020-12-16T11:07:24.000Z</time>
      </trkpt>
      <trkpt lat="47.213" lon="-1.53506">
        <ele>55</ele>
        <time>2020-12-16T11:07:26.000Z</time>
      </trkpt>
      <trkpt lat="47.213" lon="-1.53524">
        <ele>55</ele>
        <time>2020-12-16T11:07:28.000Z</time>
      </trkpt>
      <trkpt lat="47.21301" lon="-1.53542">
        <ele>55</ele>
        <time>2020-12-16T11:07:30.000Z</time>
      </trkpt>
      <trkpt lat="47.21302" lon="-1.5356">
        <ele>56</ele>
        <time>2020-12-16T11:07:32.000Z</time>
      </trkpt>
      <trkpt lat="47.21302" lon="-1.53578">
        <ele>55</ele>
        <time>2020-12-16T11:07:34.000Z</time>
      </trkpt>
      <trkpt lat="47.21303" lon="-1.53595">
        <ele>55</ele>
        <time>2020-12-16T11:07:36.000Z</time>
      </trkpt>
      <trkpt lat="47.21305" lon="-1.53613">
        <ele>52</ele>
        <time>2020-12-16T11:07:38.000Z</time>
      </trkpt>
      <trkpt lat="47.21308" lon="-1.53628">
        <ele>53</ele>
        <time>2020-12-16T11:07:40.000Z</time>
      </trkpt>
      <trkpt lat="47.213" lon="-1.5364">
        <ele>53</ele>
        <time>2020-12-16T11:07:43.000Z</time>
      </trkpt>
      <trkpt lat="47.21293" lon="-1.53664">
        <ele>53</ele>
        <time>2020-12-16T11:07:48.000Z</time>
      </trkpt>
      <trkpt lat="47.21296" lon="-1.53678">
        <ele>53</ele>
        <time>2020-12-16T11:07:50.000Z</time>
      </trkpt>
      <trkpt lat="47.213" lon="-1.53694">
        <ele>53</ele>
        <time>2020-12-16T11:07:52.000Z</time>
      </trkpt>
      <trkpt lat="47.21305" lon="-1.53712">
        <ele>53</ele>
        <time>2020-12-16T11:07:54.000Z</time>
      </trkpt>
      <trkpt lat="47.2131" lon="-1.53732">
        <ele>54</ele>
        <time>2020-12-16T11:07:56.000Z</time>
      </trkpt>
      <trkpt lat="47.21313" lon="-1.53752">
        <ele>55</ele>
        <time>2020-12-16T11:07:58.000Z</time>
      </trkpt>
      <trkpt lat="47.21316" lon="-1.53772">
        <ele>55</ele>
        <time>2020-12-16T11:08:00.000Z</time>
      </trkpt>
      <trkpt lat="47.21319" lon="-1.5379">
        <ele>56</ele>
        <time>2020-12-16T11:08:02.000Z</time>
      </trkpt>
      <trkpt lat="47.21322" lon="-1.53807">
        <ele>57</ele>
        <time>2020-12-16T11:08:04.000Z</time>
      </trkpt>
      <trkpt lat="47.21326" lon="-1.53825">
        <ele>56</ele>
        <time>2020-12-16T11:08:06.000Z</time>
      </trkpt>
      <trkpt lat="47.21329" lon="-1.53842">
        <ele>56</ele>
        <time>2020-12-16T11:08:08.000Z</time>
      </trkpt>
      <trkpt lat="47.2133" lon="-1.53859">
        <ele>56</ele>
        <time>2020-12-16T11:08:10.000Z</time>
      </trkpt>
      <trkpt lat="47.21334" lon="-1.53883">
        <ele>56</ele>
        <time>2020-12-16T11:08:13.000Z</time>
      </trkpt>
      <trkpt lat="47.21336" lon="-1.539">
        <ele>55</ele>
        <time>2020-12-16T11:08:15.000Z</time>
      </trkpt>
      <trkpt lat="47.21343" lon="-1.53911">
        <ele>56</ele>
        <time>2020-12-16T11:08:17.000Z</time>
      </trkpt>
      <trkpt lat="47.21358" lon="-1.53925">
        <ele>56</ele>
        <time>2020-12-16T11:08:20.000Z</time>
      </trkpt>
      <trkpt lat="47.21374" lon="-1.53932">
        <ele>55</ele>
        <time>2020-12-16T11:08:23.000Z</time>
      </trkpt>
      <trkpt lat="47.21385" lon="-1.53944">
        <ele>55</ele>
        <time>2020-12-16T11:08:25.000Z</time>
      </trkpt>
      <trkpt lat="47.2139" lon="-1.5396">
        <ele>56</ele>
        <time>2020-12-16T11:08:27.000Z</time>
      </trkpt>
      <trkpt lat="47.21386" lon="-1.53987">
        <ele>56</ele>
        <time>2020-12-16T11:08:30.000Z</time>
      </trkpt>
      <trkpt lat="47.21386" lon="-1.54002">
        <ele>55</ele>
        <time>2020-12-16T11:08:32.000Z</time>
      </trkpt>
      <trkpt lat="47.21395" lon="-1.54013">
        <ele>55</ele>
        <time>2020-12-16T11:08:34.000Z</time>
      </trkpt>
      <trkpt lat="47.21405" lon="-1.54027">
        <ele>55</ele>
        <time>2020-12-16T11:08:36.000Z</time>
      </trkpt>
      <trkpt lat="47.21414" lon="-1.54042">
        <ele>55</ele>
        <time>2020-12-16T11:08:38.000Z</time>
      </trkpt>
      <trkpt lat="47.21422" lon="-1.54056">
        <ele>50</ele>
        <time>2020-12-16T11:08:40.000Z</time>
      </trkpt>
      <trkpt lat="47.21429" lon="-1.5407">
        <ele>53</ele>
        <time>2020-12-16T11:08:42.000Z</time>
      </trkpt>
      <trkpt lat="47.21439" lon="-1.54084">
        <ele>54</ele>
        <time>2020-12-16T11:08:44.000Z</time>
      </trkpt>
      <trkpt lat="47.2145" lon="-1.54097">
        <ele>55</ele>
        <time>2020-12-16T11:08:46.000Z</time>
      </trkpt>
      <trkpt lat="47.21462" lon="-1.54108">
        <ele>55</ele>
        <time>2020-12-16T11:08:48.000Z</time>
      </trkpt>
      <trkpt lat="47.21472" lon="-1.54118">
        <ele>54</ele>
        <time>2020-12-16T11:08:50.000Z</time>
      </trkpt>
      <trkpt lat="47.21483" lon="-1.54133">
        <ele>55</ele>
        <time>2020-12-16T11:08:52.000Z</time>
      </trkpt>
      <trkpt lat="47.21492" lon="-1.54146">
        <ele>55</ele>
        <time>2020-12-16T11:08:54.000Z</time>
      </trkpt>
      <trkpt lat="47.21501" lon="-1.54159">
        <ele>53</ele>
        <time>2020-12-16T11:08:59.000Z</time>
      </trkpt>
      <trkpt lat="47.21505" lon="-1.54174">
        <ele>53</ele>
        <time>2020-12-16T11:09:01.000Z</time>
      </trkpt>
      <trkpt lat="47.21511" lon="-1.54187">
        <ele>54</ele>
        <time>2020-12-16T11:09:03.000Z</time>
      </trkpt>
      <trkpt lat="47.21525" lon="-1.54212">
        <ele>54</ele>
        <time>2020-12-16T11:09:07.000Z</time>
      </trkpt>
      <trkpt lat="47.21537" lon="-1.54227">
        <ele>55</ele>
        <time>2020-12-16T11:09:09.000Z</time>
      </trkpt>
      <trkpt lat="47.21547" lon="-1.54241">
        <ele>55</ele>
        <time>2020-12-16T11:09:11.000Z</time>
      </trkpt>
      <trkpt lat="47.21561" lon="-1.54245">
        <ele>55</ele>
        <time>2020-12-16T11:09:13.000Z</time>
      </trkpt>
      <trkpt lat="47.21576" lon="-1.54266">
        <ele>56</ele>
        <time>2020-12-16T11:09:16.000Z</time>
      </trkpt>
      <trkpt lat="47.21578" lon="-1.54286">
        <ele>56</ele>
        <time>2020-12-16T11:09:18.000Z</time>
      </trkpt>
      <trkpt lat="47.21586" lon="-1.54302">
        <ele>56</ele>
        <time>2020-12-16T11:09:20.000Z</time>
      </trkpt>
      <trkpt lat="47.21594" lon="-1.54315">
        <ele>55</ele>
        <time>2020-12-16T11:09:22.000Z</time>
      </trkpt>
      <trkpt lat="47.21605" lon="-1.54325">
        <ele>55</ele>
        <time>2020-12-16T11:09:24.000Z</time>
      </trkpt>
      <trkpt lat="47.21618" lon="-1.54337">
        <ele>56</ele>
        <time>2020-12-16T11:09:26.000Z</time>
      </trkpt>
      <trkpt lat="47.21627" lon="-1.54352">
        <ele>55</ele>
        <time>2020-12-16T11:09:28.000Z</time>
      </trkpt>
      <trkpt lat="47.21629" lon="-1.54375">
        <ele>56</ele>
        <time>2020-12-16T11:09:30.000Z</time>
      </trkpt>
      <trkpt lat="47.21623" lon="-1.54407">
        <ele>56</ele>
        <time>2020-12-16T11:09:33.000Z</time>
      </trkpt>
      <trkpt lat="47.21616" lon="-1.54425">
        <ele>56</ele>
        <time>2020-12-16T11:09:35.000Z</time>
      </trkpt>
      <trkpt lat="47.21613" lon="-1.54444">
        <ele>56</ele>
        <time>2020-12-16T11:09:37.000Z</time>
      </trkpt>
      <trkpt lat="47.21611" lon="-1.54463">
        <ele>56</ele>
        <time>2020-12-16T11:09:39.000Z</time>
      </trkpt>
      <trkpt lat="47.21605" lon="-1.54492">
        <ele>56</ele>
        <time>2020-12-16T11:09:42.000Z</time>
      </trkpt>
      <trkpt lat="47.21597" lon="-1.54519">
        <ele>56</ele>
        <time>2020-12-16T11:09:45.000Z</time>
      </trkpt>
      <trkpt lat="47.21591" lon="-1.54535">
        <ele>56</ele>
        <time>2020-12-16T11:09:47.000Z</time>
      </trkpt>
      <trkpt lat="47.21583" lon="-1.54558">
        <ele>56</ele>
        <time>2020-12-16T11:09:50.000Z</time>
      </trkpt>
      <trkpt lat="47.21577" lon="-1.54574">
        <ele>55</ele>
        <time>2020-12-16T11:09:52.000Z</time>
      </trkpt>
      <trkpt lat="47.2157" lon="-1.5459">
        <ele>54</ele>
        <time>2020-12-16T11:09:54.000Z</time>
      </trkpt>
      <trkpt lat="47.21563" lon="-1.54608">
        <ele>54</ele>
        <time>2020-12-16T11:09:56.000Z</time>
      </trkpt>
      <trkpt lat="47.21557" lon="-1.54627">
        <ele>53</ele>
        <time>2020-12-16T11:09:58.000Z</time>
      </trkpt>
      <trkpt lat="47.21551" lon="-1.54645">
        <ele>53</ele>
        <time>2020-12-16T11:10:00.000Z</time>
      </trkpt>
      <trkpt lat="47.21544" lon="-1.54665">
        <ele>52</ele>
        <time>2020-12-16T11:10:02.000Z</time>
      </trkpt>
      <trkpt lat="47.21536" lon="-1.54679">
        <ele>51</ele>
        <time>2020-12-16T11:10:04.000Z</time>
      </trkpt>
      <trkpt lat="47.21532" lon="-1.54693">
        <ele>53</ele>
        <time>2020-12-16T11:10:06.000Z</time>
      </trkpt>
      <trkpt lat="47.21528" lon="-1.54711">
        <ele>51</ele>
        <time>2020-12-16T11:10:08.000Z</time>
      </trkpt>
      <trkpt lat="47.21517" lon="-1.54736">
        <ele>51</ele>
        <time>2020-12-16T11:10:11.000Z</time>
      </trkpt>
      <trkpt lat="47.21511" lon="-1.54752">
        <ele>51</ele>
        <time>2020-12-16T11:10:13.000Z</time>
      </trkpt>
      <trkpt lat="47.21501" lon="-1.54777">
        <ele>51</ele>
        <time>2020-12-16T11:10:16.000Z</time>
      </trkpt>
      <trkpt lat="47.21495" lon="-1.5479">
        <ele>46</ele>
        <time>2020-12-16T11:10:18.000Z</time>
      </trkpt>
      <trkpt lat="47.21489" lon="-1.54804">
        <ele>45</ele>
        <time>2020-12-16T11:10:20.000Z</time>
      </trkpt>
      <trkpt lat="47.21477" lon="-1.54831">
        <ele>44</ele>
        <time>2020-12-16T11:10:23.000Z</time>
      </trkpt>
      <trkpt lat="47.2147" lon="-1.54846">
        <ele>43</ele>
        <time>2020-12-16T11:10:25.000Z</time>
      </trkpt>
      <trkpt lat="47.21464" lon="-1.5486">
        <ele>46</ele>
        <time>2020-12-16T11:10:27.000Z</time>
      </trkpt>
      <trkpt lat="47.21455" lon="-1.54886">
        <ele>50</ele>
        <time>2020-12-16T11:10:30.000Z</time>
      </trkpt>
      <trkpt lat="47.21445" lon="-1.54903">
        <ele>50</ele>
        <time>2020-12-16T11:10:32.000Z</time>
      </trkpt>
      <trkpt lat="47.21437" lon="-1.54918">
        <ele>50</ele>
        <time>2020-12-16T11:10:34.000Z</time>
      </trkpt>
      <trkpt lat="47.21425" lon="-1.54944">
        <ele>48</ele>
        <time>2020-12-16T11:10:37.000Z</time>
      </trkpt>
      <trkpt lat="47.21416" lon="-1.5496">
        <ele>48</ele>
        <time>2020-12-16T11:10:39.000Z</time>
      </trkpt>
      <trkpt lat="47.21409" lon="-1.54976">
        <ele>47</ele>
        <time>2020-12-16T11:10:41.000Z</time>
      </trkpt>
      <trkpt lat="47.21403" lon="-1.54992">
        <ele>47</ele>
        <time>2020-12-16T11:10:43.000Z</time>
      </trkpt>
      <trkpt lat="47.21397" lon="-1.55007">
        <ele>48</ele>
        <time>2020-12-16T11:10:45.000Z</time>
      </trkpt>
      <trkpt lat="47.2139" lon="-1.55021">
        <ele>48</ele>
        <time>2020-12-16T11:10:47.000Z</time>
      </trkpt>
      <trkpt lat="47.21384" lon="-1.55036">
        <ele>49</ele>
        <time>2020-12-16T11:10:49.000Z</time>
      </trkpt>
      <trkpt lat="47.21377" lon="-1.55051">
        <ele>49</ele>
        <time>2020-12-16T11:10:51.000Z</time>
      </trkpt>
      <trkpt lat="47.21371" lon="-1.55068">
        <ele>50</ele>
        <time>2020-12-16T11:10:53.000Z</time>
      </trkpt>
      <trkpt lat="47.21364" lon="-1.55085">
        <ele>50</ele>
        <time>2020-12-16T11:10:55.000Z</time>
      </trkpt>
      <trkpt lat="47.21355" lon="-1.55109">
        <ele>50</ele>
        <time>2020-12-16T11:10:58.000Z</time>
      </trkpt>
      <trkpt lat="47.21348" lon="-1.55124">
        <ele>51</ele>
        <time>2020-12-16T11:11:00.000Z</time>
      </trkpt>
      <trkpt lat="47.21342" lon="-1.5514">
        <ele>51</ele>
        <time>2020-12-16T11:11:02.000Z</time>
      </trkpt>
      <trkpt lat="47.21334" lon="-1.55164">
        <ele>51</ele>
        <time>2020-12-16T11:11:05.000Z</time>
      </trkpt>
      <trkpt lat="47.21324" lon="-1.55188">
        <ele>51</ele>
        <time>2020-12-16T11:11:08.000Z</time>
      </trkpt>
      <trkpt lat="47.21313" lon="-1.55211">
        <ele>50</ele>
        <time>2020-12-16T11:11:11.000Z</time>
      </trkpt>
      <trkpt lat="47.21306" lon="-1.55226">
        <ele>46</ele>
        <time>2020-12-16T11:11:13.000Z</time>
      </trkpt>
      <trkpt lat="47.21298" lon="-1.5525">
        <ele>46</ele>
        <time>2020-12-16T11:11:16.000Z</time>
      </trkpt>
      <trkpt lat="47.21292" lon="-1.55265">
        <ele>48</ele>
        <time>2020-12-16T11:11:18.000Z</time>
      </trkpt>
      <trkpt lat="47.21285" lon="-1.55279">
        <ele>49</ele>
        <time>2020-12-16T11:11:20.000Z</time>
      </trkpt>
      <trkpt lat="47.21274" lon="-1.55293">
        <ele>50</ele>
        <time>2020-12-16T11:11:23.000Z</time>
      </trkpt>
      <trkpt lat="47.2126" lon="-1.55297">
        <ele>53</ele>
        <time>2020-12-16T11:11:26.000Z</time>
      </trkpt>
      <trkpt lat="47.21257" lon="-1.55315">
        <ele>54</ele>
        <time>2020-12-16T11:11:29.000Z</time>
      </trkpt>
      <trkpt lat="47.21259" lon="-1.55328">
        <ele>54</ele>
        <time>2020-12-16T11:11:31.000Z</time>
      </trkpt>
      <trkpt lat="47.21266" lon="-1.5534">
        <ele>55</ele>
        <time>2020-12-16T11:11:34.000Z</time>
      </trkpt>
      <trkpt lat="47.21275" lon="-1.5535">
        <ele>55</ele>
        <time>2020-12-16T11:11:38.000Z</time>
      </trkpt>
      <trkpt lat="47.21285" lon="-1.55355">
        <ele>55</ele>
        <time>2020-12-16T11:11:41.000Z</time>
      </trkpt>
      <trkpt lat="47.21289" lon="-1.5537">
        <ele>56</ele>
        <time>2020-12-16T11:11:48.000Z</time>
      </trkpt>
      <trkpt lat="47.21286" lon="-1.55384">
        <ele>57</ele>
        <time>2020-12-16T11:11:55.000Z</time>
      </trkpt>
      <trkpt lat="47.21279" lon="-1.55397">
        <ele>60</ele>
        <time>2020-12-16T11:11:58.000Z</time>
      </trkpt>
      <trkpt lat="47.21273" lon="-1.55408">
        <ele>59</ele>
        <time>2020-12-16T11:12:04.000Z</time>
      </trkpt>
      <trkpt lat="47.21264" lon="-1.5542">
        <ele>59</ele>
        <time>2020-12-16T11:12:06.000Z</time>
      </trkpt>
      <trkpt lat="47.21254" lon="-1.55433">
        <ele>57</ele>
        <time>2020-12-16T11:12:08.000Z</time>
      </trkpt>
      <trkpt lat="47.21244" lon="-1.55446">
        <ele>57</ele>
        <time>2020-12-16T11:12:10.000Z</time>
      </trkpt>
      <trkpt lat="47.21233" lon="-1.5546">
        <ele>56</ele>
        <time>2020-12-16T11:12:12.000Z</time>
      </trkpt>
      <trkpt lat="47.21225" lon="-1.55477">
        <ele>56</ele>
        <time>2020-12-16T11:12:14.000Z</time>
      </trkpt>
      <trkpt lat="47.21217" lon="-1.55495">
        <ele>55</ele>
        <time>2020-12-16T11:12:16.000Z</time>
      </trkpt>
      <trkpt lat="47.21212" lon="-1.55513">
        <ele>54</ele>
        <time>2020-12-16T11:12:18.000Z</time>
      </trkpt>
      <trkpt lat="47.21207" lon="-1.55531">
        <ele>54</ele>
        <time>2020-12-16T11:12:20.000Z</time>
      </trkpt>
      <trkpt lat="47.21201" lon="-1.55549">
        <ele>54</ele>
        <time>2020-12-16T11:12:22.000Z</time>
      </trkpt>
      <trkpt lat="47.21194" lon="-1.55573">
        <ele>54</ele>
        <time>2020-12-16T11:12:25.000Z</time>
      </trkpt>
      <trkpt lat="47.21189" lon="-1.55589">
        <ele>54</ele>
        <time>2020-12-16T11:12:27.000Z</time>
      </trkpt>
      <trkpt lat="47.21181" lon="-1.55613">
        <ele>54</ele>
        <time>2020-12-16T11:12:30.000Z</time>
      </trkpt>
      <trkpt lat="47.21173" lon="-1.55637">
        <ele>55</ele>
        <time>2020-12-16T11:12:33.000Z</time>
      </trkpt>
      <trkpt lat="47.2117" lon="-1.5565">
        <ele>55</ele>
        <time>2020-12-16T11:12:35.000Z</time>
      </trkpt>
      <trkpt lat="47.21168" lon="-1.55665">
        <ele>55</ele>
        <time>2020-12-16T11:12:41.000Z</time>
      </trkpt>
      <trkpt lat="47.21156" lon="-1.55674">
        <ele>57</ele>
        <time>2020-12-16T11:12:44.000Z</time>
      </trkpt>
      <trkpt lat="47.21136" lon="-1.55658">
        <ele>57</ele>
        <time>2020-12-16T11:12:47.000Z</time>
      </trkpt>
      <trkpt lat="47.21113" lon="-1.5564">
        <ele>56</ele>
        <time>2020-12-16T11:12:50.000Z</time>
      </trkpt>
      <trkpt lat="47.21099" lon="-1.55628">
        <ele>56</ele>
        <time>2020-12-16T11:12:52.000Z</time>
      </trkpt>
      <trkpt lat="47.21084" lon="-1.55617">
        <ele>56</ele>
        <time>2020-12-16T11:12:54.000Z</time>
      </trkpt>
      <trkpt lat="47.2107" lon="-1.55608">
        <ele>57</ele>
        <time>2020-12-16T11:12:56.000Z</time>
      </trkpt>
      <trkpt lat="47.21058" lon="-1.55597">
        <ele>58</ele>
        <time>2020-12-16T11:12:58.000Z</time>
      </trkpt>
      <trkpt lat="47.21045" lon="-1.5559">
        <ele>57</ele>
        <time>2020-12-16T11:13:00.000Z</time>
      </trkpt>
      <trkpt lat="47.21032" lon="-1.55584">
        <ele>57</ele>
        <time>2020-12-16T11:13:02.000Z</time>
      </trkpt>
      <trkpt lat="47.21019" lon="-1.55581">
        <ele>57</ele>
        <time>2020-12-16T11:13:04.000Z</time>
      </trkpt>
      <trkpt lat="47.21001" lon="-1.55575">
        <ele>55</ele>
        <time>2020-12-16T11:13:07.000Z</time>
      </trkpt>
      <trkpt lat="47.2099" lon="-1.55574">
        <ele>55</ele>
        <time>2020-12-16T11:13:09.000Z</time>
      </trkpt>
      <trkpt lat="47.20978" lon="-1.55573">
        <ele>53</ele>
        <time>2020-12-16T11:13:12.000Z</time>
      </trkpt>
      <trkpt lat="47.20966" lon="-1.55574">
        <ele>52</ele>
        <time>2020-12-16T11:13:16.000Z</time>
      </trkpt>
      <trkpt lat="47.20957" lon="-1.55577">
        <ele>51</ele>
        <time>2020-12-16T11:13:22.000Z</time>
      </trkpt>
      <trkpt lat="47.20946" lon="-1.55573">
        <ele>53</ele>
        <time>2020-12-16T11:13:38.000Z</time>
      </trkpt>
      <trkpt lat="47.20933" lon="-1.55566">
        <ele>55</ele>
        <time>2020-12-16T11:13:41.000Z</time>
      </trkpt>
      <trkpt lat="47.2092" lon="-1.5556">
        <ele>54</ele>
        <time>2020-12-16T11:13:43.000Z</time>
      </trkpt>
      <trkpt lat="47.20908" lon="-1.55557">
        <ele>56</ele>
        <time>2020-12-16T11:13:45.000Z</time>
      </trkpt>
      <trkpt lat="47.20896" lon="-1.55553">
        <ele>56</ele>
        <time>2020-12-16T11:13:47.000Z</time>
      </trkpt>
      <trkpt lat="47.20884" lon="-1.5555">
        <ele>57</ele>
        <time>2020-12-16T11:13:49.000Z</time>
      </trkpt>
      <trkpt lat="47.20873" lon="-1.55547">
        <ele>57</ele>
        <time>2020-12-16T11:13:51.000Z</time>
      </trkpt>
      <trkpt lat="47.20861" lon="-1.55544">
        <ele>57</ele>
        <time>2020-12-16T11:13:53.000Z</time>
      </trkpt>
      <trkpt lat="47.2085" lon="-1.55539">
        <ele>58</ele>
        <time>2020-12-16T11:13:55.000Z</time>
      </trkpt>
      <trkpt lat="47.20838" lon="-1.55537">
        <ele>60</ele>
        <time>2020-12-16T11:13:57.000Z</time>
      </trkpt>
      <trkpt lat="47.20828" lon="-1.55535">
        <ele>60</ele>
        <time>2020-12-16T11:13:59.000Z</time>
      </trkpt>
      <trkpt lat="47.20817" lon="-1.55532">
        <ele>60</ele>
        <time>2020-12-16T11:14:01.000Z</time>
      </trkpt>
      <trkpt lat="47.20807" lon="-1.5553">
        <ele>60</ele>
        <time>2020-12-16T11:14:03.000Z</time>
      </trkpt>
      <trkpt lat="47.2079" lon="-1.55528">
        <ele>59</ele>
        <time>2020-12-16T11:14:06.000Z</time>
      </trkpt>
      <trkpt lat="47.20772" lon="-1.55523">
        <ele>57</ele>
        <time>2020-12-16T11:14:09.000Z</time>
      </trkpt>
      <trkpt lat="47.2076" lon="-1.55519">
        <ele>55</ele>
        <time>2020-12-16T11:14:11.000Z</time>
      </trkpt>
      <trkpt lat="47.20747" lon="-1.55515">
        <ele>55</ele>
        <time>2020-12-16T11:14:13.000Z</time>
      </trkpt>
      <trkpt lat="47.20732" lon="-1.55512">
        <ele>55</ele>
        <time>2020-12-16T11:14:15.000Z</time>
      </trkpt>
      <trkpt lat="47.20719" lon="-1.55509">
        <ele>55</ele>
        <time>2020-12-16T11:14:17.000Z</time>
      </trkpt>
      <trkpt lat="47.20702" lon="-1.55507">
        <ele>53</ele>
        <time>2020-12-16T11:14:20.000Z</time>
      </trkpt>
      <trkpt lat="47.20692" lon="-1.55503">
        <ele>55</ele>
        <time>2020-12-16T11:14:22.000Z</time>
      </trkpt>
      <trkpt lat="47.20681" lon="-1.55499">
        <ele>56</ele>
        <time>2020-12-16T11:14:25.000Z</time>
      </trkpt>
      <trkpt lat="47.2067" lon="-1.555">
        <ele>56</ele>
        <time>2020-12-16T11:14:30.000Z</time>
      </trkpt>
      <trkpt lat="47.20661" lon="-1.55498">
        <ele>57</ele>
        <time>2020-12-16T11:14:32.000Z</time>
      </trkpt>
      <trkpt lat="47.20649" lon="-1.55496">
        <ele>57</ele>
        <time>2020-12-16T11:14:34.000Z</time>
      </trkpt>
      <trkpt lat="47.20637" lon="-1.55492">
        <ele>58</ele>
        <time>2020-12-16T11:14:36.000Z</time>
      </trkpt>
      <trkpt lat="47.20624" lon="-1.55492">
        <ele>58</ele>
        <time>2020-12-16T11:14:38.000Z</time>
      </trkpt>
      <trkpt lat="47.20611" lon="-1.55489">
        <ele>58</ele>
        <time>2020-12-16T11:14:40.000Z</time>
      </trkpt>
      <trkpt lat="47.20596" lon="-1.55487">
        <ele>55</ele>
        <time>2020-12-16T11:14:43.000Z</time>
      </trkpt>
      <trkpt lat="47.20581" lon="-1.55477">
        <ele>56</ele>
        <time>2020-12-16T11:14:47.000Z</time>
      </trkpt>
      <trkpt lat="47.20568" lon="-1.55478">
        <ele>57</ele>
        <time>2020-12-16T11:14:50.000Z</time>
      </trkpt>
      <trkpt lat="47.20556" lon="-1.55486">
        <ele>58</ele>
        <time>2020-12-16T11:14:55.000Z</time>
      </trkpt>
      <trkpt lat="47.20539" lon="-1.55501">
        <ele>59</ele>
        <time>2020-12-16T11:14:58.000Z</time>
      </trkpt>
      <trkpt lat="47.20524" lon="-1.55503">
        <ele>59</ele>
        <time>2020-12-16T11:15:00.000Z</time>
      </trkpt>
      <trkpt lat="47.20515" lon="-1.55496">
        <ele>58</ele>
        <time>2020-12-16T11:15:01.000Z</time>
      </trkpt>
      <trkpt lat="47.20507" lon="-1.55489">
        <ele>58</ele>
        <time>2020-12-16T11:15:02.000Z</time>
      </trkpt>
      <trkpt lat="47.20499" lon="-1.55472">
        <ele>56</ele>
        <time>2020-12-16T11:15:04.000Z</time>
      </trkpt>
      <trkpt lat="47.20501" lon="-1.5545">
        <ele>56</ele>
        <time>2020-12-16T11:15:06.000Z</time>
      </trkpt>
      <trkpt lat="47.20506" lon="-1.55427">
        <ele>55</ele>
        <time>2020-12-16T11:15:09.000Z</time>
      </trkpt>
      <trkpt lat="47.20503" lon="-1.55411">
        <ele>56</ele>
        <time>2020-12-16T11:15:11.000Z</time>
      </trkpt>
      <trkpt lat="47.20497" lon="-1.55395">
        <ele>57</ele>
        <time>2020-12-16T11:15:13.000Z</time>
      </trkpt>
      <trkpt lat="47.20488" lon="-1.55382">
        <ele>56</ele>
        <time>2020-12-16T11:15:15.000Z</time>
      </trkpt>
      <trkpt lat="47.20474" lon="-1.55361">
        <ele>55</ele>
        <time>2020-12-16T11:15:18.000Z</time>
      </trkpt>
      <trkpt lat="47.20464" lon="-1.5534">
        <ele>55</ele>
        <time>2020-12-16T11:15:21.000Z</time>
      </trkpt>
      <trkpt lat="47.20456" lon="-1.55323">
        <ele>53</ele>
        <time>2020-12-16T11:15:23.000Z</time>
      </trkpt>
      <trkpt lat="47.20445" lon="-1.553">
        <ele>52</ele>
        <time>2020-12-16T11:15:26.000Z</time>
      </trkpt>
      <trkpt lat="47.20437" lon="-1.55287">
        <ele>50</ele>
        <time>2020-12-16T11:15:28.000Z</time>
      </trkpt>
      <trkpt lat="47.20431" lon="-1.5527">
        <ele>50</ele>
        <time>2020-12-16T11:15:30.000Z</time>
      </trkpt>
      <trkpt lat="47.20424" lon="-1.55255">
        <ele>50</ele>
        <time>2020-12-16T11:15:32.000Z</time>
      </trkpt>
      <trkpt lat="47.20417" lon="-1.5524">
        <ele>50</ele>
        <time>2020-12-16T11:15:34.000Z</time>
      </trkpt>
      <trkpt lat="47.2041" lon="-1.55227">
        <ele>51</ele>
        <time>2020-12-16T11:15:36.000Z</time>
      </trkpt>
      <trkpt lat="47.20403" lon="-1.55214">
        <ele>50</ele>
        <time>2020-12-16T11:15:38.000Z</time>
      </trkpt>
      <trkpt lat="47.20396" lon="-1.55201">
        <ele>51</ele>
        <time>2020-12-16T11:15:40.000Z</time>
      </trkpt>
      <trkpt lat="47.2039" lon="-1.5519">
        <ele>53</ele>
        <time>2020-12-16T11:15:42.000Z</time>
      </trkpt>
      <trkpt lat="47.20379" lon="-1.55184">
        <ele>54</ele>
        <time>2020-12-16T11:15:47.000Z</time>
      </trkpt>
      <trkpt lat="47.20368" lon="-1.55194">
        <ele>55</ele>
        <time>2020-12-16T11:15:50.000Z</time>
      </trkpt>
      <trkpt lat="47.20356" lon="-1.55208">
        <ele>55</ele>
        <time>2020-12-16T11:15:52.000Z</time>
      </trkpt>
      <trkpt lat="47.20344" lon="-1.55221">
        <ele>54</ele>
        <time>2020-12-16T11:15:54.000Z</time>
      </trkpt>
      <trkpt lat="47.20333" lon="-1.55236">
        <ele>52</ele>
        <time>2020-12-16T11:15:56.000Z</time>
      </trkpt>
      <trkpt lat="47.20323" lon="-1.55251">
        <ele>54</ele>
        <time>2020-12-16T11:15:58.000Z</time>
      </trkpt>
      <trkpt lat="47.20306" lon="-1.5527">
        <ele>54</ele>
        <time>2020-12-16T11:16:01.000Z</time>
      </trkpt>
      <trkpt lat="47.20291" lon="-1.55289">
        <ele>52</ele>
        <time>2020-12-16T11:16:04.000Z</time>
      </trkpt>
      <trkpt lat="47.20282" lon="-1.55302">
        <ele>53</ele>
        <time>2020-12-16T11:16:06.000Z</time>
      </trkpt>
      <trkpt lat="47.20272" lon="-1.55316">
        <ele>53</ele>
        <time>2020-12-16T11:16:08.000Z</time>
      </trkpt>
      <trkpt lat="47.20261" lon="-1.5533">
        <ele>53</ele>
        <time>2020-12-16T11:16:10.000Z</time>
      </trkpt>
      <trkpt lat="47.20248" lon="-1.55354">
        <ele>52</ele>
        <time>2020-12-16T11:16:13.000Z</time>
      </trkpt>
      <trkpt lat="47.20238" lon="-1.55364">
        <ele>53</ele>
        <time>2020-12-16T11:16:15.000Z</time>
      </trkpt>
      <trkpt lat="47.20227" lon="-1.55377">
        <ele>53</ele>
        <time>2020-12-16T11:16:17.000Z</time>
      </trkpt>
      <trkpt lat="47.20211" lon="-1.55395">
        <ele>52</ele>
        <time>2020-12-16T11:16:20.000Z</time>
      </trkpt>
      <trkpt lat="47.20203" lon="-1.55407">
        <ele>52</ele>
        <time>2020-12-16T11:16:22.000Z</time>
      </trkpt>
      <trkpt lat="47.2019" lon="-1.55429">
        <ele>53</ele>
        <time>2020-12-16T11:16:25.000Z</time>
      </trkpt>
      <trkpt lat="47.20179" lon="-1.5545">
        <ele>53</ele>
        <time>2020-12-16T11:16:28.000Z</time>
      </trkpt>
      <trkpt lat="47.20171" lon="-1.55459">
        <ele>53</ele>
        <time>2020-12-16T11:16:30.000Z</time>
      </trkpt>
      <trkpt lat="47.20162" lon="-1.55468">
        <ele>54</ele>
        <time>2020-12-16T11:16:32.000Z</time>
      </trkpt>
      <trkpt lat="47.20153" lon="-1.55471">
        <ele>55</ele>
        <time>2020-12-16T11:16:38.000Z</time>
      </trkpt>
      <trkpt lat="47.20143" lon="-1.55465">
        <ele>54</ele>
        <time>2020-12-16T11:16:42.000Z</time>
      </trkpt>
      <trkpt lat="47.20133" lon="-1.5548">
        <ele>54</ele>
        <time>2020-12-16T11:16:45.000Z</time>
      </trkpt>
      <trkpt lat="47.20125" lon="-1.5549">
        <ele>54</ele>
        <time>2020-12-16T11:16:47.000Z</time>
      </trkpt>
      <trkpt lat="47.20112" lon="-1.55507">
        <ele>55</ele>
        <time>2020-12-16T11:16:50.000Z</time>
      </trkpt>
      <trkpt lat="47.20102" lon="-1.55519">
        <ele>54</ele>
        <time>2020-12-16T11:16:52.000Z</time>
      </trkpt>
      <trkpt lat="47.20094" lon="-1.55531">
        <ele>55</ele>
        <time>2020-12-16T11:16:54.000Z</time>
      </trkpt>
      <trkpt lat="47.20084" lon="-1.55543">
        <ele>55</ele>
        <time>2020-12-16T11:16:56.000Z</time>
      </trkpt>
      <trkpt lat="47.20076" lon="-1.55555">
        <ele>55</ele>
        <time>2020-12-16T11:16:58.000Z</time>
      </trkpt>
      <trkpt lat="47.20067" lon="-1.55567">
        <ele>55</ele>
        <time>2020-12-16T11:17:00.000Z</time>
      </trkpt>
      <trkpt lat="47.20047" lon="-1.55591">
        <ele>54</ele>
        <time>2020-12-16T11:17:04.000Z</time>
      </trkpt>
      <trkpt lat="47.2004" lon="-1.55602">
        <ele>54</ele>
        <time>2020-12-16T11:17:06.000Z</time>
      </trkpt>
      <trkpt lat="47.20028" lon="-1.55619">
        <ele>54</ele>
        <time>2020-12-16T11:17:09.000Z</time>
      </trkpt>
      <trkpt lat="47.2002" lon="-1.55628">
        <ele>55</ele>
        <time>2020-12-16T11:17:11.000Z</time>
      </trkpt>
      <trkpt lat="47.20006" lon="-1.55635">
        <ele>55</ele>
        <time>2020-12-16T11:17:14.000Z</time>
      </trkpt>
      <trkpt lat="47.19995" lon="-1.55639">
        <ele>56</ele>
        <time>2020-12-16T11:17:16.000Z</time>
      </trkpt>
      <trkpt lat="47.19984" lon="-1.55645">
        <ele>56</ele>
        <time>2020-12-16T11:17:18.000Z</time>
      </trkpt>
      <trkpt lat="47.19973" lon="-1.55652">
        <ele>56</ele>
        <time>2020-12-16T11:17:20.000Z</time>
      </trkpt>
      <trkpt lat="47.19964" lon="-1.55658">
        <ele>56</ele>
        <time>2020-12-16T11:17:22.000Z</time>
      </trkpt>
      <trkpt lat="47.19954" lon="-1.55666">
        <ele>56</ele>
        <time>2020-12-16T11:17:24.000Z</time>
      </trkpt>
      <trkpt lat="47.19945" lon="-1.55678">
        <ele>56</ele>
        <time>2020-12-16T11:17:26.000Z</time>
      </trkpt>
      <trkpt lat="47.19939" lon="-1.55692">
        <ele>55</ele>
        <time>2020-12-16T11:17:28.000Z</time>
      </trkpt>
      <trkpt lat="47.19934" lon="-1.55708">
        <ele>54</ele>
        <time>2020-12-16T11:17:30.000Z</time>
      </trkpt>
      <trkpt lat="47.19932" lon="-1.55725">
        <ele>54</ele>
        <time>2020-12-16T11:17:32.000Z</time>
      </trkpt>
      <trkpt lat="47.19931" lon="-1.55743">
        <ele>54</ele>
        <time>2020-12-16T11:17:34.000Z</time>
      </trkpt>
      <trkpt lat="47.19931" lon="-1.55769">
        <ele>54</ele>
        <time>2020-12-16T11:17:37.000Z</time>
      </trkpt>
      <trkpt lat="47.19929" lon="-1.5579">
        <ele>52</ele>
        <time>2020-12-16T11:17:39.000Z</time>
      </trkpt>
      <trkpt lat="47.19931" lon="-1.55808">
        <ele>52</ele>
        <time>2020-12-16T11:17:41.000Z</time>
      </trkpt>
      <trkpt lat="47.19931" lon="-1.55827">
        <ele>53</ele>
        <time>2020-12-16T11:17:43.000Z</time>
      </trkpt>
      <trkpt lat="47.19931" lon="-1.55846">
        <ele>54</ele>
        <time>2020-12-16T11:17:45.000Z</time>
      </trkpt>
      <trkpt lat="47.1993" lon="-1.55865">
        <ele>53</ele>
        <time>2020-12-16T11:17:47.000Z</time>
      </trkpt>
      <trkpt lat="47.1993" lon="-1.55883">
        <ele>53</ele>
        <time>2020-12-16T11:17:49.000Z</time>
      </trkpt>
      <trkpt lat="47.1993" lon="-1.559">
        <ele>54</ele>
        <time>2020-12-16T11:17:51.000Z</time>
      </trkpt>
      <trkpt lat="47.19931" lon="-1.55918">
        <ele>54</ele>
        <time>2020-12-16T11:17:53.000Z</time>
      </trkpt>
      <trkpt lat="47.19931" lon="-1.55941">
        <ele>54</ele>
        <time>2020-12-16T11:17:55.000Z</time>
      </trkpt>
      <trkpt lat="47.19931" lon="-1.55966">
        <ele>53</ele>
        <time>2020-12-16T11:17:58.000Z</time>
      </trkpt>
      <trkpt lat="47.19932" lon="-1.55983">
        <ele>54</ele>
        <time>2020-12-16T11:18:00.000Z</time>
      </trkpt>
      <trkpt lat="47.19933" lon="-1.56002">
        <ele>54</ele>
        <time>2020-12-16T11:18:02.000Z</time>
      </trkpt>
      <trkpt lat="47.19933" lon="-1.5603">
        <ele>54</ele>
        <time>2020-12-16T11:18:05.000Z</time>
      </trkpt>
      <trkpt lat="47.19933" lon="-1.56047">
        <ele>54</ele>
        <time>2020-12-16T11:18:07.000Z</time>
      </trkpt>
      <trkpt lat="47.19935" lon="-1.56064">
        <ele>53</ele>
        <time>2020-12-16T11:18:09.000Z</time>
      </trkpt>
      <trkpt lat="47.19939" lon="-1.5608">
        <ele>53</ele>
        <time>2020-12-16T11:18:11.000Z</time>
      </trkpt>
      <trkpt lat="47.19946" lon="-1.56093">
        <ele>52</ele>
        <time>2020-12-16T11:18:13.000Z</time>
      </trkpt>
      <trkpt lat="47.19953" lon="-1.56106">
        <ele>52</ele>
        <time>2020-12-16T11:18:15.000Z</time>
      </trkpt>
      <trkpt lat="47.19957" lon="-1.56118">
        <ele>53</ele>
        <time>2020-12-16T11:18:17.000Z</time>
      </trkpt>
      <trkpt lat="47.19959" lon="-1.56134">
        <ele>54</ele>
        <time>2020-12-16T11:18:20.000Z</time>
      </trkpt>
      <trkpt lat="47.19966" lon="-1.56146">
        <ele>53</ele>
        <time>2020-12-16T11:18:23.000Z</time>
      </trkpt>
      <trkpt lat="47.19963" lon="-1.56167">
        <ele>55</ele>
        <time>2020-12-16T11:18:27.000Z</time>
      </trkpt>
      <trkpt lat="47.19952" lon="-1.56174">
        <ele>55</ele>
        <time>2020-12-16T11:18:29.000Z</time>
      </trkpt>
      <trkpt lat="47.19936" lon="-1.56174">
        <ele>58</ele>
        <time>2020-12-16T11:18:32.000Z</time>
      </trkpt>
      <trkpt lat="47.19925" lon="-1.56177">
        <ele>56</ele>
        <time>2020-12-16T11:18:34.000Z</time>
      </trkpt>
      <trkpt lat="47.19913" lon="-1.56176">
        <ele>58</ele>
        <time>2020-12-16T11:18:37.000Z</time>
      </trkpt>
      <trkpt lat="47.19903" lon="-1.56177">
        <ele>59</ele>
        <time>2020-12-16T11:18:39.000Z</time>
      </trkpt>
      <trkpt lat="47.19893" lon="-1.56179">
        <ele>60</ele>
        <time>2020-12-16T11:18:41.000Z</time>
      </trkpt>
      <trkpt lat="47.19883" lon="-1.56181">
        <ele>60</ele>
        <time>2020-12-16T11:18:43.000Z</time>
      </trkpt>
      <trkpt lat="47.19873" lon="-1.56182">
        <ele>56</ele>
        <time>2020-12-16T11:18:45.000Z</time>
      </trkpt>
      <trkpt lat="47.19863" lon="-1.56184">
        <ele>57</ele>
        <time>2020-12-16T11:18:47.000Z</time>
      </trkpt>
      <trkpt lat="47.19852" lon="-1.56185">
        <ele>58</ele>
        <time>2020-12-16T11:18:49.000Z</time>
      </trkpt>
      <trkpt lat="47.19842" lon="-1.56189">
        <ele>57</ele>
        <time>2020-12-16T11:18:51.000Z</time>
      </trkpt>
      <trkpt lat="47.19832" lon="-1.56192">
        <ele>56</ele>
        <time>2020-12-16T11:18:53.000Z</time>
      </trkpt>
      <trkpt lat="47.19821" lon="-1.56192">
        <ele>58</ele>
        <time>2020-12-16T11:18:55.000Z</time>
      </trkpt>
      <trkpt lat="47.19811" lon="-1.56193">
        <ele>59</ele>
        <time>2020-12-16T11:18:57.000Z</time>
      </trkpt>
      <trkpt lat="47.19802" lon="-1.56195">
        <ele>59</ele>
        <time>2020-12-16T11:18:59.000Z</time>
      </trkpt>
      <trkpt lat="47.19791" lon="-1.56196">
        <ele>59</ele>
        <time>2020-12-16T11:19:01.000Z</time>
      </trkpt>
      <trkpt lat="47.19776" lon="-1.56199">
        <ele>59</ele>
        <time>2020-12-16T11:19:04.000Z</time>
      </trkpt>
      <trkpt lat="47.19767" lon="-1.56203">
        <ele>59</ele>
        <time>2020-12-16T11:19:06.000Z</time>
      </trkpt>
      <trkpt lat="47.19757" lon="-1.56207">
        <ele>57</ele>
        <time>2020-12-16T11:19:08.000Z</time>
      </trkpt>
      <trkpt lat="47.19746" lon="-1.56207">
        <ele>57</ele>
        <time>2020-12-16T11:19:10.000Z</time>
      </trkpt>
      <trkpt lat="47.19735" lon="-1.56209">
        <ele>58</ele>
        <time>2020-12-16T11:19:12.000Z</time>
      </trkpt>
      <trkpt lat="47.19724" lon="-1.56212">
        <ele>57</ele>
        <time>2020-12-16T11:19:14.000Z</time>
      </trkpt>
      <trkpt lat="47.19712" lon="-1.56214">
        <ele>57</ele>
        <time>2020-12-16T11:19:16.000Z</time>
      </trkpt>
      <trkpt lat="47.19698" lon="-1.56216">
        <ele>57</ele>
        <time>2020-12-16T11:19:18.000Z</time>
      </trkpt>
      <trkpt lat="47.19685" lon="-1.56219">
        <ele>56</ele>
        <time>2020-12-16T11:19:20.000Z</time>
      </trkpt>
      <trkpt lat="47.19672" lon="-1.56221">
        <ele>54</ele>
        <time>2020-12-16T11:19:22.000Z</time>
      </trkpt>
      <trkpt lat="47.19658" lon="-1.56226">
        <ele>55</ele>
        <time>2020-12-16T11:19:24.000Z</time>
      </trkpt>
      <trkpt lat="47.19645" lon="-1.56231">
        <ele>55</ele>
        <time>2020-12-16T11:19:26.000Z</time>
      </trkpt>
      <trkpt lat="47.19637" lon="-1.56247">
        <ele>53</ele>
        <time>2020-12-16T11:19:28.000Z</time>
      </trkpt>
      <trkpt lat="47.19634" lon="-1.56267">
        <ele>52</ele>
        <time>2020-12-16T11:19:30.000Z</time>
      </trkpt>
      <trkpt lat="47.19634" lon="-1.56286">
        <ele>53</ele>
        <time>2020-12-16T11:19:32.000Z</time>
      </trkpt>
      <trkpt lat="47.19633" lon="-1.56305">
        <ele>52</ele>
        <time>2020-12-16T11:19:34.000Z</time>
      </trkpt>
      <trkpt lat="47.19632" lon="-1.56323">
        <ele>51</ele>
        <time>2020-12-16T11:19:36.000Z</time>
      </trkpt>
      <trkpt lat="47.19632" lon="-1.56343">
        <ele>52</ele>
        <time>2020-12-16T11:19:38.000Z</time>
      </trkpt>
      <trkpt lat="47.1963" lon="-1.56362">
        <ele>51</ele>
        <time>2020-12-16T11:19:40.000Z</time>
      </trkpt>
      <trkpt lat="47.1963" lon="-1.56382">
        <ele>51</ele>
        <time>2020-12-16T11:19:42.000Z</time>
      </trkpt>
      <trkpt lat="47.1963" lon="-1.56401">
        <ele>51</ele>
        <time>2020-12-16T11:19:44.000Z</time>
      </trkpt>
      <trkpt lat="47.19631" lon="-1.56421">
        <ele>51</ele>
        <time>2020-12-16T11:19:46.000Z</time>
      </trkpt>
      <trkpt lat="47.19633" lon="-1.56442">
        <ele>50</ele>
        <time>2020-12-16T11:19:48.000Z</time>
      </trkpt>
      <trkpt lat="47.19633" lon="-1.5646">
        <ele>48</ele>
        <time>2020-12-16T11:19:50.000Z</time>
      </trkpt>
      <trkpt lat="47.19632" lon="-1.5648">
        <ele>48</ele>
        <time>2020-12-16T11:19:52.000Z</time>
      </trkpt>
      <trkpt lat="47.19632" lon="-1.56499">
        <ele>48</ele>
        <time>2020-12-16T11:19:54.000Z</time>
      </trkpt>
      <trkpt lat="47.19632" lon="-1.56515">
        <ele>49</ele>
        <time>2020-12-16T11:19:56.000Z</time>
      </trkpt>
      <trkpt lat="47.19632" lon="-1.56534">
        <ele>51</ele>
        <time>2020-12-16T11:19:58.000Z</time>
      </trkpt>
      <trkpt lat="47.19632" lon="-1.56552">
        <ele>52</ele>
        <time>2020-12-16T11:20:00.000Z</time>
      </trkpt>
      <trkpt lat="47.19633" lon="-1.5657">
        <ele>53</ele>
        <time>2020-12-16T11:20:02.000Z</time>
      </trkpt>
      <trkpt lat="47.19633" lon="-1.56589">
        <ele>54</ele>
        <time>2020-12-16T11:20:04.000Z</time>
      </trkpt>
      <trkpt lat="47.19632" lon="-1.56609">
        <ele>55</ele>
        <time>2020-12-16T11:20:06.000Z</time>
      </trkpt>
      <trkpt lat="47.19632" lon="-1.56628">
        <ele>55</ele>
        <time>2020-12-16T11:20:08.000Z</time>
      </trkpt>
      <trkpt lat="47.19634" lon="-1.56646">
        <ele>54</ele>
        <time>2020-12-16T11:20:10.000Z</time>
      </trkpt>
      <trkpt lat="47.19632" lon="-1.56674">
        <ele>54</ele>
        <time>2020-12-16T11:20:13.000Z</time>
      </trkpt>
      <trkpt lat="47.1963" lon="-1.567">
        <ele>54</ele>
        <time>2020-12-16T11:20:16.000Z</time>
      </trkpt>
      <trkpt lat="47.19629" lon="-1.5673">
        <ele>54</ele>
        <time>2020-12-16T11:20:19.000Z</time>
      </trkpt>
      <trkpt lat="47.19625" lon="-1.56751">
        <ele>53</ele>
        <time>2020-12-16T11:20:21.000Z</time>
      </trkpt>
      <trkpt lat="47.19622" lon="-1.56769">
        <ele>53</ele>
        <time>2020-12-16T11:20:23.000Z</time>
      </trkpt>
      <trkpt lat="47.19621" lon="-1.56796">
        <ele>53</ele>
        <time>2020-12-16T11:20:26.000Z</time>
      </trkpt>
      <trkpt lat="47.19622" lon="-1.56811">
        <ele>53</ele>
        <time>2020-12-16T11:20:28.000Z</time>
      </trkpt>
      <trkpt lat="47.19621" lon="-1.56831">
        <ele>52</ele>
        <time>2020-12-16T11:20:30.000Z</time>
      </trkpt>
      <trkpt lat="47.19619" lon="-1.56849">
        <ele>53</ele>
        <time>2020-12-16T11:20:32.000Z</time>
      </trkpt>
      <trkpt lat="47.19618" lon="-1.56867">
        <ele>52</ele>
        <time>2020-12-16T11:20:34.000Z</time>
      </trkpt>
      <trkpt lat="47.19616" lon="-1.56895">
        <ele>52</ele>
        <time>2020-12-16T11:20:37.000Z</time>
      </trkpt>
      <trkpt lat="47.19615" lon="-1.56912">
        <ele>53</ele>
        <time>2020-12-16T11:20:39.000Z</time>
      </trkpt>
      <trkpt lat="47.19613" lon="-1.56931">
        <ele>53</ele>
        <time>2020-12-16T11:20:41.000Z</time>
      </trkpt>
      <trkpt lat="47.19612" lon="-1.56948">
        <ele>54</ele>
        <time>2020-12-16T11:20:43.000Z</time>
      </trkpt>
      <trkpt lat="47.1961" lon="-1.56967">
        <ele>53</ele>
        <time>2020-12-16T11:20:45.000Z</time>
      </trkpt>
      <trkpt lat="47.19608" lon="-1.56985">
        <ele>53</ele>
        <time>2020-12-16T11:20:47.000Z</time>
      </trkpt>
      <trkpt lat="47.19607" lon="-1.57001">
        <ele>52</ele>
        <time>2020-12-16T11:20:49.000Z</time>
      </trkpt>
      <trkpt lat="47.19606" lon="-1.57019">
        <ele>52</ele>
        <time>2020-12-16T11:20:51.000Z</time>
      </trkpt>
      <trkpt lat="47.19605" lon="-1.57036">
        <ele>51</ele>
        <time>2020-12-16T11:20:53.000Z</time>
      </trkpt>
      <trkpt lat="47.19604" lon="-1.57056">
        <ele>51</ele>
        <time>2020-12-16T11:20:55.000Z</time>
      </trkpt>
      <trkpt lat="47.19598" lon="-1.57089">
        <ele>50</ele>
        <time>2020-12-16T11:20:58.000Z</time>
      </trkpt>
      <trkpt lat="47.19593" lon="-1.57117">
        <ele>49</ele>
        <time>2020-12-16T11:21:01.000Z</time>
      </trkpt>
      <trkpt lat="47.19593" lon="-1.57136">
        <ele>49</ele>
        <time>2020-12-16T11:21:04.000Z</time>
      </trkpt>
      <trkpt lat="47.19593" lon="-1.57158">
        <ele>48</ele>
        <time>2020-12-16T11:21:07.000Z</time>
      </trkpt>
      <trkpt lat="47.19597" lon="-1.57175">
        <ele>46</ele>
        <time>2020-12-16T11:21:09.000Z</time>
      </trkpt>
      <trkpt lat="47.19596" lon="-1.57201">
        <ele>47</ele>
        <time>2020-12-16T11:21:12.000Z</time>
      </trkpt>
      <trkpt lat="47.19597" lon="-1.57222">
        <ele>46</ele>
        <time>2020-12-16T11:21:14.000Z</time>
      </trkpt>
      <trkpt lat="47.19595" lon="-1.57239">
        <ele>45</ele>
        <time>2020-12-16T11:21:16.000Z</time>
      </trkpt>
      <trkpt lat="47.1959" lon="-1.57257">
        <ele>47</ele>
        <time>2020-12-16T11:21:18.000Z</time>
      </trkpt>
      <trkpt lat="47.19589" lon="-1.57274">
        <ele>49</ele>
        <time>2020-12-16T11:21:20.000Z</time>
      </trkpt>
      <trkpt lat="47.19589" lon="-1.57299">
        <ele>50</ele>
        <time>2020-12-16T11:21:23.000Z</time>
      </trkpt>
      <trkpt lat="47.19586" lon="-1.57326">
        <ele>51</ele>
        <time>2020-12-16T11:21:26.000Z</time>
      </trkpt>
      <trkpt lat="47.19582" lon="-1.57342">
        <ele>52</ele>
        <time>2020-12-16T11:21:28.000Z</time>
      </trkpt>
      <trkpt lat="47.19578" lon="-1.57367">
        <ele>51</ele>
        <time>2020-12-16T11:21:31.000Z</time>
      </trkpt>
      <trkpt lat="47.19575" lon="-1.57385">
        <ele>50</ele>
        <time>2020-12-16T11:21:33.000Z</time>
      </trkpt>
      <trkpt lat="47.19571" lon="-1.57403">
        <ele>51</ele>
        <time>2020-12-16T11:21:35.000Z</time>
      </trkpt>
      <trkpt lat="47.19566" lon="-1.57421">
        <ele>52</ele>
        <time>2020-12-16T11:21:37.000Z</time>
      </trkpt>
      <trkpt lat="47.19563" lon="-1.57438">
        <ele>53</ele>
        <time>2020-12-16T11:21:39.000Z</time>
      </trkpt>
      <trkpt lat="47.1956" lon="-1.57456">
        <ele>53</ele>
        <time>2020-12-16T11:21:41.000Z</time>
      </trkpt>
      <trkpt lat="47.19557" lon="-1.57474">
        <ele>53</ele>
        <time>2020-12-16T11:21:43.000Z</time>
      </trkpt>
      <trkpt lat="47.19553" lon="-1.57493">
        <ele>52</ele>
        <time>2020-12-16T11:21:45.000Z</time>
      </trkpt>
      <trkpt lat="47.1955" lon="-1.57512">
        <ele>52</ele>
        <time>2020-12-16T11:21:47.000Z</time>
      </trkpt>
      <trkpt lat="47.19546" lon="-1.57529">
        <ele>52</ele>
        <time>2020-12-16T11:21:49.000Z</time>
      </trkpt>
      <trkpt lat="47.19542" lon="-1.57547">
        <ele>52</ele>
        <time>2020-12-16T11:21:51.000Z</time>
      </trkpt>
      <trkpt lat="47.19539" lon="-1.57564">
        <ele>52</ele>
        <time>2020-12-16T11:21:53.000Z</time>
      </trkpt>
      <trkpt lat="47.19535" lon="-1.57581">
        <ele>52</ele>
        <time>2020-12-16T11:21:55.000Z</time>
      </trkpt>
      <trkpt lat="47.19531" lon="-1.57599">
        <ele>52</ele>
        <time>2020-12-16T11:21:57.000Z</time>
      </trkpt>
      <trkpt lat="47.19527" lon="-1.57617">
        <ele>52</ele>
        <time>2020-12-16T11:21:59.000Z</time>
      </trkpt>
      <trkpt lat="47.19524" lon="-1.57634">
        <ele>52</ele>
        <time>2020-12-16T11:22:01.000Z</time>
      </trkpt>
      <trkpt lat="47.1952" lon="-1.57652">
        <ele>52</ele>
        <time>2020-12-16T11:22:03.000Z</time>
      </trkpt>
      <trkpt lat="47.19516" lon="-1.5767">
        <ele>52</ele>
        <time>2020-12-16T11:22:05.000Z</time>
      </trkpt>
      <trkpt lat="47.1951" lon="-1.57697">
        <ele>51</ele>
        <time>2020-12-16T11:22:08.000Z</time>
      </trkpt>
      <trkpt lat="47.19506" lon="-1.57714">
        <ele>51</ele>
        <time>2020-12-16T11:22:10.000Z</time>
      </trkpt>
      <trkpt lat="47.19502" lon="-1.57732">
        <ele>50</ele>
        <time>2020-12-16T11:22:12.000Z</time>
      </trkpt>
      <trkpt lat="47.19499" lon="-1.5775">
        <ele>50</ele>
        <time>2020-12-16T11:22:14.000Z</time>
      </trkpt>
      <trkpt lat="47.19493" lon="-1.57776">
        <ele>50</ele>
        <time>2020-12-16T11:22:17.000Z</time>
      </trkpt>
      <trkpt lat="47.1949" lon="-1.57793">
        <ele>50</ele>
        <time>2020-12-16T11:22:19.000Z</time>
      </trkpt>
      <trkpt lat="47.19485" lon="-1.57819">
        <ele>48</ele>
        <time>2020-12-16T11:22:22.000Z</time>
      </trkpt>
      <trkpt lat="47.19482" lon="-1.57839">
        <ele>48</ele>
        <time>2020-12-16T11:22:24.000Z</time>
      </trkpt>
      <trkpt lat="47.1948" lon="-1.57866">
        <ele>50</ele>
        <time>2020-12-16T11:22:27.000Z</time>
      </trkpt>
      <trkpt lat="47.19476" lon="-1.57884">
        <ele>50</ele>
        <time>2020-12-16T11:22:29.000Z</time>
      </trkpt>
      <trkpt lat="47.19469" lon="-1.57912">
        <ele>50</ele>
        <time>2020-12-16T11:22:32.000Z</time>
      </trkpt>
      <trkpt lat="47.19468" lon="-1.57928">
        <ele>50</ele>
        <time>2020-12-16T11:22:34.000Z</time>
      </trkpt>
      <trkpt lat="47.19465" lon="-1.57947">
        <ele>50</ele>
        <time>2020-12-16T11:22:36.000Z</time>
      </trkpt>
      <trkpt lat="47.19464" lon="-1.57964">
        <ele>48</ele>
        <time>2020-12-16T11:22:38.000Z</time>
      </trkpt>
      <trkpt lat="47.19463" lon="-1.5799">
        <ele>44</ele>
        <time>2020-12-16T11:22:41.000Z</time>
      </trkpt>
      <trkpt lat="47.19461" lon="-1.58007">
        <ele>46</ele>
        <time>2020-12-16T11:22:43.000Z</time>
      </trkpt>
      <trkpt lat="47.1946" lon="-1.58026">
        <ele>48</ele>
        <time>2020-12-16T11:22:45.000Z</time>
      </trkpt>
      <trkpt lat="47.19458" lon="-1.58044">
        <ele>48</ele>
        <time>2020-12-16T11:22:47.000Z</time>
      </trkpt>
      <trkpt lat="47.19456" lon="-1.5806">
        <ele>48</ele>
        <time>2020-12-16T11:22:49.000Z</time>
      </trkpt>
      <trkpt lat="47.19455" lon="-1.58074">
        <ele>48</ele>
        <time>2020-12-16T11:22:51.000Z</time>
      </trkpt>
      <trkpt lat="47.19453" lon="-1.58088">
        <ele>49</ele>
        <time>2020-12-16T11:22:53.000Z</time>
      </trkpt>
      <trkpt lat="47.19446" lon="-1.58101">
        <ele>49</ele>
        <time>2020-12-16T11:22:55.000Z</time>
      </trkpt>
      <trkpt lat="47.19437" lon="-1.58112">
        <ele>49</ele>
        <time>2020-12-16T11:22:57.000Z</time>
      </trkpt>
      <trkpt lat="47.19428" lon="-1.58123">
        <ele>49</ele>
        <time>2020-12-16T11:22:59.000Z</time>
      </trkpt>
      <trkpt lat="47.19418" lon="-1.58135">
        <ele>50</ele>
        <time>2020-12-16T11:23:01.000Z</time>
      </trkpt>
      <trkpt lat="47.19408" lon="-1.58148">
        <ele>50</ele>
        <time>2020-12-16T11:23:03.000Z</time>
      </trkpt>
      <trkpt lat="47.19396" lon="-1.5817">
        <ele>51</ele>
        <time>2020-12-16T11:23:06.000Z</time>
      </trkpt>
      <trkpt lat="47.19387" lon="-1.58194">
        <ele>49</ele>
        <time>2020-12-16T11:23:09.000Z</time>
      </trkpt>
      <trkpt lat="47.1938" lon="-1.58208">
        <ele>51</ele>
        <time>2020-12-16T11:23:11.000Z</time>
      </trkpt>
      <trkpt lat="47.19374" lon="-1.58224">
        <ele>51</ele>
        <time>2020-12-16T11:23:13.000Z</time>
      </trkpt>
      <trkpt lat="47.19368" lon="-1.5824">
        <ele>51</ele>
        <time>2020-12-16T11:23:15.000Z</time>
      </trkpt>
      <trkpt lat="47.19362" lon="-1.58257">
        <ele>50</ele>
        <time>2020-12-16T11:23:17.000Z</time>
      </trkpt>
      <trkpt lat="47.19355" lon="-1.58271">
        <ele>51</ele>
        <time>2020-12-16T11:23:19.000Z</time>
      </trkpt>
      <trkpt lat="47.19346" lon="-1.58284">
        <ele>51</ele>
        <time>2020-12-16T11:23:21.000Z</time>
      </trkpt>
      <trkpt lat="47.19336" lon="-1.58296">
        <ele>51</ele>
        <time>2020-12-16T11:23:23.000Z</time>
      </trkpt>
      <trkpt lat="47.19327" lon="-1.58307">
        <ele>50</ele>
        <time>2020-12-16T11:23:25.000Z</time>
      </trkpt>
      <trkpt lat="47.19315" lon="-1.58315">
        <ele>51</ele>
        <time>2020-12-16T11:23:27.000Z</time>
      </trkpt>
      <trkpt lat="47.19304" lon="-1.58324">
        <ele>52</ele>
        <time>2020-12-16T11:23:29.000Z</time>
      </trkpt>
      <trkpt lat="47.19294" lon="-1.58334">
        <ele>52</ele>
        <time>2020-12-16T11:23:31.000Z</time>
      </trkpt>
      <trkpt lat="47.19285" lon="-1.58348">
        <ele>49</ele>
        <time>2020-12-16T11:23:33.000Z</time>
      </trkpt>
      <trkpt lat="47.19273" lon="-1.58357">
        <ele>50</ele>
        <time>2020-12-16T11:23:35.000Z</time>
      </trkpt>
      <trkpt lat="47.19262" lon="-1.58366">
        <ele>50</ele>
        <time>2020-12-16T11:23:37.000Z</time>
      </trkpt>
      <trkpt lat="47.19248" lon="-1.58378">
        <ele>50</ele>
        <time>2020-12-16T11:23:40.000Z</time>
      </trkpt>
      <trkpt lat="47.19238" lon="-1.58387">
        <ele>50</ele>
        <time>2020-12-16T11:23:42.000Z</time>
      </trkpt>
      <trkpt lat="47.19226" lon="-1.58396">
        <ele>50</ele>
        <time>2020-12-16T11:23:44.000Z</time>
      </trkpt>
      <trkpt lat="47.19215" lon="-1.58406">
        <ele>50</ele>
        <time>2020-12-16T11:23:46.000Z</time>
      </trkpt>
      <trkpt lat="47.19205" lon="-1.58416">
        <ele>50</ele>
        <time>2020-12-16T11:23:48.000Z</time>
      </trkpt>
      <trkpt lat="47.19195" lon="-1.58426">
        <ele>50</ele>
        <time>2020-12-16T11:23:50.000Z</time>
      </trkpt>
      <trkpt lat="47.1918" lon="-1.5844">
        <ele>51</ele>
        <time>2020-12-16T11:23:53.000Z</time>
      </trkpt>
      <trkpt lat="47.19171" lon="-1.58448">
        <ele>51</ele>
        <time>2020-12-16T11:23:55.000Z</time>
      </trkpt>
      <trkpt lat="47.19163" lon="-1.58459">
        <ele>52</ele>
        <time>2020-12-16T11:23:57.000Z</time>
      </trkpt>
      <trkpt lat="47.19155" lon="-1.58466">
        <ele>52</ele>
        <time>2020-12-16T11:23:59.000Z</time>
      </trkpt>
      <trkpt lat="47.19147" lon="-1.58473">
        <ele>52</ele>
        <time>2020-12-16T11:24:01.000Z</time>
      </trkpt>
      <trkpt lat="47.19132" lon="-1.58487">
        <ele>51</ele>
        <time>2020-12-16T11:24:04.000Z</time>
      </trkpt>
      <trkpt lat="47.19121" lon="-1.58498">
        <ele>51</ele>
        <time>2020-12-16T11:24:06.000Z</time>
      </trkpt>
      <trkpt lat="47.19101" lon="-1.58516">
        <ele>50</ele>
        <time>2020-12-16T11:24:10.000Z</time>
      </trkpt>
      <trkpt lat="47.19084" lon="-1.58531">
        <ele>50</ele>
        <time>2020-12-16T11:24:13.000Z</time>
      </trkpt>
      <trkpt lat="47.19073" lon="-1.58542">
        <ele>50</ele>
        <time>2020-12-16T11:24:15.000Z</time>
      </trkpt>
      <trkpt lat="47.19053" lon="-1.58563">
        <ele>51</ele>
        <time>2020-12-16T11:24:19.000Z</time>
      </trkpt>
      <trkpt lat="47.19044" lon="-1.58573">
        <ele>51</ele>
        <time>2020-12-16T11:24:21.000Z</time>
      </trkpt>
      <trkpt lat="47.19035" lon="-1.58582">
        <ele>51</ele>
        <time>2020-12-16T11:24:23.000Z</time>
      </trkpt>
      <trkpt lat="47.19026" lon="-1.58591">
        <ele>50</ele>
        <time>2020-12-16T11:24:25.000Z</time>
      </trkpt>
      <trkpt lat="47.19017" lon="-1.58601">
        <ele>51</ele>
        <time>2020-12-16T11:24:27.000Z</time>
      </trkpt>
      <trkpt lat="47.19008" lon="-1.58611">
        <ele>51</ele>
        <time>2020-12-16T11:24:29.000Z</time>
      </trkpt>
      <trkpt lat="47.19" lon="-1.58621">
        <ele>51</ele>
        <time>2020-12-16T11:24:31.000Z</time>
      </trkpt>
      <trkpt lat="47.1899" lon="-1.58631">
        <ele>51</ele>
        <time>2020-12-16T11:24:33.000Z</time>
      </trkpt>
      <trkpt lat="47.1898" lon="-1.58641">
        <ele>50</ele>
        <time>2020-12-16T11:24:35.000Z</time>
      </trkpt>
      <trkpt lat="47.1897" lon="-1.58651">
        <ele>51</ele>
        <time>2020-12-16T11:24:37.000Z</time>
      </trkpt>
      <trkpt lat="47.18955" lon="-1.58665">
        <ele>51</ele>
        <time>2020-12-16T11:24:40.000Z</time>
      </trkpt>
      <trkpt lat="47.18945" lon="-1.58674">
        <ele>52</ele>
        <time>2020-12-16T11:24:42.000Z</time>
      </trkpt>
      <trkpt lat="47.18935" lon="-1.58683">
        <ele>52</ele>
        <time>2020-12-16T11:24:44.000Z</time>
      </trkpt>
      <trkpt lat="47.1892" lon="-1.58696">
        <ele>52</ele>
        <time>2020-12-16T11:24:47.000Z</time>
      </trkpt>
      <trkpt lat="47.1891" lon="-1.58705">
        <ele>52</ele>
        <time>2020-12-16T11:24:49.000Z</time>
      </trkpt>
      <trkpt lat="47.189" lon="-1.58712">
        <ele>52</ele>
        <time>2020-12-16T11:24:51.000Z</time>
      </trkpt>
      <trkpt lat="47.18891" lon="-1.58718">
        <ele>52</ele>
        <time>2020-12-16T11:24:53.000Z</time>
      </trkpt>
      <trkpt lat="47.18882" lon="-1.58724">
        <ele>52</ele>
        <time>2020-12-16T11:24:55.000Z</time>
      </trkpt>
      <trkpt lat="47.18873" lon="-1.58729">
        <ele>52</ele>
        <time>2020-12-16T11:24:57.000Z</time>
      </trkpt>
      <trkpt lat="47.18861" lon="-1.58736">
        <ele>53</ele>
        <time>2020-12-16T11:25:00.000Z</time>
      </trkpt>
      <trkpt lat="47.18848" lon="-1.58741">
        <ele>53</ele>
        <time>2020-12-16T11:25:03.000Z</time>
      </trkpt>
      <trkpt lat="47.18836" lon="-1.58748">
        <ele>53</ele>
        <time>2020-12-16T11:25:06.000Z</time>
      </trkpt>
      <trkpt lat="47.18832" lon="-1.58775">
        <ele>54</ele>
        <time>2020-12-16T11:25:10.000Z</time>
      </trkpt>
      <trkpt lat="47.18824" lon="-1.58789">
        <ele>54</ele>
        <time>2020-12-16T11:25:13.000Z</time>
      </trkpt>
      <trkpt lat="47.18816" lon="-1.58799">
        <ele>50</ele>
        <time>2020-12-16T11:25:16.000Z</time>
      </trkpt>
      <trkpt lat="47.18806" lon="-1.58801">
        <ele>51</ele>
        <time>2020-12-16T11:25:21.000Z</time>
      </trkpt>
      <trkpt lat="47.18797" lon="-1.58804">
        <ele>52</ele>
        <time>2020-12-16T11:25:25.000Z</time>
      </trkpt>
      <trkpt lat="47.18787" lon="-1.58807">
        <ele>51</ele>
        <time>2020-12-16T11:25:27.000Z</time>
      </trkpt>
      <trkpt lat="47.18775" lon="-1.58797">
        <ele>52</ele>
        <time>2020-12-16T11:25:29.000Z</time>
      </trkpt>
      <trkpt lat="47.18765" lon="-1.58783">
        <ele>53</ele>
        <time>2020-12-16T11:25:31.000Z</time>
      </trkpt>
      <trkpt lat="47.18757" lon="-1.58764">
        <ele>53</ele>
        <time>2020-12-16T11:25:33.000Z</time>
      </trkpt>
      <trkpt lat="47.18755" lon="-1.58744">
        <ele>54</ele>
        <time>2020-12-16T11:25:35.000Z</time>
      </trkpt>
      <trkpt lat="47.18751" lon="-1.58728">
        <ele>54</ele>
        <time>2020-12-16T11:25:37.000Z</time>
      </trkpt>
      <trkpt lat="47.18743" lon="-1.58717">
        <ele>53</ele>
        <time>2020-12-16T11:25:40.000Z</time>
      </trkpt>
      <trkpt lat="47.1873" lon="-1.58706">
        <ele>53</ele>
        <time>2020-12-16T11:25:44.000Z</time>
      </trkpt>
      <trkpt lat="47.18721" lon="-1.587">
        <ele>53</ele>
        <time>2020-12-16T11:25:46.000Z</time>
      </trkpt>
      <trkpt lat="47.18709" lon="-1.58697">
        <ele>53</ele>
        <time>2020-12-16T11:25:48.000Z</time>
      </trkpt>
      <trkpt lat="47.18697" lon="-1.58696">
        <ele>53</ele>
        <time>2020-12-16T11:25:50.000Z</time>
      </trkpt>
      <trkpt lat="47.18672" lon="-1.58694">
        <ele>51</ele>
        <time>2020-12-16T11:25:54.000Z</time>
      </trkpt>
      <trkpt lat="47.1866" lon="-1.58693">
        <ele>51</ele>
        <time>2020-12-16T11:25:56.000Z</time>
      </trkpt>
      <trkpt lat="47.18652" lon="-1.58701">
        <ele>52</ele>
        <time>2020-12-16T11:25:58.000Z</time>
      </trkpt>
      <trkpt lat="47.18648" lon="-1.58716">
        <ele>53</ele>
        <time>2020-12-16T11:26:00.000Z</time>
      </trkpt>
      <trkpt lat="47.18646" lon="-1.58735">
        <ele>53</ele>
        <time>2020-12-16T11:26:02.000Z</time>
      </trkpt>
      <trkpt lat="47.18647" lon="-1.58754">
        <ele>48</ele>
        <time>2020-12-16T11:26:04.000Z</time>
      </trkpt>
      <trkpt lat="47.18646" lon="-1.5877">
        <ele>48</ele>
        <time>2020-12-16T11:26:06.000Z</time>
      </trkpt>
      <trkpt lat="47.18642" lon="-1.58784">
        <ele>48</ele>
        <time>2020-12-16T11:26:08.000Z</time>
      </trkpt>
      <trkpt lat="47.18638" lon="-1.588">
        <ele>50</ele>
        <time>2020-12-16T11:26:10.000Z</time>
      </trkpt>
      <trkpt lat="47.18636" lon="-1.58816">
        <ele>50</ele>
        <time>2020-12-16T11:26:12.000Z</time>
      </trkpt>
      <trkpt lat="47.18633" lon="-1.58833">
        <ele>51</ele>
        <time>2020-12-16T11:26:14.000Z</time>
      </trkpt>
      <trkpt lat="47.18629" lon="-1.58856">
        <ele>51</ele>
        <time>2020-12-16T11:26:17.000Z</time>
      </trkpt>
      <trkpt lat="47.18625" lon="-1.58877">
        <ele>49</ele>
        <time>2020-12-16T11:26:20.000Z</time>
      </trkpt>
      <trkpt lat="47.18621" lon="-1.58892">
        <ele>49</ele>
        <time>2020-12-16T11:26:22.000Z</time>
      </trkpt>
      <trkpt lat="47.18612" lon="-1.58904">
        <ele>51</ele>
        <time>2020-12-16T11:26:25.000Z</time>
      </trkpt>
      <trkpt lat="47.186" lon="-1.58911">
        <ele>50</ele>
        <time>2020-12-16T11:26:27.000Z</time>
      </trkpt>
      <trkpt lat="47.18584" lon="-1.58921">
        <ele>49</ele>
        <time>2020-12-16T11:26:30.000Z</time>
      </trkpt>
      <trkpt lat="47.18573" lon="-1.58921">
        <ele>50</ele>
        <time>2020-12-16T11:26:33.000Z</time>
      </trkpt>
      <trkpt lat="47.18564" lon="-1.58919">
        <ele>49</ele>
        <time>2020-12-16T11:26:35.000Z</time>
      </trkpt>
      <trkpt lat="47.18554" lon="-1.58916">
        <ele>49</ele>
        <time>2020-12-16T11:26:37.000Z</time>
      </trkpt>
      <trkpt lat="47.18537" lon="-1.5891">
        <ele>50</ele>
        <time>2020-12-16T11:26:40.000Z</time>
      </trkpt>
      <trkpt lat="47.18528" lon="-1.58899">
        <ele>51</ele>
        <time>2020-12-16T11:26:42.000Z</time>
      </trkpt>
      <trkpt lat="47.18517" lon="-1.58894">
        <ele>52</ele>
        <time>2020-12-16T11:26:44.000Z</time>
      </trkpt>
      <trkpt lat="47.18505" lon="-1.58888">
        <ele>53</ele>
        <time>2020-12-16T11:26:47.000Z</time>
      </trkpt>
      <trkpt lat="47.18496" lon="-1.58884">
        <ele>53</ele>
        <time>2020-12-16T11:26:50.000Z</time>
      </trkpt>
      <trkpt lat="47.18487" lon="-1.58889">
        <ele>54</ele>
        <time>2020-12-16T11:26:54.000Z</time>
      </trkpt>
      <trkpt lat="47.18481" lon="-1.589">
        <ele>56</ele>
        <time>2020-12-16T11:26:56.000Z</time>
      </trkpt>
      <trkpt lat="47.18469" lon="-1.58918">
        <ele>55</ele>
        <time>2020-12-16T11:26:59.000Z</time>
      </trkpt>
      <trkpt lat="47.18457" lon="-1.5893">
        <ele>55</ele>
        <time>2020-12-16T11:27:01.000Z</time>
      </trkpt>
      <trkpt lat="47.18444" lon="-1.5894">
        <ele>55</ele>
        <time>2020-12-16T11:27:04.000Z</time>
      </trkpt>
      <trkpt lat="47.18436" lon="-1.58947">
        <ele>55</ele>
        <time>2020-12-16T11:27:06.000Z</time>
      </trkpt>
      <trkpt lat="47.18426" lon="-1.58953">
        <ele>56</ele>
        <time>2020-12-16T11:27:08.000Z</time>
      </trkpt>
      <trkpt lat="47.18413" lon="-1.58964">
        <ele>53</ele>
        <time>2020-12-16T11:27:11.000Z</time>
      </trkpt>
      <trkpt lat="47.18401" lon="-1.5897">
        <ele>53</ele>
        <time>2020-12-16T11:27:13.000Z</time>
      </trkpt>
      <trkpt lat="47.18389" lon="-1.58976">
        <ele>55</ele>
        <time>2020-12-16T11:27:16.000Z</time>
      </trkpt>
      <trkpt lat="47.18379" lon="-1.58981">
        <ele>54</ele>
        <time>2020-12-16T11:27:18.000Z</time>
      </trkpt>
      <trkpt lat="47.18371" lon="-1.58988">
        <ele>57</ele>
        <time>2020-12-16T11:27:20.000Z</time>
      </trkpt>
      <trkpt lat="47.18358" lon="-1.58985">
        <ele>61</ele>
        <time>2020-12-16T11:27:23.000Z</time>
      </trkpt>
      <trkpt lat="47.18352" lon="-1.58975">
        <ele>61</ele>
        <time>2020-12-16T11:27:25.000Z</time>
      </trkpt>
      <trkpt lat="47.18344" lon="-1.58964">
        <ele>62</ele>
        <time>2020-12-16T11:27:27.000Z</time>
      </trkpt>
      <trkpt lat="47.18336" lon="-1.58956">
        <ele>64</ele>
        <time>2020-12-16T11:27:29.000Z</time>
      </trkpt>
      <trkpt lat="47.18327" lon="-1.58944">
        <ele>66</ele>
        <time>2020-12-16T11:27:32.000Z</time>
      </trkpt>
      <trkpt lat="47.18322" lon="-1.58931">
        <ele>67</ele>
        <time>2020-12-16T11:27:35.000Z</time>
      </trkpt>
      <trkpt lat="47.18319" lon="-1.58917">
        <ele>67</ele>
        <time>2020-12-16T11:27:38.000Z</time>
      </trkpt>
      <trkpt lat="47.18319" lon="-1.58902">
        <ele>67</ele>
        <time>2020-12-16T11:27:41.000Z</time>
      </trkpt>
      <trkpt lat="47.18314" lon="-1.58885">
        <ele>63</ele>
        <time>2020-12-16T11:27:46.000Z</time>
      </trkpt>
      <trkpt lat="47.18312" lon="-1.58902">
        <ele>68</ele>
        <time>2020-12-16T12:47:40.000Z</time>
      </trkpt>
      <trkpt lat="47.18317" lon="-1.58913">
        <ele>60</ele>
        <time>2020-12-16T12:48:59.000Z</time>
      </trkpt>
      <trkpt lat="47.18309" lon="-1.58911">
        <ele>53</ele>
        <time>2020-12-16T12:49:25.000Z</time>
      </trkpt>
      <trkpt lat="47.18315" lon="-1.58901">
        <ele>60</ele>
        <time>2020-12-16T12:49:55.000Z</time>
      </trkpt>
      <trkpt lat="47.18321" lon="-1.58912">
        <ele>69</ele>
        <time>2020-12-16T12:50:07.000Z</time>
      </trkpt>
      <trkpt lat="47.1832" lon="-1.58929">
        <ele>68</ele>
        <time>2020-12-16T12:50:10.000Z</time>
      </trkpt>
      <trkpt lat="47.18326" lon="-1.58942">
        <ele>69</ele>
        <time>2020-12-16T12:50:13.000Z</time>
      </trkpt>
      <trkpt lat="47.18334" lon="-1.58953">
        <ele>72</ele>
        <time>2020-12-16T12:50:15.000Z</time>
      </trkpt>
      <trkpt lat="47.18347" lon="-1.58969">
        <ele>71</ele>
        <time>2020-12-16T12:50:18.000Z</time>
      </trkpt>
      <trkpt lat="47.18354" lon="-1.5898">
        <ele>71</ele>
        <time>2020-12-16T12:50:20.000Z</time>
      </trkpt>
      <trkpt lat="47.18352" lon="-1.58995">
        <ele>70</ele>
        <time>2020-12-16T12:50:24.000Z</time>
      </trkpt>
      <trkpt lat="47.18346" lon="-1.5901">
        <ele>70</ele>
        <time>2020-12-16T12:50:27.000Z</time>
      </trkpt>
      <trkpt lat="47.1834" lon="-1.59026">
        <ele>67</ele>
        <time>2020-12-16T12:50:29.000Z</time>
      </trkpt>
      <trkpt lat="47.18332" lon="-1.5904">
        <ele>67</ele>
        <time>2020-12-16T12:50:31.000Z</time>
      </trkpt>
      <trkpt lat="47.18326" lon="-1.59058">
        <ele>65</ele>
        <time>2020-12-16T12:50:33.000Z</time>
      </trkpt>
      <trkpt lat="47.18319" lon="-1.59078">
        <ele>64</ele>
        <time>2020-12-16T12:50:35.000Z</time>
      </trkpt>
      <trkpt lat="47.1831" lon="-1.59093">
        <ele>63</ele>
        <time>2020-12-16T12:50:37.000Z</time>
      </trkpt>
      <trkpt lat="47.18306" lon="-1.59106">
        <ele>64</ele>
        <time>2020-12-16T12:50:39.000Z</time>
      </trkpt>
      <trkpt lat="47.18301" lon="-1.59123">
        <ele>65</ele>
        <time>2020-12-16T12:50:41.000Z</time>
      </trkpt>
      <trkpt lat="47.18296" lon="-1.59139">
        <ele>63</ele>
        <time>2020-12-16T12:50:43.000Z</time>
      </trkpt>
      <trkpt lat="47.1829" lon="-1.59156">
        <ele>64</ele>
        <time>2020-12-16T12:50:45.000Z</time>
      </trkpt>
      <trkpt lat="47.18281" lon="-1.5918">
        <ele>68</ele>
        <time>2020-12-16T12:50:48.000Z</time>
      </trkpt>
      <trkpt lat="47.18277" lon="-1.59195">
        <ele>69</ele>
        <time>2020-12-16T12:50:50.000Z</time>
      </trkpt>
      <trkpt lat="47.18274" lon="-1.59213">
        <ele>66</ele>
        <time>2020-12-16T12:50:52.000Z</time>
      </trkpt>
      <trkpt lat="47.18264" lon="-1.59223">
        <ele>67</ele>
        <time>2020-12-16T12:50:54.000Z</time>
      </trkpt>
      <trkpt lat="47.18252" lon="-1.59233">
        <ele>67</ele>
        <time>2020-12-16T12:50:56.000Z</time>
      </trkpt>
      <trkpt lat="47.1823" lon="-1.59255">
        <ele>66</ele>
        <time>2020-12-16T12:51:00.000Z</time>
      </trkpt>
      <trkpt lat="47.18219" lon="-1.59266">
        <ele>67</ele>
        <time>2020-12-16T12:51:02.000Z</time>
      </trkpt>
      <trkpt lat="47.18208" lon="-1.59277">
        <ele>67</ele>
        <time>2020-12-16T12:51:04.000Z</time>
      </trkpt>
      <trkpt lat="47.18197" lon="-1.59289">
        <ele>67</ele>
        <time>2020-12-16T12:51:06.000Z</time>
      </trkpt>
      <trkpt lat="47.18185" lon="-1.59302">
        <ele>65</ele>
        <time>2020-12-16T12:51:08.000Z</time>
      </trkpt>
      <trkpt lat="47.18174" lon="-1.59312">
        <ele>67</ele>
        <time>2020-12-16T12:51:10.000Z</time>
      </trkpt>
      <trkpt lat="47.1816" lon="-1.59325">
        <ele>70</ele>
        <time>2020-12-16T12:51:13.000Z</time>
      </trkpt>
      <trkpt lat="47.18147" lon="-1.59335">
        <ele>66</ele>
        <time>2020-12-16T12:51:15.000Z</time>
      </trkpt>
      <trkpt lat="47.18137" lon="-1.59347">
        <ele>66</ele>
        <time>2020-12-16T12:51:17.000Z</time>
      </trkpt>
      <trkpt lat="47.18127" lon="-1.59356">
        <ele>66</ele>
        <time>2020-12-16T12:51:19.000Z</time>
      </trkpt>
      <trkpt lat="47.18113" lon="-1.59371">
        <ele>68</ele>
        <time>2020-12-16T12:51:22.000Z</time>
      </trkpt>
      <trkpt lat="47.18103" lon="-1.59382">
        <ele>68</ele>
        <time>2020-12-16T12:51:24.000Z</time>
      </trkpt>
      <trkpt lat="47.18093" lon="-1.59392">
        <ele>68</ele>
        <time>2020-12-16T12:51:26.000Z</time>
      </trkpt>
      <trkpt lat="47.18081" lon="-1.59403">
        <ele>67</ele>
        <time>2020-12-16T12:51:28.000Z</time>
      </trkpt>
      <trkpt lat="47.1807" lon="-1.59415">
        <ele>67</ele>
        <time>2020-12-16T12:51:30.000Z</time>
      </trkpt>
      <trkpt lat="47.18061" lon="-1.59428">
        <ele>67</ele>
        <time>2020-12-16T12:51:32.000Z</time>
      </trkpt>
      <trkpt lat="47.18052" lon="-1.59438">
        <ele>67</ele>
        <time>2020-12-16T12:51:34.000Z</time>
      </trkpt>
      <trkpt lat="47.18041" lon="-1.59458">
        <ele>68</ele>
        <time>2020-12-16T12:51:37.000Z</time>
      </trkpt>
      <trkpt lat="47.18036" lon="-1.59475">
        <ele>68</ele>
        <time>2020-12-16T12:51:39.000Z</time>
      </trkpt>
      <trkpt lat="47.18032" lon="-1.59493">
        <ele>68</ele>
        <time>2020-12-16T12:51:41.000Z</time>
      </trkpt>
      <trkpt lat="47.18027" lon="-1.5951">
        <ele>68</ele>
        <time>2020-12-16T12:51:43.000Z</time>
      </trkpt>
      <trkpt lat="47.18023" lon="-1.59529">
        <ele>68</ele>
        <time>2020-12-16T12:51:45.000Z</time>
      </trkpt>
      <trkpt lat="47.18019" lon="-1.59547">
        <ele>68</ele>
        <time>2020-12-16T12:51:47.000Z</time>
      </trkpt>
      <trkpt lat="47.18015" lon="-1.59563">
        <ele>68</ele>
        <time>2020-12-16T12:51:49.000Z</time>
      </trkpt>
      <trkpt lat="47.18012" lon="-1.59578">
        <ele>66</ele>
        <time>2020-12-16T12:51:51.000Z</time>
      </trkpt>
      <trkpt lat="47.18007" lon="-1.59595">
        <ele>65</ele>
        <time>2020-12-16T12:51:53.000Z</time>
      </trkpt>
      <trkpt lat="47.18002" lon="-1.59616">
        <ele>65</ele>
        <time>2020-12-16T12:51:55.000Z</time>
      </trkpt>
      <trkpt lat="47.17996" lon="-1.59633">
        <ele>66</ele>
        <time>2020-12-16T12:51:57.000Z</time>
      </trkpt>
      <trkpt lat="47.17991" lon="-1.59651">
        <ele>64</ele>
        <time>2020-12-16T12:51:59.000Z</time>
      </trkpt>
      <trkpt lat="47.17986" lon="-1.59676">
        <ele>64</ele>
        <time>2020-12-16T12:52:02.000Z</time>
      </trkpt>
      <trkpt lat="47.17982" lon="-1.59695">
        <ele>65</ele>
        <time>2020-12-16T12:52:04.000Z</time>
      </trkpt>
      <trkpt lat="47.17974" lon="-1.59715">
        <ele>65</ele>
        <time>2020-12-16T12:52:06.000Z</time>
      </trkpt>
      <trkpt lat="47.17969" lon="-1.59736">
        <ele>64</ele>
        <time>2020-12-16T12:52:08.000Z</time>
      </trkpt>
      <trkpt lat="47.17963" lon="-1.59755">
        <ele>63</ele>
        <time>2020-12-16T12:52:10.000Z</time>
      </trkpt>
      <trkpt lat="47.17955" lon="-1.59786">
        <ele>63</ele>
        <time>2020-12-16T12:52:13.000Z</time>
      </trkpt>
      <trkpt lat="47.17951" lon="-1.59809">
        <ele>64</ele>
        <time>2020-12-16T12:52:15.000Z</time>
      </trkpt>
      <trkpt lat="47.17947" lon="-1.59834">
        <ele>63</ele>
        <time>2020-12-16T12:52:17.000Z</time>
      </trkpt>
      <trkpt lat="47.17943" lon="-1.59859">
        <ele>61</ele>
        <time>2020-12-16T12:52:19.000Z</time>
      </trkpt>
      <trkpt lat="47.17939" lon="-1.59883">
        <ele>59</ele>
        <time>2020-12-16T12:52:21.000Z</time>
      </trkpt>
      <trkpt lat="47.17935" lon="-1.59906">
        <ele>59</ele>
        <time>2020-12-16T12:52:23.000Z</time>
      </trkpt>
      <trkpt lat="47.17933" lon="-1.59919">
        <ele>59</ele>
        <time>2020-12-16T12:52:24.000Z</time>
      </trkpt>
      <trkpt lat="47.17923" lon="-1.59938">
        <ele>58</ele>
        <time>2020-12-16T12:52:26.000Z</time>
      </trkpt>
      <trkpt lat="47.17914" lon="-1.59943">
        <ele>57</ele>
        <time>2020-12-16T12:52:27.000Z</time>
      </trkpt>
      <trkpt lat="47.17905" lon="-1.59944">
        <ele>58</ele>
        <time>2020-12-16T12:52:28.000Z</time>
      </trkpt>
      <trkpt lat="47.17891" lon="-1.59949">
        <ele>58</ele>
        <time>2020-12-16T12:52:30.000Z</time>
      </trkpt>
      <trkpt lat="47.1788" lon="-1.59959">
        <ele>54</ele>
        <time>2020-12-16T12:52:32.000Z</time>
      </trkpt>
      <trkpt lat="47.1787" lon="-1.59977">
        <ele>52</ele>
        <time>2020-12-16T12:52:34.000Z</time>
      </trkpt>
      <trkpt lat="47.17859" lon="-1.59995">
        <ele>53</ele>
        <time>2020-12-16T12:52:36.000Z</time>
      </trkpt>
      <trkpt lat="47.17849" lon="-1.60013">
        <ele>52</ele>
        <time>2020-12-16T12:52:38.000Z</time>
      </trkpt>
      <trkpt lat="47.17839" lon="-1.60028">
        <ele>51</ele>
        <time>2020-12-16T12:52:40.000Z</time>
      </trkpt>
      <trkpt lat="47.1783" lon="-1.60042">
        <ele>54</ele>
        <time>2020-12-16T12:52:42.000Z</time>
      </trkpt>
      <trkpt lat="47.17823" lon="-1.60057">
        <ele>55</ele>
        <time>2020-12-16T12:52:44.000Z</time>
      </trkpt>
      <trkpt lat="47.17815" lon="-1.60071">
        <ele>56</ele>
        <time>2020-12-16T12:52:46.000Z</time>
      </trkpt>
      <trkpt lat="47.17806" lon="-1.60087">
        <ele>55</ele>
        <time>2020-12-16T12:52:48.000Z</time>
      </trkpt>
      <trkpt lat="47.17798" lon="-1.601">
        <ele>56</ele>
        <time>2020-12-16T12:52:50.000Z</time>
      </trkpt>
      <trkpt lat="47.17791" lon="-1.60112">
        <ele>57</ele>
        <time>2020-12-16T12:52:52.000Z</time>
      </trkpt>
      <trkpt lat="47.17784" lon="-1.60125">
        <ele>58</ele>
        <time>2020-12-16T12:52:54.000Z</time>
      </trkpt>
      <trkpt lat="47.17776" lon="-1.60139">
        <ele>59</ele>
        <time>2020-12-16T12:52:56.000Z</time>
      </trkpt>
      <trkpt lat="47.17769" lon="-1.60151">
        <ele>58</ele>
        <time>2020-12-16T12:52:58.000Z</time>
      </trkpt>
      <trkpt lat="47.17762" lon="-1.60164">
        <ele>59</ele>
        <time>2020-12-16T12:53:00.000Z</time>
      </trkpt>
      <trkpt lat="47.17757" lon="-1.6018">
        <ele>60</ele>
        <time>2020-12-16T12:53:02.000Z</time>
      </trkpt>
      <trkpt lat="47.17752" lon="-1.60195">
        <ele>61</ele>
        <time>2020-12-16T12:53:04.000Z</time>
      </trkpt>
      <trkpt lat="47.17748" lon="-1.60212">
        <ele>61</ele>
        <time>2020-12-16T12:53:06.000Z</time>
      </trkpt>
      <trkpt lat="47.17743" lon="-1.60227">
        <ele>60</ele>
        <time>2020-12-16T12:53:08.000Z</time>
      </trkpt>
      <trkpt lat="47.17739" lon="-1.60246">
        <ele>61</ele>
        <time>2020-12-16T12:53:10.000Z</time>
      </trkpt>
      <trkpt lat="47.17734" lon="-1.60263">
        <ele>62</ele>
        <time>2020-12-16T12:53:12.000Z</time>
      </trkpt>
      <trkpt lat="47.17726" lon="-1.60278">
        <ele>63</ele>
        <time>2020-12-16T12:53:14.000Z</time>
      </trkpt>
      <trkpt lat="47.17718" lon="-1.60291">
        <ele>63</ele>
        <time>2020-12-16T12:53:16.000Z</time>
      </trkpt>
      <trkpt lat="47.17709" lon="-1.60302">
        <ele>63</ele>
        <time>2020-12-16T12:53:18.000Z</time>
      </trkpt>
      <trkpt lat="47.17697" lon="-1.60321">
        <ele>62</ele>
        <time>2020-12-16T12:53:21.000Z</time>
      </trkpt>
      <trkpt lat="47.17689" lon="-1.60333">
        <ele>62</ele>
        <time>2020-12-16T12:53:23.000Z</time>
      </trkpt>
      <trkpt lat="47.17679" lon="-1.60345">
        <ele>62</ele>
        <time>2020-12-16T12:53:25.000Z</time>
      </trkpt>
      <trkpt lat="47.1767" lon="-1.6036">
        <ele>59</ele>
        <time>2020-12-16T12:53:27.000Z</time>
      </trkpt>
      <trkpt lat="47.17657" lon="-1.60378">
        <ele>58</ele>
        <time>2020-12-16T12:53:30.000Z</time>
      </trkpt>
      <trkpt lat="47.17649" lon="-1.60389">
        <ele>59</ele>
        <time>2020-12-16T12:53:32.000Z</time>
      </trkpt>
      <trkpt lat="47.17633" lon="-1.60418">
        <ele>55</ele>
        <time>2020-12-16T12:53:36.000Z</time>
      </trkpt>
      <trkpt lat="47.17625" lon="-1.6043">
        <ele>56</ele>
        <time>2020-12-16T12:53:38.000Z</time>
      </trkpt>
      <trkpt lat="47.17616" lon="-1.60443">
        <ele>57</ele>
        <time>2020-12-16T12:53:40.000Z</time>
      </trkpt>
      <trkpt lat="47.17606" lon="-1.60458">
        <ele>57</ele>
        <time>2020-12-16T12:53:42.000Z</time>
      </trkpt>
      <trkpt lat="47.17598" lon="-1.60473">
        <ele>55</ele>
        <time>2020-12-16T12:53:44.000Z</time>
      </trkpt>
      <trkpt lat="47.17589" lon="-1.60488">
        <ele>55</ele>
        <time>2020-12-16T12:53:46.000Z</time>
      </trkpt>
      <trkpt lat="47.17581" lon="-1.60501">
        <ele>57</ele>
        <time>2020-12-16T12:53:48.000Z</time>
      </trkpt>
      <trkpt lat="47.17572" lon="-1.60513">
        <ele>58</ele>
        <time>2020-12-16T12:53:50.000Z</time>
      </trkpt>
      <trkpt lat="47.17559" lon="-1.60534">
        <ele>59</ele>
        <time>2020-12-16T12:53:53.000Z</time>
      </trkpt>
      <trkpt lat="47.17551" lon="-1.60548">
        <ele>60</ele>
        <time>2020-12-16T12:53:55.000Z</time>
      </trkpt>
      <trkpt lat="47.17542" lon="-1.60562">
        <ele>60</ele>
        <time>2020-12-16T12:53:57.000Z</time>
      </trkpt>
      <trkpt lat="47.17533" lon="-1.60577">
        <ele>57</ele>
        <time>2020-12-16T12:53:59.000Z</time>
      </trkpt>
      <trkpt lat="47.17524" lon="-1.60593">
        <ele>56</ele>
        <time>2020-12-16T12:54:01.000Z</time>
      </trkpt>
      <trkpt lat="47.17517" lon="-1.60605">
        <ele>59</ele>
        <time>2020-12-16T12:54:03.000Z</time>
      </trkpt>
      <trkpt lat="47.17509" lon="-1.60616">
        <ele>60</ele>
        <time>2020-12-16T12:54:05.000Z</time>
      </trkpt>
      <trkpt lat="47.17501" lon="-1.60628">
        <ele>59</ele>
        <time>2020-12-16T12:54:07.000Z</time>
      </trkpt>
      <trkpt lat="47.17488" lon="-1.60649">
        <ele>59</ele>
        <time>2020-12-16T12:54:10.000Z</time>
      </trkpt>
      <trkpt lat="47.17477" lon="-1.60664">
        <ele>59</ele>
        <time>2020-12-16T12:54:12.000Z</time>
      </trkpt>
      <trkpt lat="47.17468" lon="-1.60678">
        <ele>59</ele>
        <time>2020-12-16T12:54:14.000Z</time>
      </trkpt>
      <trkpt lat="47.1746" lon="-1.60692">
        <ele>59</ele>
        <time>2020-12-16T12:54:16.000Z</time>
      </trkpt>
      <trkpt lat="47.17453" lon="-1.60706">
        <ele>60</ele>
        <time>2020-12-16T12:54:18.000Z</time>
      </trkpt>
      <trkpt lat="47.17442" lon="-1.60726">
        <ele>59</ele>
        <time>2020-12-16T12:54:21.000Z</time>
      </trkpt>
      <trkpt lat="47.17432" lon="-1.60745">
        <ele>56</ele>
        <time>2020-12-16T12:54:24.000Z</time>
      </trkpt>
      <trkpt lat="47.17423" lon="-1.60763">
        <ele>57</ele>
        <time>2020-12-16T12:54:26.000Z</time>
      </trkpt>
      <trkpt lat="47.17416" lon="-1.60781">
        <ele>56</ele>
        <time>2020-12-16T12:54:28.000Z</time>
      </trkpt>
      <trkpt lat="47.1741" lon="-1.608">
        <ele>54</ele>
        <time>2020-12-16T12:54:30.000Z</time>
      </trkpt>
      <trkpt lat="47.17404" lon="-1.6082">
        <ele>53</ele>
        <time>2020-12-16T12:54:32.000Z</time>
      </trkpt>
      <trkpt lat="47.174" lon="-1.6084">
        <ele>54</ele>
        <time>2020-12-16T12:54:34.000Z</time>
      </trkpt>
      <trkpt lat="47.17398" lon="-1.60861">
        <ele>54</ele>
        <time>2020-12-16T12:54:36.000Z</time>
      </trkpt>
      <trkpt lat="47.17397" lon="-1.60882">
        <ele>53</ele>
        <time>2020-12-16T12:54:38.000Z</time>
      </trkpt>
      <trkpt lat="47.17397" lon="-1.60901">
        <ele>53</ele>
        <time>2020-12-16T12:54:40.000Z</time>
      </trkpt>
      <trkpt lat="47.17398" lon="-1.60921">
        <ele>50</ele>
        <time>2020-12-16T12:54:42.000Z</time>
      </trkpt>
      <trkpt lat="47.17402" lon="-1.6096">
        <ele>51</ele>
        <time>2020-12-16T12:54:45.000Z</time>
      </trkpt>
      <trkpt lat="47.17409" lon="-1.60979">
        <ele>52</ele>
        <time>2020-12-16T12:54:47.000Z</time>
      </trkpt>
      <trkpt lat="47.17418" lon="-1.61">
        <ele>49</ele>
        <time>2020-12-16T12:54:49.000Z</time>
      </trkpt>
      <trkpt lat="47.17419" lon="-1.61029">
        <ele>51</ele>
        <time>2020-12-16T12:54:52.000Z</time>
      </trkpt>
      <trkpt lat="47.17421" lon="-1.61048">
        <ele>52</ele>
        <time>2020-12-16T12:54:54.000Z</time>
      </trkpt>
      <trkpt lat="47.17429" lon="-1.61063">
        <ele>51</ele>
        <time>2020-12-16T12:54:56.000Z</time>
      </trkpt>
      <trkpt lat="47.17437" lon="-1.61078">
        <ele>51</ele>
        <time>2020-12-16T12:54:58.000Z</time>
      </trkpt>
      <trkpt lat="47.17447" lon="-1.61104">
        <ele>52</ele>
        <time>2020-12-16T12:55:01.000Z</time>
      </trkpt>
      <trkpt lat="47.17455" lon="-1.61121">
        <ele>53</ele>
        <time>2020-12-16T12:55:03.000Z</time>
      </trkpt>
      <trkpt lat="47.17462" lon="-1.61139">
        <ele>54</ele>
        <time>2020-12-16T12:55:05.000Z</time>
      </trkpt>
      <trkpt lat="47.17468" lon="-1.61156">
        <ele>54</ele>
        <time>2020-12-16T12:55:07.000Z</time>
      </trkpt>
      <trkpt lat="47.17475" lon="-1.61181">
        <ele>54</ele>
        <time>2020-12-16T12:55:10.000Z</time>
      </trkpt>
      <trkpt lat="47.17482" lon="-1.61199">
        <ele>55</ele>
        <time>2020-12-16T12:55:12.000Z</time>
      </trkpt>
      <trkpt lat="47.17489" lon="-1.61215">
        <ele>56</ele>
        <time>2020-12-16T12:55:14.000Z</time>
      </trkpt>
      <trkpt lat="47.17496" lon="-1.61231">
        <ele>55</ele>
        <time>2020-12-16T12:55:16.000Z</time>
      </trkpt>
      <trkpt lat="47.17506" lon="-1.61255">
        <ele>55</ele>
        <time>2020-12-16T12:55:19.000Z</time>
      </trkpt>
      <trkpt lat="47.17519" lon="-1.61276">
        <ele>55</ele>
        <time>2020-12-16T12:55:22.000Z</time>
      </trkpt>
      <trkpt lat="47.1753" lon="-1.61287">
        <ele>56</ele>
        <time>2020-12-16T12:55:24.000Z</time>
      </trkpt>
      <trkpt lat="47.17541" lon="-1.61295">
        <ele>56</ele>
        <time>2020-12-16T12:55:26.000Z</time>
      </trkpt>
      <trkpt lat="47.17556" lon="-1.61303">
        <ele>53</ele>
        <time>2020-12-16T12:55:28.000Z</time>
      </trkpt>
      <trkpt lat="47.17563" lon="-1.61327">
        <ele>53</ele>
        <time>2020-12-16T12:55:31.000Z</time>
      </trkpt>
      <trkpt lat="47.1755" lon="-1.61354">
        <ele>55</ele>
        <time>2020-12-16T12:55:34.000Z</time>
      </trkpt>
      <trkpt lat="47.17536" lon="-1.61364">
        <ele>56</ele>
        <time>2020-12-16T12:55:36.000Z</time>
      </trkpt>
      <trkpt lat="47.17528" lon="-1.61381">
        <ele>56</ele>
        <time>2020-12-16T12:55:38.000Z</time>
      </trkpt>
      <trkpt lat="47.17524" lon="-1.61397">
        <ele>57</ele>
        <time>2020-12-16T12:55:40.000Z</time>
      </trkpt>
      <trkpt lat="47.17521" lon="-1.61415">
        <ele>58</ele>
        <time>2020-12-16T12:55:42.000Z</time>
      </trkpt>
      <trkpt lat="47.17517" lon="-1.61432">
        <ele>59</ele>
        <time>2020-12-16T12:55:44.000Z</time>
      </trkpt>
      <trkpt lat="47.17513" lon="-1.61446">
        <ele>59</ele>
        <time>2020-12-16T12:55:46.000Z</time>
      </trkpt>
      <trkpt lat="47.17506" lon="-1.61458">
        <ele>60</ele>
        <time>2020-12-16T12:55:48.000Z</time>
      </trkpt>
      <trkpt lat="47.17494" lon="-1.61466">
        <ele>60</ele>
        <time>2020-12-16T12:55:50.000Z</time>
      </trkpt>
      <trkpt lat="47.17476" lon="-1.61475">
        <ele>61</ele>
        <time>2020-12-16T12:55:53.000Z</time>
      </trkpt>
      <trkpt lat="47.17464" lon="-1.6148">
        <ele>61</ele>
        <time>2020-12-16T12:55:55.000Z</time>
      </trkpt>
      <trkpt lat="47.17452" lon="-1.61485">
        <ele>62</ele>
        <time>2020-12-16T12:55:57.000Z</time>
      </trkpt>
      <trkpt lat="47.17441" lon="-1.61492">
        <ele>62</ele>
        <time>2020-12-16T12:55:59.000Z</time>
      </trkpt>
      <trkpt lat="47.1743" lon="-1.61499">
        <ele>60</ele>
        <time>2020-12-16T12:56:01.000Z</time>
      </trkpt>
      <trkpt lat="47.17415" lon="-1.61509">
        <ele>60</ele>
        <time>2020-12-16T12:56:04.000Z</time>
      </trkpt>
      <trkpt lat="47.17405" lon="-1.61518">
        <ele>58</ele>
        <time>2020-12-16T12:56:06.000Z</time>
      </trkpt>
      <trkpt lat="47.17394" lon="-1.61529">
        <ele>55</ele>
        <time>2020-12-16T12:56:08.000Z</time>
      </trkpt>
      <trkpt lat="47.17378" lon="-1.61539">
        <ele>60</ele>
        <time>2020-12-16T12:56:11.000Z</time>
      </trkpt>
      <trkpt lat="47.17369" lon="-1.61551">
        <ele>60</ele>
        <time>2020-12-16T12:56:14.000Z</time>
      </trkpt>
      <trkpt lat="47.17361" lon="-1.61562">
        <ele>59</ele>
        <time>2020-12-16T12:56:16.000Z</time>
      </trkpt>
      <trkpt lat="47.1734" lon="-1.61582">
        <ele>63</ele>
        <time>2020-12-16T12:56:20.000Z</time>
      </trkpt>
      <trkpt lat="47.1733" lon="-1.61593">
        <ele>63</ele>
        <time>2020-12-16T12:56:22.000Z</time>
      </trkpt>
      <trkpt lat="47.17322" lon="-1.61603">
        <ele>64</ele>
        <time>2020-12-16T12:56:24.000Z</time>
      </trkpt>
      <trkpt lat="47.17314" lon="-1.61615">
        <ele>65</ele>
        <time>2020-12-16T12:56:26.000Z</time>
      </trkpt>
      <trkpt lat="47.17305" lon="-1.61628">
        <ele>66</ele>
        <time>2020-12-16T12:56:28.000Z</time>
      </trkpt>
      <trkpt lat="47.17297" lon="-1.61641">
        <ele>66</ele>
        <time>2020-12-16T12:56:30.000Z</time>
      </trkpt>
      <trkpt lat="47.1729" lon="-1.61654">
        <ele>65</ele>
        <time>2020-12-16T12:56:32.000Z</time>
      </trkpt>
      <trkpt lat="47.17277" lon="-1.61681">
        <ele>66</ele>
        <time>2020-12-16T12:56:36.000Z</time>
      </trkpt>
      <trkpt lat="47.1727" lon="-1.61694">
        <ele>66</ele>
        <time>2020-12-16T12:56:38.000Z</time>
      </trkpt>
      <trkpt lat="47.17263" lon="-1.61707">
        <ele>66</ele>
        <time>2020-12-16T12:56:40.000Z</time>
      </trkpt>
      <trkpt lat="47.17253" lon="-1.61728">
        <ele>66</ele>
        <time>2020-12-16T12:56:43.000Z</time>
      </trkpt>
      <trkpt lat="47.17246" lon="-1.61751">
        <ele>66</ele>
        <time>2020-12-16T12:56:46.000Z</time>
      </trkpt>
      <trkpt lat="47.17243" lon="-1.61769">
        <ele>66</ele>
        <time>2020-12-16T12:56:48.000Z</time>
      </trkpt>
      <trkpt lat="47.17236" lon="-1.61782">
        <ele>66</ele>
        <time>2020-12-16T12:56:50.000Z</time>
      </trkpt>
      <trkpt lat="47.17226" lon="-1.61792">
        <ele>66</ele>
        <time>2020-12-16T12:56:52.000Z</time>
      </trkpt>
      <trkpt lat="47.17206" lon="-1.6181">
        <ele>66</ele>
        <time>2020-12-16T12:56:56.000Z</time>
      </trkpt>
      <trkpt lat="47.17196" lon="-1.61818">
        <ele>66</ele>
        <time>2020-12-16T12:56:58.000Z</time>
      </trkpt>
      <trkpt lat="47.17181" lon="-1.61832">
        <ele>66</ele>
        <time>2020-12-16T12:57:01.000Z</time>
      </trkpt>
      <trkpt lat="47.17166" lon="-1.61847">
        <ele>63</ele>
        <time>2020-12-16T12:57:04.000Z</time>
      </trkpt>
      <trkpt lat="47.17156" lon="-1.61856">
        <ele>63</ele>
        <time>2020-12-16T12:57:06.000Z</time>
      </trkpt>
      <trkpt lat="47.17147" lon="-1.61865">
        <ele>64</ele>
        <time>2020-12-16T12:57:08.000Z</time>
      </trkpt>
      <trkpt lat="47.17137" lon="-1.61875">
        <ele>64</ele>
        <time>2020-12-16T12:57:10.000Z</time>
      </trkpt>
      <trkpt lat="47.17128" lon="-1.61882">
        <ele>65</ele>
        <time>2020-12-16T12:57:12.000Z</time>
      </trkpt>
      <trkpt lat="47.17119" lon="-1.61891">
        <ele>66</ele>
        <time>2020-12-16T12:57:14.000Z</time>
      </trkpt>
      <trkpt lat="47.17109" lon="-1.61901">
        <ele>66</ele>
        <time>2020-12-16T12:57:16.000Z</time>
      </trkpt>
      <trkpt lat="47.17099" lon="-1.61911">
        <ele>66</ele>
        <time>2020-12-16T12:57:18.000Z</time>
      </trkpt>
      <trkpt lat="47.1709" lon="-1.61921">
        <ele>66</ele>
        <time>2020-12-16T12:57:20.000Z</time>
      </trkpt>
      <trkpt lat="47.17081" lon="-1.6193">
        <ele>66</ele>
        <time>2020-12-16T12:57:22.000Z</time>
      </trkpt>
      <trkpt lat="47.17067" lon="-1.61946">
        <ele>65</ele>
        <time>2020-12-16T12:57:25.000Z</time>
      </trkpt>
      <trkpt lat="47.17056" lon="-1.61961">
        <ele>61</ele>
        <time>2020-12-16T12:57:28.000Z</time>
      </trkpt>
      <trkpt lat="47.17046" lon="-1.61972">
        <ele>64</ele>
        <time>2020-12-16T12:57:30.000Z</time>
      </trkpt>
      <trkpt lat="47.17037" lon="-1.61985">
        <ele>65</ele>
        <time>2020-12-16T12:57:32.000Z</time>
      </trkpt>
      <trkpt lat="47.17028" lon="-1.61998">
        <ele>65</ele>
        <time>2020-12-16T12:57:34.000Z</time>
      </trkpt>
      <trkpt lat="47.17019" lon="-1.62011">
        <ele>65</ele>
        <time>2020-12-16T12:57:36.000Z</time>
      </trkpt>
      <trkpt lat="47.17011" lon="-1.62023">
        <ele>65</ele>
        <time>2020-12-16T12:57:38.000Z</time>
      </trkpt>
      <trkpt lat="47.17003" lon="-1.62036">
        <ele>65</ele>
        <time>2020-12-16T12:57:40.000Z</time>
      </trkpt>
      <trkpt lat="47.16992" lon="-1.62059">
        <ele>64</ele>
        <time>2020-12-16T12:57:43.000Z</time>
      </trkpt>
      <trkpt lat="47.16985" lon="-1.62072">
        <ele>64</ele>
        <time>2020-12-16T12:57:45.000Z</time>
      </trkpt>
      <trkpt lat="47.16973" lon="-1.62091">
        <ele>65</ele>
        <time>2020-12-16T12:57:48.000Z</time>
      </trkpt>
      <trkpt lat="47.16965" lon="-1.62104">
        <ele>66</ele>
        <time>2020-12-16T12:57:50.000Z</time>
      </trkpt>
      <trkpt lat="47.16959" lon="-1.62118">
        <ele>64</ele>
        <time>2020-12-16T12:57:52.000Z</time>
      </trkpt>
      <trkpt lat="47.16952" lon="-1.62133">
        <ele>65</ele>
        <time>2020-12-16T12:57:54.000Z</time>
      </trkpt>
      <trkpt lat="47.16944" lon="-1.62146">
        <ele>65</ele>
        <time>2020-12-16T12:57:56.000Z</time>
      </trkpt>
      <trkpt lat="47.16938" lon="-1.6216">
        <ele>64</ele>
        <time>2020-12-16T12:57:58.000Z</time>
      </trkpt>
      <trkpt lat="47.16929" lon="-1.62185">
        <ele>66</ele>
        <time>2020-12-16T12:58:01.000Z</time>
      </trkpt>
      <trkpt lat="47.16921" lon="-1.62197">
        <ele>64</ele>
        <time>2020-12-16T12:58:03.000Z</time>
      </trkpt>
      <trkpt lat="47.16907" lon="-1.62214">
        <ele>64</ele>
        <time>2020-12-16T12:58:06.000Z</time>
      </trkpt>
      <trkpt lat="47.16898" lon="-1.62226">
        <ele>64</ele>
        <time>2020-12-16T12:58:08.000Z</time>
      </trkpt>
      <trkpt lat="47.16879" lon="-1.62249">
        <ele>65</ele>
        <time>2020-12-16T12:58:12.000Z</time>
      </trkpt>
      <trkpt lat="47.16869" lon="-1.62261">
        <ele>64</ele>
        <time>2020-12-16T12:58:14.000Z</time>
      </trkpt>
      <trkpt lat="47.16861" lon="-1.62272">
        <ele>64</ele>
        <time>2020-12-16T12:58:16.000Z</time>
      </trkpt>
      <trkpt lat="47.16853" lon="-1.62282">
        <ele>64</ele>
        <time>2020-12-16T12:58:18.000Z</time>
      </trkpt>
      <trkpt lat="47.16844" lon="-1.62293">
        <ele>64</ele>
        <time>2020-12-16T12:58:20.000Z</time>
      </trkpt>
      <trkpt lat="47.16835" lon="-1.62304">
        <ele>65</ele>
        <time>2020-12-16T12:58:22.000Z</time>
      </trkpt>
      <trkpt lat="47.16825" lon="-1.62313">
        <ele>66</ele>
        <time>2020-12-16T12:58:24.000Z</time>
      </trkpt>
      <trkpt lat="47.16815" lon="-1.62321">
        <ele>65</ele>
        <time>2020-12-16T12:58:26.000Z</time>
      </trkpt>
      <trkpt lat="47.16806" lon="-1.62328">
        <ele>65</ele>
        <time>2020-12-16T12:58:28.000Z</time>
      </trkpt>
      <trkpt lat="47.16795" lon="-1.62334">
        <ele>65</ele>
        <time>2020-12-16T12:58:30.000Z</time>
      </trkpt>
      <trkpt lat="47.16785" lon="-1.62339">
        <ele>65</ele>
        <time>2020-12-16T12:58:32.000Z</time>
      </trkpt>
      <trkpt lat="47.1677" lon="-1.62348">
        <ele>65</ele>
        <time>2020-12-16T12:58:35.000Z</time>
      </trkpt>
      <trkpt lat="47.1676" lon="-1.62356">
        <ele>66</ele>
        <time>2020-12-16T12:58:37.000Z</time>
      </trkpt>
      <trkpt lat="47.1675" lon="-1.62364">
        <ele>66</ele>
        <time>2020-12-16T12:58:39.000Z</time>
      </trkpt>
      <trkpt lat="47.16741" lon="-1.62375">
        <ele>66</ele>
        <time>2020-12-16T12:58:41.000Z</time>
      </trkpt>
      <trkpt lat="47.16735" lon="-1.6239">
        <ele>66</ele>
        <time>2020-12-16T12:58:43.000Z</time>
      </trkpt>
      <trkpt lat="47.16731" lon="-1.62405">
        <ele>66</ele>
        <time>2020-12-16T12:58:45.000Z</time>
      </trkpt>
      <trkpt lat="47.16729" lon="-1.6242">
        <ele>66</ele>
        <time>2020-12-16T12:58:47.000Z</time>
      </trkpt>
      <trkpt lat="47.16727" lon="-1.62436">
        <ele>66</ele>
        <time>2020-12-16T12:58:49.000Z</time>
      </trkpt>
      <trkpt lat="47.16724" lon="-1.62452">
        <ele>66</ele>
        <time>2020-12-16T12:58:51.000Z</time>
      </trkpt>
      <trkpt lat="47.16718" lon="-1.62479">
        <ele>63</ele>
        <time>2020-12-16T12:58:54.000Z</time>
      </trkpt>
      <trkpt lat="47.16716" lon="-1.62494">
        <ele>62</ele>
        <time>2020-12-16T12:58:56.000Z</time>
      </trkpt>
      <trkpt lat="47.16732" lon="-1.62504">
        <ele>62</ele>
        <time>2020-12-16T12:58:59.000Z</time>
      </trkpt>
      <trkpt lat="47.16743" lon="-1.62508">
        <ele>63</ele>
        <time>2020-12-16T12:59:01.000Z</time>
      </trkpt>
      <trkpt lat="47.16754" lon="-1.62513">
        <ele>63</ele>
        <time>2020-12-16T12:59:03.000Z</time>
      </trkpt>
      <trkpt lat="47.16766" lon="-1.6252">
        <ele>64</ele>
        <time>2020-12-16T12:59:05.000Z</time>
      </trkpt>
      <trkpt lat="47.16776" lon="-1.62526">
        <ele>64</ele>
        <time>2020-12-16T12:59:07.000Z</time>
      </trkpt>
      <trkpt lat="47.16786" lon="-1.62533">
        <ele>64</ele>
        <time>2020-12-16T12:59:09.000Z</time>
      </trkpt>
      <trkpt lat="47.16796" lon="-1.62539">
        <ele>65</ele>
        <time>2020-12-16T12:59:11.000Z</time>
      </trkpt>
      <trkpt lat="47.16805" lon="-1.62544">
        <ele>65</ele>
        <time>2020-12-16T12:59:13.000Z</time>
      </trkpt>
      <trkpt lat="47.16814" lon="-1.62551">
        <ele>65</ele>
        <time>2020-12-16T12:59:15.000Z</time>
      </trkpt>
      <trkpt lat="47.16822" lon="-1.62559">
        <ele>65</ele>
        <time>2020-12-16T12:59:17.000Z</time>
      </trkpt>
      <trkpt lat="47.16831" lon="-1.62571">
        <ele>66</ele>
        <time>2020-12-16T12:59:19.000Z</time>
      </trkpt>
      <trkpt lat="47.16832" lon="-1.62585">
        <ele>68</ele>
        <time>2020-12-16T12:59:21.000Z</time>
      </trkpt>
      <trkpt lat="47.16827" lon="-1.62597">
        <ele>68</ele>
        <time>2020-12-16T12:59:23.000Z</time>
      </trkpt>
      <trkpt lat="47.16819" lon="-1.62611">
        <ele>68</ele>
        <time>2020-12-16T12:59:26.000Z</time>
      </trkpt>
      <trkpt lat="47.16812" lon="-1.62624">
        <ele>67</ele>
        <time>2020-12-16T12:59:28.000Z</time>
      </trkpt>
      <trkpt lat="47.168" lon="-1.62635">
        <ele>68</ele>
        <time>2020-12-16T12:59:31.000Z</time>
      </trkpt>
      <trkpt lat="47.16794" lon="-1.62649">
        <ele>67</ele>
        <time>2020-12-16T12:59:34.000Z</time>
      </trkpt>
      <trkpt lat="47.16788" lon="-1.6266">
        <ele>67</ele>
        <time>2020-12-16T12:59:37.000Z</time>
      </trkpt>
      <trkpt lat="47.16778" lon="-1.62656">
        <ele>66</ele>
        <time>2020-12-16T12:59:41.000Z</time>
      </trkpt>
    </trkseg>
  </trk>
</gpx>